ECMWFFLT1_sfc_thetae_000.txt.gz
Theta_e
304 305 304 303 304 307 305 307 307 307 308 310 310 312 313 315 312 310 311 312 313 314 314 312 312 312 313 314 315 315 316 317 319 320 319 321 320 321 323 323 323 324 324 323 322 319 317 314 316 323 322 321 322 324 323 323 325 325 325 325 325 327 328
305 306 308 310 307 308 305 306 308 306 307 308 309 311 312 313 314 310 310 311 311 312 314 310 310 311 311 311 312 312 313 313 316 317 317 317 319 318 319 320 323 323 323 323 324 323 319 315 315 317 318 322 323 324 322 323 324 325 325 324 325 325 326
307 305 305 305 305 304 305 305 306 306 306 307 308 309 310 310 310 311 310 310 310 312 312 308 308 309 309 309 310 311 311 311 312 313 313 314 315 316 318 318 317 317 318 320 321 319 320 321 314 315 318 318 318 320 322 325 325 325 324 324 324 324 326
306 305 305 304 304 303 305 305 305 305 305 306 308 308 308 310 311 313 309 309 310 313 310 308 308 308 308 308 308 309 309 309 310 310 311 311 312 313 314 315 315 315 315 314 314 316 316 315 316 317 318 319 318 318 323 326 325 325 325 325 324 324 325
307 307 306 306 305 305 305 305 304 304 306 306 305 307 307 308 309 308 310 307 308 307 307 307 307 307 307 307 307 308 308 308 309 310 309 309 309 310 311 313 314 315 315 315 316 317 316 316 315 314 316 318 319 320 322 324 325 325 325 325 325 325 325
307 307 307 306 306 306 305 304 304 305 304 307 306 307 307 306 308 305 305 306 307 308 307 306 306 306 306 306 306 306 306 306 306 307 307 307 307 308 309 310 311 312 312 314 315 315 316 317 316 314 316 319 316 317 320 323 322 325 325 325 325 326 325
307 307 307 307 306 306 306 306 306 307 307 308 307 307 307 307 308 309 307 306 307 307 307 306 306 306 306 305 305 305 305 305 306 306 306 306 306 306 308 308 309 310 310 312 312 314 313 312 312 311 311 314 317 316 320 320 322 320 322 324 326 326 326
308 307 307 307 307 306 305 306 307 306 307 307 307 308 307 307 306 305 306 306 305 305 305 305 305 304 305 305 306 305 306 304 304 306 305 305 305 305 305 306 308 308 308 310 311 311 311 311 311 311 311 308 310 315 314 318 319 320 320 323 326 327 328
310 308 307 307 307 307 306 306 307 306 307 307 306 307 306 307 306 306 307 304 304 304 305 304 304 304 304 304 302 303 304 307 303 303 304 303 304 304 304 305 305 305 306 307 308 309 309 310 310 311 312 311 308 306 312 311 316 317 322 321 323 325 326
307 306 306 306 306 306 306 306 307 307 307 306 306 307 307 305 305 306 305 304 304 304 304 304 304 303 303 303 302 302 302 303 305 303 303 303 303 303 303 303 303 304 305 306 306 307 307 308 309 310 312 310 311 308 307 307 310 312 317 320 318 321 324
308 307 306 305 305 305 305 305 304 305 305 307 307 308 306 305 305 311 304 304 303 304 304 303 303 302 302 302 302 302 302 302 302 302 304 303 303 304 304 302 302 302 304 304 305 306 306 306 307 307 308 310 312 309 310 307 308 313 315 319 321 322 325
308 308 306 306 305 305 305 305 305 305 305 305 308 307 305 304 305 303 304 303 303 303 302 302 302 301 301 301 303 301 301 301 301 301 301 303 304 303 302 301 301 302 303 303 303 304 305 305 306 306 307 308 308 310 310 310 306 312 317 317 320 323 324
308 308 307 305 305 305 305 305 305 304 304 306 306 306 305 305 305 303 303 303 302 302 301 300 300 300 300 300 301 301 300 300 301 301 301 301 302 302 301 301 301 301 302 302 302 303 303 304 305 306 306 306 307 308 310 309 308 307 314 315 318 320 323
307 307 307 306 306 306 305 306 305 305 305 305 305 305 305 305 304 304 303 304 302 301 300 299 300 300 301 300 300 300 300 300 300 300 301 300 301 301 301 300 300 301 302 301 302 302 303 303 304 304 305 306 306 307 306 306 305 306 310 315 318 318 321
308 307 306 306 306 305 305 306 305 305 305 305 305 305 304 304 303 302 302 301 299 299 299 299 299 300 300 299 299 300 299 299 299 299 299 299 300 300 300 299 300 300 301 301 301 301 302 302 302 303 303 303 304 304 307 303 302 303 303 309 313 317 319
308 307 306 306 306 305 305 305 305 305 305 303 304 304 304 303 302 301 301 299 299 299 299 299 299 299 298 298 298 298 299 298 298 298 298 298 298 299 299 300 299 300 301 300 301 301 302 301 302 302 302 303 303 303 304 304 302 301 302 304 309 311 316
307 306 306 306 306 306 305 305 306 305 304 303 303 303 303 302 301 300 300 299 298 299 298 299 298 298 298 298 298 297 297 297 297 298 298 298 298 298 298 298 299 300 301 300 300 300 301 302 302 302 301 302 302 302 303 303 304 302 302 302 306 308 309
307 307 307 306 306 306 305 305 305 304 303 303 302 302 302 301 300 300 300 299 298 298 298 298 297 297 296 297 297 297 297 297 297 298 298 298 300 300 298 299 299 300 300 300 300 300 301 301 300 301 300 301 301 301 302 302 303 303 301 300 301 304 307
308 307 307 306 306 305 305 305 305 304 304 302 301 302 301 300 301 299 298 298 298 298 297 297 296 296 296 296 296 296 297 297 297 297 297 298 298 298 299 298 299 300 300 299 298 299 300 300 300 299 299 300 300 301 301 302 303 302 301 300 300 300 304
308 307 307 307 306 305 305 305 304 303 304 302 301 301 300 300 300 299 298 298 298 298 297 296 295 294 294 294 295 296 296 296 296 296 297 297 297 298 298 299 299 299 298 298 298 298 298 298 299 299 299 299 299 299 298 298 299 298 298 298 298 300 301
308 308 308 307 307 306 305 304 304 304 303 302 301 301 300 299 298 298 298 298 297 297 296 295 293 293 294 295 295 295 295 296 296 295 296 296 297 297 297 298 298 298 298 298 298 298 298 298 298 297 298 298 298 298 297 297 297 297 297 297 297 298 300
307 308 307 306 306 306 305 305 304 303 303 302 302 301 300 299 298 297 296 296 296 296 296 295 295 295 295 295 294 294 294 294 294 294 294 295 295 296 296 297 297 297 299 300 299 299 298 298 298 296 297 297 297 297 296 296 296 296 297 297 297 299 299
306 306 306 306 306 306 305 304 304 303 302 302 301 300 299 299 298 296 295 295 296 296 295 296 299 295 296 296 293 293 293 293 293 293 294 294 294 295 295 296 298 299 299 299 298 296 295 295 297 298 297 297 296 296 295 295 294 295 295 295 296 297 296
306 305 306 306 306 305 305 304 303 302 303 301 300 299 298 297 296 296 296 295 294 294 294 296 293 292 291 293 294 293 292 292 292 292 292 292 292 293 294 295 295 296 298 298 298 295 294 294 294 294 294 295 296 296 295 294 294 294 294 294 295 296 296
305 305 306 306 306 306 306 304 304 303 301 300 299 298 297 296 296 296 295 294 294 294 294 296 291 291 292 291 293 294 292 291 292 291 292 292 292 292 292 293 294 295 295 296 296 296 295 294 293 293 292 292 292 293 294 295 294 294 294 293 293 294 295
305 305 305 305 303 303 303 302 300 300 299 299 298 297 296 296 295 294 294 293 293 294 293 294 291 292 291 291 291 292 291 291 291 291 291 291 291 291 291 292 292 293 293 295 296 295 295 295 294 293 293 293 293 293 291 291 292 295 295 294 293 293 294
305 304 303 302 302 301 302 301 300 300 299 298 297 296 295 296 295 294 293 292 292 292 291 293 291 291 291 290 290 290 291 290 290 290 290 290 291 291 291 291 291 291 292 293 293 293 293 293 294 294 294 294 294 294 293 292 291 291 293 294 294 293 296
303 303 302 302 302 302 302 300 300 298 298 298 296 296 295 294 294 294 293 291 291 291 291 292 291 290 290 290 290 290 290 290 290 290 290 290 290 291 291 291 291 291 291 291 292 293 293 293 293 293 293 293 293 294 294 295 295 295 295 296 295 295 296
303 303 301 301 302 302 300 299 298 297 297 297 296 296 295 295 294 292 291 290 290 289 289 291 290 290 290 289 290 291 290 289 288 289 289 290 290 290 291 291 290 290 290 291 291 291 291 293 292 292 291 292 292 293 294 294 294 294 295 296 296 296 297
302 302 301 302 302 301 299 298 298 298 297 296 296 295 295 294 294 292 291 290 289 288 288 290 289 290 290 289 290 289 289 288 288 288 288 289 289 290 290 290 290 290 290 290 291 290 290 291 291 291 291 291 292 292 292 294 293 292 292 292 292 292 292
301 301 301 300 299 299 299 299 298 298 297 295 295 295 295 294 292 292 291 290 288 287 287 289 290 290 290 290 290 289 288 288 287 287 288 288 289 289 290 292 293 291 291 290 290 289 289 290 290 290 289 289 289 290 291 293 294 294 293 292 292 291 291
302 302 301 300 300 298 297 297 297 298 297 297 296 295 294 293 291 290 290 290 292 289 287 289 290 289 290 290 291 290 288 287 287 287 287 287 288 288 288 290 291 291 291 291 289 289 289 290 289 289 289 288 287 287 289 291 291 291 292 293 293 294 293
302 302 299 300 300 299 297 296 296 297 297 298 296 293 293 291 290 290 289 289 290 291 288 288 290 290 290 290 290 291 289 287 287 287 287 287 287 288 288 289 290 289 289 289 288 288 288 289 289 289 289 288 287 287 290 290 291 291 291 291 292 293 293
303 303 301 299 299 298 297 297 296 296 294 293 292 291 291 290 290 290 289 289 288 288 289 288 289 289 289 290 290 290 288 287 287 287 286 287 287 287 287 288 289 289 288 288 288 288 289 289 289 290 289 288 289 289 290 290 290 291 291 291 291 292 292
304 301 300 300 298 298 297 297 296 296 293 292 291 290 289 289 288 288 288 287 287 287 289 291 289 289 289 289 289 290 289 288 289 288 287 287 287 287 287 288 288 289 288 288 288 288 288 288 288 290 289 289 289 288 289 290 290 290 289 290 290 290 290
301 300 297 298 297 296 295 295 295 293 291 290 289 288 287 287 287 287 287 286 286 286 287 288 290 290 289 289 289 289 289 288 288 289 287 286 287 287 288 288 289 289 288 288 288 288 288 288 288 288 288 288 288 288 288 289 288 288 287 287 287 287 288
299 298 298 298 298 294 293 292 291 291 289 288 287 286 285 285 286 286 286 286 287 287 287 286 287 288 288 288 288 288 288 288 288 288 289 288 288 288 288 288 288 288 288 288 288 288 288 288 288 287 287 287 287 288 288 288 288 287 287 287 286 286 287

ECMWFFLT1_sfc_thetae_003.txt.gz
Theta_e
320 320 320 321 323 322 321 321 322 323 325 325 325 324 325 324 325 324 323 323 320 319 318 318 319 320 321 321 323 324 324 324 324 324 323 324 324 322 329 330 330 330 328 326 325 321 319 316 319 326 329 329 330 331 331 331 331 332 333 334 333 332 334
319 318 318 320 321 322 321 321 322 322 323 325 324 324 324 323 322 321 321 319 318 317 316 316 317 318 320 320 320 320 321 321 322 322 321 320 321 320 322 324 325 325 327 327 325 324 319 316 317 320 322 326 329 331 332 332 332 333 333 333 332 331 333
319 318 319 320 321 321 320 321 322 322 322 323 323 323 322 321 320 320 319 319 319 317 315 315 316 316 317 317 318 318 319 318 320 320 319 319 320 320 321 321 320 320 321 321 322 320 320 321 315 316 318 318 319 324 329 330 330 331 333 333 334 332 332
321 319 318 319 319 319 320 319 320 321 322 322 322 323 322 320 321 320 320 319 319 317 315 314 314 313 314 315 315 315 316 316 315 317 316 317 317 317 318 318 317 318 316 315 316 317 317 316 316 316 318 318 318 318 323 328 329 328 328 331 332 333 334
323 319 319 320 319 320 320 319 320 321 321 322 323 321 321 321 320 320 320 319 317 317 315 315 314 313 313 313 313 313 313 314 314 314 314 313 314 314 315 315 315 316 316 315 315 316 315 315 315 315 314 317 317 318 321 326 327 327 327 328 329 330 332
323 321 320 321 322 321 320 320 319 319 320 320 321 321 321 321 318 319 319 317 316 317 316 314 314 313 313 312 312 312 312 312 312 312 310 311 311 310 310 312 311 312 312 314 315 314 313 313 314 312 314 316 313 315 317 320 321 323 326 326 327 329 329
322 322 321 321 322 322 321 320 320 319 320 321 321 322 321 320 318 319 319 318 317 317 316 315 314 313 313 311 311 311 311 311 312 311 310 311 311 310 310 308 309 309 310 311 312 312 311 310 310 310 311 312 314 312 314 314 317 319 320 325 328 327 328
322 321 321 321 322 321 321 321 322 322 321 323 322 323 322 321 320 320 319 318 317 317 316 315 314 314 313 311 311 312 311 311 311 311 310 310 309 308 309 308 308 308 308 308 309 310 310 310 309 310 309 306 308 310 310 312 312 314 317 319 322 326 327
321 321 320 320 320 322 322 321 321 322 323 323 324 323 322 321 319 319 319 318 317 317 316 314 313 312 313 311 311 311 311 312 311 311 310 310 309 309 308 308 308 306 308 308 309 308 309 310 310 310 310 309 306 304 309 309 311 312 316 316 318 322 325
321 320 320 321 321 321 321 321 321 322 324 323 322 323 322 321 320 319 318 317 317 316 315 314 313 313 312 311 311 310 310 311 310 310 309 309 309 309 308 308 307 307 307 308 308 309 310 310 310 310 309 309 309 306 304 305 308 310 315 317 316 319 322
320 321 321 320 321 319 319 319 320 319 320 321 322 322 322 320 320 319 318 317 317 316 315 314 313 312 313 311 311 310 310 311 309 309 309 308 308 309 308 308 308 307 308 308 307 308 309 309 309 310 309 309 309 306 306 304 306 311 312 317 318 318 325
320 320 320 320 320 319 319 318 318 319 321 320 320 320 320 319 319 318 318 317 316 315 315 314 313 312 312 311 311 309 310 309 308 308 308 308 308 307 307 306 307 307 308 308 308 308 308 308 308 308 308 309 309 309 307 306 303 308 314 314 318 323 322
319 319 320 319 318 317 318 319 318 318 319 319 321 321 320 318 318 317 317 316 315 314 313 313 312 312 312 311 310 309 308 308 306 306 306 307 305 306 306 305 306 306 307 306 307 307 306 307 307 307 307 308 308 309 308 306 304 304 311 313 314 316 318
319 319 319 318 318 318 319 319 318 319 319 318 320 319 319 319 317 317 316 315 314 313 312 312 312 312 311 309 309 308 307 306 305 305 305 305 305 305 304 304 304 305 307 306 306 306 306 306 306 306 307 307 306 307 307 306 304 304 309 313 313 313 315
319 319 319 319 317 317 318 317 319 318 317 319 319 319 319 319 318 317 316 315 313 312 311 310 311 311 309 308 308 308 307 306 305 304 305 303 304 304 304 303 303 304 305 305 307 305 305 305 305 304 304 305 304 305 307 304 303 304 304 309 310 313 313
318 318 318 318 318 317 318 318 318 317 317 318 318 319 318 318 317 317 315 313 312 311 310 310 311 310 309 307 306 307 307 306 305 304 303 303 302 303 303 303 303 303 304 305 306 306 306 306 305 304 304 304 304 304 304 304 303 302 302 304 308 308 310
319 318 318 318 318 318 318 318 317 317 317 317 316 317 318 317 316 316 313 311 311 310 310 309 309 308 307 307 306 305 305 305 305 304 303 303 303 303 303 302 303 303 303 303 304 304 305 305 305 305 305 305 304 303 304 304 304 302 302 301 305 306 307
319 318 318 318 319 319 319 318 317 316 317 316 316 316 316 316 315 314 312 311 310 309 309 308 308 307 307 307 306 305 304 304 304 304 303 303 302 303 302 302 302 302 303 302 303 303 303 303 302 303 303 303 304 304 304 304 304 303 302 301 302 305 306
318 318 318 318 319 319 318 318 317 316 316 315 315 315 315 314 314 312 311 310 310 309 308 308 307 306 305 305 305 305 304 304 303 302 302 302 302 302 302 302 302 302 302 302 302 302 303 303 302 302 302 302 302 303 303 303 303 303 302 301 301 301 304
318 319 319 319 320 318 317 317 316 315 315 315 314 314 314 313 313 312 311 310 309 308 307 307 306 305 304 304 304 303 303 302 301 302 301 300 301 301 301 301 301 302 301 302 301 302 302 302 302 302 302 302 302 302 301 301 301 301 301 301 301 302 302
320 319 319 319 318 318 317 316 315 315 315 315 314 314 313 312 312 311 310 309 309 308 307 305 305 305 304 303 302 301 300 300 299 299 300 299 299 299 299 300 300 300 301 301 302 302 302 301 302 302 302 301 302 301 300 300 301 300 300 300 300 300 301
320 319 318 317 317 317 316 316 316 314 314 314 313 313 313 310 309 309 309 309 307 307 306 305 305 304 303 300 299 299 298 297 298 298 298 298 298 298 299 299 299 300 300 298 298 298 299 299 300 299 300 301 301 300 300 300 299 299 299 299 299 301 301
318 317 317 317 316 316 316 316 315 314 313 312 312 311 310 309 309 308 307 307 307 306 306 305 301 297 298 298 298 297 298 298 298 298 297 297 297 298 298 298 299 297 298 297 297 295 295 295 297 298 299 300 299 299 299 298 298 298 298 297 298 299 299
317 316 316 316 317 316 315 315 314 312 310 308 309 308 309 308 308 307 306 305 304 304 304 302 294 293 293 295 298 298 298 297 297 297 297 297 296 296 297 297 298 297 297 297 297 294 294 294 294 294 294 296 297 298 298 297 297 298 297 297 298 298 298
316 316 316 315 315 315 314 312 311 308 308 307 308 308 307 307 307 307 306 305 303 302 302 296 291 292 292 292 295 298 298 297 297 297 297 296 296 296 296 297 297 298 298 297 296 297 296 294 293 292 292 292 292 292 293 297 296 296 297 296 297 297 298
316 315 315 315 315 313 311 310 310 309 309 308 307 306 305 306 305 305 305 304 302 301 300 294 291 292 292 291 291 295 297 297 296 296 297 296 296 296 296 296 296 297 297 296 297 297 297 297 294 293 293 293 293 292 291 290 292 297 297 296 296 296 297
315 315 315 314 312 311 311 310 310 309 308 306 306 305 304 304 304 304 304 304 303 302 299 294 291 292 292 290 290 292 297 297 297 296 296 296 296 296 296 296 295 295 296 297 297 296 296 296 296 296 296 297 297 296 293 291 290 290 294 297 297 296 298
313 314 315 312 311 310 310 311 310 308 308 308 307 305 304 303 303 303 303 304 302 300 300 293 291 291 291 290 289 291 297 297 297 297 297 297 297 296 296 296 296 295 295 296 296 295 295 295 295 295 295 295 296 296 297 298 298 299 298 298 297 297 298
312 313 313 311 310 309 310 309 308 309 308 308 308 307 305 304 302 302 303 302 301 299 299 291 291 290 290 290 289 295 297 297 297 296 296 297 296 296 296 296 295 295 295 295 294 291 292 294 294 293 293 294 294 295 296 296 295 295 297 298 298 298 299
311 312 312 311 309 309 308 308 308 307 307 307 306 306 305 304 303 303 301 300 300 299 298 293 290 290 290 289 291 295 297 296 296 296 296 296 296 296 296 296 295 295 295 295 293 290 290 291 293 292 292 293 293 293 294 296 294 292 292 292 292 292 292
310 311 311 310 309 309 309 309 307 307 306 305 304 304 305 304 303 302 300 299 300 300 299 296 290 290 290 289 292 295 296 296 296 295 295 296 296 296 296 294 294 294 294 294 291 290 289 292 292 292 292 291 291 291 292 294 295 295 293 292 291 291 291
310 311 311 310 310 308 307 306 305 306 305 304 304 303 303 302 302 301 300 299 297 298 299 297 290 290 289 290 292 296 295 295 295 295 295 295 296 296 296 295 294 294 294 293 290 289 289 290 292 292 291 291 290 290 291 292 292 292 293 293 294 295 295
310 311 311 311 310 309 308 305 304 303 303 303 303 303 303 302 301 299 298 298 297 299 299 299 296 289 290 290 290 295 296 295 294 294 295 294 294 295 295 295 294 291 289 289 289 288 288 288 291 292 291 290 289 288 291 292 292 292 292 292 292 293 293
311 311 312 311 309 306 305 303 303 304 303 303 302 301 300 299 298 297 297 298 299 299 299 300 299 290 290 290 290 290 295 295 295 294 294 293 294 294 294 294 295 292 289 289 288 288 288 288 289 290 290 289 290 290 290 290 290 290 290 290 290 291 291
312 311 311 308 305 304 304 304 304 304 303 302 300 298 296 296 298 298 298 297 297 298 298 295 298 294 290 290 290 289 293 295 295 295 293 293 293 294 294 294 293 292 289 288 288 288 288 288 288 290 289 288 287 287 289 290 289 289 289 289 289 289 290
310 309 308 306 304 303 303 302 301 300 299 298 297 298 298 297 298 297 297 298 299 299 300 298 292 294 291 290 289 289 289 291 290 293 292 292 293 293 294 293 293 291 288 288 288 288 288 288 288 289 287 287 287 287 288 289 288 288 288 288 288 288 288
308 306 305 305 304 303 302 301 301 300 299 297 297 298 298 298 298 297 298 297 299 300 300 299 294 290 292 289 288 288 288 287 288 291 292 292 293 293 292 292 291 288 288 288 287 288 288 288 288 287 287 287 287 287 289 288 288 288 287 287 287 287 288

ECMWFFLT1_sfc_thetae_006.txt.gz
Theta_e
318 320 323 325 325 324 323 324 326 327 328 327 326 326 326 325 325 325 326 326 324 324 323 324 325 325 325 327 328 328 327 327 327 325 325 326 323 322 327 324 324 327 327 328 326 322 321 316 320 328 331 331 331 333 332 333 335 336 337 337 334 335 337
321 321 322 323 323 324 324 324 326 325 326 326 325 326 326 323 321 321 321 320 319 318 318 319 322 324 326 326 326 325 325 324 325 325 324 323 324 322 323 324 325 325 327 328 326 324 321 318 318 321 323 328 328 328 332 335 334 335 335 335 335 334 337
320 320 320 321 323 324 322 324 324 323 322 323 324 323 321 318 318 318 317 318 318 317 317 317 319 320 321 322 324 325 325 324 324 324 322 321 322 323 322 321 320 320 321 322 321 319 320 321 316 316 318 318 319 327 328 326 328 330 332 334 335 333 333
320 320 320 322 321 323 321 322 322 321 322 321 322 322 320 319 320 320 319 318 319 319 317 316 317 316 318 319 320 321 322 322 321 321 322 322 322 321 321 319 318 319 318 316 317 317 316 315 314 314 316 315 314 315 321 324 326 325 325 327 330 332 333
322 321 320 320 321 321 321 320 321 321 321 320 321 319 319 320 320 319 320 319 318 318 318 318 317 317 317 317 318 318 318 319 319 318 318 318 319 319 319 318 318 318 319 316 316 317 316 314 314 312 311 311 311 312 315 323 321 323 324 322 322 328 331
324 322 321 321 322 320 321 320 320 319 320 319 319 319 319 321 320 320 320 318 317 318 318 316 317 317 318 317 317 317 318 318 317 318 315 316 316 316 315 316 315 316 316 317 317 317 316 315 314 311 312 313 310 311 312 314 314 316 318 321 324 325 327
325 324 322 322 323 321 321 321 319 319 319 321 320 319 319 320 320 321 321 320 318 318 317 318 318 318 318 315 317 317 317 317 317 317 316 316 316 315 315 313 314 313 314 316 316 315 314 313 312 312 311 311 311 308 310 310 313 312 316 321 323 326 326
325 323 322 323 325 322 322 322 320 321 319 321 321 322 320 321 322 322 321 320 319 319 318 318 317 317 318 316 317 318 317 318 317 316 316 316 315 313 313 313 313 312 312 313 313 314 313 313 312 312 311 306 306 308 307 309 312 313 314 318 319 319 321
327 325 323 323 325 325 325 322 321 321 320 321 323 324 322 322 322 322 321 321 319 319 318 318 318 317 317 316 316 317 316 316 317 317 316 316 315 314 314 313 313 311 312 311 312 312 312 314 313 313 311 309 306 304 308 307 308 310 316 316 319 321 322
330 328 325 327 328 328 327 324 322 322 322 322 323 325 323 323 323 322 321 321 320 319 319 317 317 317 317 317 316 316 316 317 317 315 315 315 315 315 314 313 312 313 313 313 312 313 314 314 314 313 312 309 309 307 305 305 307 308 311 315 314 318 321
330 330 329 330 330 328 328 326 324 322 323 323 324 325 324 323 322 322 322 321 321 319 318 318 317 317 317 316 316 316 315 316 315 315 315 314 313 314 312 313 313 313 314 313 313 313 313 314 313 313 313 313 312 308 307 305 307 312 310 314 315 316 322
330 330 330 331 331 329 327 326 326 324 325 325 322 324 324 322 322 321 322 321 321 319 318 318 318 317 317 316 316 315 315 316 314 313 313 313 312 313 311 311 311 311 313 313 314 314 314 312 313 312 313 313 313 313 310 309 306 312 316 313 314 316 316
328 328 330 331 330 328 327 326 326 326 325 324 322 323 322 322 322 321 321 321 320 319 318 317 318 317 317 316 316 314 314 313 312 312 312 312 310 312 311 310 310 310 311 310 312 313 311 312 312 311 312 313 313 313 311 310 308 308 314 314 315 316 317
329 328 329 330 329 329 328 328 327 326 326 324 322 322 321 321 321 321 321 320 319 319 318 317 317 317 316 315 315 314 313 312 311 311 311 311 311 310 309 308 309 309 311 310 311 311 310 310 311 311 311 310 310 312 311 309 307 308 312 315 315 314 316
328 328 329 329 329 328 328 327 328 326 326 325 323 322 321 322 321 321 320 320 319 318 317 317 316 316 315 314 314 314 314 312 311 310 311 309 310 310 310 309 307 309 309 307 310 309 309 309 309 308 309 310 308 309 311 308 307 307 307 311 311 314 313
326 328 328 328 328 327 327 328 328 327 326 325 324 323 321 322 321 320 320 320 319 318 317 316 316 315 315 314 313 313 313 312 311 311 310 309 307 309 309 309 308 309 309 308 309 310 310 309 310 308 309 309 309 309 309 308 306 305 306 307 311 309 311
327 327 326 326 327 328 327 327 326 326 325 325 323 323 322 322 321 320 320 319 319 317 316 316 315 315 314 313 312 312 311 312 311 310 309 308 307 307 307 307 308 308 308 307 308 308 308 309 309 308 308 309 310 309 310 310 309 307 306 305 308 308 310
326 326 327 326 326 326 327 326 326 324 324 324 324 323 322 323 321 320 320 319 318 317 316 315 314 314 314 314 313 312 311 311 311 310 309 308 308 307 306 306 306 307 307 307 307 307 308 308 306 307 306 306 306 307 309 310 309 309 307 306 307 309 310
326 326 326 327 326 325 325 325 325 325 324 323 324 324 324 322 321 320 321 319 318 317 316 315 314 314 313 313 313 312 311 310 310 308 308 307 306 306 306 305 305 306 305 306 306 306 307 307 307 307 306 306 305 306 307 307 307 307 306 306 307 306 309
325 326 327 327 327 325 325 325 324 324 324 323 323 323 323 322 322 321 320 319 317 316 315 315 314 314 313 312 312 311 310 310 308 308 306 304 304 304 304 304 305 305 305 305 305 305 306 306 306 306 307 307 306 306 306 306 306 305 305 305 305 306 306
325 326 326 327 326 326 325 325 324 324 324 323 323 323 322 322 321 321 320 318 317 316 315 314 314 313 312 312 311 311 309 308 306 306 305 303 304 303 303 303 303 303 303 304 304 304 303 302 303 304 305 306 306 305 305 304 304 304 304 304 304 304 305
322 324 325 325 325 325 325 325 325 324 324 323 323 322 322 319 318 318 318 317 316 315 315 314 313 312 312 311 311 309 307 305 305 304 303 303 303 303 302 303 302 303 302 298 297 297 298 298 299 299 301 303 303 304 304 304 304 303 303 303 303 304 304
320 321 323 323 324 324 324 324 324 324 323 323 323 322 322 320 318 316 315 314 314 314 314 314 308 303 305 310 308 306 306 305 303 303 302 302 302 302 302 302 303 299 299 298 297 295 294 295 296 298 299 301 301 301 301 302 302 302 302 301 302 302 302
316 319 320 321 323 323 322 322 322 322 322 322 321 320 319 317 315 316 315 314 313 313 314 310 295 294 294 298 305 306 305 303 302 302 302 301 301 302 302 302 303 302 300 299 299 294 293 294 293 293 294 296 297 298 298 298 299 300 300 300 302 302 301
312 315 318 319 320 321 321 321 320 320 321 321 319 318 316 315 315 315 315 313 312 312 310 296 292 292 293 294 298 305 304 303 302 302 301 301 301 301 301 302 302 303 302 302 301 299 298 294 292 292 292 292 292 292 293 297 298 298 299 299 300 301 302
310 312 315 318 320 321 320 319 319 319 319 319 318 316 316 315 315 315 314 313 312 309 304 292 291 292 292 293 293 299 303 303 302 301 301 301 301 300 300 300 301 302 302 302 299 300 301 300 295 293 292 292 292 292 291 290 292 297 298 297 298 298 300
309 311 314 318 319 318 319 318 320 320 319 319 318 316 316 316 315 314 314 312 311 310 303 292 291 291 291 291 291 294 303 302 301 301 300 300 301 301 301 301 300 300 301 301 301 300 300 300 298 299 299 300 300 298 293 291 290 290 294 298 298 296 299
308 309 311 314 317 317 317 318 318 318 318 318 317 316 315 316 316 315 313 312 311 309 302 291 290 290 290 290 289 292 303 302 301 301 301 301 301 301 301 301 301 301 301 301 301 299 298 298 298 297 297 298 299 299 301 301 301 301 299 299 299 299 300
309 310 311 313 314 315 316 316 316 317 317 318 317 317 317 316 314 313 313 312 311 308 301 290 290 290 290 290 289 298 301 302 301 301 301 301 301 301 301 301 301 300 301 300 297 292 294 297 296 296 296 297 298 299 300 298 296 296 299 300 301 300 301
309 310 311 311 312 314 315 315 316 316 316 316 316 316 315 315 314 312 311 311 310 306 298 291 290 290 290 289 292 299 301 301 301 301 301 302 301 301 301 301 301 300 300 299 295 291 290 292 296 295 295 296 297 297 298 299 296 293 292 292 292 292 291
308 309 310 311 311 314 315 316 316 316 315 315 315 315 314 313 313 312 310 308 307 305 302 293 290 290 290 289 293 299 301 300 300 300 300 301 301 301 301 299 299 299 299 299 293 290 290 293 295 295 295 295 294 295 296 298 298 298 294 292 291 291 291
309 309 309 310 312 314 315 315 316 316 315 315 315 315 313 311 310 309 308 307 303 306 305 297 289 290 290 290 294 299 299 299 299 300 300 300 301 301 301 300 298 297 298 297 291 290 289 292 295 295 294 293 292 292 294 296 296 295 296 296 297 297 296
310 310 310 311 313 314 315 315 315 315 315 315 314 313 310 310 308 308 307 306 305 306 304 303 296 289 291 290 290 298 300 298 298 299 299 299 299 300 300 300 298 292 290 291 290 289 289 289 293 294 293 292 291 290 294 295 295 294 294 294 294 294 295
310 310 312 313 313 314 314 314 314 314 314 314 312 310 308 308 306 306 306 307 305 304 305 304 299 289 290 290 288 290 299 299 299 299 298 298 298 297 297 298 298 294 289 289 289 288 288 288 289 293 293 291 292 292 291 292 292 290 292 292 292 292 292
311 311 312 313 313 312 313 314 313 312 310 309 308 307 305 305 304 304 305 305 305 304 302 300 302 291 289 289 289 289 297 299 298 297 296 295 296 296 297 297 298 294 287 289 288 288 288 288 288 292 292 289 288 288 290 291 291 290 290 290 290 290 291
310 311 312 312 311 311 312 312 311 309 308 307 305 303 303 304 304 303 302 302 303 303 303 299 293 298 290 290 289 289 289 292 290 296 296 295 296 296 297 297 297 291 287 288 288 288 288 288 288 290 288 288 288 287 288 290 289 289 289 289 289 289 290
310 312 312 311 310 310 310 309 308 307 306 304 302 301 302 303 302 300 299 299 300 300 300 300 293 291 294 288 289 288 288 287 288 294 295 295 296 296 297 297 295 288 288 288 288 288 288 288 290 288 287 287 287 288 290 289 289 289 288 288 288 288 289

ECMWFFLT1_sfc_thetae_009.txt.gz
Theta_e
321 322 323 324 325 325 324 326 327 327 328 327 327 325 326 326 326 326 326 326 324 324 324 324 325 325 326 326 327 328 327 328 328 326 325 326 324 325 329 328 327 326 327 327 325 319 318 314 322 330 330 331 330 330 330 331 334 334 336 333 330 331 336
323 322 323 322 322 324 324 325 325 325 326 327 327 325 324 322 322 322 322 320 320 320 319 320 322 323 325 326 326 326 326 326 327 327 324 323 323 323 325 326 326 326 326 326 325 324 317 315 316 321 323 330 330 329 330 331 331 334 336 335 332 330 332
321 320 321 321 322 323 324 324 324 323 322 324 324 321 320 319 319 319 318 318 319 317 316 317 318 321 322 323 325 326 326 324 324 324 323 323 323 323 322 321 320 320 322 322 321 320 320 322 317 317 319 318 318 325 328 326 326 325 323 330 333 333 331
322 321 321 321 321 323 321 322 322 321 323 322 321 321 321 320 321 320 320 319 320 320 318 318 319 318 320 320 321 322 322 321 321 322 322 322 321 320 319 318 317 318 316 315 316 317 316 314 313 314 315 314 312 312 321 323 326 324 322 321 317 319 321
323 321 322 321 321 321 321 321 321 321 321 321 321 320 322 321 321 319 320 320 319 320 319 319 319 318 319 320 320 320 320 321 321 319 319 318 319 318 318 316 317 317 318 316 316 315 315 314 313 310 308 309 310 311 312 322 317 317 325 322 320 319 320
323 322 323 322 322 321 321 321 321 320 319 319 319 319 320 322 321 321 320 319 319 320 320 317 318 319 319 319 319 319 320 319 318 318 316 317 316 314 314 316 315 316 316 316 316 315 314 315 313 309 311 312 309 309 310 311 311 313 315 316 318 319 321
323 323 323 323 323 322 321 321 320 321 319 321 320 320 320 321 321 322 321 320 320 320 320 321 321 320 320 317 319 320 319 320 320 319 318 318 317 317 315 314 312 313 314 316 315 315 315 313 311 311 310 311 310 307 310 310 309 308 312 315 316 318 320
322 322 322 323 323 323 322 322 321 321 320 322 320 321 320 322 322 322 321 320 319 320 319 320 320 320 320 318 319 320 320 320 319 317 316 317 316 315 316 313 314 314 312 313 313 314 313 313 312 312 309 306 306 309 308 310 311 309 309 315 318 318 319
324 324 322 323 323 324 324 322 321 322 322 322 323 322 321 323 322 321 321 320 320 319 320 319 319 318 319 318 318 319 318 318 320 319 318 318 317 317 315 315 314 313 314 312 313 313 312 314 313 312 312 309 306 304 308 307 309 310 313 311 315 320 321
325 325 322 324 326 325 326 324 321 322 324 324 323 323 321 323 323 322 321 320 320 320 319 319 319 319 319 319 319 319 319 319 318 316 317 317 317 316 315 315 313 314 313 313 315 315 314 314 314 313 313 311 310 305 304 304 307 308 313 313 310 314 317
327 326 324 324 326 325 325 325 323 322 322 323 324 324 322 322 323 322 322 321 321 320 320 318 318 318 319 317 318 318 317 319 318 318 317 315 315 315 314 314 313 313 314 314 313 315 315 314 312 313 312 313 312 308 308 305 306 310 310 315 315 313 317
329 329 327 326 326 326 325 324 323 322 323 323 324 324 322 321 322 321 323 321 321 320 319 319 319 318 318 317 317 316 317 319 316 315 316 316 315 315 314 314 313 312 313 312 313 315 315 314 314 312 311 313 313 313 311 309 306 310 314 313 315 316 316
327 327 328 328 327 326 324 323 324 324 323 323 325 324 322 321 321 321 322 321 321 320 319 319 319 319 319 318 317 316 316 316 315 315 315 315 313 315 314 313 313 312 312 310 311 313 312 313 314 312 312 310 310 312 312 310 307 307 312 312 313 314 315
328 324 323 325 327 327 326 323 323 325 324 324 325 324 322 321 321 320 321 321 320 320 319 319 319 319 318 317 317 317 315 315 313 314 314 313 312 313 311 310 310 312 313 312 312 311 310 311 312 312 313 312 311 311 310 310 307 308 311 314 314 313 315
328 326 326 325 326 328 326 327 323 323 322 323 324 323 322 322 322 321 320 320 320 319 319 318 318 318 317 317 317 316 316 314 313 313 313 312 313 312 312 312 310 311 311 309 310 309 309 309 309 308 308 310 309 310 312 308 306 305 305 310 310 312 312
326 328 327 326 326 328 327 327 327 325 322 322 323 323 322 322 322 321 320 320 320 319 319 318 318 318 317 317 315 315 315 314 313 313 312 312 310 312 311 312 311 312 312 311 311 311 311 310 310 309 309 309 309 309 310 309 308 306 306 306 310 309 310
326 324 323 325 325 324 328 327 326 326 326 323 322 322 322 322 322 321 320 320 320 319 319 318 318 317 317 316 315 314 314 314 314 314 312 312 310 310 311 310 310 311 310 309 310 310 309 310 310 309 309 308 308 307 310 311 311 309 308 307 309 309 310
327 328 326 328 325 325 325 325 324 326 325 325 323 322 322 321 321 321 321 320 319 319 319 318 317 317 317 317 316 315 314 314 314 313 313 312 312 310 310 309 309 309 309 308 309 309 310 310 308 307 307 307 307 307 308 308 308 308 307 305 306 308 309
327 326 325 325 325 327 327 326 326 326 325 325 323 325 323 321 321 321 321 320 320 320 319 319 318 317 316 317 317 316 315 314 314 313 312 312 311 310 310 308 308 308 308 308 307 308 309 308 308 307 307 306 307 307 307 307 307 307 306 306 306 306 308
325 326 326 325 325 327 326 326 325 325 326 325 324 324 324 322 320 321 321 321 321 320 320 319 318 318 317 316 316 315 315 314 314 313 312 311 310 309 308 307 308 307 306 307 307 306 307 307 306 306 306 307 307 307 307 307 307 306 305 305 305 306 306
321 322 326 327 326 327 327 327 327 326 325 324 324 322 320 322 322 321 320 321 321 321 320 319 318 318 317 317 316 315 314 314 313 312 311 309 308 307 307 306 306 306 306 306 306 306 304 302 303 302 302 303 303 303 303 303 304 304 304 304 303 304 305
319 321 321 322 323 324 324 326 327 326 326 325 325 325 322 322 322 322 322 322 322 321 320 319 318 318 317 316 315 315 314 313 312 311 309 307 307 306 306 306 306 305 306 300 296 298 299 299 299 298 300 301 302 302 302 302 302 302 303 303 303 304 303
316 318 318 319 320 323 323 324 324 325 325 326 325 324 325 324 322 321 322 321 322 321 320 320 315 307 309 314 314 313 314 312 310 309 307 307 306 306 305 306 306 304 299 299 297 294 293 294 296 298 298 300 299 299 299 299 299 300 300 300 300 301 301
311 311 315 318 319 319 319 321 322 322 323 324 325 324 324 323 322 322 321 321 320 319 319 318 299 299 300 303 313 313 311 309 309 308 307 306 305 305 305 304 305 304 302 301 299 294 294 293 293 293 294 295 297 297 297 296 297 298 298 298 299 300 299
309 310 311 312 315 317 319 320 319 320 321 322 323 324 323 323 323 323 322 319 320 319 318 300 296 296 297 297 303 312 310 309 307 306 306 305 305 305 304 305 305 306 305 304 304 303 297 293 293 292 292 292 293 293 294 297 297 296 297 297 297 298 299
307 308 309 310 314 315 315 317 318 319 319 321 322 322 322 322 321 321 319 317 317 317 311 295 295 295 295 295 294 302 308 308 306 306 305 305 304 304 304 304 304 304 304 306 302 301 301 302 295 292 293 293 292 292 291 290 292 298 299 297 297 297 298
308 309 309 310 310 313 315 315 317 318 319 320 320 319 319 320 320 319 318 317 316 315 307 296 294 294 294 293 292 296 309 307 306 305 305 304 304 304 303 303 302 303 304 304 304 303 303 302 303 302 301 301 300 299 293 291 291 291 294 297 297 297 299
308 309 309 310 311 310 311 315 316 317 317 317 318 317 318 317 318 318 318 317 316 308 308 293 293 292 292 292 290 293 307 307 305 305 305 304 304 304 303 303 303 302 302 302 303 302 302 301 300 299 299 298 298 299 300 301 301 299 298 298 298 299 300
308 308 308 309 309 309 311 313 316 317 317 316 317 318 318 318 318 318 317 317 314 306 303 291 291 291 291 291 290 301 304 304 304 304 304 304 304 304 304 304 303 303 303 303 298 291 295 299 299 298 296 297 297 298 300 299 297 298 300 301 302 301 301
307 308 308 308 308 309 310 311 314 316 315 316 316 316 316 317 317 318 317 316 314 304 299 292 290 290 291 289 293 301 303 303 304 304 304 304 304 304 304 303 303 303 302 303 296 289 291 293 298 297 296 296 297 298 298 300 297 294 293 293 293 292 292
307 307 307 306 307 308 310 311 313 315 314 314 314 315 315 315 316 317 316 314 311 301 299 293 290 290 290 290 295 301 302 303 303 303 303 304 304 303 303 304 303 301 301 301 295 290 289 294 297 297 296 296 296 296 297 298 299 299 295 293 292 291 292
308 308 308 308 309 308 309 310 312 314 314 314 314 314 314 314 315 316 315 313 303 302 299 294 290 290 290 289 296 302 302 301 301 301 302 302 303 304 303 303 300 299 300 299 292 290 289 293 297 296 296 296 294 294 295 297 296 296 297 298 299 300 298
309 309 309 309 310 310 310 309 311 313 313 313 312 313 313 314 314 314 313 308 305 303 299 296 293 289 290 289 291 300 300 298 298 300 300 300 301 302 302 302 300 292 290 288 288 288 289 288 294 296 296 294 293 293 296 296 295 294 295 294 294 295 295
308 309 310 310 310 310 311 310 311 312 312 312 312 312 313 313 313 311 308 308 306 303 301 299 295 289 290 290 289 290 297 298 299 300 300 299 299 298 298 298 298 289 289 288 288 287 288 289 289 292 293 293 294 294 291 292 293 291 292 293 293 293 293
309 310 311 311 310 309 310 311 311 312 311 311 312 312 312 311 308 306 306 306 304 304 302 299 296 290 290 290 289 289 296 300 299 298 295 295 295 297 297 297 299 290 288 288 288 288 288 288 288 291 292 289 289 288 291 291 291 291 291 290 290 290 291
307 309 310 311 310 310 310 310 311 311 311 312 312 311 311 309 306 304 303 302 303 302 300 297 293 294 290 290 289 289 288 294 290 297 294 294 296 297 298 298 299 291 289 288 289 288 288 288 289 292 289 288 288 287 288 291 290 290 289 289 289 289 290
308 308 309 310 310 310 310 310 310 311 311 311 310 308 306 305 303 301 301 301 301 301 301 299 294 292 292 289 289 290 287 287 290 296 297 296 296 297 298 299 297 290 289 289 289 289 289 288 290 288 288 288 287 288 291 290 290 289 289 289 288 289 289

ECMWFFLT1_sfc_thetae_015.txt.gz
Theta_e
315 314 315 317 318 319 318 318 319 319 318 316 316 315 316 316 315 313 313 314 317 318 320 319 319 320 321 322 321 321 322 321 320 319 318 319 317 316 319 318 320 320 320 321 320 314 311 309 311 318 324 327 328 327 328 327 328 329 328 332 332 331 330
316 316 318 319 319 319 317 318 316 316 316 314 314 313 313 314 317 314 313 311 312 314 318 317 317 318 317 317 317 317 316 316 318 318 318 316 317 317 318 317 319 319 321 320 321 318 311 307 309 311 314 322 325 325 326 326 326 324 321 325 331 331 327
316 315 316 317 317 318 317 316 316 314 313 312 313 313 314 315 314 313 312 313 313 315 315 314 314 314 314 314 315 315 315 313 313 314 315 314 312 314 316 319 316 317 316 315 316 316 316 313 308 310 310 306 304 312 323 324 325 322 321 323 325 329 330
314 314 315 315 316 315 314 314 314 313 312 313 313 314 313 313 314 316 313 313 315 317 315 313 313 314 314 314 315 314 313 312 311 310 310 311 311 310 310 310 310 310 309 308 307 310 308 305 304 305 305 306 304 304 309 322 323 322 320 320 322 324 325
314 315 314 314 315 314 314 314 314 312 312 314 313 312 312 313 314 314 315 314 314 312 313 314 314 314 315 314 313 312 312 311 311 311 308 308 308 308 308 309 309 309 309 308 309 309 308 307 306 304 304 305 305 305 308 308 309 317 318 316 318 319 319
315 315 314 315 315 314 315 314 312 311 312 312 312 311 311 312 314 312 312 311 311 313 312 313 313 314 313 313 313 311 311 310 309 309 307 307 307 307 307 308 307 309 309 308 309 308 308 309 308 302 304 305 303 303 305 306 305 306 308 308 310 315 316
315 315 315 315 315 315 315 314 313 312 311 311 312 311 313 314 315 315 314 312 313 313 314 313 313 313 314 313 312 312 311 310 310 309 308 308 307 307 308 306 306 307 306 308 308 308 307 306 305 303 303 303 304 304 305 304 306 304 307 309 309 313 313
316 315 315 316 315 315 315 314 314 313 313 313 312 313 314 314 313 313 312 312 312 311 312 313 315 313 313 314 314 312 311 310 310 311 308 308 309 307 307 307 307 305 305 307 307 308 308 307 307 306 304 302 300 301 302 303 305 306 306 308 310 311 312
318 316 316 317 316 316 316 316 314 314 314 314 314 314 314 314 313 312 313 312 312 312 312 311 312 312 311 311 311 310 310 315 311 310 309 308 307 307 306 306 307 305 306 309 309 308 307 309 308 307 306 303 300 298 300 300 302 303 308 306 308 310 311
318 316 316 316 316 316 317 316 315 315 315 315 315 314 315 314 313 312 312 311 311 312 311 312 312 312 311 312 311 310 310 311 311 310 309 308 308 307 307 306 307 305 306 308 307 309 309 308 309 307 307 305 305 300 298 297 298 301 304 307 305 307 310
318 317 317 317 318 317 315 317 317 316 315 316 315 316 316 314 314 319 313 312 311 312 311 312 311 312 312 311 311 311 311 309 309 309 310 308 307 307 307 306 306 305 307 306 307 309 309 308 309 309 307 306 305 302 302 299 298 302 303 305 307 306 308
317 317 318 317 317 317 315 316 317 316 316 316 315 314 315 314 314 314 313 311 312 311 312 311 311 310 311 310 310 310 310 310 309 308 308 309 310 308 307 306 306 306 305 304 305 308 309 309 306 307 306 306 306 304 302 302 298 301 306 304 305 307 306
318 317 319 317 316 318 315 316 317 317 316 316 314 314 316 315 314 313 313 313 312 311 311 311 310 309 309 310 310 310 309 310 310 307 307 308 311 308 306 307 306 305 305 305 305 305 305 306 306 306 306 306 305 305 305 303 300 300 304 305 304 305 307
319 319 320 317 316 317 316 316 317 318 317 315 314 314 316 316 315 314 314 314 313 311 310 310 310 309 309 309 309 308 309 310 308 307 307 307 309 308 307 307 307 307 306 304 303 304 304 304 306 307 306 305 304 305 304 302 300 301 301 304 305 305 307
318 319 319 319 319 318 317 316 316 318 317 316 315 314 315 316 316 315 315 314 313 312 311 310 310 309 309 308 308 311 310 309 307 307 306 306 305 309 305 304 307 307 305 304 304 305 304 304 303 301 302 306 304 303 305 302 299 299 299 302 303 305 306
318 318 318 319 320 319 318 319 319 318 316 316 315 315 315 316 316 315 314 314 314 312 312 311 310 310 309 308 308 309 309 307 306 306 306 305 306 306 305 306 305 306 308 305 305 304 305 304 304 303 301 302 301 301 303 303 301 300 299 300 303 303 303
318 318 317 317 320 320 320 320 319 317 317 316 317 316 315 315 316 315 314 314 314 313 313 312 312 312 311 310 309 309 307 306 306 306 306 306 307 306 304 305 305 305 305 303 304 305 303 304 302 302 301 301 301 301 302 301 301 300 299 298 298 300 302
317 318 318 318 319 321 320 320 318 317 316 315 315 315 316 317 315 314 314 313 314 314 314 313 312 312 312 311 310 310 308 307 307 307 306 306 309 306 306 305 305 304 303 303 303 303 303 303 303 302 300 300 300 301 301 300 299 299 298 297 298 300 301
317 317 319 319 320 320 320 319 318 317 317 316 315 315 316 317 317 317 316 316 316 315 315 314 313 313 312 312 311 310 309 308 308 307 307 307 306 306 305 304 304 304 303 301 302 303 302 301 301 299 298 297 297 297 296 297 298 297 296 296 295 297 298
317 318 320 321 319 317 316 316 317 317 318 317 315 315 318 317 316 317 317 317 316 316 316 315 314 313 313 312 311 310 309 309 308 308 307 307 305 304 304 304 303 303 302 301 301 301 299 298 298 296 297 296 297 296 296 296 295 294 294 293 294 295 295
318 319 318 317 318 317 316 316 318 318 317 315 316 315 315 316 315 316 318 318 318 317 317 316 317 315 314 313 312 311 310 309 309 308 307 306 305 304 304 304 303 303 302 301 299 297 297 294 295 293 295 295 295 294 293 294 292 291 291 291 291 291 292
315 316 317 318 317 316 316 314 314 316 315 315 315 315 315 315 315 315 316 317 317 317 316 316 316 316 315 313 312 311 311 310 309 308 306 305 304 304 302 302 302 302 306 304 301 300 299 298 294 291 293 294 295 292 292 291 292 290 290 291 290 292 291
310 310 312 314 316 316 315 314 314 314 315 315 314 313 313 313 313 313 314 315 315 316 315 316 315 310 310 314 312 312 311 310 309 307 306 304 302 302 302 301 307 309 304 301 298 295 294 296 299 295 292 292 293 292 291 291 290 291 291 290 289 290 290
310 310 310 312 314 316 317 316 315 316 316 316 316 315 314 314 313 314 314 313 314 315 315 316 306 302 302 304 311 311 311 309 309 307 305 303 302 302 301 302 303 304 302 300 296 293 293 293 294 294 296 296 297 293 291 290 290 290 291 291 291 290 289
307 309 309 310 311 312 313 314 316 316 316 316 315 315 315 315 314 313 313 313 313 314 315 309 302 301 301 300 303 311 310 310 309 307 305 304 303 302 301 301 302 302 298 297 296 294 294 293 292 292 292 292 293 295 295 293 291 290 289 289 289 290 290
300 301 303 304 305 304 305 307 307 309 312 314 314 315 314 313 313 314 312 312 313 313 312 306 301 300 300 299 298 306 310 309 308 306 305 304 304 302 301 301 302 302 302 304 303 296 295 294 294 293 293 293 292 291 289 290 292 294 291 290 290 289 290
302 302 304 304 304 303 303 305 309 310 310 310 309 311 313 313 314 313 314 314 314 310 309 305 299 298 298 297 297 303 308 306 305 305 305 304 304 302 301 301 301 302 301 302 302 300 298 296 295 294 292 291 291 293 293 291 290 290 292 291 290 289 291
300 301 301 301 300 301 302 303 304 304 307 309 308 308 307 307 310 311 312 313 311 309 312 303 295 295 295 295 297 301 304 305 304 303 304 303 302 301 300 301 300 301 302 302 302 300 297 296 294 295 293 292 292 292 292 293 293 292 292 292 291 291 292
299 299 299 299 299 299 300 301 302 302 303 304 305 306 305 306 306 306 309 310 306 305 303 294 293 293 294 295 297 304 305 303 303 303 301 302 301 300 301 301 300 300 300 299 299 296 297 298 297 295 293 292 292 292 293 296 295 295 296 295 294 293 293
299 299 299 299 300 301 301 301 299 301 300 300 302 303 304 304 305 307 306 306 305 304 297 292 292 293 294 296 297 301 301 300 301 300 300 301 301 302 303 302 300 300 301 298 291 289 290 294 293 292 292 291 291 291 292 294 295 293 292 292 291 291 291
299 299 299 299 299 299 301 301 300 300 300 299 300 301 303 303 303 304 305 306 305 303 296 293 292 293 294 296 298 300 299 299 298 298 299 300 301 301 302 305 304 298 293 292 290 290 291 293 291 290 289 289 289 289 289 291 292 292 292 291 291 291 291
299 299 299 300 300 300 300 299 299 300 300 300 300 301 301 303 301 299 301 305 305 300 293 292 292 292 293 294 297 298 300 299 298 298 299 300 301 298 293 296 296 294 292 290 289 289 289 291 288 288 287 286 286 286 287 287 288 288 288 288 288 289 289
300 300 299 298 299 300 300 301 300 299 299 299 299 299 300 298 298 297 297 299 299 295 292 290 292 292 293 293 295 297 296 295 294 293 293 293 294 294 293 291 291 288 289 288 288 288 288 289 287 287 287 285 285 285 287 286 288 288 287 287 286 287 288
299 299 299 299 300 300 300 299 299 300 299 298 298 298 298 297 298 295 295 295 294 292 292 290 290 291 292 293 293 294 293 292 292 291 290 291 292 293 291 291 290 289 288 288 288 288 288 289 289 287 286 285 286 288 288 286 287 290 287 287 287 287 287
299 302 300 300 300 300 299 299 299 299 298 298 297 298 297 296 296 294 293 293 292 291 293 292 289 290 290 290 292 293 292 291 291 290 290 291 292 293 292 290 289 289 288 288 288 289 288 288 288 288 286 288 288 288 288 288 287 286 285 286 285 285 286
299 303 302 300 299 298 298 299 299 299 299 298 298 297 298 296 295 293 292 290 290 289 289 291 291 290 289 289 289 291 291 289 291 294 293 292 292 293 292 290 291 290 288 289 289 288 289 288 289 287 288 288 288 288 288 286 286 285 284 285 285 285 286
298 299 298 298 298 297 298 299 300 302 299 298 297 298 296 295 294 292 290 289 289 288 288 288 290 290 290 289 289 289 288 289 291 292 292 291 293 293 292 291 291 289 289 289 289 289 288 288 287 288 288 288 288 288 286 286 284 285 285 285 285 286 287

ECMWFFLT1_sfc_thetae_018.txt.gz
Theta_e
311 312 313 314 314 316 314 314 313 311 312 312 312 311 313 315 314 314 315 317 318 319 320 317 317 317 319 319 318 318 319 318 317 318 316 317 316 317 319 316 318 318 317 316 314 311 306 306 309 313 316 321 323 323 323 324 325 326 328 330 331 332 330
313 314 315 317 315 315 314 311 311 310 310 310 311 311 312 314 315 312 312 314 315 316 318 316 315 316 315 314 314 314 313 314 316 315 315 313 312 316 317 317 318 317 317 315 316 312 308 304 305 307 309 311 314 319 322 324 324 324 324 322 324 327 327
315 314 314 314 313 313 311 310 309 308 308 310 310 310 310 311 311 313 313 313 313 315 315 313 312 313 313 313 312 311 311 311 311 312 311 308 310 311 314 317 314 313 311 308 308 310 310 309 307 307 305 303 302 304 313 318 322 323 323 320 321 322 322
314 314 313 313 313 311 310 308 307 307 308 308 309 309 311 312 313 314 312 312 313 316 313 312 311 312 311 311 311 310 310 309 308 308 309 308 308 308 308 308 308 309 307 305 305 306 304 302 302 302 303 303 303 303 305 308 310 313 318 318 317 318 318
314 315 314 313 313 311 309 307 307 307 307 308 307 308 309 310 312 310 312 310 312 310 311 311 312 312 311 311 310 310 309 308 308 308 306 306 306 306 306 307 306 307 306 306 306 306 304 304 303 301 301 302 301 302 305 306 306 306 308 310 312 314 311
315 315 315 314 312 311 309 308 307 308 307 308 306 308 308 308 309 308 309 309 310 311 310 310 309 310 310 309 309 308 307 306 305 306 305 304 305 305 304 304 305 305 305 305 306 305 305 304 302 299 301 302 301 300 301 302 304 304 306 308 310 310 310
315 315 315 314 312 311 310 308 308 308 307 307 307 307 308 309 309 310 310 310 309 309 310 309 309 309 309 310 308 309 308 306 306 305 305 304 304 303 303 303 303 304 304 306 305 305 304 303 301 300 300 299 300 301 301 302 303 304 306 308 309 309 310
315 315 315 315 313 312 310 309 308 308 308 308 307 307 310 308 309 309 309 308 309 310 310 310 312 309 309 311 310 308 308 307 308 307 305 306 307 304 303 302 305 304 304 305 305 305 306 305 304 302 301 300 297 295 299 300 302 303 304 306 308 308 308
316 315 315 315 313 314 312 310 310 309 310 309 309 310 309 310 308 309 309 308 308 309 309 310 310 310 308 308 307 307 308 311 308 306 305 305 305 303 303 302 303 303 304 305 305 304 304 305 305 304 302 300 297 295 296 296 297 300 304 305 305 307 307
315 314 315 315 314 314 313 311 310 310 311 310 311 311 310 308 309 309 308 307 308 308 309 309 309 308 308 308 308 306 307 307 309 306 305 306 304 304 303 302 302 303 303 304 304 306 305 303 304 304 303 301 300 298 296 296 294 297 300 305 304 305 307
316 316 316 315 314 314 313 312 311 311 311 312 313 314 310 309 310 315 308 307 307 308 309 308 308 308 308 307 306 307 307 306 307 306 306 305 305 305 305 304 303 303 303 303 304 304 305 304 304 304 303 303 301 298 298 296 295 297 300 301 304 302 304
317 316 316 316 315 315 314 313 313 313 312 310 313 312 310 310 311 309 309 308 308 308 308 308 309 308 307 306 306 306 305 305 305 304 305 306 306 306 304 304 302 302 302 303 303 305 305 305 303 303 303 303 303 300 299 298 295 297 302 301 301 303 303
316 316 316 316 316 315 315 314 313 312 312 312 312 312 310 310 310 309 308 309 308 307 308 308 308 308 308 308 308 307 305 305 305 304 305 306 308 304 304 303 303 302 302 301 301 302 302 302 303 303 303 303 302 302 302 299 297 298 300 301 301 303 304
318 318 318 316 316 316 315 315 314 314 313 311 311 312 311 311 311 310 309 310 309 308 308 308 307 308 308 307 307 307 306 306 306 304 305 304 306 303 304 304 304 304 303 301 301 302 303 302 301 302 303 301 301 301 302 300 298 298 299 300 302 303 304
318 318 318 318 316 315 314 316 315 314 313 312 312 313 312 312 312 312 310 310 310 310 309 309 308 308 308 307 306 308 307 307 305 304 303 303 303 305 302 302 303 304 302 302 301 302 303 302 300 300 300 301 299 300 300 299 297 297 296 299 300 302 301
318 317 317 317 318 317 315 315 316 315 313 312 312 313 314 313 312 312 311 311 310 310 310 310 309 308 308 307 307 307 307 306 305 304 303 303 303 303 301 302 302 302 304 301 302 301 301 302 301 300 300 300 299 299 300 299 297 295 295 296 298 299 299
316 316 315 315 317 318 318 317 317 316 315 313 312 311 313 313 312 312 312 311 310 309 309 309 308 308 309 308 307 308 307 306 305 305 305 304 303 303 301 301 301 302 303 301 301 300 300 300 300 300 298 299 298 298 298 297 297 296 295 294 295 297 298
315 316 316 315 316 317 318 318 317 316 316 314 313 312 312 312 313 312 313 312 311 311 310 310 309 309 309 309 308 308 308 307 305 305 306 304 306 304 303 302 302 302 301 300 301 300 299 299 299 298 296 296 296 297 297 297 295 295 293 292 293 295 295
314 315 315 314 316 317 318 318 317 316 317 316 315 315 314 313 314 312 312 312 312 312 311 310 310 310 310 310 309 308 308 307 306 305 305 304 305 304 304 303 303 302 301 300 299 299 298 297 296 294 294 295 295 295 294 294 294 292 291 290 290 291 291
313 312 313 314 315 315 315 316 317 316 315 315 315 314 315 315 314 314 314 314 313 313 313 312 312 312 311 311 310 309 308 307 306 306 305 305 305 304 304 304 302 302 302 301 300 298 297 296 296 294 296 294 294 293 293 292 291 290 290 290 289 290 290
312 313 314 315 315 315 313 314 314 315 315 314 314 315 315 315 314 314 315 315 315 314 313 313 312 312 312 311 310 309 308 307 306 306 305 305 304 304 304 303 303 302 302 301 300 298 296 294 293 292 293 293 293 292 291 291 290 289 289 290 289 288 289
312 314 315 315 315 315 314 312 313 315 315 313 314 315 315 315 313 314 314 313 314 313 313 312 312 312 311 311 310 309 308 308 307 306 305 304 303 303 303 302 302 301 304 305 302 301 299 298 295 292 293 293 292 290 290 289 290 289 289 289 289 289 288
313 314 315 315 315 314 314 313 313 313 314 314 313 313 313 314 313 313 312 312 311 311 312 313 313 308 309 313 311 311 310 308 308 307 306 304 302 302 302 301 304 309 307 304 300 296 295 296 298 296 293 293 295 291 290 289 288 289 290 289 288 288 288
310 312 314 314 312 313 313 311 311 311 311 311 311 311 311 312 312 312 312 312 311 312 313 314 306 302 301 304 311 310 310 309 308 308 307 305 302 302 300 301 304 306 303 301 297 294 293 294 295 295 295 296 296 293 290 289 288 288 290 289 288 288 287
304 305 305 307 308 309 310 309 309 308 308 309 310 308 309 311 311 309 309 309 309 311 312 308 303 301 299 299 304 310 310 309 308 307 307 305 304 302 301 301 302 302 298 296 294 293 294 293 293 293 293 293 293 294 294 292 291 289 288 288 287 288 287
304 303 304 305 305 305 307 307 307 308 308 311 309 309 310 308 309 308 308 308 309 309 310 305 301 300 299 298 298 304 309 309 308 307 306 305 304 302 301 301 301 301 300 303 301 294 293 293 293 292 292 293 293 292 291 291 293 293 290 288 288 287 288
300 299 300 300 300 300 301 302 303 303 305 306 307 308 307 308 309 307 308 308 308 305 307 305 300 299 298 297 296 298 308 308 307 306 306 304 303 301 301 301 301 301 301 302 300 296 294 293 293 292 291 290 290 293 292 291 290 290 292 292 289 289 289
298 298 298 297 297 297 297 297 298 299 301 301 302 306 307 306 307 305 304 304 304 306 309 303 299 297 296 296 296 295 305 306 304 304 305 304 302 301 301 302 301 301 300 300 301 298 295 294 293 293 291 291 290 290 290 290 290 290 290 290 288 289 289
296 296 296 295 296 296 296 298 298 299 296 297 299 300 300 301 302 302 304 304 304 305 302 298 298 295 294 294 294 301 301 301 301 302 302 302 301 301 301 301 300 300 300 300 298 296 296 296 294 292 291 289 289 289 290 294 293 292 292 290 290 290 289
296 296 295 296 296 297 297 297 296 297 295 294 295 296 298 299 299 300 300 302 304 301 296 292 293 293 293 293 297 300 300 300 300 299 299 300 300 301 301 299 298 298 295 291 291 290 291 294 291 289 289 288 289 288 288 291 292 291 291 291 290 290 290
297 296 295 295 295 295 295 295 295 296 298 297 296 295 296 297 296 297 300 301 303 302 294 292 292 292 293 296 298 299 299 298 297 298 298 299 297 295 298 304 299 294 291 290 289 290 290 291 289 288 289 288 286 285 286 287 289 290 291 290 290 290 290
296 295 295 294 295 295 295 296 295 295 295 295 296 294 295 295 294 291 294 299 305 298 290 292 293 293 293 295 298 298 298 297 296 297 297 293 292 292 292 295 296 293 291 290 289 289 289 290 287 287 287 286 285 284 284 284 284 285 285 286 286 287 287
296 296 295 295 294 296 295 296 296 296 295 295 295 292 294 291 291 291 292 295 298 293 291 290 292 292 293 294 296 297 296 295 293 293 294 293 292 291 291 291 291 289 289 289 288 288 289 289 287 286 285 283 284 284 284 284 286 285 284 285 284 284 286
296 295 294 295 295 295 295 296 295 296 297 295 294 292 291 292 291 290 290 290 290 290 291 291 291 292 292 293 293 294 293 293 292 292 293 293 291 290 289 288 288 289 289 288 288 288 289 289 289 287 284 284 284 286 288 284 286 289 284 285 286 286 285
295 298 295 296 296 295 295 295 295 295 294 295 295 291 290 290 290 289 289 289 288 288 292 294 291 292 292 292 291 292 292 291 292 292 291 290 289 288 287 287 287 289 288 288 288 288 288 288 288 288 285 287 287 288 287 287 286 285 285 285 283 284 284
296 298 297 297 296 295 295 295 295 294 294 295 294 291 291 290 289 288 287 286 286 287 287 290 292 291 291 290 290 290 290 291 291 293 291 290 289 288 287 287 288 290 288 288 288 288 288 288 289 287 288 287 287 287 288 285 285 285 283 283 284 283 284
295 295 295 295 295 294 294 293 294 294 294 295 291 290 290 290 288 287 286 285 286 286 286 287 290 291 290 289 290 290 289 290 291 292 292 290 290 289 288 287 290 288 288 288 288 288 288 288 286 287 288 288 288 288 286 284 283 284 283 282 282 282 283

ECMWFFLT1_sfc_thetae_021.txt.gz
Theta_e
311 310 311 311 310 312 310 309 309 308 309 310 311 312 313 315 314 314 316 317 317 317 317 314 313 314 316 316 316 316 317 316 317 319 319 320 316 316 320 316 318 319 316 316 313 308 304 305 308 311 312 312 316 318 319 319 321 321 322 323 327 328 328
310 311 313 313 311 310 308 307 307 307 308 309 309 311 311 313 316 313 314 315 314 314 317 314 313 313 313 313 313 314 314 314 315 315 319 318 315 316 318 318 318 316 314 313 313 310 305 302 304 304 305 306 307 308 312 313 314 318 321 321 323 324 322
312 311 310 310 308 307 307 305 306 307 307 308 308 308 310 311 312 314 313 313 313 314 314 311 311 311 310 310 310 311 311 310 309 312 314 311 314 316 318 317 316 313 307 305 305 307 308 305 304 303 303 301 301 303 306 307 307 310 317 319 317 314 312
312 312 310 308 308 306 306 305 305 305 306 306 309 308 309 310 311 313 312 312 313 316 312 310 309 309 308 308 308 308 308 307 306 307 308 308 308 309 310 312 310 308 304 303 303 304 303 300 300 301 300 303 302 301 304 306 307 307 309 310 310 308 308
314 313 312 310 308 306 304 304 305 305 305 306 306 307 307 309 311 310 311 310 311 309 309 309 309 308 308 308 308 307 306 306 306 307 305 305 305 305 304 304 304 305 305 304 303 302 303 301 300 299 299 299 299 299 303 303 305 305 306 307 307 307 307
315 314 313 311 309 307 305 304 304 305 304 305 305 307 306 306 309 308 309 309 308 310 307 307 306 307 307 307 307 305 305 304 303 304 303 302 303 303 302 302 303 304 303 302 303 303 301 300 299 296 299 299 299 299 299 301 303 302 305 305 306 307 307
314 314 314 313 309 307 306 305 304 305 304 304 304 305 306 306 307 308 308 307 307 307 307 307 307 307 307 307 307 306 305 303 304 304 303 303 302 301 302 303 303 303 302 303 302 303 301 301 299 298 298 297 297 299 299 301 302 302 303 305 305 306 306
315 314 314 313 310 308 306 305 305 304 304 304 304 305 308 305 306 306 307 307 307 307 308 308 309 307 308 308 307 306 306 304 305 305 302 303 303 301 300 303 303 301 301 301 303 302 303 303 301 300 297 295 294 293 297 297 299 302 302 303 305 306 306
316 315 314 313 311 309 307 307 306 305 305 305 304 306 306 306 306 307 306 305 305 306 307 307 307 307 306 306 305 306 306 307 304 304 302 302 301 300 300 300 302 300 300 301 302 301 302 303 303 300 299 297 294 292 293 295 295 298 301 302 302 305 305
315 314 314 312 311 310 308 307 307 307 306 306 306 307 305 305 306 305 305 305 305 306 306 306 306 305 304 306 306 304 305 303 306 303 302 302 300 301 300 301 302 302 301 301 302 304 303 301 302 300 300 299 297 294 292 292 293 296 300 302 301 301 305
314 314 314 313 312 311 308 307 307 308 308 307 308 310 307 305 306 312 304 304 304 305 306 305 305 305 305 304 305 305 304 303 304 302 303 302 301 302 303 301 301 301 301 302 302 303 303 302 301 302 301 300 299 297 295 293 294 294 298 298 300 301 303
314 315 315 314 313 312 310 309 308 309 308 308 309 308 306 305 306 306 305 305 305 306 305 306 306 306 306 305 305 305 303 303 303 301 302 303 302 303 301 300 299 300 300 301 302 302 302 302 301 300 300 301 301 298 296 295 293 295 299 298 299 300 301
315 315 315 314 314 313 313 311 309 307 309 309 307 307 305 305 306 305 305 305 306 305 305 305 305 305 306 306 306 306 303 302 303 301 303 303 304 302 301 300 300 299 300 300 301 301 301 301 302 301 301 300 300 299 297 295 295 296 297 300 299 300 301
315 316 315 314 314 314 314 313 312 311 310 309 308 308 307 306 306 306 305 306 305 304 305 304 305 304 304 304 303 304 303 303 304 301 302 302 302 301 301 300 301 302 300 300 299 301 301 299 300 300 300 298 298 299 298 296 295 295 296 297 299 299 300
316 316 315 315 315 316 315 314 313 311 310 310 309 310 309 307 307 306 305 305 305 305 306 305 304 304 304 304 302 304 305 303 302 302 301 301 301 302 300 300 301 301 299 300 299 301 299 298 299 299 299 298 297 297 297 296 295 295 293 295 296 297 296
316 316 316 315 316 316 314 314 314 312 311 309 309 310 310 309 309 308 306 306 305 305 305 305 304 304 304 304 303 303 305 303 303 302 301 301 301 300 300 301 300 300 301 300 298 298 299 299 299 298 297 297 296 296 297 296 294 292 292 292 294 294 293
315 315 315 315 315 315 314 314 316 314 313 311 310 309 309 310 310 309 308 307 307 307 306 306 306 305 305 304 304 304 303 303 303 303 303 302 301 301 301 300 300 300 300 299 298 298 298 298 297 297 296 296 296 296 295 295 294 292 292 289 290 293 293
314 315 315 316 316 316 315 316 316 315 315 314 313 311 312 310 310 310 311 310 309 308 308 307 307 306 306 306 306 305 304 303 303 303 303 303 305 302 301 301 301 300 299 299 297 298 297 296 296 295 294 295 295 295 295 294 293 291 289 288 289 290 291
313 314 315 315 315 316 316 316 317 316 316 314 313 313 312 311 312 311 311 311 310 310 308 308 308 308 307 307 306 305 305 305 304 303 303 303 304 303 302 301 301 302 300 300 299 298 296 295 294 294 293 293 294 293 292 292 291 290 289 288 288 289 289
310 310 312 312 314 315 315 316 316 314 313 314 313 312 312 311 311 311 311 312 311 310 309 308 309 309 308 307 307 306 305 305 305 304 305 305 304 303 303 302 302 302 302 300 299 298 296 294 295 293 295 294 292 292 292 291 290 289 289 288 288 288 289
309 309 310 311 312 313 313 312 312 312 313 313 314 313 313 313 313 313 313 313 313 312 312 311 310 310 309 308 307 307 307 306 306 305 305 305 305 304 303 303 303 302 302 301 300 298 297 296 294 293 294 293 292 291 290 290 289 289 288 288 288 287 287
309 310 312 313 313 312 313 313 312 312 313 312 311 311 312 311 311 312 312 312 313 313 313 313 313 312 311 309 308 308 308 308 307 306 305 305 304 304 304 303 302 302 304 306 304 302 300 298 295 292 292 293 291 290 289 289 290 289 288 288 288 287 287
310 311 311 313 313 313 313 310 310 312 312 313 313 311 311 312 312 312 312 312 312 313 312 313 312 307 308 311 310 310 309 308 308 307 306 305 304 303 304 303 305 308 306 306 302 298 296 296 298 296 293 292 292 289 289 288 288 288 289 289 288 287 288
309 311 313 313 313 312 309 310 311 312 311 310 308 310 312 312 312 312 312 312 312 311 312 313 306 302 300 301 310 309 308 308 308 308 307 306 305 304 303 304 304 306 306 304 301 296 294 294 294 294 295 295 295 292 289 288 287 287 290 289 287 287 286
309 311 311 312 311 311 309 310 310 309 308 307 305 309 308 310 311 309 309 309 309 310 310 307 302 301 299 298 301 309 309 308 308 308 307 306 306 305 304 302 302 304 302 301 300 297 295 294 293 293 292 293 293 294 294 292 290 288 287 287 287 287 286
307 306 307 309 306 305 308 308 307 306 307 308 306 307 309 307 307 307 308 309 309 309 309 305 301 300 299 298 297 301 308 308 307 307 306 306 305 304 302 301 302 302 301 304 302 296 295 294 293 293 293 293 293 292 291 291 291 292 289 287 287 286 286
302 302 301 300 300 301 302 305 304 303 304 304 307 307 306 307 306 306 307 307 307 305 306 304 300 299 298 297 296 297 305 306 305 306 306 306 305 303 302 302 301 300 300 301 297 296 296 295 294 293 291 289 289 292 292 292 291 290 292 289 287 287 287
299 297 296 297 296 296 297 296 297 296 299 300 302 302 301 303 303 303 303 303 302 303 305 302 297 295 295 295 295 295 300 303 303 303 303 303 301 300 301 302 301 300 300 300 300 297 296 295 294 294 292 291 289 289 289 289 289 289 290 288 287 287 287
295 295 294 294 295 294 294 294 296 296 294 294 294 294 295 296 298 298 298 297 298 301 300 297 293 293 294 294 294 297 299 299 299 298 298 298 298 299 300 301 301 301 301 300 296 295 296 296 294 292 290 287 288 288 289 292 292 292 291 288 287 287 287
295 294 293 294 293 293 293 294 293 293 292 291 293 294 294 296 296 296 296 298 298 300 297 293 293 294 293 293 295 297 296 297 297 296 295 296 297 298 299 300 300 298 295 293 292 291 292 293 292 290 288 286 286 286 286 288 291 290 290 291 290 291 290
296 294 293 294 294 293 292 292 291 294 293 292 292 292 293 293 292 292 294 296 297 297 296 292 293 292 292 293 297 298 297 296 295 295 293 292 292 294 298 303 298 293 292 292 290 290 290 292 290 288 287 285 285 284 284 284 286 288 290 290 290 289 289
294 294 294 293 293 293 293 294 292 291 291 292 292 291 293 293 290 290 290 293 301 297 290 291 293 291 292 293 297 297 297 296 294 292 291 289 289 290 292 296 296 293 292 291 289 289 289 291 288 287 285 284 283 282 283 282 283 284 284 285 284 286 287
294 294 293 293 293 293 293 293 294 293 290 291 291 290 291 290 290 288 288 289 290 289 288 288 291 292 293 294 296 297 296 296 293 291 289 290 289 288 289 290 291 289 289 289 289 288 289 289 287 285 284 283 282 284 283 283 287 285 283 284 283 283 285
295 295 294 295 294 295 293 293 292 292 292 290 289 289 289 288 288 287 287 286 286 287 290 289 290 292 293 294 294 295 294 294 292 291 291 290 289 288 288 289 289 289 288 288 288 288 289 289 288 285 283 283 284 287 285 283 284 289 284 284 284 283 284
296 296 295 295 296 296 293 292 292 292 291 291 290 288 288 287 286 285 285 285 286 285 290 294 289 291 291 292 292 293 293 292 293 292 290 289 288 288 289 289 289 289 288 288 288 288 288 289 289 290 286 287 287 287 285 286 284 284 283 283 282 282 283
297 298 297 296 295 294 293 293 292 290 291 291 289 288 287 286 286 285 284 284 284 285 285 289 292 289 290 290 291 291 291 290 291 292 290 288 288 287 288 287 289 290 288 288 288 288 288 288 289 287 288 287 287 287 288 285 284 283 283 283 284 283 282
296 296 295 294 293 293 292 291 291 292 290 291 289 288 286 287 285 284 284 284 285 284 285 285 290 290 289 290 290 290 290 290 290 291 290 288 288 287 287 286 288 288 288 288 288 288 287 288 286 287 288 287 288 288 285 283 283 283 283 282 282 282 282

ECMWFFLT1_sfc_thetae_024.txt.gz
Theta_e
311 310 309 310 310 311 308 308 308 308 309 311 312 313 315 317 317 318 319 319 319 319 322 320 320 319 319 319 319 318 318 319 320 320 319 321 317 318 320 319 319 318 318 315 313 313 310 311 312 315 316 313 313 313 314 315 318 323 323 322 320 318 319
311 311 312 312 310 309 307 306 307 308 309 309 310 312 313 316 319 316 316 316 317 318 318 315 315 315 316 317 316 317 316 316 318 320 321 319 317 318 320 319 319 316 313 313 314 313 310 307 308 307 308 311 310 310 310 311 313 314 314 314 314 311 313
313 310 309 308 307 306 306 305 306 307 307 309 309 310 312 313 315 316 314 315 314 316 316 312 312 312 312 312 312 313 313 314 314 318 320 318 318 319 321 320 317 313 310 310 312 311 308 310 309 304 306 305 304 307 309 309 309 310 310 311 311 310 311
311 310 309 306 306 306 306 305 305 306 307 307 309 310 310 312 313 316 313 313 315 317 313 311 311 310 310 310 309 309 309 310 311 312 313 314 315 316 315 317 316 311 309 308 307 308 307 305 304 303 304 304 305 306 308 309 309 308 308 309 309 309 310
312 312 310 308 306 305 305 305 305 306 306 306 307 309 309 311 312 311 313 311 311 310 309 309 309 309 309 308 308 308 307 307 309 309 307 307 307 306 306 307 307 307 307 308 306 306 306 304 303 302 302 303 302 303 305 308 308 307 307 307 308 308 309
313 312 310 309 307 306 305 305 304 304 304 306 306 307 308 308 310 309 309 310 309 310 309 308 308 308 307 307 307 306 306 306 306 306 305 305 306 306 305 305 306 307 306 305 306 304 303 302 302 301 302 301 303 304 304 305 306 307 307 307 307 308 308
314 313 312 312 309 307 306 305 305 305 304 304 305 306 305 308 307 309 308 307 307 308 308 307 307 308 308 307 307 306 306 305 305 305 304 304 304 304 305 306 305 306 305 305 305 305 304 304 303 302 301 300 300 301 303 304 305 305 306 307 307 307 308
316 315 315 314 310 307 305 305 304 303 304 304 304 307 309 306 307 307 307 306 307 308 309 309 309 308 309 308 307 306 306 305 305 305 304 305 305 304 305 305 305 305 304 305 306 306 306 306 304 302 300 299 299 299 301 301 302 304 304 307 307 306 306
316 316 315 314 311 308 306 306 305 304 304 304 306 307 307 307 306 306 307 306 306 307 307 307 307 307 307 307 306 306 306 308 304 304 304 304 304 304 304 304 306 304 305 305 305 305 305 305 305 303 301 298 297 296 299 300 301 303 304 304 306 306 305
315 314 314 312 310 309 307 307 307 306 305 306 308 309 306 305 306 306 305 305 306 306 306 307 306 305 306 307 306 305 305 305 305 303 304 304 303 303 304 305 305 305 305 306 306 306 306 305 304 304 304 304 300 299 297 298 300 301 303 303 301 303 304
315 315 314 312 311 309 308 308 307 307 307 308 309 311 307 306 306 311 305 305 305 306 306 305 305 305 305 305 305 305 305 305 305 305 305 304 304 305 305 304 304 304 305 306 306 306 306 305 305 305 304 303 304 303 300 299 300 300 303 303 303 300 302
314 315 315 313 312 311 310 308 308 308 307 308 311 308 306 306 307 306 305 305 306 306 305 305 306 305 306 306 307 306 305 305 304 304 305 305 305 305 303 303 303 303 303 303 303 304 305 305 304 304 304 304 304 304 302 300 299 302 303 302 303 302 300
314 315 314 313 313 313 312 310 309 308 308 310 307 307 306 306 307 306 305 306 306 306 306 306 306 305 305 306 306 306 305 304 304 305 305 305 304 303 303 303 303 303 303 303 303 303 304 305 305 303 303 303 303 302 303 301 300 300 303 303 302 301 299
313 314 314 313 313 313 311 311 310 310 310 309 307 307 307 306 306 306 305 308 306 306 306 306 306 305 306 305 305 305 304 304 304 304 306 304 304 303 304 303 303 303 303 303 303 302 302 302 302 302 302 302 302 302 302 301 300 299 301 302 301 299 298
314 314 314 313 313 313 313 312 311 311 310 309 308 308 307 306 307 306 306 306 306 306 306 305 305 305 306 305 305 306 304 304 304 304 304 304 303 304 303 304 303 302 302 302 302 301 301 301 300 300 300 301 300 301 302 301 300 299 297 300 299 299 296
313 313 314 313 313 314 314 313 312 311 310 309 310 309 309 308 307 307 306 306 306 306 306 306 305 306 306 306 305 305 306 304 304 304 304 304 303 303 303 305 303 303 303 302 302 301 301 300 300 300 300 299 299 299 299 299 299 296 295 295 298 295 296
312 313 313 313 313 314 314 313 313 312 311 310 310 311 311 310 309 308 308 307 307 307 306 307 306 306 307 306 306 306 306 305 304 304 304 303 303 303 303 303 303 303 303 302 301 301 300 300 300 299 299 299 299 298 298 298 298 298 296 293 295 294 295
312 313 313 313 313 314 313 312 311 312 312 312 312 311 311 311 310 309 309 309 309 308 308 307 307 307 307 307 307 307 306 306 306 305 305 304 305 304 303 304 304 303 302 302 301 300 299 299 298 299 298 298 298 298 298 297 295 295 294 294 295 296 295
312 312 313 313 313 314 313 312 312 312 313 313 313 312 311 311 311 310 310 310 310 309 308 308 308 308 308 308 307 307 307 307 307 307 306 305 305 305 304 304 304 303 302 303 302 300 299 298 297 297 297 297 296 296 296 295 295 295 294 293 294 295 295
311 311 312 312 313 313 313 314 314 313 314 314 313 312 311 311 311 311 310 311 312 312 311 311 310 309 309 308 308 308 308 307 307 306 306 306 306 305 305 304 304 304 304 303 302 301 299 298 299 297 298 298 296 295 295 295 294 294 294 295 294 293 294
310 310 310 310 311 311 312 312 313 313 314 313 313 313 312 312 312 312 312 312 313 313 312 312 311 311 311 310 309 308 308 308 308 307 307 306 306 306 306 305 305 305 305 305 304 302 300 299 298 297 298 297 296 295 294 294 294 294 295 295 294 294 293
309 309 309 310 310 311 311 311 311 312 312 312 312 312 312 312 312 311 312 313 313 312 312 312 313 312 311 311 309 309 308 308 308 308 307 307 306 306 306 306 305 305 307 307 304 303 302 301 298 296 297 297 296 295 294 294 294 293 293 294 295 292 293
308 308 309 310 310 310 310 310 310 311 312 312 311 311 312 313 312 312 311 311 312 311 312 312 312 307 308 312 310 310 309 309 308 308 308 307 306 306 306 307 307 308 306 306 303 299 297 298 299 298 296 297 297 294 294 294 293 294 295 294 295 294 294
307 308 309 309 309 310 310 310 310 311 312 312 311 311 310 310 310 310 310 311 310 309 311 312 305 302 300 301 310 311 310 309 309 308 308 308 307 308 307 307 307 308 307 305 304 297 296 295 295 295 296 296 297 297 294 294 294 294 296 296 293 293 293
307 308 308 309 309 309 308 308 308 309 308 307 308 309 309 310 310 309 309 309 309 310 310 306 301 300 300 298 301 309 310 309 309 308 308 308 308 308 308 307 306 306 307 307 305 301 297 294 293 293 293 293 292 292 294 296 296 293 293 294 293 293 292
308 307 308 310 308 308 308 308 307 307 308 307 309 311 310 308 308 308 309 309 309 309 309 304 301 299 298 297 296 301 309 309 309 309 308 308 308 308 307 307 305 305 306 307 306 301 299 297 294 293 293 293 293 291 289 290 293 298 294 295 294 293 292
306 306 306 306 306 306 307 307 306 307 307 305 306 307 305 306 306 306 307 308 308 307 308 304 299 297 296 295 294 296 306 307 307 307 308 308 308 308 307 306 305 304 303 306 301 298 297 297 297 296 294 294 295 294 292 291 290 290 294 296 294 294 294
304 302 301 301 301 303 304 303 303 303 305 306 306 305 305 305 305 305 305 305 305 305 307 301 296 294 294 294 293 295 303 304 305 305 305 305 306 306 305 305 304 304 302 301 299 298 297 296 295 295 295 294 293 293 294 294 294 294 295 293 294 294 294
300 299 298 297 298 297 296 298 299 298 299 299 300 301 302 303 303 303 302 302 302 304 301 293 293 292 292 291 292 299 301 302 302 303 302 301 302 303 303 303 302 301 301 301 297 293 295 297 296 295 293 292 292 292 293 293 292 293 295 294 294 294 294
297 296 295 295 295 295 295 295 296 296 297 296 297 298 298 297 297 296 297 297 299 298 296 294 291 293 292 290 295 299 300 299 298 297 296 296 297 300 301 301 301 300 300 299 294 291 293 295 296 294 292 291 290 290 290 291 291 290 290 290 289 290 290
297 296 295 295 295 295 294 295 295 296 296 295 296 296 296 294 292 293 295 295 296 294 296 293 293 291 292 291 297 299 299 298 295 294 293 293 294 297 300 302 299 296 296 296 291 291 291 295 294 293 292 291 290 289 289 289 290 290 289 290 289 289 289
296 296 295 296 296 296 295 296 295 294 295 296 296 295 295 294 291 290 291 294 298 294 293 292 292 291 291 292 297 298 298 297 295 293 292 291 291 292 293 296 296 295 295 292 289 290 290 293 293 292 291 290 289 288 289 288 289 290 290 290 289 290 290
297 296 295 295 296 296 296 295 295 295 294 297 296 294 293 292 291 289 289 290 291 291 292 291 293 292 292 292 295 298 298 297 294 291 291 292 291 291 291 292 292 289 289 289 289 289 289 290 292 291 290 289 288 289 288 288 291 290 289 288 288 288 289
298 297 296 296 296 296 295 294 293 293 293 292 292 291 291 291 290 288 288 288 289 290 294 291 291 291 292 293 293 295 297 297 294 293 292 291 291 290 290 290 291 290 289 289 289 288 289 288 289 290 289 289 290 290 288 289 290 289 289 289 289 288 288
296 297 296 296 296 295 294 294 294 293 292 292 291 290 289 289 289 287 287 287 288 287 291 294 291 292 292 293 293 294 296 295 294 293 291 290 290 290 290 290 290 289 288 288 288 289 289 289 289 291 289 287 286 287 291 290 289 288 287 287 287 287 287
297 297 296 296 296 295 294 295 294 294 293 291 291 290 289 289 289 288 287 286 286 286 287 291 291 291 290 291 291 291 291 292 291 294 292 290 290 290 291 291 291 289 288 288 288 288 288 288 289 289 287 287 287 287 289 289 288 287 287 287 287 287 286
297 296 296 296 295 295 294 294 294 294 294 294 292 291 289 288 288 289 288 286 286 286 286 287 290 290 290 289 290 290 290 290 290 292 292 291 290 290 290 291 290 288 288 288 288 288 288 288 288 287 288 287 287 287 288 288 287 287 286 286 286 285 285

ECMWFFLT1_sfc_thetae_027.txt.gz
Theta_e
326 323 324 324 323 322 322 323 325 325 327 328 330 330 333 334 333 331 332 332 332 331 330 330 329 329 330 330 331 333 332 332 331 328 326 327 326 322 325 324 325 328 330 329 328 324 319 313 311 316 317 318 318 318 318 318 319 319 320 319 316 316 318
326 324 323 322 320 322 322 322 324 323 325 326 326 328 330 332 333 333 333 333 333 332 330 330 330 329 330 330 330 331 331 330 330 329 327 325 328 326 326 327 328 327 327 328 327 326 321 315 312 311 311 314 315 316 317 317 317 318 318 317 315 315 317
324 323 322 320 320 322 321 322 323 323 323 325 326 327 328 330 331 332 331 331 331 329 328 329 329 329 329 330 330 331 330 328 328 328 327 326 328 328 328 328 326 325 326 325 324 322 321 320 313 311 313 312 309 311 316 314 315 315 315 316 316 314 315
324 323 320 320 319 321 321 321 322 322 324 324 325 326 326 327 329 328 329 328 329 329 327 328 329 328 329 329 328 329 329 329 327 325 324 325 326 327 328 328 326 325 324 323 322 321 320 316 312 311 312 311 310 310 312 314 313 312 313 314 314 313 314
325 323 322 320 320 320 321 320 320 322 323 324 325 325 325 325 326 326 326 326 327 328 328 327 327 326 326 325 326 327 327 327 328 326 325 324 326 326 324 321 321 322 321 319 318 320 319 316 315 312 310 311 311 311 312 314 313 311 311 311 311 312 312
325 324 323 321 321 320 320 320 321 321 322 323 323 323 322 323 324 325 326 325 325 325 324 324 324 323 323 323 323 324 326 327 326 327 325 324 325 320 318 320 318 318 316 318 318 316 318 318 316 311 311 313 310 310 312 313 311 311 311 310 310 310 310
325 324 323 322 322 322 322 321 321 321 322 322 322 321 321 322 323 323 324 324 323 322 322 322 322 321 322 320 322 323 322 321 322 322 320 321 321 321 321 318 318 317 317 319 318 316 314 314 311 311 311 313 313 309 310 310 311 310 309 309 310 309 309
327 325 327 326 322 320 321 321 319 320 321 320 320 321 321 322 323 323 323 323 322 322 322 322 321 321 322 320 320 320 319 319 320 320 320 320 318 318 321 318 318 317 316 315 315 314 313 315 314 313 311 309 309 311 309 309 308 308 309 308 308 307 306
326 327 324 321 321 321 321 322 321 321 321 321 321 321 322 322 322 322 322 321 321 321 321 320 320 320 321 321 319 320 317 317 320 319 318 319 319 319 319 319 316 315 317 315 315 315 314 315 315 315 315 311 308 306 309 308 309 306 308 308 307 305 304
325 325 322 320 321 321 322 323 321 321 322 323 322 323 322 322 322 323 322 321 321 320 320 319 319 319 319 320 319 318 317 318 319 318 319 318 318 319 319 319 316 315 315 318 316 316 317 317 316 315 312 310 310 307 305 306 307 307 306 306 303 303 304
325 323 322 322 321 319 320 321 321 319 320 322 322 322 323 323 323 322 322 321 321 321 320 319 318 318 319 318 318 316 316 318 317 317 317 317 318 318 317 317 317 315 318 317 316 318 318 318 316 315 313 314 313 308 307 304 304 309 308 307 303 300 303
324 323 322 322 321 320 319 320 320 320 320 321 321 321 322 322 322 322 323 321 322 321 320 320 319 319 319 318 318 316 317 318 316 316 317 317 317 317 316 316 316 315 318 318 318 317 318 318 316 314 314 314 313 313 311 308 305 307 310 306 302 302 302
323 323 323 322 322 321 320 320 320 319 320 321 322 322 321 321 321 320 321 321 321 321 319 319 319 319 319 319 318 316 317 317 315 315 315 315 313 316 315 314 314 314 316 315 316 317 316 317 317 313 313 312 311 312 310 308 307 306 309 304 301 301 302
322 323 324 324 324 324 323 321 321 321 321 320 322 321 319 319 319 320 319 320 320 321 320 319 320 320 318 318 318 317 316 316 314 315 315 314 314 315 314 313 313 314 316 315 315 315 313 312 313 313 313 311 309 310 308 309 306 305 307 306 303 301 303
323 324 325 324 325 324 323 322 322 319 319 320 320 321 320 321 320 320 319 319 320 319 320 320 319 320 319 319 318 319 317 315 315 315 316 313 314 314 315 312 312 314 315 312 314 310 310 310 310 309 309 308 305 306 309 306 305 304 302 304 302 302 302
323 324 325 324 325 324 324 324 321 320 319 319 319 321 321 321 319 319 318 319 318 319 319 319 320 319 320 319 318 318 318 316 316 315 315 314 312 314 314 313 312 314 315 313 313 313 313 310 309 308 308 306 305 305 304 305 305 302 302 300 303 301 303
323 324 325 325 325 325 324 324 322 322 321 320 317 319 321 320 319 319 319 318 318 318 318 319 318 318 318 318 318 318 318 318 316 316 314 314 313 314 315 314 313 314 314 313 312 312 312 312 311 309 307 307 306 304 305 306 306 304 302 301 301 300 302
323 324 324 325 326 326 324 324 322 320 321 320 318 317 318 319 320 319 320 318 317 317 318 318 318 318 319 319 318 318 318 317 318 317 316 316 316 315 315 315 314 313 314 312 313 311 311 311 309 309 307 305 304 304 305 305 304 305 304 303 302 302 304
323 323 324 324 325 325 324 323 321 321 320 320 321 320 319 319 319 318 318 319 319 318 318 318 318 318 318 319 319 319 319 318 318 317 317 317 316 317 316 315 315 314 313 313 313 313 312 311 310 309 307 304 303 305 305 305 305 305 304 302 304 303 304
323 324 324 324 325 325 323 323 322 322 322 322 322 321 320 320 320 319 319 320 319 319 319 319 319 319 318 318 318 318 318 318 318 318 318 317 317 317 317 316 316 316 314 314 314 313 313 312 310 309 308 306 303 304 305 305 304 304 304 304 303 304 303
323 324 324 324 323 324 323 323 323 324 323 322 322 321 320 320 320 320 320 320 320 320 320 320 320 321 320 320 320 319 319 319 318 319 319 318 318 318 317 317 316 316 315 315 315 315 314 312 310 308 307 305 304 305 305 304 305 304 304 304 303 302 303
322 323 322 322 322 322 322 323 323 323 323 324 324 322 321 319 319 320 320 320 320 321 321 322 322 322 322 321 320 320 319 318 319 319 319 319 318 317 317 317 317 316 315 313 309 310 310 309 311 308 306 305 305 305 304 305 305 304 304 304 304 305 303
320 321 321 321 322 322 322 323 323 322 323 323 323 322 321 320 319 320 320 320 320 321 322 323 318 308 311 319 319 318 319 318 318 319 319 318 318 317 317 317 318 312 308 307 304 300 299 300 304 309 308 306 304 305 305 305 304 304 304 302 302 302 302
320 320 321 322 322 322 322 323 323 322 323 322 322 321 320 319 319 320 320 321 320 322 323 319 306 301 300 303 316 319 318 317 319 319 319 319 319 319 319 317 318 313 309 306 307 298 297 296 296 297 299 300 303 307 306 304 304 305 302 302 302 302 301
318 319 320 320 321 321 322 321 321 322 322 321 321 321 321 321 321 320 321 320 320 321 322 310 300 299 298 298 303 317 319 319 320 319 319 318 318 319 319 319 318 317 316 314 314 311 302 295 294 294 293 293 291 290 294 306 306 303 303 302 300 301 301
318 319 319 320 321 321 319 319 319 319 319 319 320 320 320 320 319 318 318 317 318 319 320 307 300 299 298 297 295 304 318 319 319 319 319 319 318 319 319 319 318 317 315 311 312 313 310 303 294 293 293 292 292 291 290 290 294 305 303 301 301 302 302
318 319 318 318 319 319 319 319 320 320 319 318 318 318 318 316 317 318 318 318 319 320 319 304 299 298 297 295 294 298 319 321 321 321 321 320 320 320 319 318 318 317 316 314 313 312 309 304 301 300 302 303 302 298 293 291 290 292 298 303 303 302 303
316 317 317 318 318 318 318 319 319 318 317 316 317 317 317 316 316 317 318 318 319 318 318 295 294 293 293 293 292 294 316 319 320 321 320 319 319 319 319 318 317 317 315 313 314 310 308 305 304 304 303 302 303 302 301 302 303 304 303 304 304 303 302
310 314 315 315 316 317 318 319 318 317 315 317 317 317 316 316 316 315 315 316 316 318 312 292 292 292 292 292 292 309 317 319 320 319 317 314 314 315 315 316 316 315 314 313 301 296 301 305 304 303 302 302 301 301 298 294 291 293 300 302 302 301 301
307 309 311 313 315 317 317 317 317 316 317 317 317 316 317 316 315 314 311 311 315 316 312 296 291 292 291 290 299 317 319 319 318 315 312 311 311 312 312 312 313 312 311 308 295 292 294 299 305 304 303 301 299 297 295 295 292 290 290 290 289 289 288
303 304 306 309 311 312 313 314 314 313 316 315 316 316 314 313 312 312 312 311 314 316 315 300 291 292 291 291 304 319 319 317 313 311 308 308 309 308 305 302 307 310 307 303 291 292 293 302 305 303 300 297 295 294 294 296 297 296 289 289 288 288 289
306 304 303 303 305 307 309 310 310 310 313 315 314 312 311 310 308 309 309 310 301 312 312 301 291 291 290 290 302 318 316 314 311 309 307 305 306 306 304 299 297 302 303 297 290 292 293 301 305 303 302 300 298 298 297 298 298 297 298 298 298 298 296
307 307 305 305 304 306 307 307 307 307 309 310 310 309 308 309 308 306 305 305 306 307 309 307 299 291 292 291 296 314 315 312 309 307 307 305 304 304 303 301 296 289 289 289 289 290 292 296 303 303 301 300 299 296 297 298 297 297 297 296 296 297 296
307 307 306 305 303 303 305 307 305 305 307 308 308 307 308 308 307 305 304 304 305 305 305 307 301 291 292 293 294 300 314 313 309 307 305 303 304 302 301 299 298 290 289 289 289 289 289 290 293 301 301 299 298 296 295 297 295 291 296 296 295 295 296
307 308 308 305 305 306 305 304 304 305 305 306 307 307 306 304 303 302 302 302 303 304 300 298 305 293 292 293 293 295 310 310 308 307 304 303 302 301 300 299 297 291 288 289 289 289 289 290 291 296 293 288 287 289 296 296 296 296 296 295 294 294 294
306 307 308 307 306 306 306 306 306 306 306 306 305 304 304 302 300 298 299 301 302 302 303 301 293 299 291 292 291 294 296 300 294 307 305 302 301 299 299 298 294 289 288 288 289 289 289 289 291 292 287 287 287 287 291 296 294 295 294 294 293 293 293
305 306 307 308 306 306 306 306 306 306 306 306 305 305 304 305 304 303 302 301 301 301 301 302 295 292 296 290 291 291 291 292 294 306 305 303 301 299 298 298 293 288 288 288 288 289 289 290 291 287 287 287 287 289 294 294 293 293 292 292 292 292 292

ECMWFFLT1_sfc_thetae_030.txt.gz
Theta_e
329 328 330 330 330 328 327 328 330 330 332 332 333 332 333 332 333 333 333 334 332 331 331 331 332 332 334 334 336 338 337 336 335 331 330 331 328 328 331 332 333 331 332 331 326 320 319 317 317 322 324 326 326 325 325 324 325 324 324 323 321 322 323
330 330 329 328 327 328 327 329 330 329 331 333 332 331 332 331 332 332 334 332 332 331 329 330 331 332 333 333 333 333 337 337 337 335 332 330 331 329 330 331 331 328 330 330 329 327 320 317 316 317 317 321 323 322 322 323 322 323 323 321 320 320 322
330 328 328 327 327 327 327 328 328 328 328 329 331 332 332 331 332 332 331 331 332 330 329 331 331 331 332 332 332 332 334 332 332 334 333 332 332 332 332 331 327 326 327 327 327 325 323 323 317 315 317 317 316 317 321 321 321 321 321 321 322 319 321
330 328 326 326 325 325 324 326 326 326 328 328 329 332 332 331 332 332 331 330 331 331 329 328 329 329 330 330 332 333 332 332 332 332 331 332 331 329 330 329 326 325 326 322 323 323 323 321 319 318 319 318 316 315 318 319 319 317 317 319 319 318 319
331 327 326 324 324 324 324 324 324 325 326 327 329 328 331 331 331 330 331 330 330 330 329 329 328 328 329 329 329 330 330 332 331 330 331 331 331 330 330 329 328 328 327 326 325 325 324 323 322 318 316 316 316 315 315 318 317 316 315 315 315 316 316
330 327 325 324 325 324 324 323 323 323 324 326 327 327 330 330 328 329 329 328 328 328 328 326 328 329 328 328 328 328 329 328 329 330 331 332 333 330 327 327 325 326 325 325 327 327 327 324 321 318 316 316 314 314 315 315 313 315 315 314 314 313 313
330 328 326 325 326 324 324 323 323 322 324 326 327 327 327 327 326 327 327 327 326 326 328 330 329 328 328 325 326 326 326 327 329 329 329 329 328 327 327 324 324 322 321 321 321 322 322 320 317 316 316 316 315 312 313 314 314 312 312 312 312 311 311
330 327 326 327 327 325 324 325 324 324 324 326 325 326 327 326 326 326 326 325 326 327 328 328 327 327 327 323 323 325 325 325 325 326 326 327 326 325 325 321 319 317 317 316 316 316 315 319 319 318 315 312 311 312 310 312 312 313 311 310 310 309 310
329 329 328 327 326 326 325 324 324 324 325 325 325 325 326 325 324 324 323 323 324 326 327 326 326 325 325 322 322 323 322 322 323 323 322 323 323 323 321 320 318 316 318 316 317 317 317 318 319 317 316 314 310 308 310 310 311 310 312 310 308 307 308
330 329 326 326 325 327 326 324 323 323 325 325 325 326 326 325 324 324 321 321 322 324 325 324 324 324 323 322 321 321 321 322 321 320 320 320 321 321 321 320 317 318 319 321 319 318 319 318 318 318 317 315 315 311 309 309 311 309 307 308 306 305 307
330 328 326 326 327 327 326 324 324 323 324 325 325 326 326 324 323 323 321 321 321 321 322 321 320 321 321 319 320 319 318 318 318 319 319 320 320 320 320 320 320 319 322 321 322 323 322 320 317 316 315 316 316 313 312 309 308 313 310 308 307 305 306
330 326 325 327 329 327 326 324 322 323 325 325 324 325 325 323 323 321 321 320 320 320 321 321 321 320 319 318 318 317 318 317 316 317 319 319 319 320 320 319 320 319 321 321 321 321 322 320 317 317 316 318 318 318 315 312 308 310 315 309 306 306 306
328 324 323 325 326 326 325 323 323 324 324 323 324 324 323 322 323 322 321 321 320 318 318 319 319 320 320 320 319 317 318 318 316 317 317 319 317 319 319 318 318 318 319 318 320 320 319 320 320 316 317 317 316 317 316 314 311 309 311 308 307 306 307
328 325 323 324 326 327 326 325 324 323 323 323 323 323 321 322 321 322 322 321 320 319 318 319 320 320 319 319 318 318 318 317 315 315 317 318 319 319 317 317 317 318 320 319 318 319 317 317 318 318 317 315 315 317 317 315 311 309 309 310 309 306 307
327 327 325 324 326 327 324 323 325 323 323 324 324 321 320 322 322 321 320 321 322 321 319 319 320 319 317 318 319 319 319 317 316 315 316 315 317 317 318 316 315 317 318 316 318 315 315 315 314 314 313 314 314 315 317 314 312 311 309 309 308 308 308
329 328 328 327 327 327 325 323 325 325 323 324 323 322 321 322 320 321 320 320 320 321 320 321 322 321 319 318 316 318 318 317 316 317 316 315 314 316 316 316 315 317 317 317 317 317 316 315 314 313 313 313 313 313 313 314 314 311 310 308 311 308 309
328 329 329 328 328 328 328 327 322 323 324 323 322 323 323 321 321 320 320 320 320 321 322 322 321 321 320 320 319 318 318 318 317 317 317 315 315 316 317 316 317 317 317 316 315 315 316 316 315 313 313 313 313 312 314 314 314 314 312 309 310 309 309
327 328 328 326 327 328 329 329 326 321 324 325 323 324 323 322 321 320 321 319 319 320 320 320 320 320 321 321 321 321 320 320 320 319 318 317 317 317 317 317 317 317 317 317 316 315 315 315 313 313 312 312 311 312 313 313 313 314 313 312 310 310 311
326 327 326 327 327 327 328 328 329 326 324 324 325 325 324 323 322 321 321 320 320 320 320 320 320 320 320 321 322 322 322 322 321 321 320 320 318 319 319 318 318 317 317 317 317 316 316 315 313 314 312 310 310 312 313 313 313 313 312 311 313 311 312
326 326 326 327 327 326 326 328 328 326 326 325 325 325 325 324 324 324 324 324 323 323 322 322 322 323 322 322 322 322 323 322 322 322 322 321 321 321 321 320 320 319 318 318 318 317 316 316 314 314 314 312 310 312 312 313 312 312 312 312 312 312 311
328 328 328 328 327 327 327 328 328 327 326 325 325 324 325 325 326 325 325 325 325 325 325 324 324 324 324 324 325 324 324 325 324 324 325 323 323 322 322 322 321 321 320 319 319 319 318 317 317 315 314 312 312 312 312 311 312 311 312 312 311 310 311
328 328 327 327 327 326 327 328 329 328 329 328 326 325 325 325 325 324 324 325 325 326 326 326 325 326 325 325 326 325 325 324 325 325 325 325 325 324 324 324 323 322 322 320 312 314 314 314 319 316 315 314 312 311 311 311 311 311 312 312 312 313 311
326 327 327 326 326 326 326 327 329 328 328 327 327 326 326 326 325 325 324 325 325 326 327 328 322 310 313 325 326 324 325 324 323 324 325 325 326 326 325 325 325 319 313 310 307 304 303 304 309 316 318 315 312 311 311 311 310 311 312 311 311 310 309
325 325 325 325 325 325 326 327 327 327 327 327 327 326 326 325 325 325 325 325 326 326 327 326 303 303 303 306 320 325 324 323 323 323 324 325 325 326 326 325 326 319 315 310 311 299 300 299 301 301 298 299 304 317 312 309 310 311 310 311 311 309 307
323 323 324 324 325 326 326 326 326 327 327 328 327 326 325 325 326 326 326 326 326 326 327 310 299 299 298 299 307 323 324 324 324 324 325 325 325 325 325 326 325 325 322 321 319 314 305 297 297 296 294 293 292 290 293 308 312 311 310 309 308 307 307
323 324 324 324 326 326 325 324 324 325 325 326 325 323 324 324 325 325 325 324 324 324 326 300 298 296 296 296 296 308 322 324 324 326 326 326 325 325 325 325 325 324 323 315 316 320 317 309 295 293 293 293 293 292 290 290 293 311 311 308 307 306 307
322 324 324 324 324 324 325 325 325 324 323 322 322 323 324 324 324 324 324 323 322 323 324 300 296 295 296 295 294 300 323 323 325 326 325 325 325 324 324 324 323 322 323 320 321 320 320 314 308 304 304 306 305 300 293 291 292 292 300 308 308 306 309
314 318 321 322 323 323 324 325 325 324 323 321 320 321 321 322 322 322 322 322 322 321 323 296 295 295 294 294 292 297 321 323 322 319 323 323 322 321 321 321 321 321 321 321 322 319 319 314 310 308 307 307 307 307 309 310 311 311 309 310 309 308 308
312 313 316 321 322 321 322 324 324 323 322 321 320 322 322 321 321 320 322 322 321 321 324 292 294 293 294 293 292 314 323 322 319 320 321 322 322 322 322 321 321 320 320 319 306 302 308 314 311 310 308 308 308 308 304 294 291 294 302 305 304 304 305
311 312 312 313 317 321 322 323 326 326 324 323 321 321 322 321 321 322 321 321 322 322 324 300 292 292 293 292 299 322 321 318 318 319 319 321 321 321 322 321 322 320 319 318 299 296 298 302 312 310 308 308 308 306 303 299 292 290 290 290 289 289 288
311 311 312 311 313 317 320 321 322 325 323 323 323 323 324 322 322 322 321 322 324 323 324 303 291 292 292 292 303 319 317 317 317 318 319 320 319 315 309 300 310 319 316 311 292 294 294 304 312 310 309 308 307 306 304 303 301 298 289 290 290 290 290
311 311 311 312 314 315 317 318 319 322 321 323 324 322 320 319 319 321 322 323 310 321 321 303 290 292 291 293 300 321 316 316 317 317 317 316 316 315 311 306 297 305 309 301 291 293 294 303 313 312 310 308 306 306 305 305 304 302 302 301 300 299 297
310 310 310 311 313 315 317 318 319 319 320 319 320 319 318 318 316 315 316 316 319 320 319 317 303 290 292 292 293 314 318 314 315 315 315 315 314 313 311 308 300 290 290 290 291 292 294 295 310 311 310 309 307 304 305 305 304 304 304 302 303 303 303
309 310 310 311 312 312 314 316 317 317 317 317 317 315 314 314 314 313 314 315 315 319 319 317 307 289 291 291 293 296 318 315 316 315 314 313 313 312 310 308 305 291 289 290 290 290 291 292 297 310 309 308 306 302 300 303 298 291 301 302 301 301 302
309 310 310 310 310 311 313 314 316 317 313 314 315 314 314 312 311 310 312 313 315 315 309 305 315 293 291 292 294 292 313 317 316 315 314 313 312 311 308 306 303 293 289 290 290 290 291 292 293 303 298 290 289 291 302 302 303 302 301 301 300 299 299
307 308 309 310 310 310 311 312 313 314 314 315 314 314 313 312 311 310 310 311 313 314 313 308 297 307 291 293 292 294 294 309 298 316 314 312 310 308 307 304 297 290 289 289 290 290 291 291 293 295 288 288 289 288 293 301 300 299 299 299 299 298 298
306 307 308 309 308 309 309 310 311 311 311 310 309 309 308 311 309 309 309 308 309 311 311 310 298 298 300 290 292 293 295 297 299 313 314 312 310 307 304 302 296 289 289 289 289 289 290 291 293 287 288 287 287 289 299 300 298 300 296 296 297 298 298

ECMWFFLT1_sfc_thetae_033.txt.gz
Theta_e
328 327 330 330 330 328 328 329 330 331 331 331 331 330 332 331 333 333 333 333 331 330 329 329 330 332 334 336 336 336 335 333 334 329 327 330 328 328 332 331 329 331 331 331 328 323 319 317 318 323 326 327 326 326 325 324 324 323 325 326 322 322 323
328 328 328 327 326 329 329 329 331 330 331 332 332 330 331 330 332 333 333 332 331 330 329 329 331 331 333 335 334 334 333 334 335 334 331 331 330 328 329 331 329 328 330 329 329 325 321 317 316 317 319 323 325 324 324 324 323 323 322 321 320 321 323
327 326 326 325 326 328 329 331 330 329 329 330 332 331 331 330 331 332 331 331 331 330 330 330 331 331 332 333 334 334 335 334 335 335 333 333 329 331 329 330 328 327 327 325 326 325 325 324 316 316 319 319 316 319 323 322 322 322 320 321 321 320 321
328 327 325 326 324 326 326 327 328 329 329 329 330 332 332 331 332 331 331 331 332 332 329 329 329 328 331 332 332 333 333 334 334 335 334 334 332 331 330 328 328 326 326 321 323 323 322 321 319 317 319 319 316 316 319 320 319 317 317 318 319 319 320
329 327 325 325 325 325 326 326 326 327 328 329 330 330 331 331 331 330 331 331 330 331 329 330 330 329 330 330 330 330 332 333 333 333 334 332 332 331 331 330 328 329 328 325 325 325 322 322 320 317 316 317 317 316 316 318 315 315 315 315 315 317 317
329 326 326 325 326 325 325 325 324 324 325 327 328 329 329 329 329 329 330 329 328 328 328 326 328 329 330 329 329 330 329 329 330 332 333 333 332 330 326 327 327 327 326 328 329 327 325 326 322 317 316 316 312 312 312 314 313 314 314 313 313 313 314
328 327 326 325 326 325 325 325 325 324 325 328 328 328 327 328 329 330 329 327 326 328 328 330 329 327 328 326 328 327 328 329 330 330 329 329 328 327 327 324 324 322 322 323 325 324 322 321 318 316 315 315 314 311 312 312 313 309 310 311 311 312 312
328 326 325 327 327 326 325 325 325 326 327 327 327 327 326 325 326 326 326 326 328 328 328 327 327 327 326 325 326 327 327 327 328 328 328 328 326 323 323 321 319 318 318 317 317 318 320 321 319 318 315 310 312 313 311 312 313 311 309 309 310 310 311
329 327 326 327 328 327 327 326 326 327 328 327 327 325 324 324 324 323 324 326 327 327 327 326 325 324 323 322 322 323 323 323 324 324 323 323 322 322 321 320 319 317 319 318 318 318 318 319 320 318 317 314 309 307 310 309 310 309 312 308 308 310 310
330 328 327 328 328 328 328 327 326 326 328 327 325 325 323 323 323 322 323 324 325 326 326 324 323 323 323 322 322 322 322 323 323 320 321 321 322 321 320 320 318 318 319 321 319 319 319 320 319 318 317 315 315 309 308 309 310 307 308 309 306 307 310
330 330 329 327 327 326 325 325 326 326 326 326 325 324 324 323 322 320 320 321 322 322 322 322 321 321 322 320 320 319 319 321 320 321 321 321 322 322 322 323 322 320 323 322 321 322 321 320 318 318 317 318 317 314 311 309 310 313 308 309 309 306 309
331 329 327 327 328 326 324 323 324 324 326 325 324 324 322 320 320 319 320 319 320 320 321 321 321 320 320 318 317 316 318 319 318 319 320 321 322 323 322 321 322 320 322 322 322 322 323 320 319 318 318 320 319 319 315 313 309 312 315 309 308 310 309
329 327 327 328 326 325 322 323 323 324 324 323 323 322 320 319 319 318 318 318 318 318 319 319 320 319 319 318 317 317 318 317 316 316 317 319 318 321 321 320 320 320 320 319 320 320 319 320 320 317 318 318 317 320 318 316 311 308 312 311 310 309 310
326 324 325 326 325 324 324 322 324 325 323 322 323 321 319 319 318 319 317 317 316 318 319 319 320 320 319 318 318 318 317 317 316 317 319 319 318 320 319 319 319 321 321 319 319 318 317 317 318 319 319 318 318 320 319 316 311 309 312 314 313 309 312
326 323 324 324 325 324 323 322 324 323 323 322 322 320 319 320 320 319 318 316 316 316 317 318 319 319 318 318 319 320 318 316 316 316 318 317 319 318 319 318 317 319 319 318 318 315 315 315 314 314 315 317 316 317 319 317 314 312 311 313 311 312 311
328 325 324 323 326 323 324 323 322 323 322 321 322 321 320 320 319 319 319 318 316 317 317 318 320 319 318 318 318 319 319 318 317 317 317 316 315 317 317 317 317 319 319 318 318 319 317 315 315 314 314 315 316 317 316 317 315 313 312 312 314 311 312
329 328 325 323 325 325 324 323 321 322 321 322 320 321 321 320 319 319 319 318 318 318 318 320 319 318 316 317 318 318 318 319 318 318 317 315 315 316 317 316 317 317 318 317 316 316 316 317 316 314 314 315 316 315 317 318 317 316 315 312 314 311 312
329 328 328 326 326 325 325 323 322 321 321 321 321 321 320 320 319 319 319 318 318 319 319 319 319 319 320 319 318 318 318 318 319 318 319 318 320 318 318 318 316 317 318 317 317 315 316 315 314 315 314 313 314 315 316 316 316 316 315 313 313 314 314
328 327 327 327 326 326 327 326 322 322 322 319 321 322 320 319 318 318 318 318 318 319 319 319 319 319 320 321 321 320 320 320 319 319 319 319 318 319 319 319 318 318 317 318 316 317 317 315 315 315 314 313 313 315 316 316 316 316 314 314 314 314 315
328 327 327 328 328 328 326 326 326 320 321 322 321 321 321 319 319 319 318 318 318 319 319 319 320 320 320 321 322 321 322 322 322 322 321 320 319 320 320 320 320 319 318 319 319 318 318 318 317 316 314 314 312 313 314 314 314 314 314 313 313 314 312
328 328 328 327 327 328 327 327 327 326 322 322 322 321 321 320 320 320 319 318 319 319 319 319 319 320 321 321 323 323 323 324 323 323 323 322 323 322 322 322 322 321 320 320 321 320 319 318 317 316 316 315 314 313 313 313 313 312 312 313 312 312 312
329 329 327 328 329 327 327 327 327 327 326 323 323 322 322 321 321 321 320 321 320 320 321 320 320 322 322 322 324 324 324 323 324 324 324 323 324 323 323 324 323 324 323 324 315 315 315 315 318 317 317 316 315 314 314 313 313 313 313 313 312 314 311
327 327 327 327 326 326 327 328 328 327 327 325 323 322 321 322 322 321 321 322 322 325 324 326 327 314 314 326 326 325 327 326 325 326 325 325 325 325 324 324 325 325 317 311 308 304 304 308 309 317 319 319 317 315 314 313 313 314 314 312 311 311 310
326 326 327 325 325 326 325 326 327 328 327 326 325 324 322 322 322 323 322 323 323 327 327 328 305 307 306 309 324 327 327 325 325 325 325 325 325 326 327 326 327 323 317 312 312 301 302 302 304 298 295 296 303 320 315 313 313 314 312 312 312 310 309
324 325 325 325 325 326 326 326 327 328 328 328 328 327 325 323 323 323 323 324 325 327 328 313 300 302 303 303 308 329 326 325 324 324 324 322 323 324 324 323 321 322 322 321 319 315 308 300 299 294 293 293 292 291 295 309 310 312 313 312 311 311 310
324 324 324 325 325 327 327 327 327 327 327 327 328 327 325 325 325 325 324 323 324 326 327 302 300 300 300 298 295 305 325 325 323 324 323 323 323 325 322 317 321 322 323 318 320 320 316 311 297 293 293 294 294 292 291 291 294 308 313 312 311 310 311
323 324 324 325 325 325 326 326 327 328 327 326 324 326 326 326 325 326 326 324 324 326 326 303 297 297 298 295 295 299 322 323 324 325 325 324 324 324 322 320 319 320 321 320 321 319 318 314 311 307 308 310 308 302 293 293 293 294 302 310 311 310 312
315 317 320 321 322 323 325 326 326 326 325 325 324 323 323 323 324 325 325 325 325 325 326 301 296 296 297 296 295 296 319 322 325 326 323 320 317 318 320 323 320 318 319 320 319 319 320 316 313 311 311 311 311 307 308 308 309 311 311 311 312 312 312
313 314 314 318 319 319 321 324 326 327 326 325 324 323 323 324 323 323 324 324 325 325 329 296 297 297 297 295 293 313 320 322 324 324 322 322 321 320 320 320 319 318 319 319 311 304 310 319 316 314 312 313 311 310 306 294 291 294 305 310 310 309 307
313 313 313 313 313 317 319 322 325 326 325 324 323 323 323 322 322 323 322 323 323 323 326 299 295 296 295 294 298 319 321 321 321 319 321 321 319 318 320 320 320 317 319 321 303 300 301 307 316 314 313 312 311 311 306 301 293 291 290 290 289 289 289
312 312 313 313 313 315 317 318 320 325 324 323 322 323 323 322 323 322 322 322 322 322 324 305 293 295 294 293 304 320 319 319 318 318 319 319 318 319 312 301 309 319 321 317 295 298 298 309 316 315 313 311 311 309 306 304 303 300 290 291 290 290 290
310 311 311 312 314 314 314 315 316 318 321 323 324 324 323 322 323 324 325 324 320 322 321 304 292 293 294 293 302 320 321 317 314 316 317 316 318 317 315 305 297 303 311 303 292 296 296 305 316 314 313 311 310 309 308 306 306 304 302 302 301 301 299
309 310 311 312 313 313 314 314 315 316 318 318 319 321 322 323 323 323 324 325 325 323 321 316 301 292 294 293 295 317 320 314 314 316 314 315 314 315 314 310 300 291 291 291 293 293 293 292 308 314 312 311 309 309 310 309 310 308 308 307 307 306 306
307 308 310 311 311 312 313 313 313 314 314 316 317 318 321 321 321 320 321 323 322 320 320 319 305 292 294 294 294 297 320 315 316 316 315 314 315 313 312 309 304 292 290 290 291 290 292 292 296 314 311 308 307 307 305 308 304 294 303 303 304 303 304
307 308 308 308 308 309 312 313 313 313 312 313 313 316 316 316 316 315 316 318 318 318 319 313 312 292 293 293 294 291 312 316 316 317 314 314 313 314 311 308 303 294 289 290 290 291 291 293 295 303 299 290 289 292 307 307 306 303 303 304 303 301 302
305 306 307 308 308 308 310 311 312 313 313 313 312 311 315 314 312 312 313 317 315 317 317 313 303 302 290 291 291 292 291 304 302 325 315 313 313 312 309 304 297 290 290 290 290 290 291 292 294 295 288 289 289 288 294 302 303 302 301 302 301 300 300
305 305 305 306 306 307 307 309 309 311 311 311 311 310 311 313 312 311 310 310 312 312 314 315 302 298 296 290 293 294 295 292 295 315 315 314 313 309 306 302 295 289 290 290 289 290 290 292 294 288 288 288 288 290 300 303 300 302 299 298 298 299 300

ECMWFFLT1_sfc_thetae_036.txt.gz
Theta_e
334 330 334 334 332 331 333 332 335 337 335 335 335 329 332 335 335 337 337 337 334 331 331 333 337 334 336 337 336 336 335 333 332 328 325 328 324 323 328 327 328 330 330 329 324 319 316 313 316 324 325 326 326 325 326 324 323 323 323 321 320 319 319
329 332 330 328 330 332 333 334 333 331 334 337 334 337 333 332 337 336 336 336 338 331 328 330 335 333 333 335 335 334 333 332 332 330 327 324 324 323 324 323 327 328 328 328 326 323 318 315 314 316 317 321 321 321 321 321 322 322 320 319 318 319 318
330 330 329 329 330 334 333 335 334 334 332 335 338 336 334 333 332 333 333 334 332 330 330 330 331 333 334 334 334 335 334 331 334 333 330 330 328 328 327 327 324 324 324 324 324 323 322 322 315 314 315 314 312 317 321 318 318 317 316 317 317 317 317
330 330 327 327 330 332 333 333 333 333 332 333 335 335 334 333 334 332 331 331 332 334 330 332 331 329 333 333 333 333 332 332 330 330 331 330 329 328 326 326 326 324 320 320 320 322 321 320 316 315 315 315 314 315 319 318 313 313 314 316 316 316 316
331 329 327 327 328 328 330 331 334 333 332 331 334 334 335 335 335 334 334 333 332 334 334 334 330 330 331 331 331 332 331 332 332 332 331 329 329 328 328 325 325 326 326 323 323 325 322 320 318 314 314 314 313 310 313 315 311 311 311 311 312 314 315
332 329 329 329 329 329 330 331 330 331 329 329 331 330 332 333 333 333 333 330 329 331 330 329 329 330 330 330 330 329 330 329 330 330 329 329 329 326 325 328 326 326 325 326 325 325 327 324 321 313 314 314 308 307 307 309 307 308 308 307 308 310 312
332 330 331 328 331 330 332 332 330 330 329 330 329 329 331 332 331 327 327 326 329 330 330 330 330 330 329 326 328 328 328 329 330 329 327 328 328 328 328 325 323 323 325 327 326 325 322 323 317 316 310 309 308 306 307 306 305 303 304 306 307 308 309
331 331 331 333 332 331 333 329 334 332 330 329 328 327 327 327 329 329 329 330 328 328 329 329 327 325 326 325 326 328 328 328 328 327 326 324 322 321 321 319 319 320 322 323 324 325 323 322 321 315 310 307 308 307 305 306 305 303 302 304 307 308 310
329 330 331 332 335 337 334 334 332 332 329 328 326 326 327 327 325 325 327 327 328 329 329 328 325 323 325 324 324 325 322 325 325 323 321 323 322 322 319 319 318 317 318 320 319 319 319 321 317 322 314 311 307 304 306 304 304 303 305 302 305 307 308
329 330 329 332 331 335 336 335 332 331 329 326 325 326 325 326 327 326 325 326 327 326 323 323 324 324 324 324 324 322 319 320 321 320 321 320 321 321 320 319 319 319 319 320 319 319 320 320 321 318 320 316 317 305 303 302 303 302 303 304 301 304 307
330 332 330 330 331 331 332 332 331 328 327 326 324 325 326 324 324 325 324 324 324 325 327 325 321 323 323 322 321 320 321 322 322 322 322 322 323 323 321 319 319 319 319 317 320 319 319 318 318 319 316 316 314 313 308 305 304 307 305 305 305 302 305
331 330 329 329 329 328 328 330 330 329 327 326 324 325 323 322 322 322 322 321 323 321 323 324 324 321 320 318 319 319 321 320 319 319 321 322 323 323 320 319 320 320 322 322 321 320 319 323 317 315 317 316 319 316 312 309 304 308 310 305 306 306 306
329 327 327 328 328 326 326 326 327 327 327 325 324 324 322 321 320 320 320 319 320 319 320 322 320 320 320 320 321 318 317 316 316 316 318 320 320 322 319 319 320 320 319 318 318 319 317 317 319 316 317 317 316 315 311 308 305 305 311 309 308 306 308
328 327 327 329 327 327 327 326 328 327 325 326 324 323 321 319 318 319 317 317 317 320 320 321 322 321 321 319 319 319 318 317 316 317 317 318 319 319 318 317 317 318 320 318 316 317 315 315 316 317 317 316 316 317 312 309 305 306 309 316 314 308 311
327 326 327 327 327 327 326 327 329 326 326 324 324 321 319 322 320 318 316 316 317 317 318 319 322 322 318 320 320 322 321 318 316 317 320 317 317 320 320 316 317 319 321 318 319 312 312 314 312 313 315 316 313 315 315 311 308 306 305 310 310 308 310
326 326 326 326 325 324 326 327 326 327 326 324 326 324 321 323 320 319 317 317 315 316 317 319 321 319 320 320 319 321 320 318 319 319 317 316 315 318 317 317 317 318 321 319 318 315 315 312 312 312 312 314 313 313 314 315 313 309 307 309 313 307 309
324 324 325 325 326 326 325 325 325 326 324 322 323 326 321 321 322 321 319 316 316 317 318 320 319 317 318 319 320 319 318 319 320 319 318 314 315 317 316 316 316 317 317 315 316 315 316 316 314 312 312 314 314 314 315 316 314 313 312 308 314 307 311
325 324 325 325 326 325 326 323 322 321 325 323 322 326 319 323 321 320 322 317 316 317 318 318 317 318 320 320 321 321 318 319 320 320 319 319 319 317 317 317 316 317 317 316 315 314 316 314 313 313 312 312 312 314 316 314 314 313 313 311 312 312 313
329 327 326 325 327 327 324 325 324 324 323 321 324 326 320 322 319 317 318 317 317 317 317 319 318 316 317 321 320 320 321 319 320 319 319 320 317 320 318 318 318 317 317 317 316 317 315 314 316 312 312 310 311 314 315 313 313 312 311 311 311 309 310
326 327 328 328 331 329 325 331 323 324 325 323 325 325 320 322 322 322 316 320 318 319 318 319 320 320 319 319 319 319 322 320 321 321 319 320 318 320 319 319 319 319 318 319 318 318 315 316 317 314 314 312 311 312 312 313 312 312 312 311 310 312 310
328 328 329 331 328 329 330 330 328 327 326 326 322 321 322 321 321 323 320 320 320 320 320 319 320 322 320 321 323 321 322 321 320 321 321 320 320 319 321 321 320 320 319 320 320 318 318 317 316 315 315 313 312 312 311 312 310 310 309 310 308 308 310
328 328 327 328 327 328 327 327 327 324 325 328 325 322 324 323 320 318 321 321 322 320 323 320 322 321 322 320 323 323 323 322 322 321 322 321 322 321 320 321 321 320 321 321 313 315 316 315 317 314 314 313 313 312 311 310 311 310 310 310 310 311 309
327 328 327 327 327 326 324 324 324 323 323 324 326 323 325 324 321 320 320 322 323 324 324 324 321 313 315 324 321 321 324 324 322 322 321 321 322 322 324 323 319 321 313 311 306 302 299 301 305 309 311 314 313 313 311 311 310 310 311 309 309 307 307
327 326 327 327 326 325 324 324 323 323 324 325 325 326 324 321 321 319 318 321 324 325 327 326 305 305 306 309 322 324 323 324 325 324 324 323 323 325 322 319 318 319 318 315 311 299 297 295 295 295 295 297 303 310 313 311 310 311 310 309 308 306 305
325 325 325 324 325 324 323 323 324 325 326 326 325 326 323 323 323 322 321 320 322 324 322 305 300 304 305 303 302 320 325 325 325 324 324 323 322 320 319 316 316 317 318 320 318 314 304 296 295 294 294 293 292 293 297 307 309 307 308 308 308 307 305
322 324 324 324 325 324 324 325 323 322 322 323 323 324 323 324 325 326 325 322 322 323 320 310 304 301 303 303 296 307 324 325 324 323 323 322 319 318 315 315 316 318 319 318 319 317 314 306 297 295 294 294 294 293 292 293 296 306 308 308 307 307 306
321 324 325 325 323 321 321 320 323 323 321 321 321 322 324 324 325 325 324 324 322 323 318 310 303 300 300 299 296 302 320 323 323 324 322 319 320 317 318 315 313 317 320 319 319 318 316 311 305 303 303 305 303 296 292 292 294 295 301 308 307 306 308
313 319 325 325 324 322 321 320 321 320 319 321 322 321 322 322 323 323 323 324 323 323 319 305 302 299 297 297 296 299 316 319 319 321 316 314 314 317 318 316 317 318 319 318 318 317 317 313 308 307 306 308 308 305 306 305 306 308 309 310 308 309 307
314 313 314 316 320 322 324 323 323 325 324 324 324 325 323 323 323 323 324 324 323 322 319 302 300 298 297 296 297 309 315 317 317 318 321 318 318 318 318 319 318 318 319 318 311 304 309 314 310 308 308 309 309 304 297 293 291 294 300 302 303 303 299
311 312 313 313 314 318 321 322 323 324 322 321 322 322 322 322 322 322 322 322 322 322 320 305 296 296 296 295 299 313 316 316 316 317 319 319 320 320 319 320 318 317 318 318 308 300 299 305 311 309 309 309 308 304 300 298 293 291 291 291 291 291 290
308 310 310 311 312 314 314 315 318 324 321 321 321 321 322 322 321 321 321 320 322 321 321 310 299 297 296 294 303 314 315 316 315 317 318 318 318 313 306 306 313 318 317 317 302 298 298 308 314 312 311 310 307 304 301 302 301 297 291 291 290 290 290
307 308 308 310 312 312 313 314 314 316 320 321 320 322 320 319 319 320 321 321 318 320 317 305 294 295 295 294 301 315 317 316 315 317 316 315 316 311 305 301 302 309 311 302 295 297 299 309 314 312 311 308 306 304 302 301 301 298 298 297 297 297 296
306 307 306 308 310 311 312 312 313 313 314 313 315 318 319 318 319 320 321 322 322 319 317 316 303 293 294 294 296 313 317 316 315 314 314 313 314 310 305 302 297 292 293 292 292 291 292 296 305 309 310 308 306 306 304 303 303 302 300 300 301 298 299
305 306 306 307 308 309 309 309 311 312 312 312 313 313 319 319 315 313 315 319 318 316 316 316 309 294 294 294 294 299 315 317 315 314 313 311 312 310 307 302 298 293 292 292 292 292 292 294 298 305 305 303 304 305 302 302 298 298 301 301 301 301 302
305 306 306 306 305 305 307 307 308 310 310 310 310 311 312 316 314 313 315 318 318 317 315 311 315 295 294 294 294 294 309 316 315 315 312 312 311 310 304 300 298 293 291 291 291 292 292 293 294 298 294 290 291 296 305 303 302 299 300 298 298 298 299
304 304 304 305 304 305 306 306 308 309 309 309 310 310 311 315 314 314 314 316 318 317 317 314 305 301 293 294 294 293 295 305 299 309 313 312 313 307 302 298 294 291 291 290 291 291 291 292 293 291 289 289 290 291 296 301 300 300 298 298 298 298 296
302 303 303 303 303 303 303 304 305 306 306 306 307 308 309 311 313 312 312 312 314 314 316 315 302 299 297 292 294 293 293 293 291 305 315 312 308 301 298 296 293 290 290 290 290 290 291 291 290 288 288 289 291 293 299 299 297 299 296 295 295 295 296

ECMWFFLT1_sfc_thetae_039.txt.gz
Theta_e
321 320 323 321 323 324 322 324 325 325 326 325 324 323 325 327 327 326 327 329 329 330 330 328 329 330 330 330 330 330 328 326 324 322 321 321 318 318 323 321 322 325 325 322 320 316 314 312 313 320 322 324 322 322 324 323 324 319 317 316 315 314 314
323 321 322 322 322 323 321 321 322 324 325 325 325 324 325 327 328 326 325 325 326 326 328 328 328 330 329 329 329 327 327 326 325 323 322 320 321 319 319 318 322 323 322 321 321 319 314 311 312 313 314 320 319 320 320 321 318 319 316 315 314 312 312
320 320 320 320 320 320 320 322 323 322 322 324 326 323 323 326 324 325 324 324 323 325 326 326 327 326 326 328 328 327 326 325 325 324 322 321 322 322 321 320 319 318 319 318 319 318 316 316 312 312 313 313 311 313 315 312 313 316 316 314 311 311 310
320 319 319 319 320 322 322 321 321 322 323 322 324 324 325 325 325 325 323 323 325 326 325 324 324 326 326 326 326 327 326 325 323 325 324 323 323 323 322 321 320 319 316 315 316 317 315 312 311 311 312 312 310 309 312 313 312 313 314 313 311 310 308
320 319 318 318 319 321 320 321 322 322 322 323 323 323 323 324 324 324 323 320 322 323 324 324 324 325 326 325 325 324 325 324 324 325 323 323 323 322 321 320 320 321 320 319 319 319 316 314 313 311 310 311 312 312 315 309 309 311 312 313 312 311 309
320 319 319 318 319 319 319 321 321 320 320 322 321 320 321 322 322 321 322 321 321 322 322 322 323 324 324 323 322 323 324 324 324 324 323 322 323 322 319 320 322 322 321 321 322 320 317 316 314 311 311 311 307 306 306 306 303 303 306 310 312 311 309
320 320 319 319 320 319 320 320 321 320 321 321 320 318 321 319 320 320 320 321 321 320 320 320 321 322 323 323 322 323 323 322 322 322 323 322 321 321 321 320 320 320 320 322 322 321 317 315 312 310 309 307 304 303 303 300 302 301 302 305 308 310 310
321 320 320 321 321 320 320 319 321 321 322 321 319 319 320 320 320 321 321 319 318 318 319 319 321 320 320 321 322 320 320 320 319 318 316 316 317 315 314 316 319 320 321 321 320 321 320 317 315 310 307 303 301 301 300 299 299 299 301 302 306 307 310
322 322 321 323 323 320 319 322 322 321 319 318 318 319 319 318 318 319 319 318 319 319 317 316 318 318 318 317 317 318 318 321 316 316 314 313 312 312 312 312 313 314 317 319 320 318 319 320 318 310 308 304 301 298 299 297 297 298 303 300 303 305 306
321 321 320 320 321 321 323 322 321 319 318 317 319 318 316 316 317 318 318 317 316 315 314 316 317 317 316 314 313 313 313 314 315 313 313 314 312 313 314 313 313 313 313 313 314 315 316 314 315 313 308 307 305 300 296 297 297 296 301 302 299 303 305
321 322 321 320 320 320 321 321 319 317 316 317 318 318 316 316 319 323 316 314 314 315 315 315 316 315 314 313 312 312 314 314 314 314 316 315 314 314 313 313 312 313 313 312 313 313 312 311 312 312 311 309 306 302 299 298 299 301 299 302 300 300 304
323 322 321 320 320 320 320 320 319 317 317 317 317 316 314 315 315 315 315 314 313 313 314 314 313 313 312 311 312 312 312 313 313 313 314 316 314 314 313 313 312 311 310 311 311 312 312 311 311 312 311 312 309 305 303 301 298 303 302 301 303 303 302
324 321 320 319 318 318 320 320 319 316 316 317 316 314 313 314 313 313 313 313 313 313 313 312 311 310 310 310 311 313 311 311 312 312 313 314 316 314 312 312 311 311 311 311 311 310 310 312 313 312 310 309 308 307 305 302 300 301 306 301 302 303 303
321 321 320 320 318 318 319 320 318 317 317 315 315 314 313 312 312 313 312 313 311 311 311 310 310 309 310 310 310 310 310 311 312 311 312 312 313 312 312 311 311 312 311 310 308 309 309 311 311 312 311 309 307 307 305 303 301 301 304 306 304 304 306
321 321 320 319 318 318 318 319 319 318 316 315 315 314 312 311 311 311 311 311 311 312 312 311 311 311 310 309 309 313 312 311 310 310 311 311 311 315 311 310 311 311 311 311 310 307 308 307 309 310 310 310 309 310 306 305 301 300 300 305 304 306 306
321 321 320 318 318 318 318 318 317 316 316 314 315 314 312 312 312 310 311 311 311 310 311 311 312 311 310 310 311 312 312 310 311 310 310 310 312 311 310 310 309 311 313 310 308 308 308 309 309 310 309 310 310 309 309 307 305 302 302 302 304 303 304
321 320 319 318 317 317 318 317 318 318 316 314 315 314 313 313 312 311 310 310 310 311 312 312 311 311 312 312 311 311 311 311 311 310 310 311 311 311 309 308 308 309 309 309 308 307 308 308 308 308 309 309 309 309 309 310 307 305 303 303 305 304 305
321 321 320 320 319 319 317 317 317 317 315 313 314 314 313 313 312 311 311 310 311 311 312 312 311 310 312 311 311 311 310 310 310 310 310 311 314 310 309 308 309 309 308 306 307 307 307 308 308 308 307 308 308 310 310 310 309 309 306 304 305 305 305
320 322 320 321 320 319 317 316 316 316 314 313 313 313 311 312 313 312 311 310 311 311 311 311 311 311 312 312 311 311 310 310 311 311 310 311 311 310 310 308 309 309 309 307 308 309 307 309 308 306 307 308 310 309 307 306 307 307 307 306 305 305 306
319 320 320 320 321 319 317 316 316 315 315 314 314 312 311 312 312 312 313 312 312 312 312 312 311 310 311 312 311 312 311 310 311 311 310 311 312 311 311 311 310 310 310 308 308 309 310 309 309 307 307 307 308 306 307 306 306 307 306 305 305 305 305
320 322 319 320 322 320 319 317 315 316 315 314 314 314 311 313 312 312 311 311 312 312 312 312 311 311 311 313 311 312 311 311 311 312 310 311 312 312 312 312 311 311 311 311 311 310 310 310 309 307 306 306 306 305 304 305 304 305 305 305 304 303 304
319 319 318 320 322 321 319 319 319 317 318 318 315 314 314 312 311 311 311 311 312 313 313 313 314 314 313 313 313 312 313 312 312 312 311 312 314 315 314 312 312 311 316 316 313 313 313 312 310 308 307 306 305 306 305 305 305 303 305 305 304 304 302
320 320 321 320 320 320 319 318 316 315 316 317 316 317 314 314 311 310 311 312 313 314 314 314 316 312 312 315 315 315 316 314 314 313 313 314 313 313 313 313 315 319 310 307 303 300 299 303 307 310 308 307 308 306 306 305 304 304 304 303 303 301 301
319 320 320 320 320 319 319 318 315 316 316 316 317 316 316 315 312 311 311 312 314 314 316 317 307 302 305 308 315 314 315 315 314 315 315 314 313 314 313 313 312 315 313 308 302 297 296 296 296 297 298 301 306 309 308 306 305 305 303 303 301 301 300
319 319 321 319 319 319 318 317 316 317 316 315 315 316 316 315 315 314 312 311 313 315 314 303 300 301 299 298 307 316 316 317 317 316 315 314 314 314 313 313 312 312 312 313 306 303 299 296 295 294 294 294 294 295 301 307 306 305 305 304 303 301 301
319 318 319 319 318 317 317 316 315 315 313 312 312 314 314 315 315 317 314 311 312 316 314 298 299 299 297 295 300 312 318 317 318 316 315 316 315 314 313 312 310 311 314 318 314 308 305 300 295 294 295 295 295 294 293 294 299 306 306 305 304 302 302
314 315 317 316 316 314 314 314 315 312 312 312 312 312 312 314 315 315 316 315 313 314 314 303 299 299 297 296 297 306 315 316 317 317 316 316 315 315 314 312 312 312 312 314 313 310 308 304 301 301 301 301 298 295 294 294 294 296 302 306 305 303 304
304 306 310 314 314 314 313 312 313 312 310 311 311 310 311 312 314 315 314 315 312 314 316 307 301 299 298 295 294 300 311 314 315 315 314 315 314 313 313 313 312 312 312 312 314 312 310 306 303 303 302 302 298 299 300 299 298 303 306 307 305 304 303
301 303 304 306 307 308 310 311 311 311 310 310 310 310 310 312 314 316 315 314 314 311 315 305 302 300 299 297 296 304 308 310 311 313 311 313 314 315 314 314 313 312 312 313 309 303 306 307 305 303 303 302 299 294 293 293 292 294 302 303 301 299 297
300 301 302 304 304 304 305 310 312 311 311 309 309 311 311 312 314 314 314 313 313 311 313 306 298 298 298 296 298 305 307 310 310 311 312 313 314 315 315 315 314 313 313 313 305 299 300 302 306 304 303 302 299 295 293 293 292 291 292 292 292 292 291
299 301 301 301 302 303 304 304 306 311 311 311 311 312 313 313 314 315 314 314 314 313 312 307 298 296 297 296 300 307 308 309 309 307 311 313 312 313 314 314 316 315 314 313 300 297 298 304 306 305 304 302 298 295 293 295 294 292 291 291 291 290 290
300 300 300 300 301 301 302 303 303 303 304 308 311 312 313 313 314 315 315 315 315 314 311 309 300 298 299 298 299 305 309 310 309 308 310 310 310 306 303 303 307 311 313 309 297 297 296 304 307 305 305 303 299 296 296 295 294 293 293 292 292 292 291
299 299 299 300 300 301 301 300 300 301 301 302 303 303 308 312 312 314 314 314 314 313 311 309 306 298 297 297 296 304 309 309 309 308 309 310 306 303 301 298 298 295 299 301 296 296 296 299 308 307 306 303 300 299 298 297 296 294 294 294 292 293 293
298 299 300 300 300 300 300 300 300 301 301 302 302 303 303 304 309 310 309 309 310 309 312 311 308 296 296 296 294 296 307 310 309 308 309 308 308 303 299 297 297 293 294 294 295 295 296 297 299 306 306 304 303 301 298 298 297 296 295 294 294 293 293
299 300 300 299 298 298 299 300 301 301 301 301 301 302 302 302 303 306 307 307 309 310 312 310 312 300 295 294 294 293 304 310 310 310 308 308 307 303 298 297 296 293 292 293 293 293 293 293 293 298 298 295 293 294 300 298 297 297 296 295 293 293 293
298 299 299 298 298 297 298 298 298 299 299 299 299 298 299 300 301 302 305 307 308 310 310 310 304 306 296 294 294 293 295 304 298 308 309 307 306 300 297 296 294 292 290 291 291 292 292 292 293 293 292 293 294 294 296 297 295 296 293 293 293 292 291
296 296 297 297 297 296 296 297 297 297 297 297 298 298 299 300 301 302 303 306 307 309 310 310 304 301 302 294 293 293 292 295 297 304 308 307 303 299 297 295 293 290 290 290 290 291 291 291 291 290 291 292 293 294 297 295 293 294 291 290 290 290 291

ECMWFFLT1_sfc_thetae_042.txt.gz
Theta_e
320 319 321 321 320 321 320 322 324 325 326 326 325 324 324 325 323 323 322 324 325 325 327 327 325 326 328 327 327 325 324 323 322 321 318 318 318 317 320 317 319 320 320 317 317 314 312 311 313 318 320 320 320 320 322 319 317 316 314 313 312 311 310
320 319 320 321 320 319 319 318 321 321 322 322 322 324 323 324 325 324 322 323 324 324 326 325 324 327 327 326 325 325 323 321 321 321 321 319 318 318 317 316 319 318 318 318 317 316 311 311 309 312 314 316 316 317 319 317 314 313 313 311 312 310 310
319 318 319 318 318 317 318 318 318 318 319 319 319 320 321 323 323 322 320 321 323 324 325 323 324 324 325 326 326 325 323 322 321 321 320 319 319 320 319 319 317 315 315 315 314 314 315 312 312 312 313 314 313 313 314 313 312 312 311 310 308 307 306
317 317 317 316 316 317 319 317 317 318 318 319 320 319 320 321 320 322 321 322 323 325 324 323 323 324 324 325 324 323 323 323 320 320 318 318 319 319 318 319 318 318 316 313 313 314 312 310 312 312 311 313 311 307 309 312 312 309 308 307 305 304 304
318 318 317 316 317 318 318 317 316 317 317 318 318 317 318 320 320 318 320 320 321 321 321 322 323 324 324 324 323 322 322 320 321 321 319 318 318 318 317 318 318 316 316 316 316 315 313 313 314 312 311 308 308 308 309 308 309 309 308 306 305 305 304
318 317 317 317 317 318 318 317 316 317 316 317 316 317 316 318 319 318 318 317 317 319 321 322 321 322 322 322 321 321 321 321 322 321 319 319 319 319 319 318 319 318 317 316 317 315 314 314 313 310 308 308 305 304 305 306 302 303 306 308 306 305 305
317 317 317 318 318 318 319 318 317 318 317 316 315 315 315 317 317 318 318 317 316 317 320 320 320 319 320 321 321 320 319 318 319 319 319 317 317 316 317 318 318 317 318 319 318 315 314 312 310 309 308 303 305 304 300 298 303 301 303 306 308 306 305
317 317 317 318 318 318 319 318 318 318 318 317 317 315 316 316 316 316 315 316 316 316 318 319 320 319 320 321 320 318 318 317 317 317 316 318 318 317 315 317 318 318 318 320 316 316 315 314 312 309 307 303 299 298 298 297 296 298 301 302 307 307 306
319 318 317 318 317 319 319 319 318 318 318 316 316 316 316 317 315 315 315 315 315 315 316 317 317 317 316 316 315 315 314 317 312 311 311 313 313 313 313 314 318 317 319 319 318 316 315 314 312 309 307 304 300 296 295 295 295 297 301 299 302 305 307
318 317 318 318 317 318 320 320 319 316 316 316 317 316 315 314 314 315 315 313 313 313 314 315 316 315 314 315 314 312 311 311 313 311 310 310 309 310 311 313 314 315 316 316 317 317 316 314 313 307 305 305 301 296 293 293 294 294 299 298 297 301 306
318 317 318 318 319 319 318 317 316 315 315 316 316 316 314 314 316 318 312 311 310 313 313 312 312 312 312 311 311 311 311 312 313 312 312 311 310 311 311 311 311 311 311 313 314 315 314 315 312 308 306 304 302 300 295 294 294 296 296 299 297 299 301
318 317 318 319 319 318 316 315 315 315 314 314 316 313 312 313 312 311 312 311 311 311 311 311 311 310 311 310 310 310 310 312 311 310 309 311 310 312 310 308 308 308 310 312 312 310 310 312 312 309 307 306 303 301 298 297 295 298 298 298 299 299 301
319 318 318 319 318 317 316 315 314 313 314 314 312 311 312 312 311 310 310 310 310 310 310 309 309 309 310 310 310 311 309 311 312 311 310 310 312 310 309 308 307 308 308 309 309 309 308 308 311 309 308 305 302 301 301 299 297 298 300 297 298 300 302
317 317 318 319 318 317 316 315 314 314 314 312 311 311 312 311 310 310 310 310 310 309 308 307 308 308 309 308 308 308 308 310 310 308 310 309 310 310 310 309 308 308 306 307 307 308 308 308 307 308 307 305 303 303 301 299 298 298 301 302 300 300 300
316 317 317 318 318 317 316 315 315 315 313 312 311 311 310 310 309 309 309 308 308 308 307 306 306 308 308 307 306 309 309 309 308 307 308 308 307 310 307 308 308 307 307 306 305 306 308 308 307 306 305 305 303 303 303 301 298 298 297 302 302 303 301
319 317 316 316 317 317 316 316 316 314 313 312 311 310 310 309 309 308 308 308 308 308 307 307 307 307 306 306 307 307 308 307 307 307 308 307 308 307 307 307 306 306 308 306 305 305 307 308 308 307 306 306 304 304 304 303 300 298 299 300 301 302 301
320 319 317 316 316 316 317 316 316 315 313 312 312 311 309 309 308 308 308 308 308 307 308 309 308 306 307 307 308 308 306 306 307 307 308 307 307 306 305 305 304 305 305 305 304 305 306 307 307 307 307 305 306 306 304 303 302 299 299 301 301 302 302
318 318 318 318 316 316 316 316 316 315 313 311 311 310 310 309 308 308 309 308 308 308 309 308 307 307 308 308 308 308 307 307 307 307 307 307 313 306 305 305 306 304 304 304 303 304 304 305 306 307 306 306 306 307 307 306 304 303 301 301 302 302 301
319 318 317 318 317 316 316 316 316 315 314 312 312 311 310 309 309 308 307 307 308 308 309 308 308 308 309 308 308 308 308 308 307 307 307 308 307 306 305 305 306 305 303 304 304 303 304 304 304 305 305 305 306 306 305 304 305 304 302 301 302 302 302
317 317 317 318 320 318 315 315 315 315 314 313 313 311 310 310 310 308 308 308 309 309 309 308 308 308 309 308 308 308 308 307 307 306 307 308 307 306 306 306 305 305 305 304 305 304 305 304 306 304 306 306 305 304 304 303 304 304 303 302 301 300 300
316 318 318 318 318 317 316 314 314 314 314 312 313 311 310 311 311 309 309 308 309 309 308 308 307 307 308 308 307 306 307 307 307 307 306 307 307 307 306 307 306 306 305 305 305 304 305 305 304 304 303 305 304 304 303 303 302 303 303 302 301 302 300
316 317 319 318 318 317 316 316 315 315 315 314 313 312 310 310 310 309 308 308 308 309 310 310 309 307 308 308 307 308 307 308 308 307 306 307 308 308 307 307 307 308 311 315 311 309 309 309 306 305 303 303 303 303 302 301 302 301 300 302 301 300 299
317 317 318 317 316 316 316 315 314 315 316 316 314 313 312 311 309 309 309 308 308 310 310 311 313 309 308 310 308 310 309 308 308 308 309 308 308 309 310 310 311 320 315 312 308 304 303 304 307 308 305 303 304 303 303 302 301 301 302 301 301 300 299
317 317 317 316 315 316 316 315 314 315 315 314 314 314 313 312 310 308 308 309 308 310 311 312 306 300 301 305 310 310 310 308 308 310 310 310 310 310 308 308 308 310 308 309 303 301 300 301 302 303 303 305 306 305 303 302 301 301 302 301 299 299 298
315 315 315 315 315 315 314 313 313 312 313 313 312 312 313 312 311 311 308 307 308 310 311 309 302 299 299 301 306 311 312 311 311 311 312 311 312 311 311 309 307 308 306 305 302 300 299 298 297 297 297 298 298 299 302 304 304 302 301 302 300 299 300
315 313 313 313 313 314 313 313 312 312 311 312 312 312 310 311 311 311 310 308 307 309 311 302 298 299 298 299 301 308 312 313 312 312 313 313 313 312 311 310 309 308 311 312 309 303 301 298 296 295 295 295 294 294 294 297 300 306 304 303 302 300 300
308 311 312 312 312 312 311 310 310 310 310 311 311 311 310 310 310 311 311 311 308 310 309 301 296 297 296 295 297 304 313 313 313 314 314 314 314 313 312 312 311 310 310 311 308 305 303 300 298 298 299 298 296 295 294 294 295 298 303 305 304 304 303
301 302 305 309 309 311 310 310 311 310 309 310 311 311 311 309 310 311 310 310 309 309 313 303 296 297 298 297 296 304 314 314 314 314 314 314 313 314 313 313 313 312 311 312 310 306 305 302 301 301 299 297 296 298 299 300 301 302 304 305 305 306 304
298 299 299 300 301 302 304 309 309 307 307 306 306 306 306 305 307 308 308 309 309 309 311 301 296 296 296 294 294 305 308 313 313 313 313 312 309 311 313 313 312 312 311 311 308 300 303 304 303 302 301 297 296 293 293 294 292 293 302 304 304 303 300
298 298 298 298 298 299 300 300 301 304 304 305 304 304 305 306 307 308 308 307 308 311 311 306 297 296 295 293 298 305 306 307 308 311 313 312 311 314 314 314 313 313 311 310 304 297 298 301 305 304 302 298 296 294 293 292 292 293 295 295 295 295 294
296 297 296 296 296 296 297 297 297 300 300 301 302 304 306 306 307 307 308 309 310 310 311 309 300 295 295 294 301 307 307 308 306 307 308 308 310 311 313 313 315 313 312 311 299 296 297 302 306 304 303 299 295 293 291 292 293 292 292 292 292 291 291
296 296 296 296 296 296 296 296 297 297 297 297 298 299 301 303 305 307 307 309 313 312 310 308 301 297 294 295 300 307 307 307 306 306 308 308 307 310 311 311 310 310 311 309 297 295 296 302 307 305 303 300 297 294 293 292 292 291 290 290 289 290 290
296 296 295 295 296 296 296 296 296 296 297 297 297 298 299 301 302 304 304 306 308 309 311 310 307 298 297 295 298 306 306 307 307 307 306 307 309 309 308 307 305 299 298 299 295 294 295 299 306 305 303 301 298 296 295 292 293 293 292 292 290 290 290
296 296 296 296 296 296 296 296 296 296 296 296 296 296 296 296 298 300 302 303 304 305 308 310 309 300 298 297 296 300 306 307 308 308 306 305 308 309 306 303 301 299 296 296 295 294 295 296 300 305 304 302 301 301 295 294 294 294 293 292 292 291 293
297 298 297 296 294 294 295 296 296 296 296 295 295 295 295 295 295 296 297 300 302 304 308 308 309 304 298 297 296 296 304 307 307 308 306 306 307 306 306 303 301 298 293 293 295 294 295 296 297 303 304 298 295 293 296 296 295 294 294 294 293 291 291
294 296 295 294 293 293 293 294 294 294 293 293 293 293 293 294 294 294 296 297 298 301 304 305 302 304 300 297 296 295 296 302 299 306 308 307 307 307 304 300 298 294 292 293 294 294 295 295 296 302 296 293 292 293 295 296 295 294 293 293 292 290 289
294 293 292 292 292 292 292 292 293 293 292 291 291 291 292 293 292 292 292 294 295 297 299 301 301 300 302 299 296 294 293 293 296 304 308 308 307 306 300 297 295 291 291 292 293 294 294 294 298 294 293 292 292 294 298 295 293 293 290 289 289 289 289

ECMWFFLT1_sfc_thetae_045.txt.gz
Theta_e
321 319 319 321 319 320 320 321 322 321 322 321 322 322 322 324 322 322 321 323 324 324 325 324 324 324 324 324 325 324 322 323 321 319 317 316 319 317 319 317 318 317 315 313 315 315 314 313 315 318 319 320 319 318 317 317 316 314 311 310 309 308 307
321 321 321 320 319 318 318 317 320 320 320 320 320 321 320 322 324 321 320 322 322 323 325 324 321 325 324 323 323 322 322 321 321 320 319 319 316 317 317 315 316 314 314 314 315 313 311 313 313 314 315 318 317 314 313 313 312 311 310 309 310 308 309
319 319 319 317 316 316 317 315 317 317 316 317 317 318 319 320 321 320 320 321 322 323 325 323 321 323 323 324 324 323 321 320 318 320 320 320 318 316 317 317 313 311 313 312 311 312 313 310 313 314 313 314 311 308 311 310 310 309 309 308 306 305 304
317 319 317 314 314 314 316 313 315 315 315 315 317 316 317 318 317 319 318 320 320 324 324 321 323 324 323 324 324 322 321 321 319 319 318 318 318 318 316 317 317 317 314 311 312 312 310 310 312 311 312 312 310 308 308 310 308 306 305 304 304 302 302
318 319 318 315 315 316 315 314 313 314 314 315 315 316 316 317 316 316 318 319 321 318 318 320 321 322 323 322 322 322 322 320 319 319 318 317 317 317 315 316 315 314 313 314 314 314 313 314 315 311 309 306 306 306 308 306 307 306 304 303 303 302 302
319 319 317 315 315 316 315 315 314 314 314 315 314 317 314 314 316 315 316 318 317 317 317 318 318 319 321 320 321 320 320 320 319 318 317 318 318 318 317 315 316 315 314 314 315 313 313 314 315 311 306 305 303 304 306 305 303 303 305 305 303 303 302
318 318 316 316 315 316 316 316 315 315 314 315 314 315 315 315 315 315 315 315 316 316 317 316 316 317 318 320 319 319 319 318 318 318 317 316 315 314 315 315 315 315 314 316 314 314 314 314 311 309 304 303 305 304 299 299 303 302 303 305 305 304 304
318 317 317 318 316 316 315 316 315 314 315 314 315 314 314 314 314 313 313 314 314 315 316 316 318 316 316 317 316 315 315 316 318 317 316 316 316 315 314 315 315 314 315 315 314 314 315 315 312 308 306 303 299 299 298 295 295 298 301 300 304 304 303
318 317 317 318 317 318 317 317 316 315 315 314 312 314 313 315 313 313 312 312 313 314 315 314 313 315 314 315 312 312 312 315 315 315 316 317 316 315 316 313 315 314 316 316 314 314 313 312 311 308 308 307 302 298 295 298 294 296 300 301 301 303 305
317 317 317 316 317 318 317 316 317 315 314 313 314 313 313 311 312 311 311 311 312 312 313 313 313 311 312 312 311 309 308 308 312 312 312 315 313 314 314 315 315 314 315 314 314 313 312 310 309 307 307 306 305 300 293 294 295 295 300 297 301 302 305
317 317 316 316 315 317 315 316 314 314 313 313 313 314 311 311 314 315 310 309 309 311 312 311 311 310 310 309 308 308 308 309 310 308 309 310 310 312 313 312 312 313 313 315 314 314 312 310 308 307 304 302 303 302 296 296 296 294 299 298 296 300 302
317 316 315 316 316 317 316 315 315 314 312 312 314 311 310 310 308 308 308 307 309 309 309 309 309 309 309 309 308 308 308 308 309 307 307 309 309 311 311 311 310 311 311 314 314 314 313 311 308 305 303 302 302 300 300 298 294 296 297 300 297 297 301
316 316 317 316 316 315 315 315 314 312 312 313 310 310 310 309 307 307 307 307 307 307 308 308 308 307 308 308 308 309 307 308 308 308 307 308 309 308 308 309 310 311 310 312 313 313 312 312 309 305 305 303 299 299 299 298 297 298 298 297 297 298 301
315 315 315 315 314 314 314 314 314 313 312 310 310 310 309 307 307 307 307 308 307 306 306 306 307 306 307 306 306 306 306 307 308 306 307 307 307 306 307 307 307 309 309 311 310 311 310 310 309 307 305 302 300 299 299 296 296 296 299 298 297 299 299
315 315 316 315 315 314 313 313 313 313 312 310 310 310 309 307 307 307 306 306 306 305 305 305 305 306 306 306 306 307 307 306 306 305 305 306 305 307 306 306 305 305 306 308 307 309 309 308 309 307 304 303 300 300 299 297 296 296 297 300 299 300 299
317 315 315 315 315 315 313 313 314 313 311 309 309 310 309 307 307 307 306 305 305 304 305 304 304 305 304 305 305 305 305 304 305 305 305 305 305 304 305 305 304 304 305 304 304 304 305 307 307 308 306 303 301 300 300 299 297 296 297 298 298 298 298
317 316 315 315 315 314 314 314 314 312 311 309 309 308 307 307 306 305 306 305 305 305 305 305 304 304 305 304 304 305 304 304 304 304 305 304 304 304 304 304 303 303 304 304 303 303 304 304 305 306 305 303 301 301 301 299 299 296 296 299 298 299 299
316 316 316 316 315 315 314 314 313 312 311 310 309 307 308 306 305 305 307 305 305 305 305 305 304 304 305 304 304 304 304 304 304 304 304 304 310 303 303 304 303 302 303 303 302 303 303 303 304 304 303 302 301 302 303 301 300 299 299 299 299 299 299
316 316 317 317 318 316 316 315 314 312 311 310 309 309 308 307 307 306 306 305 305 305 305 304 304 304 304 304 304 304 305 305 304 304 304 306 304 303 304 303 303 302 303 304 303 302 302 303 303 304 303 303 304 303 302 301 301 300 300 299 299 299 300
316 315 316 316 317 318 315 315 315 313 312 311 310 309 308 307 308 307 306 306 306 306 306 305 304 304 305 304 304 304 305 305 305 304 305 305 304 304 303 304 303 302 303 303 303 303 303 302 305 303 304 304 304 303 303 303 302 300 300 299 298 298 298
316 317 317 317 316 316 315 314 314 314 312 310 310 309 308 308 307 307 306 307 307 308 307 306 305 305 305 305 304 304 304 304 305 304 305 304 304 303 303 304 304 303 304 304 304 303 304 304 302 303 301 304 303 303 303 302 301 300 299 299 298 299 297
316 316 316 316 316 316 315 315 314 313 311 310 311 311 310 310 309 308 307 308 308 308 308 308 308 307 306 305 303 304 304 305 305 304 304 305 305 305 304 304 303 302 306 312 309 307 307 307 305 304 300 301 302 303 301 301 302 300 299 300 299 297 297
316 315 314 313 314 315 315 315 314 313 313 312 312 310 308 308 307 307 307 306 306 308 308 308 311 307 308 308 306 306 306 304 305 304 305 305 305 306 306 305 307 318 315 311 307 303 302 303 307 307 305 302 303 302 302 301 300 300 301 299 300 299 298
314 314 314 314 313 314 313 314 314 313 312 312 312 311 310 307 306 306 306 305 305 307 308 310 305 300 300 304 308 306 306 305 304 305 306 306 307 306 306 307 306 312 311 312 304 300 299 299 300 301 302 304 306 305 302 301 300 300 301 301 298 298 298
314 313 313 313 313 313 312 312 311 311 312 311 311 311 311 308 309 307 305 304 304 306 307 307 301 300 298 298 303 308 307 307 307 306 307 307 307 307 306 306 305 306 304 303 303 302 301 299 298 298 297 298 299 300 301 304 302 299 299 300 298 299 299
308 310 311 312 311 312 311 311 311 311 311 309 308 309 308 308 307 308 306 304 304 306 306 303 299 299 298 297 296 303 307 307 308 308 308 308 308 308 306 306 308 307 305 312 310 302 303 301 299 298 298 298 298 297 297 297 300 306 303 303 302 299 300
299 300 301 302 305 307 308 308 307 308 308 308 308 308 308 308 308 308 308 308 306 304 306 305 301 298 298 297 296 297 306 307 307 308 309 309 309 309 309 309 309 309 307 308 306 302 302 301 299 298 298 298 299 297 296 296 296 299 302 305 303 303 301
297 297 297 298 298 299 300 300 301 304 305 306 306 306 306 306 307 307 308 306 306 308 309 304 299 297 296 295 295 296 305 307 308 308 309 309 309 310 310 310 310 310 310 309 307 304 303 302 300 301 299 298 296 296 298 298 299 300 303 303 305 304 303
296 296 296 296 296 296 296 297 297 299 300 301 301 301 301 302 303 305 306 306 307 309 310 300 296 295 296 296 295 301 305 308 309 310 310 309 309 310 310 310 310 310 309 310 306 299 301 303 301 301 300 297 295 295 294 294 292 292 298 302 303 302 303
295 295 295 295 294 294 294 295 296 297 297 298 297 298 298 299 301 302 304 304 305 307 308 304 297 294 294 294 296 303 304 307 308 309 310 309 311 310 310 310 309 310 309 310 305 297 296 300 302 302 301 299 297 295 294 292 293 294 296 297 297 296 295
295 295 294 294 294 294 295 295 294 295 294 294 295 296 297 297 298 300 301 303 305 305 307 306 300 299 295 294 297 306 306 307 305 305 306 307 308 309 309 310 313 312 311 310 302 297 295 300 304 304 303 301 298 296 294 292 294 293 293 293 292 292 292
294 293 293 293 293 294 294 294 294 294 293 293 293 293 296 295 295 296 298 299 305 304 303 303 300 298 297 295 297 305 307 306 306 305 305 306 305 304 306 310 309 309 310 308 301 296 294 298 304 305 304 302 300 298 298 292 295 295 294 294 294 295 294
294 293 292 291 292 292 293 293 293 293 293 293 293 293 293 293 293 294 295 297 298 299 300 302 302 298 297 297 294 301 305 306 306 306 305 306 305 303 305 306 306 301 298 297 297 294 294 295 301 304 304 303 302 301 296 294 295 295 295 296 295 295 293
294 293 293 293 293 293 293 293 293 293 292 292 292 292 292 292 292 292 293 294 296 296 299 299 300 296 296 296 296 295 303 306 307 307 307 304 305 305 304 305 306 303 300 298 296 295 294 294 296 305 305 304 304 301 294 295 296 295 295 294 293 291 290
294 294 294 294 293 293 293 293 293 292 291 291 291 291 291 291 291 291 292 293 294 294 297 299 297 296 295 294 294 294 299 304 306 307 306 305 304 304 305 306 306 304 300 299 296 295 295 294 293 302 305 300 294 291 296 297 296 295 294 293 292 291 291
292 293 293 293 293 292 293 293 292 293 292 291 290 290 290 290 290 290 291 292 293 293 294 295 295 295 294 293 293 293 293 296 296 303 305 306 305 306 305 305 305 302 298 297 296 295 295 294 294 298 298 295 291 292 294 296 295 295 294 294 293 292 290
291 291 292 292 291 290 290 291 291 291 290 289 289 289 289 289 289 289 289 290 291 292 293 293 294 293 293 293 293 293 293 293 292 298 303 305 306 305 303 302 302 299 297 296 296 295 294 293 297 296 295 292 291 293 297 295 295 295 292 292 292 291 291

ECMWFFLT1_sfc_thetae_048.txt.gz
Theta_e
323 321 321 321 320 323 323 323 324 324 324 324 324 324 324 325 324 323 324 325 325 325 327 325 325 325 325 326 326 325 323 323 322 321 319 319 321 320 320 318 318 319 318 317 320 318 316 313 313 318 318 317 318 318 317 315 313 312 311 310 309 308 308
322 321 321 322 321 322 321 320 322 322 321 320 322 323 323 325 327 324 323 324 324 325 328 325 324 324 325 325 324 323 322 322 322 322 321 320 320 319 318 316 318 317 317 318 319 319 317 315 314 314 313 316 316 314 313 312 311 312 312 311 311 309 310
320 319 320 318 318 319 319 318 318 319 317 317 318 320 321 322 324 324 322 324 325 325 328 325 324 324 323 324 325 324 323 322 322 322 321 321 321 320 321 319 316 315 316 316 316 318 318 318 314 313 314 315 313 311 312 311 310 309 308 308 307 306 306
319 319 317 315 316 317 318 317 317 315 314 315 317 317 318 320 320 323 322 322 323 326 327 324 324 325 324 324 324 323 323 322 321 321 321 320 321 319 318 320 319 318 317 315 315 317 317 316 315 314 314 315 313 311 310 310 309 307 306 307 306 306 306
320 320 318 316 316 317 316 316 314 315 314 315 316 317 317 317 319 319 321 321 323 323 324 323 323 324 325 324 324 323 323 321 321 321 320 320 319 319 319 319 319 318 315 317 318 318 318 318 317 314 311 311 309 308 308 309 308 307 307 306 306 306 306
320 319 317 316 316 316 315 315 315 315 313 316 316 317 317 316 317 317 318 320 321 322 321 321 321 322 323 323 323 323 322 321 321 320 320 319 319 320 320 319 319 317 316 318 318 318 319 320 317 312 311 311 308 307 307 308 307 307 308 306 306 306 305
319 319 317 316 315 316 316 316 316 316 316 317 316 317 316 315 316 317 319 318 318 319 319 319 320 321 322 323 323 322 322 322 320 319 319 319 318 319 319 319 319 318 316 318 318 319 319 318 315 312 310 307 309 306 302 305 304 306 306 308 308 307 306
319 318 317 317 316 316 316 316 315 315 316 315 317 316 316 315 315 314 316 316 317 318 318 319 320 320 320 321 321 320 320 319 320 320 319 318 318 318 318 320 318 317 317 317 318 320 321 319 316 313 311 307 305 305 304 300 302 304 306 306 307 307 307
319 317 317 317 317 317 316 316 315 315 316 315 314 315 314 315 314 314 316 315 316 316 317 317 317 318 318 318 317 318 318 319 319 318 318 317 318 317 319 317 318 317 317 317 318 319 320 319 316 314 314 312 307 303 301 304 302 302 303 306 306 307 307
317 317 317 316 317 316 316 315 315 314 314 314 315 315 314 312 312 312 313 314 315 315 315 315 315 315 316 317 315 314 315 314 318 318 317 318 317 317 318 318 319 317 317 316 316 317 317 316 315 315 316 313 311 306 301 302 303 302 304 302 305 307 308
318 317 317 316 317 316 315 315 315 314 314 314 315 315 312 313 315 317 311 312 312 314 314 313 313 312 312 311 311 311 310 312 315 313 315 316 315 317 317 317 317 317 317 316 316 316 315 314 313 314 314 312 312 308 305 304 304 302 306 303 303 306 306
316 316 316 316 317 316 316 315 315 314 313 314 315 313 312 311 309 309 310 310 312 312 311 311 311 311 311 311 311 311 310 311 311 310 310 313 313 316 316 316 316 317 316 316 315 315 314 312 312 311 309 310 310 311 308 307 304 304 305 307 305 302 307
316 316 316 316 316 316 316 315 314 313 314 314 312 312 312 310 309 309 308 309 309 310 310 309 309 309 310 309 310 310 309 309 309 310 309 310 312 314 315 315 315 316 315 316 315 314 313 311 310 308 308 307 305 307 308 306 305 305 303 307 306 303 305
315 316 315 315 316 315 315 315 314 314 313 312 312 311 310 309 308 309 309 311 309 309 309 309 309 309 310 309 309 309 309 309 309 309 310 308 309 310 314 314 313 314 315 316 315 314 313 311 310 308 307 305 304 305 305 303 303 302 303 303 304 303 303
315 316 315 315 315 314 314 314 313 313 313 311 312 311 309 309 308 308 309 307 307 307 308 308 308 309 309 309 309 309 308 308 308 307 308 308 308 309 311 312 311 311 313 315 315 314 313 311 309 307 306 305 304 304 304 303 301 303 303 304 304 303 303
316 315 315 314 314 314 313 313 314 313 312 311 311 310 309 308 308 307 307 306 306 306 306 306 306 307 307 309 308 308 308 308 308 308 308 307 307 307 309 311 309 309 310 312 312 313 312 313 311 309 307 305 304 304 303 303 303 302 302 303 304 303 304
315 315 314 313 313 313 313 313 314 312 311 310 310 309 308 308 307 307 308 307 306 306 306 306 306 306 306 307 308 308 307 307 307 307 308 307 306 307 308 308 307 308 310 310 308 309 310 311 312 312 309 306 306 303 304 304 306 303 303 303 303 302 303
315 315 314 314 313 313 313 313 313 311 311 310 308 308 309 307 307 307 308 307 306 306 306 306 306 306 306 306 307 308 307 307 307 307 307 307 311 306 307 309 307 307 308 308 307 308 308 309 309 310 310 307 305 304 305 305 304 304 303 303 303 303 303
315 315 316 315 315 314 314 313 312 311 310 309 308 308 308 308 308 307 306 306 307 306 306 306 306 306 306 307 306 307 308 307 307 307 307 308 308 306 307 306 306 306 307 309 307 307 307 308 307 308 308 307 305 304 305 305 305 305 304 303 304 303 305
315 315 315 315 316 316 315 315 315 313 312 310 310 308 307 307 309 307 306 306 307 307 307 306 306 305 306 306 307 307 307 306 307 307 307 307 306 306 306 306 306 306 307 308 307 307 306 306 307 307 308 307 305 305 305 305 304 304 304 303 303 304 304
316 316 316 316 316 316 315 315 314 314 313 311 311 310 308 308 308 307 306 306 307 308 307 306 305 306 306 306 307 306 307 307 307 307 307 307 307 306 306 306 306 305 307 307 308 307 308 308 307 306 306 306 306 305 305 305 304 303 303 303 304 303 303
315 315 315 314 313 314 315 314 314 313 313 312 312 311 310 309 308 308 307 307 307 308 307 307 307 307 308 306 306 307 307 308 308 308 307 308 307 307 307 307 306 305 309 311 309 307 308 308 308 307 305 307 306 306 305 305 304 303 303 303 302 302 303
314 314 314 314 315 315 315 314 314 313 313 312 312 310 307 308 308 308 307 307 307 308 308 308 311 307 307 308 306 307 308 308 307 308 308 308 308 308 308 308 310 316 313 310 306 302 301 303 306 309 308 306 307 306 305 305 304 304 303 302 302 302 302
313 313 313 313 313 314 314 314 313 313 312 311 311 311 311 310 308 306 307 307 307 307 308 309 304 300 300 303 307 307 308 307 307 307 308 308 308 308 308 309 308 312 314 312 308 300 298 298 299 301 302 304 306 308 306 305 305 305 304 304 303 302 303
309 310 312 312 312 311 311 311 311 311 310 310 310 310 310 309 310 310 307 306 305 306 307 306 300 299 298 298 303 308 308 308 308 307 307 308 308 308 309 308 308 309 309 309 308 306 302 299 297 298 298 298 298 300 302 308 307 304 305 305 303 304 304
300 300 302 303 304 305 304 304 306 306 307 307 307 307 307 308 308 309 310 310 309 308 307 301 298 298 297 297 296 302 308 308 308 308 308 308 308 309 308 308 309 308 309 312 313 307 307 306 299 299 298 297 297 296 296 298 300 309 308 307 306 305 304
298 298 298 298 299 299 299 299 301 302 302 302 302 302 303 304 305 306 308 308 309 309 310 300 294 295 295 296 296 297 306 308 308 308 309 309 309 309 309 309 310 310 309 310 311 308 306 306 305 304 303 304 305 303 298 296 295 297 303 309 308 307 307
297 297 297 297 297 297 296 297 298 299 299 299 299 299 300 300 302 303 304 306 306 307 308 296 295 294 294 294 296 296 303 306 308 308 309 309 309 309 310 310 310 311 311 311 310 308 308 307 305 304 304 304 304 304 303 304 304 305 306 308 309 310 310
295 296 297 296 296 296 296 295 295 297 297 297 297 298 298 298 299 300 301 302 303 304 305 296 294 294 294 292 293 302 303 305 307 308 309 309 309 310 311 310 310 310 311 311 307 300 302 307 306 305 305 305 303 300 300 296 293 294 299 304 307 308 307
294 294 295 294 294 294 295 295 294 296 295 295 295 296 296 296 297 298 299 300 301 301 302 298 293 293 294 293 298 303 304 305 306 307 309 310 310 311 311 311 311 311 310 311 305 300 296 301 306 305 305 305 304 301 301 298 294 292 293 295 296 298 298
293 293 293 293 293 294 294 294 294 295 294 293 294 295 296 295 295 296 296 297 300 298 299 298 294 293 293 293 297 304 306 307 306 306 308 309 310 310 310 310 313 312 312 312 302 298 295 302 306 306 306 305 304 303 303 298 298 296 293 292 291 291 292
293 292 292 292 293 293 293 293 294 293 293 293 293 293 295 293 293 294 295 296 299 297 297 297 294 292 292 292 297 303 305 307 307 307 307 308 309 307 308 310 308 309 311 309 301 297 293 301 308 305 306 306 305 305 306 299 299 298 298 298 298 297 295
293 292 292 292 293 292 293 293 292 293 292 292 292 292 293 293 292 292 293 294 295 295 296 296 296 292 292 292 292 299 303 305 306 308 308 308 309 307 303 305 305 299 297 298 297 296 293 296 307 307 308 307 307 307 307 299 300 300 300 300 299 299 298
292 292 292 292 293 293 292 292 292 292 291 292 291 291 291 291 291 291 292 293 294 294 296 295 295 292 292 292 292 294 299 301 303 304 306 307 308 308 307 307 307 303 298 296 295 295 294 293 297 307 307 309 310 309 298 301 298 296 301 299 297 295 294
293 293 293 292 291 291 292 292 292 291 291 290 290 290 290 291 290 291 291 292 293 293 295 296 294 293 292 292 291 292 297 298 298 299 301 304 306 308 308 308 308 304 299 298 296 295 294 293 292 303 306 300 299 295 303 303 300 299 299 296 294 293 293
291 292 292 292 291 291 291 292 292 291 290 290 289 289 290 290 290 290 290 291 292 292 293 294 293 293 292 291 291 291 291 294 291 297 299 300 302 305 307 306 306 301 297 296 296 295 294 293 293 298 296 295 295 293 297 301 299 298 297 295 294 293 292
290 290 291 291 291 290 290 290 291 290 290 290 289 289 289 289 289 289 289 290 291 292 292 292 292 292 292 291 291 291 291 290 290 295 297 299 301 302 303 305 304 296 294 294 294 294 294 293 297 294 292 293 293 293 300 297 297 297 294 293 293 292 292

ECMWFFLT1_sfc_thetae_051.txt.gz
Theta_e
334 333 335 336 337 335 334 333 333 334 335 336 336 336 337 336 335 335 335 336 335 335 334 333 333 333 334 334 335 335 334 334 334 332 330 328 326 327 328 329 330 332 333 331 327 323 320 316 316 321 322 323 323 324 323 320 318 318 318 317 314 314 314
338 336 336 335 334 335 333 332 333 333 334 334 335 335 335 335 335 335 336 336 336 336 335 334 335 334 334 334 334 333 333 333 334 336 333 330 332 329 326 328 330 329 329 330 328 328 322 319 316 317 316 319 320 320 318 318 318 319 318 317 315 314 315
335 334 335 333 333 335 332 331 332 332 333 333 333 334 334 334 335 336 336 336 336 335 335 335 335 334 334 335 334 335 335 335 335 334 333 334 334 331 330 330 327 326 327 327 327 326 325 325 317 316 317 317 316 317 318 316 316 316 315 316 315 313 313
334 334 334 333 332 334 331 331 331 332 333 333 334 335 335 335 336 336 336 336 336 336 335 335 336 335 336 336 336 336 336 335 335 334 332 333 334 332 332 331 329 328 326 324 325 326 325 322 319 318 319 320 318 316 317 316 314 313 313 315 314 313 313
334 334 334 333 334 334 334 331 333 333 333 333 335 334 334 335 335 335 336 336 335 336 335 337 337 337 337 336 335 335 335 335 336 334 334 332 332 331 332 332 331 331 331 329 328 328 326 324 322 319 318 319 318 316 313 314 313 312 311 311 311 312 311
334 335 335 334 334 333 333 333 332 330 331 331 332 333 334 335 336 335 335 334 335 336 337 337 338 337 337 336 335 334 334 333 333 334 332 333 333 330 331 332 332 331 330 331 331 329 330 328 324 320 320 320 315 313 311 311 309 310 311 310 310 310 307
332 333 334 333 333 333 334 333 332 331 331 331 333 333 334 332 332 334 335 336 337 337 337 338 337 337 336 335 336 335 334 335 334 334 334 334 333 333 333 331 331 330 330 330 331 330 329 327 324 321 319 318 318 311 310 310 310 307 307 309 309 308 308
330 332 333 333 333 333 334 334 334 333 331 332 331 336 332 332 332 332 333 334 334 335 335 336 336 336 336 334 335 336 335 335 333 333 332 332 332 331 332 332 332 330 328 328 330 330 329 328 326 324 319 314 313 312 310 311 310 311 307 308 308 307 308
329 330 330 331 333 334 334 334 334 335 334 334 334 333 332 331 331 332 333 333 334 335 335 335 336 335 336 336 335 335 336 333 335 333 332 332 333 333 332 332 332 330 329 328 329 330 329 329 329 326 322 317 312 309 312 310 310 309 308 305 307 308 307
329 329 330 331 332 333 334 334 333 332 332 333 332 332 331 329 330 331 332 333 334 334 335 335 335 334 335 334 333 334 333 334 334 333 333 333 333 331 331 331 332 331 329 330 330 331 331 331 329 327 324 320 319 313 309 308 310 309 308 308 303 305 309
328 330 330 330 330 330 331 331 331 329 330 331 331 330 330 329 330 329 332 332 332 333 334 333 333 333 333 332 332 332 332 333 333 333 333 333 332 331 330 330 332 330 329 329 329 331 331 330 327 326 324 326 323 316 313 309 309 313 310 311 311 304 309
327 327 328 329 330 330 329 329 330 331 330 329 329 328 328 327 328 329 331 330 331 330 330 331 331 331 332 331 330 330 328 330 332 332 331 332 331 330 329 330 328 325 326 329 330 330 330 328 327 326 325 325 324 324 318 313 309 313 316 310 311 311 307
326 326 327 328 329 330 329 329 329 329 329 329 329 329 327 326 327 328 329 329 329 328 327 327 328 328 328 328 327 326 325 326 327 328 328 330 328 330 330 330 329 328 327 327 327 327 327 327 327 324 324 323 322 325 321 315 311 310 316 314 313 312 311
325 326 327 329 329 330 329 329 329 330 328 328 328 327 326 325 325 326 327 327 327 328 327 325 325 326 325 325 325 325 323 323 323 324 325 326 327 329 329 329 330 330 329 327 326 326 325 324 324 324 323 321 320 322 320 317 313 312 315 317 317 312 313
325 326 328 328 328 327 328 328 328 327 327 326 327 326 325 326 325 325 325 325 326 325 326 325 324 325 324 325 325 323 323 322 322 322 323 322 326 327 329 329 328 329 327 326 326 323 323 322 322 321 320 321 319 320 322 314 313 311 311 314 313 313 313
325 326 326 327 326 325 326 326 325 327 326 325 326 326 325 325 323 323 323 323 323 324 324 325 326 325 325 324 323 324 324 323 323 323 322 321 322 325 327 328 328 328 327 327 326 324 324 322 322 321 321 320 319 319 317 315 315 312 312 311 315 310 311
325 325 325 325 324 324 324 324 324 326 325 326 324 324 324 323 323 323 322 321 322 322 322 323 323 323 322 323 323 322 322 323 323 322 322 319 319 323 327 327 327 327 327 327 325 325 324 323 322 321 320 320 320 317 319 317 317 315 315 311 312 309 311
325 325 323 323 322 322 322 322 323 323 325 325 324 323 322 322 322 322 323 320 320 321 321 321 321 321 323 324 323 323 322 321 323 322 323 321 321 322 325 327 326 326 327 327 325 324 323 324 321 321 320 318 317 318 317 316 315 315 315 312 312 312 314
323 323 323 323 322 321 321 321 320 320 322 322 322 323 323 321 321 320 320 320 320 320 320 321 320 320 320 322 323 324 324 323 323 322 322 322 320 321 324 325 324 325 325 327 326 326 325 324 323 323 321 319 317 317 317 316 316 315 314 313 315 311 312
322 322 323 323 324 322 322 322 320 319 319 320 320 320 321 321 321 320 319 320 320 320 320 319 320 321 320 320 321 321 323 323 323 323 322 321 320 320 321 322 323 324 325 326 327 326 325 325 325 324 324 324 320 318 317 316 314 314 314 315 314 314 311
323 322 322 323 324 324 324 323 323 323 323 322 321 319 319 318 320 320 321 320 320 321 321 320 320 320 320 321 321 322 322 322 321 323 323 321 321 320 321 321 322 322 324 325 326 326 326 325 325 325 324 324 323 320 319 318 316 314 314 314 311 312 312
319 318 319 320 321 322 324 324 324 323 323 323 322 320 319 319 319 318 318 320 319 321 321 321 320 322 321 320 321 321 322 320 321 321 322 322 321 321 320 321 321 322 323 318 312 315 316 316 323 321 321 320 320 319 319 318 316 314 314 313 312 314 312
319 319 319 318 318 320 320 320 321 320 321 322 322 321 318 317 317 319 319 318 319 320 320 320 312 305 307 319 322 319 322 322 321 321 321 322 322 321 321 323 322 316 313 311 307 302 301 303 308 318 324 321 319 319 318 317 315 315 314 312 311 311 310
318 317 317 317 318 319 321 321 320 317 317 318 319 319 319 318 318 318 318 318 319 319 318 312 296 299 299 300 315 322 321 321 322 322 322 322 321 323 323 321 324 321 319 314 315 299 299 299 299 300 303 309 314 321 320 318 316 316 313 313 314 313 311
312 312 314 314 315 315 315 314 313 314 314 314 314 316 315 316 318 320 321 322 320 317 311 296 293 294 297 297 303 318 321 321 322 322 322 322 322 323 323 324 325 325 325 324 324 320 309 299 297 298 298 298 299 299 302 318 319 317 316 313 314 313 313
305 305 306 307 308 308 307 307 307 307 308 310 310 310 312 313 314 316 318 317 314 311 306 294 294 294 293 295 295 305 318 319 319 320 322 322 323 323 324 324 325 324 323 316 317 322 323 320 300 296 298 297 297 296 296 296 298 319 321 317 315 316 315
301 302 303 303 304 304 304 304 305 306 307 308 308 308 309 310 311 312 314 314 311 307 303 294 293 293 293 292 292 299 318 319 319 319 320 321 322 322 323 322 322 322 324 323 324 324 322 322 320 316 315 315 317 310 297 295 295 293 304 319 319 316 320
299 300 300 302 303 302 302 302 303 304 305 305 306 305 306 308 309 310 311 312 310 306 301 292 292 292 293 293 293 299 317 317 318 319 320 320 320 321 322 323 322 322 323 322 322 320 321 320 320 320 319 319 319 320 319 317 316 316 316 317 320 320 322
298 298 298 299 300 300 301 301 302 303 304 303 303 304 304 305 306 307 308 309 309 306 302 292 292 292 292 293 297 317 320 320 319 319 319 320 319 320 320 320 320 320 322 322 312 301 307 319 319 318 318 319 319 318 318 308 299 300 312 319 320 320 320
298 298 298 297 298 299 300 300 302 304 303 302 301 300 301 302 304 305 305 306 307 306 303 295 291 292 292 292 302 316 319 321 322 322 323 322 321 320 320 320 320 320 321 322 309 297 297 303 318 318 318 319 319 318 318 312 295 291 291 291 293 295 296
297 298 298 298 298 298 299 299 299 301 301 301 300 299 301 301 302 303 303 303 304 305 303 296 291 292 292 291 299 311 312 315 318 320 321 322 323 322 320 313 316 322 323 323 306 298 294 305 318 319 319 318 318 317 318 316 310 308 291 292 291 293 295
299 298 298 299 299 298 299 299 299 299 299 299 299 300 301 300 301 301 301 301 300 303 304 299 292 291 291 291 299 310 310 312 313 313 314 316 319 320 320 316 309 312 316 313 298 298 292 303 319 321 319 318 316 317 319 320 312 311 311 310 310 308 304
298 298 297 298 299 299 300 300 300 299 299 299 298 299 300 300 300 300 301 302 301 302 302 302 297 291 292 292 292 305 308 307 307 308 310 311 312 316 317 318 315 300 296 296 295 295 293 293 314 320 319 318 318 317 321 321 317 316 315 313 314 313 312
298 298 298 298 298 298 299 299 299 299 299 299 300 299 299 300 299 299 300 300 300 300 299 300 298 290 291 292 291 296 305 303 303 304 306 307 309 310 312 314 316 308 298 296 295 294 293 292 295 315 318 319 320 320 313 320 315 301 314 314 312 310 310
298 298 298 298 298 297 298 299 298 298 298 298 299 298 298 298 298 298 299 299 299 299 299 296 298 293 291 291 291 291 299 300 297 301 304 305 306 308 309 310 311 304 296 295 294 294 293 293 291 306 313 302 300 298 315 317 317 312 312 312 309 307 307
297 298 298 298 297 297 297 298 298 298 297 298 298 298 298 298 298 298 298 298 299 299 299 299 293 296 291 290 290 290 289 294 290 299 301 302 303 305 307 307 306 298 293 293 293 292 293 293 292 301 297 296 295 294 298 312 313 311 311 309 308 307 305
296 297 298 298 297 297 297 297 297 297 297 297 296 296 296 297 297 296 296 297 298 298 298 298 295 292 294 291 290 290 290 289 290 296 297 300 302 303 304 304 301 293 292 292 291 292 292 292 299 295 293 293 293 294 305 309 309 309 307 305 304 304 302

ECMWFFLT1_sfc_thetae_054.txt.gz
Theta_e
336 337 339 340 342 341 340 340 340 339 340 340 339 339 339 339 339 338 339 339 338 338 336 337 336 337 338 339 339 339 335 335 336 332 331 332 330 331 335 334 334 336 335 333 329 325 322 319 319 324 326 327 328 328 328 326 324 323 323 321 318 318 319
332 332 335 340 339 340 340 340 340 339 339 339 339 338 338 337 337 338 338 338 337 336 336 335 338 338 340 340 339 338 336 336 336 333 334 332 334 332 331 333 333 331 331 333 331 327 323 320 319 320 319 324 326 327 328 325 323 323 322 320 317 316 318
329 334 338 338 338 338 339 339 338 336 336 337 339 338 337 336 337 337 337 337 338 337 335 335 338 340 340 339 339 339 339 337 337 334 332 337 335 335 333 332 329 329 330 330 328 327 325 326 321 321 322 321 319 322 326 323 322 321 320 319 319 316 316
328 334 336 336 335 336 335 335 335 335 335 335 337 337 337 337 337 337 337 337 338 338 336 336 337 338 339 338 338 338 338 337 336 336 334 332 332 332 333 331 334 330 326 325 326 325 324 323 322 321 322 323 319 319 321 320 319 317 316 317 316 315 315
330 333 334 332 333 334 333 333 333 334 334 335 335 334 336 336 337 336 338 337 336 337 336 339 341 339 338 337 336 336 335 336 336 335 334 333 331 330 334 332 330 329 330 329 328 327 327 327 323 321 320 322 321 319 317 319 317 315 314 314 313 313 313
332 335 332 334 335 333 333 333 333 332 333 333 333 334 335 337 336 336 336 335 335 337 338 340 340 339 338 337 335 335 335 335 334 334 332 331 332 331 331 332 334 332 331 331 331 328 328 328 326 322 320 321 318 314 314 314 312 313 314 312 311 311 311
336 333 334 334 334 334 333 332 333 332 332 333 334 333 335 336 335 336 336 335 335 336 336 336 338 340 340 337 337 337 335 335 335 335 334 334 334 334 333 331 330 332 331 332 332 331 329 328 325 323 321 321 319 312 312 312 312 309 310 311 312 311 310
336 335 334 334 334 333 333 333 332 332 331 332 332 334 335 336 335 336 335 335 335 335 335 335 335 337 341 337 337 337 337 336 335 334 333 333 332 332 334 331 331 331 332 332 332 332 329 328 329 326 323 318 315 314 312 311 309 310 309 310 311 310 311
337 337 335 335 335 334 334 332 332 333 333 333 334 334 335 335 334 334 334 334 334 335 335 334 334 333 338 337 337 338 338 336 336 335 335 334 333 333 333 333 331 332 334 334 334 332 333 332 329 329 326 321 314 310 312 310 311 309 310 308 309 310 312
336 336 335 336 335 334 334 333 333 334 334 334 334 335 335 335 335 334 333 333 334 334 333 332 332 332 334 334 335 338 338 338 337 335 336 335 335 335 334 334 333 334 334 336 335 334 334 335 331 327 327 322 319 314 311 309 310 307 308 310 307 308 312
336 336 337 336 335 334 333 333 334 333 333 333 333 334 333 333 334 333 333 332 333 333 333 332 331 331 333 331 332 333 336 338 337 337 337 336 336 336 335 334 332 330 332 334 334 336 335 333 329 329 328 324 322 317 315 311 311 311 309 311 311 308 311
336 337 337 337 335 334 332 333 333 332 334 334 332 333 332 331 332 332 333 332 332 331 331 331 331 331 331 331 332 331 335 335 333 335 336 337 337 336 335 333 332 332 334 335 335 335 336 334 333 329 327 326 323 322 319 315 311 313 315 312 312 312 311
336 336 336 335 333 331 331 332 333 332 333 332 332 331 330 329 330 330 330 330 330 331 331 330 331 331 330 330 330 329 331 332 330 329 330 335 332 335 335 333 333 333 335 335 335 335 334 334 334 329 327 324 322 323 321 317 314 313 316 315 314 312 313
334 335 335 334 332 332 332 333 333 333 332 332 332 331 329 329 328 329 329 328 328 329 330 331 330 330 329 328 328 329 329 328 326 327 328 331 331 335 334 333 333 333 334 334 333 332 332 332 332 329 325 322 320 323 321 317 314 315 318 319 317 313 313
334 335 335 333 331 331 332 332 333 332 333 332 332 330 329 329 328 328 328 328 329 328 329 329 329 329 327 328 329 328 327 327 326 326 327 326 328 332 335 333 332 334 334 333 331 328 330 330 329 326 322 321 318 319 322 317 315 314 316 320 316 316 313
332 334 334 333 331 330 331 332 333 332 332 331 331 330 329 329 328 327 326 326 326 328 328 328 329 329 328 327 326 328 327 326 326 326 325 324 325 330 335 334 333 334 334 333 331 330 330 328 326 323 322 321 319 318 318 318 317 314 315 314 319 315 315
331 333 333 331 331 331 331 331 332 332 331 330 328 330 328 326 325 326 326 326 327 328 327 328 329 328 327 326 326 326 325 326 326 325 324 323 323 326 333 333 334 334 334 332 330 329 328 326 324 322 322 322 322 319 320 320 320 317 316 313 315 314 315
334 333 333 332 333 333 332 331 331 330 330 329 328 326 324 325 324 324 325 323 324 325 326 326 326 326 327 326 326 326 325 324 326 325 325 324 325 326 328 333 333 334 333 332 330 326 324 325 322 322 321 320 320 321 321 319 319 319 318 316 315 316 316
334 333 332 333 332 332 331 331 330 330 328 326 324 324 324 323 323 322 322 321 321 321 321 322 322 322 323 325 325 327 327 326 324 324 324 324 323 326 328 332 333 333 332 332 328 327 325 325 322 322 321 320 319 321 322 321 320 320 318 317 318 314 317
332 332 331 331 331 330 329 330 329 327 326 325 325 323 323 323 323 322 321 321 321 320 320 319 320 320 321 322 323 324 326 326 324 325 324 323 324 324 326 331 333 333 333 333 330 329 328 327 325 323 323 323 321 321 321 321 319 319 319 318 318 318 316
331 330 330 330 329 329 328 327 325 324 324 324 324 323 323 322 322 321 321 321 321 321 321 319 319 320 320 323 323 323 324 326 325 324 325 324 325 324 324 327 331 332 332 331 330 330 331 328 326 325 325 325 325 322 321 321 320 319 318 319 318 318 317
326 327 328 328 327 327 325 325 324 324 324 324 323 321 321 321 320 320 320 321 319 321 321 321 325 325 322 319 321 321 321 322 325 324 324 323 324 323 323 325 326 328 334 321 310 316 317 318 325 322 324 325 324 323 323 322 322 320 319 318 317 319 317
324 325 326 326 326 325 324 324 325 326 326 324 325 325 324 323 322 321 320 321 322 324 326 323 306 297 302 322 322 320 321 322 322 324 323 322 322 323 323 324 327 318 313 313 310 304 304 307 310 323 326 325 323 323 322 320 319 318 318 316 317 317 315
323 324 324 324 324 323 324 325 325 323 323 324 324 324 324 324 324 323 323 324 325 323 317 307 294 292 294 298 319 324 323 322 321 322 323 323 322 322 323 323 325 321 320 315 318 299 301 300 302 302 303 309 314 331 323 320 319 320 317 317 317 316 315
321 321 322 321 321 321 321 320 320 321 322 322 322 323 323 323 325 325 323 321 319 316 309 296 292 293 292 293 300 323 323 323 322 322 322 322 322 323 323 324 324 326 325 325 324 320 309 299 298 298 298 300 302 300 300 321 322 319 319 316 315 316 317
318 317 316 317 318 318 317 315 316 318 318 319 320 321 322 323 323 320 317 315 312 310 306 293 292 293 293 292 292 304 322 323 322 322 322 322 323 323 323 323 323 324 324 321 321 322 323 320 299 296 298 297 296 297 298 296 298 320 322 319 318 316 316
314 314 314 315 315 314 312 312 313 314 315 317 318 318 319 320 320 317 314 312 309 307 304 295 292 292 293 292 291 297 324 324 323 323 323 323 324 324 324 324 323 323 324 325 322 322 323 323 324 319 320 322 323 316 295 295 295 291 305 320 320 318 320
310 311 311 311 310 309 310 310 310 311 311 312 312 312 312 314 315 316 315 312 310 307 302 291 292 292 292 292 292 296 326 325 324 324 324 325 324 324 324 325 324 323 325 326 326 325 325 324 325 325 324 323 323 323 326 325 323 321 320 320 321 321 323
306 307 307 308 308 308 309 310 309 308 308 308 308 309 311 313 313 315 315 314 310 307 303 291 291 292 292 292 292 323 328 327 325 325 325 326 325 325 325 325 324 323 324 323 313 303 311 323 322 323 321 322 322 323 325 320 314 316 326 330 326 325 327
301 302 302 302 303 306 307 308 309 309 307 307 306 307 308 308 309 310 311 312 311 307 304 295 291 291 292 291 304 323 325 325 326 326 327 328 327 327 328 327 326 324 325 325 308 299 300 304 321 321 321 321 322 322 322 329 299 294 294 294 293 292 292
301 301 300 300 300 302 303 305 305 306 306 306 305 307 307 306 307 307 307 309 311 309 304 296 291 292 292 291 297 318 318 320 322 323 325 327 327 328 327 312 319 326 327 321 292 296 295 309 321 323 323 322 321 321 322 326 322 315 292 293 294 293 294
302 301 300 300 301 301 300 301 302 303 304 306 305 305 305 306 306 306 306 306 305 308 306 299 292 291 291 291 300 315 314 316 317 318 318 320 322 323 326 320 310 309 310 301 293 295 292 302 322 323 324 324 321 322 324 327 326 322 317 315 314 312 310
303 303 303 303 304 303 302 303 303 303 303 303 303 304 304 305 305 305 306 306 305 306 306 302 296 291 291 292 291 306 313 312 311 311 313 313 314 319 320 322 310 294 294 293 293 292 295 291 311 322 324 324 323 321 326 327 327 326 324 321 322 321 319
303 304 304 304 305 305 305 304 304 304 304 305 305 305 305 305 305 305 305 305 305 303 303 304 298 290 291 290 290 295 310 306 306 307 309 310 312 314 315 316 318 294 292 292 292 292 293 293 293 310 319 322 323 314 308 323 328 308 323 323 323 321 321
303 303 304 305 305 304 305 305 305 305 305 305 305 305 305 305 305 305 306 306 307 306 302 299 303 293 290 290 288 290 303 304 299 305 306 308 309 310 312 312 315 298 289 290 291 291 291 292 292 303 311 300 296 295 311 315 322 322 321 320 319 318 319
303 303 304 305 304 304 304 304 304 305 305 305 305 305 305 305 305 305 305 306 305 305 305 303 294 298 290 290 288 288 287 295 290 303 305 305 306 307 309 311 310 294 291 290 291 290 291 290 292 301 296 295 295 293 297 313 316 319 318 316 318 318 318
301 302 303 303 303 304 304 304 303 304 304 304 303 304 303 304 304 304 303 304 305 304 305 305 295 293 295 289 291 289 289 288 289 298 299 302 305 306 308 308 301 290 290 291 291 291 291 291 298 294 293 293 293 293 302 306 309 313 312 313 312 313 313

ECMWFFLT1_sfc_thetae_057.txt.gz
Theta_e
333 332 334 334 334 334 340 337 340 342 343 343 340 339 339 337 339 342 343 342 340 340 338 339 338 339 337 336 337 339 337 337 336 333 330 330 329 330 333 333 332 333 332 331 329 325 321 320 321 327 332 333 332 330 328 327 326 325 325 324 321 322 324
335 335 334 333 334 335 332 340 339 340 339 339 339 339 338 338 338 338 338 337 340 340 336 338 339 338 339 336 338 336 338 337 338 337 336 330 329 328 331 332 333 332 333 332 331 328 325 321 319 321 323 330 331 329 328 327 324 323 321 320 318 317 319
332 332 331 332 332 333 335 336 339 339 339 338 340 339 339 338 338 338 337 337 338 337 335 335 336 337 339 339 339 338 337 336 337 337 335 336 333 330 331 330 332 331 328 329 329 327 328 326 321 319 322 322 321 324 327 324 324 322 320 320 319 317 317
331 332 331 332 333 331 331 332 337 337 338 338 339 340 339 338 339 339 338 337 338 338 335 336 338 338 339 339 339 339 335 336 337 337 336 336 337 334 333 335 331 328 326 323 327 327 326 324 322 322 323 324 322 320 323 325 323 320 318 318 316 315 315
332 331 332 331 331 330 329 331 335 337 337 338 339 338 338 338 339 339 339 337 337 338 336 336 341 339 339 339 339 338 337 338 337 335 336 335 336 335 336 335 333 332 331 329 327 330 328 326 325 322 323 323 322 321 320 322 320 317 316 315 313 314 313
334 333 333 329 330 330 331 330 334 335 334 334 334 336 336 338 337 338 337 335 335 337 337 340 341 339 338 338 337 337 336 337 336 335 333 334 336 334 334 335 334 332 330 332 332 330 331 330 326 321 322 323 319 317 317 317 314 315 314 313 312 312 313
335 336 334 330 329 331 330 333 334 332 333 333 333 334 336 336 336 336 336 336 335 335 338 341 340 339 339 337 337 336 337 339 336 336 336 336 337 336 336 332 335 332 334 332 331 330 329 328 325 322 321 321 319 315 316 315 314 311 311 311 312 312 312
336 335 333 331 329 331 331 334 333 333 332 333 333 335 336 336 336 335 335 335 334 335 335 337 339 340 339 336 336 336 334 336 335 337 334 335 334 334 334 333 333 332 331 332 334 330 330 330 327 326 321 317 315 315 313 313 312 312 309 310 311 312 314
336 335 335 335 333 336 335 332 333 333 333 333 334 333 335 335 335 334 335 334 335 335 334 334 334 336 339 337 335 336 335 335 335 336 336 337 335 335 333 335 334 332 334 332 331 332 331 333 332 328 324 320 314 310 312 310 310 309 311 308 310 312 315
335 336 334 335 336 336 336 334 332 333 334 334 334 335 334 334 335 335 334 333 334 334 333 333 333 332 337 337 335 335 334 336 337 333 336 335 335 335 335 336 334 334 334 334 332 333 333 333 333 330 326 322 319 313 309 308 309 307 308 309 307 310 315
333 333 335 333 335 333 333 333 333 333 332 332 333 334 334 334 335 334 333 333 334 333 333 332 331 332 335 334 334 335 336 336 336 334 336 336 335 336 335 337 333 331 334 335 333 332 334 334 331 332 329 324 323 317 313 310 309 310 308 310 310 309 314
332 331 335 336 335 333 332 333 333 333 334 333 332 332 333 332 333 333 333 332 333 332 332 332 332 332 332 331 332 334 336 337 334 335 336 336 335 335 334 332 332 331 333 334 331 333 334 332 330 331 329 325 323 323 319 315 309 310 312 310 311 313 314
332 332 334 335 333 332 331 332 333 333 332 331 332 331 331 331 331 331 329 331 330 331 331 331 331 331 331 331 331 330 333 334 334 334 333 334 333 334 333 333 333 331 332 332 331 331 333 332 331 329 328 326 323 324 322 318 312 309 313 312 312 312 315
333 335 333 334 332 332 333 333 333 333 331 331 331 330 330 329 330 329 328 328 328 329 330 331 331 331 330 329 329 329 329 329 326 327 328 332 330 331 333 333 331 332 333 332 330 331 331 331 331 330 327 323 322 323 321 322 313 311 315 317 314 311 315
332 330 332 333 331 331 331 332 333 331 331 330 330 330 329 329 329 329 328 327 328 328 329 329 329 330 328 329 329 328 328 326 326 326 327 326 329 333 333 332 330 332 333 332 330 328 328 330 331 329 326 322 320 322 323 317 314 312 313 317 313 313 313
334 332 331 331 331 331 332 333 332 332 331 330 330 330 328 329 329 328 328 329 328 327 327 327 329 328 329 328 327 327 328 327 326 326 326 326 325 331 332 331 331 332 333 331 331 331 331 331 329 324 322 320 319 319 319 318 316 314 314 314 316 312 314
334 331 331 330 330 330 332 332 333 333 332 330 329 331 330 328 327 328 327 326 327 327 327 327 327 327 326 327 326 326 326 327 327 326 325 324 324 327 330 330 330 331 331 330 330 328 331 327 326 324 322 321 319 318 320 322 319 318 316 315 316 313 313
332 332 330 330 331 331 332 333 333 332 332 331 330 330 327 327 325 325 326 325 326 326 326 326 326 327 327 327 326 326 325 325 326 325 325 325 328 326 330 330 329 332 332 332 329 328 328 329 324 323 321 320 318 319 320 320 318 318 317 316 316 317 317
333 330 330 332 330 331 333 332 333 332 329 329 328 326 324 324 323 323 323 325 325 326 326 326 326 325 325 326 327 327 326 326 325 325 324 324 325 326 327 331 331 330 330 331 329 328 326 325 322 323 322 320 318 319 320 319 319 318 316 315 316 316 318
331 332 332 332 331 331 332 332 331 329 328 326 323 323 323 323 323 321 321 322 321 321 322 322 323 324 324 324 324 326 326 326 325 326 325 324 325 326 327 331 331 332 330 331 327 325 325 325 324 324 323 322 320 320 319 318 316 317 318 317 316 317 316
328 331 333 331 330 330 330 330 329 327 326 323 323 322 323 323 323 323 322 321 321 322 321 320 320 320 321 323 324 325 326 326 324 326 326 325 325 326 326 330 331 332 331 331 328 327 328 324 323 323 323 323 323 321 320 320 319 318 317 318 316 317 316
329 328 329 329 329 328 328 328 327 325 325 326 325 324 323 323 322 321 321 322 321 322 323 323 315 314 319 322 323 323 325 324 324 324 324 324 325 325 325 327 330 328 326 321 309 315 317 319 327 324 324 324 324 322 321 320 319 318 318 318 318 319 318
327 324 325 327 326 327 327 326 324 323 323 323 323 322 321 321 320 319 319 320 322 329 323 318 302 296 297 311 321 320 323 324 323 323 323 323 324 324 325 326 326 319 315 314 310 304 303 304 307 322 326 326 327 322 322 321 320 319 319 318 317 317 317
326 325 326 327 327 326 326 325 324 323 325 327 326 325 324 322 322 322 322 327 324 320 314 305 294 292 293 293 310 325 321 321 323 323 323 322 322 323 324 323 323 324 323 319 323 300 301 302 301 300 300 303 311 331 323 322 320 321 318 318 318 317 316
323 324 325 325 325 326 326 326 325 325 324 324 324 325 326 325 326 325 322 320 316 312 307 295 292 293 293 292 295 313 323 323 321 322 322 322 321 323 323 323 322 322 322 323 320 321 314 301 300 299 298 299 300 298 301 320 322 319 319 318 317 317 317
321 321 320 320 320 320 320 320 321 322 322 323 324 323 324 323 321 319 317 314 312 309 304 293 292 292 293 292 293 301 319 322 321 320 321 322 322 322 322 323 323 324 324 322 322 321 321 321 301 296 300 301 300 299 298 298 300 317 319 320 319 318 317
319 319 318 318 318 318 318 317 320 320 320 321 322 323 323 320 318 315 313 311 308 304 299 294 292 292 292 291 292 295 318 323 322 322 321 322 323 323 322 322 322 322 323 324 322 325 322 322 321 319 320 320 320 317 299 296 296 292 304 319 319 318 320
317 316 316 317 316 315 315 316 317 320 318 319 319 319 319 317 315 313 311 308 305 302 299 291 291 291 292 292 291 295 323 325 322 322 323 323 324 324 324 325 324 324 324 324 326 327 324 322 324 324 322 321 321 321 323 322 319 319 319 320 320 320 322
313 312 312 312 312 311 312 313 313 315 314 314 315 317 318 318 316 313 312 310 306 304 301 291 291 291 292 291 292 318 327 324 321 321 321 322 322 322 322 323 323 322 323 323 309 304 309 324 322 323 322 323 323 323 324 320 317 316 325 325 325 324 325
307 308 309 310 310 311 312 312 311 312 312 311 310 309 310 311 313 314 312 311 309 305 302 294 291 291 291 291 299 321 323 323 324 324 324 325 323 323 324 324 324 322 327 316 295 293 291 299 320 319 319 320 321 321 321 329 311 305 307 306 303 299 295
303 304 305 305 306 308 308 309 310 311 310 309 308 308 308 308 309 310 311 311 309 305 302 295 291 291 291 291 296 316 319 321 321 323 325 327 327 327 325 313 323 326 320 309 292 293 291 307 321 321 321 319 319 319 320 323 328 323 301 299 298 296 295
304 304 304 304 305 304 305 305 307 310 310 309 308 308 308 307 308 308 308 308 309 309 305 299 292 291 291 291 297 312 314 315 318 318 318 320 324 324 319 306 299 303 304 297 290 292 292 301 318 322 324 323 320 318 319 324 325 324 322 322 321 320 314
305 305 305 306 306 305 305 305 306 307 306 306 305 306 307 308 308 307 307 306 307 308 306 300 295 291 291 292 291 306 313 311 312 312 314 314 315 318 318 310 299 290 290 290 290 289 291 290 305 313 316 321 322 318 315 315 322 325 323 321 323 323 321
306 306 306 306 306 306 306 306 306 306 306 308 307 307 306 306 306 306 308 308 305 304 305 303 296 290 291 291 291 295 309 306 304 306 309 309 312 313 315 315 305 291 290 290 290 289 290 290 290 304 312 315 318 303 300 315 316 309 321 322 321 320 322
306 306 306 307 307 306 306 307 308 307 306 307 306 306 306 306 307 307 307 308 309 306 303 302 302 293 290 291 290 290 300 301 297 300 304 307 308 310 311 313 307 295 290 290 290 290 290 291 290 300 307 298 294 294 303 307 312 316 319 321 321 319 319
305 306 307 307 307 307 307 307 307 308 309 307 307 306 306 307 307 307 307 307 308 308 304 301 296 298 290 290 288 290 289 295 291 303 303 304 305 306 309 310 306 294 291 291 291 290 291 290 292 300 295 293 293 291 296 308 310 312 315 318 318 318 317
305 307 307 307 307 307 307 307 306 307 307 307 307 307 307 307 307 307 306 306 308 307 308 304 296 295 296 288 290 288 290 289 290 299 299 301 304 306 307 303 299 291 292 291 291 291 290 290 295 293 292 292 291 293 303 306 307 310 309 311 312 314 314

ECMWFFLT1_sfc_thetae_060.txt.gz
Theta_e
334 334 336 337 338 337 336 335 335 335 334 334 334 333 335 338 341 341 341 341 340 338 338 339 339 341 339 336 338 339 337 337 334 330 327 330 328 329 333 332 330 332 332 329 325 321 318 315 317 325 327 328 328 328 328 328 325 325 325 325 326 326 324
337 336 336 337 335 335 333 332 333 334 334 334 334 333 334 337 338 339 339 341 340 340 338 338 339 338 340 337 336 337 335 337 336 333 331 329 331 329 329 331 331 330 330 329 328 326 321 317 316 318 319 326 326 325 326 322 322 322 323 320 319 318 318
334 334 334 332 333 334 331 332 333 331 333 332 334 335 336 337 338 339 337 337 339 338 338 337 336 339 339 337 337 338 337 336 337 335 332 331 330 330 331 330 325 327 326 326 327 325 324 323 317 318 319 319 318 321 324 320 320 320 317 316 315 315 316
333 332 331 330 332 332 331 330 330 332 333 333 335 335 337 339 341 339 338 339 338 339 336 335 336 335 340 338 337 337 337 335 334 335 333 331 330 330 331 329 327 327 325 323 322 325 324 321 319 318 320 322 319 317 319 320 317 316 315 316 314 313 313
333 331 331 330 332 330 331 329 331 332 329 332 333 333 337 342 341 341 342 341 340 340 340 339 339 338 338 338 338 337 335 336 337 335 333 331 331 330 331 330 330 331 329 327 326 327 325 323 321 318 319 320 319 318 319 320 318 315 313 311 310 310 311
333 333 333 333 333 331 330 329 329 329 330 329 329 332 338 340 340 340 340 340 339 339 339 338 342 338 337 337 337 336 335 335 334 334 332 331 331 329 330 334 335 333 330 331 331 329 327 327 326 319 320 321 317 317 318 317 313 313 312 309 308 309 312
333 334 334 333 333 332 332 331 330 330 329 329 330 334 337 338 338 339 339 339 338 339 340 341 339 340 340 335 336 335 334 336 335 335 333 333 333 333 333 330 332 329 332 332 330 330 327 325 323 320 318 319 316 312 314 313 311 308 307 308 308 309 309
333 334 333 332 332 333 332 331 330 331 330 331 333 337 337 339 338 338 338 338 337 337 338 339 342 340 340 338 335 336 335 336 335 334 333 332 334 333 333 332 331 329 330 331 331 330 330 328 326 323 320 315 312 311 310 310 308 307 305 306 308 308 309
334 335 333 331 331 331 330 330 330 332 334 335 335 335 337 339 337 337 336 336 336 336 336 337 337 337 340 338 336 334 333 334 335 334 334 333 333 333 332 331 331 330 331 330 330 331 330 332 331 326 324 317 310 307 310 306 306 304 306 304 307 310 310
334 333 331 330 330 330 330 330 331 332 335 335 335 336 336 338 338 336 334 334 337 337 337 336 335 335 339 338 337 335 334 334 334 333 334 333 334 333 331 331 331 331 332 332 332 332 333 331 331 330 329 322 314 309 306 304 307 301 304 305 305 308 311
334 334 332 330 331 330 331 332 333 334 332 334 334 335 338 335 337 337 334 334 336 337 337 336 334 333 337 338 336 336 335 336 335 334 335 334 333 333 332 331 331 330 331 330 329 330 331 331 331 329 328 326 322 313 309 304 303 306 303 305 308 307 310
334 335 334 332 332 332 332 333 333 332 334 333 333 335 334 333 336 336 335 332 334 335 335 335 335 333 334 333 333 336 336 337 334 334 334 334 334 333 332 330 330 330 331 330 329 329 331 331 330 332 329 327 323 321 313 309 303 308 307 305 307 310 310
332 332 331 331 332 331 332 333 332 333 333 332 333 334 333 333 333 332 332 332 333 333 334 332 334 333 335 333 333 332 333 334 334 332 333 333 332 333 332 331 330 330 331 330 329 330 330 330 329 328 327 326 325 324 321 310 306 305 309 309 308 310 312
331 330 329 329 327 332 332 332 333 333 331 332 332 332 332 331 330 330 328 329 329 331 332 334 335 332 332 330 332 332 331 331 328 329 329 332 332 332 331 329 330 331 331 329 329 329 329 329 329 329 326 325 324 323 321 314 306 306 312 312 309 309 312
331 329 327 328 329 334 331 332 333 330 331 330 331 330 330 332 331 332 328 327 329 328 331 332 333 331 328 330 331 334 330 328 326 326 328 327 328 331 332 329 330 329 331 329 329 328 329 329 327 326 326 325 321 323 323 315 308 306 308 308 308 310 311
330 328 326 326 330 333 331 332 331 331 331 329 331 332 330 331 329 331 328 331 327 327 327 328 331 332 330 330 329 330 330 326 328 325 327 326 325 329 330 330 328 330 330 329 329 330 331 330 327 325 324 322 320 319 320 317 310 310 308 308 310 308 309
328 327 324 324 328 331 332 331 331 331 329 330 329 333 330 329 330 331 329 328 327 327 329 325 330 331 327 327 327 328 327 328 327 327 326 324 323 327 329 330 328 328 329 329 327 325 327 329 328 325 324 321 321 318 321 316 314 311 310 309 307 307 310
328 327 326 326 329 332 332 331 331 330 330 329 330 329 329 331 330 329 330 326 326 327 327 325 327 328 328 329 329 328 327 326 329 326 327 323 327 327 328 328 328 328 329 327 326 326 325 325 327 325 322 320 315 318 322 317 314 313 312 310 311 310 310
327 327 326 328 330 330 331 332 332 330 329 328 329 329 329 327 325 323 324 325 324 325 327 325 325 327 324 328 328 331 328 328 327 326 322 327 326 327 328 328 328 329 329 327 326 326 324 324 324 323 321 317 314 316 316 318 317 314 314 312 310 314 309
325 326 327 327 329 330 331 332 331 329 329 328 325 327 326 327 329 325 327 326 325 328 324 322 325 326 326 325 327 328 328 327 327 329 325 327 325 328 328 329 329 329 328 327 326 326 325 325 324 322 321 323 317 316 318 316 315 314 314 312 312 312 311
323 324 325 328 330 330 328 328 329 329 326 325 325 324 323 324 327 327 322 324 323 322 317 314 312 313 317 322 327 326 327 327 327 325 327 326 325 326 328 328 327 327 328 328 329 327 325 323 323 321 324 322 321 314 315 317 317 314 314 312 310 310 312
327 327 328 327 327 328 328 327 329 327 323 325 327 323 324 324 326 321 322 324 324 321 317 309 304 302 308 313 318 324 326 325 326 327 325 326 325 325 327 328 327 328 326 318 309 311 313 320 329 322 322 322 322 318 317 317 317 317 316 314 313 315 313
325 326 329 327 328 328 327 327 325 323 324 325 324 324 323 324 321 322 323 321 319 315 311 306 299 295 297 305 315 318 323 326 325 326 324 324 324 326 326 326 328 325 316 314 307 301 300 302 308 317 319 323 323 321 320 317 317 315 316 314 312 313 312
324 324 324 326 326 326 324 324 323 324 325 325 325 324 322 324 322 319 317 315 312 309 304 299 294 292 293 295 308 314 317 322 325 326 324 324 323 324 323 321 319 318 318 319 311 300 299 298 297 298 299 301 310 326 322 319 318 320 317 316 315 315 313
324 325 327 325 325 324 323 323 323 323 323 324 325 324 321 320 318 316 314 311 308 306 302 295 292 293 293 293 297 309 317 318 323 323 323 323 324 323 322 320 320 323 323 322 319 315 307 299 298 299 298 298 297 297 303 317 318 317 318 314 315 314 314
319 320 320 320 320 320 320 320 320 320 321 322 322 320 318 316 315 313 309 306 304 303 301 293 292 292 292 292 292 303 316 318 319 323 322 325 324 325 321 319 321 324 322 323 319 318 318 315 300 299 302 304 305 300 298 299 302 314 314 313 312 313 316
317 317 317 317 318 318 318 319 320 321 321 321 320 318 317 314 312 310 307 304 302 300 297 293 291 292 292 292 291 297 316 319 323 323 323 325 325 323 324 322 322 323 321 321 322 323 319 316 315 314 317 317 317 314 306 300 295 293 304 316 315 312 315
315 314 314 314 314 315 315 315 316 317 318 319 319 316 314 312 310 309 307 305 303 300 297 291 291 291 291 291 293 300 319 324 323 323 322 323 323 323 323 325 322 323 319 310 301 298 315 322 318 320 317 318 318 318 318 317 315 312 311 314 315 316 315
313 313 312 312 312 312 313 313 314 315 314 315 316 317 315 313 311 309 309 307 303 299 297 291 291 291 291 291 296 317 323 324 323 322 322 322 323 322 322 323 322 317 311 306 296 293 296 309 320 321 322 320 319 319 319 317 311 309 315 316 316 316 317
309 310 311 311 311 311 311 312 312 312 311 311 310 310 310 312 312 311 309 305 302 299 297 293 291 291 291 291 298 314 316 318 323 323 322 323 321 314 313 321 320 314 308 301 293 292 294 304 319 318 317 317 318 319 319 324 309 304 303 305 305 299 295
306 306 306 307 307 307 309 310 310 311 309 308 306 306 307 308 309 309 308 307 304 301 298 294 291 291 291 291 297 311 314 314 318 315 320 324 321 310 303 305 309 305 301 296 290 291 293 305 316 317 318 318 319 317 315 315 322 319 306 303 302 300 299
306 305 305 305 305 305 305 307 308 310 309 307 307 306 306 306 306 306 307 308 308 303 298 296 292 291 291 292 299 310 310 310 308 308 310 312 319 309 302 297 296 295 295 291 289 289 290 300 307 308 310 313 314 316 308 309 312 314 316 318 318 318 314
307 306 305 305 306 306 307 307 307 308 307 306 306 308 308 307 306 305 306 305 306 302 297 295 293 291 292 292 294 306 304 301 300 301 305 306 310 311 305 300 296 291 290 290 290 289 290 291 299 303 306 307 309 310 304 305 308 310 310 312 315 318 319
307 307 307 307 307 307 307 306 307 306 305 306 306 307 307 306 306 306 304 303 303 303 301 297 294 291 292 292 292 297 299 297 297 300 303 305 306 309 306 301 298 293 291 291 290 290 290 290 292 299 303 304 306 299 297 302 303 302 307 310 313 315 317
308 308 309 307 306 306 308 308 307 306 305 306 307 307 307 306 306 307 307 304 302 300 300 300 297 292 291 292 291 293 297 297 296 301 302 302 303 305 306 302 299 293 291 291 291 291 290 291 290 297 300 297 294 293 298 299 302 305 307 307 307 309 313
306 307 307 307 307 306 306 306 307 308 307 307 307 306 307 306 306 306 307 305 302 301 300 299 295 296 291 291 291 291 291 295 292 300 299 299 302 303 302 301 301 296 291 292 292 291 291 290 291 296 294 293 292 290 291 300 302 304 303 304 305 305 306
304 304 305 306 306 306 307 307 307 309 308 307 306 305 305 306 306 305 305 304 303 301 301 299 296 294 294 290 291 291 292 290 291 296 299 302 301 301 300 299 296 291 292 292 292 291 291 291 293 291 290 290 290 290 297 300 300 302 300 301 301 302 303

ECMWFFLT1_sfc_thetae_063.txt.gz
Theta_e
329 330 331 332 332 333 331 331 331 330 332 332 331 333 334 333 331 330 330 330 334 335 334 333 331 332 332 331 331 330 329 330 329 326 324 325 324 323 325 324 324 325 325 321 321 318 316 314 317 323 323 322 323 325 326 326 324 324 324 325 325 324 319
331 331 332 333 332 332 330 330 329 329 330 331 332 332 332 332 331 331 332 332 334 334 334 334 333 333 332 330 330 330 329 329 329 328 326 325 324 324 324 323 324 323 321 322 323 321 318 316 316 318 319 321 320 321 323 325 323 323 324 324 324 321 319
331 331 332 331 330 330 328 327 327 328 328 328 330 332 331 331 331 332 334 334 334 334 333 332 332 331 331 331 330 330 331 330 328 328 327 326 326 326 325 323 320 320 319 319 320 319 319 319 316 317 318 317 315 317 321 317 320 319 318 319 319 318 317
330 330 330 329 329 327 326 325 325 326 327 328 330 331 330 331 330 332 332 332 331 332 332 329 329 332 332 332 332 332 331 330 328 328 326 325 325 325 324 323 322 322 320 318 319 320 318 316 316 316 316 317 316 315 317 318 315 314 315 315 315 315 314
330 330 329 328 328 326 325 325 325 327 327 328 329 328 330 332 332 332 331 332 330 330 331 330 330 332 333 333 332 331 331 331 330 328 326 325 325 325 324 323 323 324 322 322 322 321 319 318 318 316 316 319 317 315 317 316 313 311 312 312 312 311 312
331 330 329 328 328 327 326 324 325 324 325 326 326 327 328 330 332 332 331 331 331 331 332 333 333 334 333 333 332 332 331 330 329 328 326 326 327 325 324 325 325 326 323 323 324 323 321 320 320 317 318 318 313 312 314 314 310 310 309 308 310 312 312
329 330 328 328 328 327 326 325 325 325 325 325 326 327 329 332 331 331 332 331 331 332 332 331 332 334 334 333 333 332 331 330 330 328 327 326 326 326 327 326 326 325 326 326 325 324 322 320 318 318 317 316 315 312 314 313 310 306 305 307 311 311 311
328 328 328 329 328 327 326 325 325 326 326 326 327 328 332 331 331 331 331 330 330 332 332 332 332 332 331 332 332 331 331 331 330 328 327 326 327 327 326 326 325 325 325 326 326 325 323 322 320 319 317 313 310 310 310 310 307 305 303 304 309 308 309
329 328 328 328 329 328 327 326 326 326 327 328 328 330 331 331 330 330 330 330 331 331 332 332 332 332 331 330 329 330 330 333 330 328 327 328 328 328 327 325 324 323 325 326 327 326 324 323 322 321 319 314 310 306 307 304 303 302 304 302 305 308 308
329 328 328 328 328 328 328 327 327 327 328 329 330 331 330 330 330 328 328 329 329 329 330 330 330 331 331 330 329 329 329 330 330 329 327 328 327 328 327 326 325 325 325 325 324 326 327 325 323 322 320 313 312 308 304 300 300 298 301 305 302 305 308
330 328 327 328 327 326 325 326 326 326 328 330 331 331 329 328 329 331 327 327 328 328 329 329 330 331 330 329 330 329 329 329 329 328 328 328 327 327 326 325 326 325 326 326 325 324 324 325 324 322 321 316 312 309 305 301 300 299 299 303 304 304 306
328 327 326 326 326 325 325 325 326 327 328 329 329 329 328 328 328 326 327 326 327 326 326 327 328 329 329 328 328 328 328 329 328 327 328 329 328 328 326 325 324 324 325 324 324 325 324 324 325 324 324 322 317 311 307 303 298 300 303 303 305 307 307
327 326 325 326 325 325 326 327 327 327 327 327 327 328 327 327 326 326 325 326 325 325 325 325 327 327 327 327 327 328 328 328 328 327 328 329 330 329 326 324 324 325 324 323 324 324 324 324 325 324 323 322 321 316 307 303 300 300 302 304 305 306 307
327 327 327 326 326 327 327 328 328 327 327 326 326 327 327 326 326 326 326 325 325 324 322 323 325 325 325 325 325 326 327 327 327 326 326 327 329 328 327 326 324 326 326 324 323 324 324 324 324 323 322 321 321 317 306 303 301 301 306 306 306 306 307
326 328 326 325 327 329 328 328 327 327 325 325 326 326 326 325 324 325 324 324 324 324 323 324 323 324 323 322 322 327 327 325 324 324 323 325 325 328 327 326 326 326 326 325 324 326 325 324 324 323 321 322 319 318 310 305 302 301 302 303 305 306 306
325 324 325 326 328 329 327 327 327 326 325 325 326 326 325 324 323 323 323 323 322 322 322 322 322 323 322 322 321 323 323 322 321 321 321 323 323 327 324 322 323 325 327 324 324 324 325 324 323 323 321 320 319 317 314 306 304 303 302 302 305 305 305
325 323 324 327 328 327 328 327 327 326 325 325 325 324 324 323 322 321 322 322 322 321 321 320 321 323 322 321 320 320 320 321 321 320 320 320 322 324 323 322 322 324 325 324 323 322 322 322 320 322 319 318 318 317 313 306 307 305 303 303 304 306 306
322 322 323 325 327 328 327 326 325 324 324 325 325 323 323 322 322 322 322 321 320 319 319 318 319 320 320 320 320 318 318 319 319 318 320 319 325 324 322 323 324 323 323 323 320 319 319 319 323 319 320 318 318 317 315 308 308 307 305 304 304 306 306
322 322 321 323 327 327 327 326 325 324 325 324 322 322 321 320 320 320 320 320 319 319 318 317 317 318 317 317 318 319 318 317 319 318 317 320 323 324 323 323 323 324 324 322 320 319 317 318 320 319 318 318 318 315 313 308 309 307 306 305 304 304 304
322 322 323 324 326 327 327 327 325 325 324 322 320 320 320 319 317 318 317 314 312 311 310 309 310 312 314 316 317 319 319 317 317 315 317 321 324 324 324 323 322 322 322 321 320 320 318 317 320 319 318 318 318 312 311 309 309 308 306 306 305 305 304
321 321 323 324 325 326 326 325 323 321 321 320 319 318 316 316 317 317 315 312 310 308 306 304 304 306 309 313 315 317 318 316 317 317 319 322 324 323 323 323 323 323 322 322 320 318 319 320 321 319 317 318 315 311 310 309 309 308 307 307 305 304 303
321 322 323 323 322 323 323 323 322 319 319 318 318 316 317 318 316 313 311 309 307 305 304 302 300 300 304 308 313 314 316 318 316 315 317 320 322 322 321 320 321 321 321 319 315 320 320 321 321 318 317 317 312 309 310 311 309 307 307 308 306 306 304
321 321 321 321 322 321 320 321 320 319 319 319 319 318 317 316 313 310 307 305 303 302 300 299 298 296 298 303 308 312 314 313 315 317 314 318 320 322 321 321 323 322 315 311 307 302 302 306 313 318 318 316 314 314 310 310 310 310 310 307 306 306 305
321 320 320 320 322 321 321 321 321 320 319 318 317 315 313 310 308 307 305 303 300 299 297 296 294 292 293 296 307 311 312 312 314 315 316 317 318 319 317 318 315 317 314 311 304 298 298 298 299 300 301 306 315 317 314 311 311 311 309 309 308 307 306
320 320 320 320 320 320 321 321 320 318 316 314 312 311 309 307 305 303 301 299 298 297 295 294 292 293 292 293 298 309 311 313 315 314 314 316 318 317 316 315 313 316 315 313 307 305 302 298 296 296 296 297 297 299 305 310 308 307 306 305 305 308 307
318 318 318 319 319 318 319 319 317 315 313 312 310 308 306 304 302 300 299 297 295 295 294 293 292 292 292 293 293 302 311 313 316 316 316 317 316 313 313 314 314 317 318 317 313 312 308 304 301 300 299 298 298 298 296 298 303 309 307 306 307 307 309
316 316 317 318 317 316 316 316 315 314 312 310 308 306 304 302 301 299 298 296 294 294 293 293 291 292 293 293 293 299 314 316 317 315 315 316 317 316 315 315 313 309 306 303 302 304 311 308 306 307 308 309 308 302 297 298 297 298 304 309 308 305 307
313 313 314 314 313 312 313 313 313 312 311 309 307 305 303 302 301 300 298 296 294 293 293 292 291 292 293 294 299 307 317 319 318 316 314 315 315 317 315 312 309 306 303 299 298 299 305 311 310 312 310 311 311 311 311 309 306 304 303 308 308 307 306
310 310 310 310 310 309 309 309 309 309 310 309 308 307 306 304 301 299 297 296 294 292 292 291 291 292 293 295 303 312 313 317 318 316 311 308 309 310 311 308 304 299 297 296 295 296 302 314 315 315 314 314 315 313 312 310 302 303 307 307 307 307 308
306 306 306 307 307 307 307 307 307 307 306 306 306 307 306 304 302 300 299 296 293 292 292 292 291 292 294 296 304 310 310 309 311 312 304 302 301 302 303 302 299 297 295 294 293 293 297 304 309 309 310 311 312 310 306 306 303 301 300 300 300 300 299
304 304 304 304 304 305 306 306 306 307 305 305 305 305 306 305 304 302 298 296 294 292 292 293 291 292 294 296 301 305 305 304 304 309 306 301 299 298 300 303 301 296 294 293 291 292 295 300 302 303 305 306 308 308 304 302 304 304 300 299 299 301 302
304 304 303 303 304 304 305 305 306 306 305 305 304 304 304 304 303 302 299 297 298 294 293 293 292 292 293 294 298 299 299 300 301 303 305 302 300 297 296 297 297 296 295 292 290 290 292 297 298 300 301 301 301 302 301 299 300 301 301 302 303 306 306
305 304 304 304 304 304 305 305 305 305 305 305 304 303 303 302 302 301 300 296 295 294 294 294 293 292 293 293 294 296 297 298 299 300 302 304 300 298 297 296 295 291 290 290 289 289 289 292 297 298 299 299 297 297 298 297 299 299 299 300 302 304 306
305 305 305 305 305 305 305 305 305 305 305 305 305 304 302 301 300 299 299 298 297 296 297 295 294 292 293 293 293 294 295 295 296 297 298 300 301 299 297 295 295 293 291 291 290 290 289 289 291 296 297 297 299 296 294 296 297 298 299 300 301 302 303
306 305 306 306 305 304 305 306 306 306 305 304 304 304 302 301 299 298 298 298 298 297 299 298 296 293 292 292 292 293 295 294 295 296 297 297 297 297 296 296 296 293 291 291 291 291 291 291 288 293 293 293 291 291 294 295 296 297 298 299 299 298 299
304 307 306 306 305 304 306 306 306 305 305 305 304 303 303 302 300 298 297 297 298 297 297 297 295 295 292 292 292 291 291 292 292 297 296 295 295 295 295 294 295 294 291 291 291 291 291 291 293 292 292 291 290 288 290 295 295 296 295 296 297 298 297
301 302 302 303 304 303 303 304 304 305 305 304 303 303 303 303 301 299 297 297 297 297 296 295 294 293 293 291 292 291 291 290 290 295 297 295 295 294 294 293 294 291 291 291 291 291 291 292 291 289 288 288 289 289 292 292 293 295 294 294 295 295 298

ECMWFFLT1_sfc_thetae_066.txt.gz
Theta_e
329 328 329 330 331 330 330 330 329 330 332 332 331 332 332 331 330 330 329 328 329 331 333 330 330 330 329 329 330 330 329 328 327 326 324 324 323 322 321 319 319 322 323 318 321 318 316 314 317 322 321 318 320 323 324 324 323 324 324 324 323 319 317
329 329 330 331 330 330 329 328 328 329 330 330 331 331 331 331 331 329 329 328 329 331 333 331 330 330 328 328 327 327 328 328 328 327 326 324 323 322 320 317 320 320 319 318 320 318 317 315 315 318 318 319 319 319 321 322 322 323 324 323 321 318 317
329 328 329 330 329 329 328 327 327 328 328 328 329 330 330 331 330 330 329 329 329 332 333 332 330 329 328 328 328 327 328 327 326 327 326 325 324 323 323 321 318 316 317 317 315 316 316 316 314 316 319 318 316 317 318 318 320 322 323 321 318 317 315
326 328 329 329 328 326 326 325 325 326 326 327 327 328 329 330 329 330 329 329 330 332 332 331 329 329 328 328 329 328 327 327 326 325 324 324 323 323 322 322 320 320 319 316 316 316 316 314 316 317 318 318 316 316 318 318 320 321 321 318 316 315 314
329 329 329 329 329 327 326 324 323 323 324 325 326 326 327 328 329 329 330 330 330 331 330 330 330 329 329 329 329 328 327 327 326 325 324 323 323 323 321 321 321 321 318 319 319 318 317 316 317 317 317 317 315 314 315 314 319 318 317 316 315 314 313
329 330 329 328 328 327 325 323 323 323 323 324 325 326 326 327 328 328 328 329 328 329 329 328 329 331 330 329 329 329 328 326 326 325 324 324 324 324 322 320 322 321 320 320 321 319 317 318 318 316 316 316 311 310 311 312 310 313 314 314 313 313 312
326 329 329 328 326 325 324 324 324 324 324 325 326 326 328 328 329 329 329 329 329 328 329 328 329 331 330 330 329 328 328 327 326 325 324 324 324 324 323 322 322 323 320 322 322 320 318 318 316 316 315 312 311 310 311 309 308 307 305 309 311 311 311
327 327 327 327 326 325 324 324 324 326 326 326 326 327 328 329 330 329 329 329 328 328 329 329 330 331 330 330 330 329 328 327 326 325 323 324 324 323 322 323 323 322 322 322 323 321 321 320 319 318 316 311 309 309 308 310 306 305 302 305 309 310 310
329 328 327 327 327 325 324 324 324 325 326 326 326 327 328 330 329 329 329 329 329 329 329 330 330 330 330 330 328 328 327 330 326 324 323 324 324 323 323 322 323 323 323 324 323 322 322 321 321 320 317 314 310 306 306 306 303 301 304 304 305 307 308
330 328 327 327 327 326 325 325 325 325 325 326 327 328 329 329 329 329 328 329 329 329 329 329 330 329 329 328 328 327 327 328 327 326 323 324 323 324 322 322 323 323 322 323 323 322 321 321 321 321 319 315 313 309 305 303 302 297 300 304 303 304 307
330 328 326 326 326 326 325 325 325 324 325 327 328 328 327 327 328 331 328 328 328 328 328 328 329 329 328 327 327 327 328 327 326 324 324 325 324 324 323 322 321 321 321 322 322 322 321 321 320 320 318 315 314 310 308 305 303 298 299 302 301 302 304
328 327 326 326 326 326 325 325 325 325 326 327 329 329 327 327 327 327 328 327 327 328 328 327 328 328 327 326 326 326 326 326 325 324 324 325 324 325 323 322 319 320 321 322 321 323 322 321 320 320 318 313 313 310 309 306 302 299 302 302 302 304 305
327 326 325 325 324 323 325 325 325 325 327 328 328 329 328 327 326 326 326 326 326 326 326 326 328 327 327 326 325 325 325 326 325 324 324 325 327 324 323 322 321 322 321 321 320 322 321 322 322 321 320 315 312 310 306 305 303 299 300 303 303 303 305
324 323 323 324 323 324 325 325 325 326 328 328 327 327 327 326 326 326 326 325 325 324 325 325 325 325 326 325 325 326 326 326 326 324 325 324 326 325 324 323 322 322 322 322 321 321 321 322 322 321 321 317 314 310 306 302 300 298 302 303 303 303 304
324 324 323 323 324 325 325 325 326 326 327 325 326 326 327 326 325 325 325 324 323 323 324 325 324 324 325 324 323 326 325 325 325 324 324 325 325 326 324 322 323 322 323 323 320 321 322 322 321 321 321 320 318 314 307 303 299 298 299 302 302 303 303
323 323 322 323 324 325 324 326 327 326 326 325 326 326 326 326 325 325 324 323 323 322 323 323 322 323 323 323 322 323 324 323 324 323 322 324 324 323 322 322 322 322 323 321 320 321 322 322 322 322 321 319 319 317 310 304 301 299 300 301 302 302 302
323 323 323 323 324 325 325 326 326 325 325 325 326 325 325 325 325 324 324 323 322 322 322 321 321 322 322 321 321 322 321 321 322 322 321 322 322 323 323 321 321 322 322 320 319 319 319 321 321 321 320 319 318 317 312 305 303 302 301 301 302 302 303
322 322 322 323 324 324 324 324 324 325 325 324 324 324 324 324 323 323 323 322 321 321 320 320 320 319 319 319 319 321 321 320 320 320 320 321 325 323 321 321 321 322 321 320 317 319 319 319 321 319 319 320 318 316 313 306 304 303 302 302 302 303 303
322 321 321 322 323 323 324 324 324 324 325 323 323 323 322 322 323 323 321 319 316 314 314 315 315 314 315 316 316 316 319 319 319 318 318 319 323 322 321 320 320 321 322 321 320 319 317 319 319 317 317 317 317 315 310 305 305 303 303 303 303 302 301
321 320 320 322 323 323 323 324 324 323 322 322 321 319 318 317 316 315 313 312 310 309 308 309 310 311 314 315 315 315 315 315 316 314 316 320 322 321 320 320 320 321 322 321 320 319 317 315 318 316 316 317 318 313 311 306 306 303 303 302 301 302 302
319 321 322 323 323 323 323 322 323 322 320 319 317 316 315 313 312 311 309 308 307 307 306 305 306 307 311 313 314 313 313 314 314 316 319 321 321 320 319 320 321 322 322 321 320 319 318 318 316 316 317 318 317 314 310 305 305 303 302 302 302 302 301
320 321 322 322 321 321 322 322 321 320 317 317 317 314 312 311 308 307 306 305 304 304 303 301 301 302 306 310 311 312 313 314 316 319 319 319 318 318 317 317 317 317 319 324 317 316 317 318 318 317 317 316 315 312 307 305 305 303 301 302 301 302 300
320 320 320 320 319 319 320 319 318 318 317 316 313 312 310 309 307 305 303 302 302 301 300 300 299 297 299 306 309 312 312 313 314 317 319 317 315 316 317 316 318 324 318 315 313 310 309 311 314 319 318 316 314 309 307 306 305 303 303 302 302 302 300
319 318 318 319 318 318 319 319 318 315 314 312 310 309 307 305 304 303 302 300 299 298 297 296 294 292 294 299 308 311 312 312 312 315 317 318 316 316 314 313 311 315 311 308 303 300 304 305 307 306 308 311 312 311 308 306 305 305 304 304 302 302 301
318 318 318 318 319 319 318 316 313 311 310 308 306 305 304 302 301 300 299 297 297 296 295 294 292 293 294 295 303 310 312 313 313 314 315 316 317 316 313 312 311 313 313 313 309 304 302 298 299 299 298 300 301 302 304 310 308 305 303 305 305 305 303
317 317 317 318 318 317 316 313 310 308 306 305 304 302 300 300 298 298 297 296 295 294 294 293 292 293 295 295 299 309 314 313 313 312 312 314 313 312 311 309 307 305 305 310 308 307 306 303 299 297 298 300 300 297 295 295 297 305 305 304 304 304 305
317 317 317 317 316 314 312 310 309 307 305 303 301 300 299 298 297 296 295 294 294 295 295 294 293 294 296 298 302 307 314 313 312 312 313 313 312 311 308 306 304 302 300 301 302 304 308 307 306 308 309 309 310 308 302 301 300 299 303 306 303 302 303
314 315 315 313 312 311 310 308 307 306 304 303 301 299 298 296 296 295 294 294 294 294 295 293 293 295 297 301 303 306 311 309 308 306 306 307 307 305 303 301 298 297 297 299 300 302 308 309 310 311 311 309 308 307 305 305 306 305 306 307 306 305 306
310 311 311 311 310 309 308 307 306 305 303 302 300 299 297 296 294 293 293 293 294 293 294 292 293 295 297 300 304 311 307 304 302 301 301 301 300 300 299 298 297 296 297 297 296 295 301 308 309 309 309 308 306 303 303 303 299 300 302 303 304 304 306
306 306 307 308 307 307 306 306 306 305 302 301 299 298 297 296 295 293 293 293 293 292 292 292 292 294 295 299 304 308 304 301 300 298 297 298 299 299 299 298 297 296 295 295 293 293 295 299 302 302 303 303 303 301 299 300 298 297 296 296 296 298 299
303 304 304 304 304 304 304 305 304 304 302 300 299 297 296 295 295 294 293 293 294 293 293 293 292 293 294 296 302 306 305 302 300 298 297 297 297 297 300 302 301 295 294 294 291 292 293 298 298 298 298 296 297 297 297 298 300 300 298 297 297 298 298
304 303 303 303 304 304 304 303 303 304 303 301 299 297 296 294 294 295 296 297 299 295 295 295 292 292 293 295 300 304 304 302 300 298 298 297 297 297 297 297 297 296 295 292 290 291 292 296 297 297 296 294 294 295 295 295 297 297 298 299 300 301 301
304 304 303 303 304 304 304 303 303 303 302 301 299 297 296 296 295 295 296 297 297 296 295 294 294 292 293 293 296 301 303 303 301 300 300 298 296 296 297 297 296 291 290 290 290 290 290 292 296 296 296 295 294 294 294 294 296 296 296 296 297 298 299
304 304 305 304 304 304 304 304 304 302 301 300 299 298 297 297 296 297 297 298 297 297 297 294 293 292 292 293 294 296 299 300 300 299 297 297 296 296 296 296 295 292 290 291 291 290 290 289 292 295 295 295 295 294 292 293 295 296 295 296 297 297 298
303 303 304 305 304 304 305 305 304 303 302 300 299 298 297 297 297 296 297 297 297 296 298 298 295 293 292 292 292 294 296 296 297 297 296 296 295 295 294 293 294 292 290 291 290 291 291 291 292 295 291 289 287 288 292 294 295 295 295 295 296 297 297
300 301 301 302 302 302 303 304 304 304 302 301 299 298 298 298 297 296 296 296 296 296 295 296 294 294 292 292 292 292 293 294 293 297 295 294 293 293 293 293 295 293 291 291 291 291 291 292 293 290 288 288 287 286 290 293 293 294 294 294 295 295 295
299 299 299 300 299 299 300 301 302 303 303 302 301 299 298 298 298 297 296 295 296 295 295 295 293 292 293 291 291 291 291 291 292 294 294 292 292 291 293 293 293 292 292 292 292 292 292 292 292 289 289 288 288 289 291 293 293 293 293 293 295 294 295

ECMWFFLT1_sfc_thetae_069.txt.gz
Theta_e
329 328 328 327 328 329 328 328 328 329 330 330 330 331 332 332 330 329 328 328 328 328 330 329 328 327 327 328 328 328 326 326 325 324 324 325 322 321 320 319 319 319 321 314 318 316 314 313 316 322 321 320 322 324 324 322 321 322 323 322 321 318 316
327 327 327 328 327 328 327 327 328 329 329 329 330 330 331 331 331 329 328 327 327 328 331 328 328 328 327 326 326 326 325 325 325 324 325 324 323 320 319 314 317 317 316 315 317 315 313 314 315 317 318 320 319 318 320 320 320 321 323 322 320 318 317
326 325 326 327 326 326 327 326 327 328 328 328 328 330 330 330 329 329 328 327 327 328 330 328 328 328 328 327 327 326 326 325 324 325 324 324 324 321 321 317 314 314 315 314 314 312 313 313 313 315 318 317 316 316 317 318 320 320 321 320 318 316 314
324 324 325 327 328 328 327 326 326 327 327 327 327 328 329 329 328 329 328 328 328 329 330 328 328 328 328 327 327 326 326 325 324 324 323 323 323 322 320 320 319 319 317 314 315 314 312 310 314 316 319 319 317 314 316 317 320 321 321 317 316 315 314
328 328 326 327 328 327 327 326 325 325 325 324 326 327 327 328 328 328 329 328 328 328 329 329 329 328 328 328 327 326 326 326 325 324 323 322 321 321 320 319 320 320 318 317 317 317 315 313 316 316 317 318 317 313 314 314 319 320 318 316 315 315 313
329 330 330 329 329 328 326 325 324 323 324 323 324 325 326 327 327 327 327 328 328 329 330 329 328 329 327 326 327 326 325 325 325 324 323 322 323 322 321 319 320 320 318 317 318 317 315 316 317 316 318 318 313 311 309 313 312 315 316 315 314 313 312
329 329 329 329 328 327 325 325 324 324 324 325 325 325 326 327 327 328 328 329 329 328 329 328 328 328 327 326 326 326 325 325 324 324 324 323 323 323 322 320 319 320 317 319 319 318 316 316 316 317 317 314 308 309 308 309 309 312 310 312 311 311 311
328 329 328 328 326 325 324 324 324 325 325 326 326 327 326 326 327 327 327 326 327 327 328 327 328 328 327 327 327 327 326 325 324 324 323 322 323 322 320 321 321 320 318 319 319 319 319 318 317 317 317 312 306 306 306 306 306 313 309 306 309 310 310
328 327 324 322 325 325 324 324 324 325 326 327 327 325 325 326 326 326 326 327 327 327 327 327 327 328 327 327 326 326 325 327 324 323 322 322 323 322 321 319 321 321 320 320 320 319 319 319 319 318 318 315 309 304 304 303 303 307 305 307 306 309 309
328 325 324 322 323 324 324 324 324 324 325 326 326 326 325 325 326 326 326 327 326 326 327 327 328 328 327 327 326 325 325 325 324 323 321 322 322 321 320 320 322 321 320 320 321 319 319 319 319 320 319 316 313 308 304 302 301 303 300 305 307 305 308
327 326 325 324 325 323 323 324 323 323 324 325 326 326 325 325 326 330 327 326 325 325 326 327 328 328 327 327 326 326 326 325 324 322 322 322 321 321 320 320 320 320 319 321 321 320 319 319 319 319 318 315 313 310 307 304 303 301 300 302 303 303 305
324 326 327 325 325 324 323 323 323 324 323 324 325 325 325 325 325 325 326 326 326 326 326 327 327 327 327 326 325 325 325 325 324 322 321 322 321 322 320 320 317 319 319 321 320 319 319 319 319 319 317 315 314 310 309 307 302 303 301 303 302 302 305
325 326 325 324 324 325 324 323 323 323 323 324 324 325 326 325 324 324 325 326 325 325 325 326 327 326 326 325 324 324 324 324 324 323 321 322 323 322 321 320 319 319 318 319 319 319 319 319 319 318 317 314 312 311 309 307 305 306 301 303 303 301 305
324 326 325 325 325 325 325 324 324 323 324 323 324 324 324 324 324 325 325 325 325 324 325 325 326 326 325 324 324 324 324 325 324 322 322 321 322 322 322 321 320 319 319 320 319 319 319 319 318 318 317 313 312 309 309 306 304 298 299 301 302 302 303
325 326 324 324 324 324 324 324 323 323 323 323 325 325 325 325 324 325 325 326 326 325 325 325 325 325 325 324 323 324 324 324 323 322 321 322 321 323 321 321 321 319 320 321 319 320 320 319 319 318 317 315 312 308 308 307 302 298 297 300 300 301 302
325 324 323 322 322 322 323 322 323 323 323 324 324 324 325 324 325 325 325 325 324 324 324 324 323 324 324 324 323 323 323 323 322 321 321 321 322 321 320 320 320 320 320 319 318 319 319 319 319 319 318 317 314 310 306 306 301 300 298 299 300 300 301
324 323 322 321 321 321 322 323 325 324 323 323 323 324 325 325 325 324 323 322 322 322 323 323 322 324 325 324 323 323 321 322 322 322 322 322 322 322 321 319 319 319 319 319 317 316 317 319 319 320 319 317 318 315 308 303 305 304 300 300 300 301 301
323 322 322 321 320 322 323 324 324 324 323 322 323 323 324 324 323 323 322 321 321 321 322 322 322 321 322 323 323 323 321 321 321 321 322 322 325 322 321 321 320 320 319 319 315 316 317 318 320 319 317 318 318 316 313 306 303 304 301 300 300 300 301
321 321 321 321 322 323 323 323 323 323 324 323 323 323 322 322 323 323 321 319 319 319 320 320 320 320 320 319 320 320 320 320 320 319 319 320 322 321 321 321 320 321 320 320 318 316 316 318 317 317 317 318 318 315 311 307 303 302 302 302 301 299 299
321 322 322 322 323 323 323 322 322 322 323 323 322 321 322 322 321 319 315 314 313 313 313 314 314 314 315 316 317 317 318 318 317 316 316 318 320 320 320 319 318 320 321 320 319 318 317 316 317 316 317 317 319 315 312 308 303 301 301 300 299 300 300
320 321 322 322 323 323 322 322 322 322 322 320 319 321 321 318 314 312 310 309 308 309 309 309 308 309 312 314 314 314 316 316 315 313 313 314 316 318 317 317 318 319 321 321 320 318 318 316 315 315 316 317 316 313 311 305 302 301 300 300 300 299 299
320 320 320 321 322 322 322 321 321 320 320 318 317 319 317 313 310 307 306 306 305 306 306 304 304 305 310 312 313 313 313 315 314 314 313 314 315 315 315 314 314 315 318 324 317 316 316 316 316 315 313 314 315 313 308 304 303 300 299 300 300 299 298
319 320 320 321 321 321 321 320 319 319 318 317 314 313 312 311 307 305 304 303 303 302 301 301 301 299 304 309 311 313 313 313 315 315 315 314 312 313 312 311 316 319 315 315 312 309 307 310 313 317 314 316 315 313 309 307 303 301 300 299 300 299 298
319 319 319 320 319 318 318 318 317 316 315 313 312 310 309 307 305 305 304 302 301 300 298 298 295 294 296 304 310 312 314 314 314 315 315 315 313 311 309 309 310 314 311 308 304 300 303 304 305 308 309 312 315 314 310 309 307 302 301 301 299 299 299
318 318 318 317 318 317 317 316 314 312 310 309 309 308 306 304 303 302 301 301 300 299 298 296 293 295 296 301 307 312 313 315 315 314 312 313 312 310 309 307 305 307 310 310 305 303 303 299 297 296 295 294 294 295 301 309 307 303 301 300 300 300 299
316 316 316 316 316 316 315 312 310 308 306 306 306 304 302 302 300 300 300 300 299 299 298 294 294 296 297 301 302 308 312 312 313 312 312 311 310 308 306 305 303 302 304 311 308 304 303 301 299 299 300 300 299 297 295 295 298 304 304 303 302 300 299
315 315 315 314 313 311 309 308 306 305 304 304 303 301 300 299 299 299 300 300 299 298 298 295 295 298 299 299 300 305 311 311 310 310 309 308 307 304 302 301 300 300 300 302 304 305 305 304 306 308 306 304 303 302 298 297 298 299 302 303 302 301 302
314 312 311 310 309 307 305 304 303 302 301 301 300 298 298 297 298 298 298 299 298 297 296 294 296 297 298 298 299 302 307 306 303 302 301 300 299 299 298 298 297 297 298 299 301 306 309 309 308 306 303 301 300 300 300 301 302 303 305 307 307 306 304
309 310 309 308 306 305 304 303 301 301 300 298 297 296 295 296 296 296 297 297 297 296 295 294 296 297 297 297 299 304 303 302 300 299 298 298 297 297 297 297 296 295 295 297 297 300 305 310 309 306 303 300 298 298 299 300 295 297 301 303 305 305 304
304 306 306 306 305 303 302 301 301 301 299 298 296 295 294 294 295 295 295 295 295 295 295 294 295 296 296 297 299 302 300 299 298 298 298 299 299 300 299 296 295 294 294 294 293 294 297 302 304 302 300 298 297 296 296 299 297 294 295 295 295 295 296
303 303 303 303 303 303 302 302 301 301 298 296 295 295 295 295 295 296 295 295 295 295 294 294 294 296 296 297 300 301 300 298 297 297 296 297 298 298 300 302 299 295 294 294 291 292 294 298 299 298 296 295 295 294 295 296 298 298 296 296 295 295 296
304 303 302 302 302 302 301 300 300 299 297 297 296 297 297 296 296 296 296 297 299 295 294 295 293 294 296 297 300 301 300 298 297 296 296 296 297 297 297 297 297 296 295 293 291 292 293 296 296 295 295 295 294 294 294 294 295 296 297 298 299 300 299
303 303 303 303 303 302 301 300 299 298 297 297 296 297 297 296 296 296 296 296 296 295 294 294 294 293 295 296 298 302 301 299 297 296 297 297 296 296 296 296 295 291 291 290 290 291 292 293 296 295 296 295 295 294 294 294 295 294 297 297 297 298 297
302 303 303 303 303 302 301 300 299 298 297 297 297 297 296 296 296 295 296 296 296 296 296 294 294 292 293 294 296 298 299 298 297 296 296 296 296 296 296 296 295 292 291 291 291 291 291 292 294 296 296 295 294 293 292 294 295 297 297 297 297 297 297
300 301 302 303 302 302 302 302 300 299 298 297 297 296 296 296 295 295 295 295 295 295 297 296 294 292 292 293 293 295 297 297 297 296 296 296 296 296 295 295 294 292 291 291 291 291 291 291 291 292 287 287 287 289 295 295 295 296 296 295 295 295 295
298 299 299 300 301 301 301 302 301 300 299 298 297 297 296 296 295 295 294 294 294 294 294 295 293 293 291 291 291 292 293 294 293 298 297 295 294 294 294 294 294 293 291 291 291 291 291 291 291 288 288 288 289 290 293 295 295 295 294 294 294 293 293
296 296 297 298 298 299 300 301 301 300 299 298 297 297 297 296 296 295 294 294 294 294 294 293 293 291 291 290 290 290 291 291 293 296 296 294 294 294 294 293 293 291 291 291 291 291 290 291 291 291 291 291 292 293 295 294 293 293 291 291 292 291 291

ECMWFFLT1_sfc_thetae_072.txt.gz
Theta_e
329 328 329 330 332 331 331 331 331 331 332 331 330 331 331 331 329 328 329 329 329 330 331 330 329 329 328 328 328 327 328 328 328 325 325 326 322 322 323 321 320 320 322 319 322 318 316 313 316 322 323 323 324 324 324 325 326 326 326 324 322 320 319
329 328 329 330 329 330 329 330 330 330 331 331 331 330 331 331 331 329 328 328 328 329 331 330 330 329 328 327 327 326 326 327 328 326 327 325 324 322 320 317 319 320 320 320 320 318 316 315 315 317 318 321 323 323 323 324 325 326 327 325 322 320 320
328 327 328 327 328 328 328 328 329 329 329 330 330 330 329 330 331 330 329 328 328 329 331 330 329 328 328 327 328 327 327 327 327 326 326 327 326 323 323 320 318 318 319 319 318 317 318 318 315 316 318 318 317 321 322 323 325 325 326 324 322 319 318
327 327 327 327 327 327 327 327 328 327 327 328 328 329 329 330 330 330 329 329 329 330 331 329 329 329 328 328 328 327 326 326 326 325 325 326 326 323 322 322 321 320 319 318 318 317 316 314 316 317 318 320 319 318 321 323 324 325 325 322 320 319 318
328 328 328 327 328 327 327 327 326 325 325 327 328 328 328 329 330 330 330 329 329 329 330 330 330 330 329 328 327 326 326 326 326 326 325 324 325 324 323 322 322 322 321 320 320 320 318 318 317 316 317 319 319 318 318 320 324 324 323 320 320 319 317
329 329 329 328 329 329 328 326 325 324 324 325 326 327 329 329 329 328 328 328 327 328 329 329 329 330 329 328 327 326 327 326 326 326 324 324 325 324 323 322 323 322 322 321 321 320 318 319 318 316 318 320 316 316 315 320 319 321 322 319 318 317 316
327 328 327 328 329 328 326 325 325 325 323 324 325 326 329 329 329 329 328 327 327 327 328 329 329 329 329 328 327 326 326 327 327 326 325 325 325 326 325 322 322 322 322 321 321 320 319 319 318 318 317 317 317 315 310 317 313 318 315 318 317 316 315
325 326 326 327 328 326 325 325 325 325 324 324 325 326 328 328 328 328 327 327 327 328 328 328 328 328 327 327 327 326 326 327 326 326 325 324 324 324 324 323 322 322 321 321 321 321 321 321 320 319 318 313 311 311 311 309 311 318 317 312 315 314 315
326 325 323 324 326 326 325 325 325 325 324 325 325 326 326 327 327 327 327 327 327 327 328 328 328 327 327 326 327 326 326 327 326 325 325 324 325 324 324 323 323 322 321 321 322 322 322 322 322 322 320 317 313 309 309 310 310 314 312 313 310 313 314
325 325 325 325 325 325 324 324 325 324 324 325 326 327 326 325 326 326 326 326 327 327 327 327 327 327 326 326 326 326 325 326 326 325 325 325 325 325 324 323 324 323 322 322 322 322 322 322 322 323 321 319 318 314 309 309 309 311 311 313 313 311 313
327 326 325 325 324 324 324 324 323 323 323 325 326 326 326 325 326 328 326 325 326 326 327 326 327 327 326 325 325 326 327 326 325 324 324 325 324 324 323 323 323 323 322 323 322 322 322 322 321 322 321 320 319 316 313 311 311 310 310 308 313 311 310
325 325 325 325 324 324 324 324 323 323 324 325 325 325 325 325 325 327 326 326 326 326 326 326 326 326 326 325 325 325 325 325 325 323 323 324 323 324 322 322 322 323 322 323 322 322 322 322 322 322 322 320 318 317 315 314 311 311 309 310 309 308 310
324 325 325 324 323 323 324 325 324 323 323 325 324 325 325 325 325 326 326 326 326 326 326 327 327 326 325 325 325 325 325 325 324 323 322 323 323 324 323 322 321 322 322 323 322 321 321 322 322 321 321 320 317 315 315 313 312 311 307 310 311 306 310
323 324 324 325 324 324 324 324 324 324 324 324 324 324 325 325 325 326 326 326 326 326 326 325 325 325 325 324 325 325 325 326 325 323 323 322 324 324 323 323 322 322 322 323 322 321 321 321 321 321 321 319 317 314 314 313 311 304 304 306 309 306 308
323 323 323 324 324 324 324 324 324 324 324 324 324 324 325 325 325 325 326 325 325 325 325 325 325 325 324 324 323 325 325 324 325 323 323 323 323 324 323 323 322 321 322 323 322 321 321 321 320 321 319 318 317 314 315 313 309 307 306 305 306 306 307
324 324 324 324 325 325 324 324 324 324 324 323 325 325 325 325 325 325 325 325 325 324 324 325 324 325 325 324 323 324 325 325 325 323 322 323 323 323 322 322 322 321 322 322 322 323 322 321 321 321 320 318 317 315 311 311 308 306 305 304 305 305 306
324 323 323 324 324 324 324 324 325 325 324 324 324 324 325 325 324 324 324 324 324 323 324 324 324 325 325 325 324 323 324 325 325 324 324 323 323 323 323 322 322 321 322 322 321 321 321 321 321 321 320 319 317 314 312 313 313 311 306 305 304 304 305
323 323 323 323 322 323 324 325 325 325 324 323 324 323 323 324 323 324 323 323 323 323 324 324 323 324 325 325 323 323 324 325 325 324 324 324 325 324 323 323 322 321 321 321 319 319 320 320 320 320 320 320 319 317 312 312 311 311 307 306 305 304 305
321 320 321 322 322 323 324 324 325 325 324 323 323 323 323 323 323 323 323 323 323 323 323 323 323 323 324 324 323 324 324 325 324 324 323 323 325 324 324 323 322 322 322 322 320 320 320 320 320 320 320 320 321 319 316 312 310 309 309 308 307 304 304
320 320 320 320 322 323 324 325 325 325 324 324 323 322 322 322 322 323 322 322 322 322 323 322 322 322 323 323 323 323 323 323 323 322 322 323 324 324 324 324 322 322 322 323 321 320 320 320 320 320 320 321 321 319 317 314 310 307 307 306 305 306 305
321 321 321 321 321 322 324 324 324 325 324 323 322 322 322 321 321 321 321 320 320 320 320 320 320 321 321 321 321 322 322 321 320 320 320 320 322 322 322 322 321 322 323 323 323 321 320 320 320 319 319 320 321 319 316 313 309 308 307 306 305 304 304
321 321 321 321 321 322 323 323 324 324 323 323 322 321 322 320 317 315 314 314 314 315 316 316 316 317 318 318 319 319 320 320 320 319 317 317 318 318 318 318 317 318 322 324 316 315 317 318 321 319 318 319 320 319 316 311 308 308 307 306 304 304 304
319 320 320 321 321 322 323 323 323 322 322 322 321 319 317 316 314 312 310 309 310 310 310 309 310 309 312 317 317 318 318 319 319 318 317 316 315 315 315 316 321 323 319 317 312 308 307 308 314 319 320 319 319 318 315 310 308 308 307 304 304 303 303
314 319 319 320 321 321 322 322 322 321 320 319 317 316 315 313 311 310 309 308 307 306 305 304 298 297 302 307 315 316 316 316 317 317 317 317 314 311 311 311 312 315 312 312 310 303 301 302 305 306 308 312 316 318 313 310 308 307 307 307 305 303 304
312 317 319 319 319 319 321 320 319 317 314 313 313 312 311 310 308 307 307 306 305 304 302 299 295 296 299 301 308 315 316 316 316 316 316 315 312 310 308 307 307 310 312 308 309 307 303 298 296 295 294 294 295 297 302 312 312 307 307 306 304 304 304
311 315 317 317 317 317 316 314 313 312 311 310 309 309 307 306 305 305 305 304 303 303 301 295 295 297 299 300 303 310 316 316 315 315 314 312 310 308 307 306 305 305 308 312 310 307 305 303 299 297 298 298 297 295 293 292 297 313 310 309 307 305 304
309 311 311 312 312 311 309 307 306 306 306 305 304 304 304 304 304 304 304 304 302 302 302 298 296 297 297 298 301 306 314 313 312 311 310 309 307 306 306 306 306 305 305 306 306 308 308 308 306 304 303 303 303 302 298 298 297 298 304 309 307 306 307
306 308 307 306 305 304 304 303 302 301 301 301 301 300 301 301 302 302 302 303 302 301 300 296 295 296 297 298 300 303 308 306 305 302 301 301 301 301 302 302 303 304 305 306 308 308 308 306 304 302 301 301 301 301 301 302 304 308 310 310 310 310 308
304 304 305 304 302 301 300 299 299 299 298 297 298 298 298 298 299 298 300 301 302 301 300 294 295 296 297 297 300 305 304 302 300 300 299 299 299 299 299 300 302 302 304 306 304 300 302 305 302 301 300 300 300 301 301 299 295 297 304 307 308 306 304
303 302 302 301 300 300 300 299 299 298 296 296 296 296 296 296 297 297 299 300 301 300 299 295 294 295 296 297 300 303 301 300 300 299 299 300 300 300 299 298 299 300 301 303 300 297 297 300 301 300 299 299 299 300 301 302 297 295 295 294 294 294 294
302 301 300 299 298 298 298 298 297 298 296 296 296 297 297 297 297 297 298 299 300 299 298 296 294 294 295 297 300 301 300 299 297 297 297 298 299 299 301 302 300 298 299 298 294 296 296 301 302 301 300 299 299 299 299 300 302 301 296 296 295 295 295
302 301 299 299 298 297 297 297 297 298 297 297 297 297 298 297 297 297 297 298 300 298 298 297 294 294 295 296 299 300 299 298 297 297 297 297 297 297 297 297 297 297 296 294 291 293 295 300 301 300 299 299 298 298 298 300 302 302 302 302 302 302 300
301 301 300 299 299 299 298 298 297 297 297 297 297 297 297 296 296 296 296 297 297 296 296 296 294 293 294 295 297 301 300 298 297 296 297 297 297 297 297 297 295 291 291 291 291 291 292 294 298 299 299 298 298 297 298 300 301 301 300 299 299 300 299
298 300 301 300 300 300 299 298 298 297 297 297 297 296 296 296 295 295 295 295 295 296 296 295 293 292 293 293 294 297 300 299 298 298 298 297 298 297 296 295 294 292 290 291 291 291 291 292 294 299 299 299 298 297 297 300 299 298 299 298 298 298 297
298 299 300 301 300 299 300 300 299 298 298 297 296 296 296 296 295 295 295 295 294 294 296 295 294 292 291 292 292 294 298 298 299 299 297 297 296 295 295 294 293 292 290 290 290 290 290 290 291 294 291 290 291 293 298 299 298 297 297 297 296 296 296
296 297 298 299 300 299 300 299 299 299 298 297 297 296 296 296 295 295 294 294 294 294 294 294 292 293 291 291 291 292 293 295 294 299 297 295 294 294 294 293 293 292 290 290 291 291 291 291 292 291 290 291 291 292 295 297 296 296 296 296 295 295 294
295 296 296 297 298 299 299 299 299 299 298 297 296 295 295 295 294 294 293 293 294 294 294 294 293 292 292 290 291 291 291 292 293 296 296 294 294 294 293 293 292 290 290 290 290 290 290 291 292 290 291 291 291 293 297 296 295 294 293 293 293 293 293

ECMWFFLT1_sfc_thetae_075.txt.gz
Theta_e
331 332 335 338 339 334 331 334 333 333 334 335 336 336 338 337 337 337 338 339 337 336 335 337 338 336 335 335 336 337 336 335 335 332 330 329 326 327 331 330 330 331 332 333 329 324 321 318 320 327 329 328 329 329 330 330 331 331 330 331 330 329 330
334 336 337 334 331 329 329 332 333 333 334 334 335 335 334 333 333 334 334 335 337 338 339 337 338 335 333 333 332 333 333 334 336 336 333 330 330 329 329 327 328 329 330 332 331 328 323 319 319 321 322 326 328 328 329 330 330 331 330 331 330 330 331
334 334 333 332 332 330 329 331 332 331 330 331 333 333 332 333 333 333 333 333 336 336 338 339 338 334 334 333 332 332 334 334 336 336 335 334 333 333 331 329 327 326 327 327 327 326 326 326 320 319 322 321 320 324 328 328 329 331 331 331 331 330 331
333 332 329 330 331 329 328 331 329 329 330 331 332 332 333 333 333 334 333 333 334 336 336 338 339 337 335 333 333 332 333 333 334 335 334 335 334 333 331 329 328 327 326 325 326 326 325 322 321 321 322 322 322 322 325 328 329 330 330 331 330 330 332
334 331 328 330 332 329 331 330 328 328 328 330 330 331 331 332 332 333 333 334 334 335 335 337 338 338 339 334 333 332 332 333 336 335 334 332 332 331 331 331 331 332 332 330 330 329 327 325 324 322 321 322 322 323 325 327 329 329 328 329 330 330 331
336 332 330 330 331 329 331 331 329 328 329 328 329 329 330 331 332 332 332 333 334 334 335 336 337 337 338 334 333 331 333 332 332 333 331 330 331 330 329 331 332 332 332 333 333 330 329 329 327 322 322 323 320 321 323 325 323 327 329 328 328 328 328
332 330 330 329 332 334 334 333 332 331 329 328 329 329 331 331 331 332 333 333 334 334 335 335 336 337 335 332 330 330 330 332 331 332 333 333 333 333 334 332 332 332 333 333 332 331 329 328 326 324 322 322 322 319 321 322 325 323 325 327 328 328 326
333 333 333 332 332 332 333 333 333 333 331 332 331 330 332 331 332 332 332 331 331 332 333 335 334 334 332 331 330 332 332 332 331 331 331 333 332 332 333 333 333 333 334 331 332 332 331 330 328 327 323 319 318 320 318 322 322 323 324 326 327 327 327
333 334 333 332 331 333 334 334 334 334 334 334 333 332 331 332 331 331 331 331 331 332 332 333 332 332 331 331 331 332 331 331 331 331 331 331 330 333 334 335 335 334 335 332 332 332 331 331 330 329 327 324 318 314 317 318 320 321 326 324 325 327 328
332 331 332 332 332 333 334 335 334 334 335 334 333 333 332 331 332 332 331 331 330 331 331 332 332 331 331 332 333 332 331 331 330 330 330 330 332 334 335 335 334 335 334 334 333 333 333 332 331 331 329 326 324 319 315 315 318 320 323 325 322 324 327
328 330 331 331 332 333 333 331 331 332 333 334 333 332 332 331 332 332 332 331 331 330 331 331 332 332 333 332 332 332 332 331 330 330 330 330 331 333 333 334 335 334 335 334 332 334 333 333 331 330 329 329 328 323 321 317 319 323 323 325 327 323 325
328 329 330 331 332 332 331 332 331 331 332 333 331 330 330 330 330 331 331 331 329 329 330 331 331 331 331 331 332 331 332 331 329 328 329 330 331 330 329 331 334 334 335 334 334 334 333 332 331 331 330 330 329 328 325 322 317 324 328 323 325 327 324
329 329 329 330 331 330 330 331 331 331 330 331 330 329 330 330 330 330 330 330 329 329 329 330 330 330 330 330 331 330 330 330 329 328 328 330 330 329 330 329 332 333 334 333 333 333 332 332 333 331 331 330 329 329 327 323 321 321 324 325 325 324 325
327 329 328 328 329 330 330 331 331 331 330 329 328 328 330 330 331 331 331 331 330 330 329 329 330 330 330 330 330 330 330 330 329 329 328 328 329 328 330 329 332 333 334 333 333 333 331 331 332 332 331 330 328 329 326 324 322 321 319 320 323 322 322
327 328 327 327 327 329 330 331 331 331 331 329 329 329 329 330 331 331 331 331 331 331 331 330 330 330 329 329 329 329 330 329 329 328 328 326 327 328 330 332 332 333 333 333 333 332 331 330 330 330 330 330 328 327 328 324 323 322 318 317 317 319 320
325 327 327 327 327 328 330 331 332 331 330 330 330 329 330 330 330 330 330 331 331 330 329 329 330 330 329 329 329 329 329 329 329 327 326 326 326 328 330 332 333 332 332 332 331 332 332 331 331 330 330 330 329 328 327 326 324 322 320 316 318 316 318
323 325 325 326 326 327 328 329 330 329 329 330 329 330 330 330 330 330 329 330 330 330 329 329 330 330 330 330 329 329 329 329 329 328 327 328 327 328 331 332 331 332 332 331 331 331 331 329 327 329 330 331 330 328 327 327 326 324 323 317 315 315 317
321 323 324 325 325 326 327 328 330 329 329 329 329 330 329 330 329 329 329 329 329 329 329 329 329 329 330 332 330 329 328 328 329 329 328 328 328 329 333 332 332 331 332 330 330 330 329 329 327 329 331 331 329 330 327 326 325 325 323 321 317 315 317
317 319 321 324 325 326 327 328 328 328 329 329 329 330 329 329 329 329 329 330 330 330 330 330 329 329 329 330 330 329 328 328 328 327 327 327 329 330 333 334 333 332 332 331 330 330 330 329 328 330 331 332 330 329 327 326 325 324 322 322 319 314 314
316 318 321 323 325 326 327 327 327 327 328 328 328 328 328 328 329 330 330 330 330 331 330 330 330 330 329 329 328 327 328 329 328 327 327 327 328 332 334 334 334 333 332 332 332 330 330 330 330 330 332 333 331 329 327 326 324 322 322 318 318 318 315
314 316 318 321 323 325 325 326 326 327 328 327 327 328 328 328 328 329 330 330 330 331 330 330 330 330 330 330 329 328 327 327 328 327 326 326 327 328 333 334 333 333 333 334 334 333 332 331 330 330 331 332 331 329 328 326 323 319 318 319 318 317 317
312 313 315 318 322 324 325 325 326 326 327 327 328 328 329 328 328 327 328 329 329 330 329 329 329 329 329 329 329 327 326 327 328 327 326 325 326 328 331 331 333 332 332 331 323 325 324 323 329 327 328 328 330 330 329 327 324 320 319 319 316 317 315
311 312 314 317 321 323 324 325 325 325 326 326 327 327 327 328 327 327 327 327 328 328 328 329 323 315 318 328 327 326 326 326 326 325 325 325 326 326 327 329 331 327 321 318 314 310 309 311 317 326 329 328 328 329 328 327 325 323 322 319 316 314 314
309 311 314 317 321 323 324 324 325 325 325 325 325 326 326 325 326 326 327 326 326 326 326 324 309 303 306 310 323 324 325 325 325 324 323 325 325 325 327 329 330 324 322 318 316 303 304 304 306 311 314 317 321 330 329 326 325 325 322 321 319 318 316
308 309 310 311 314 318 321 322 322 323 324 324 324 324 323 323 323 324 324 325 324 323 323 309 300 301 302 305 312 325 326 325 325 324 324 325 326 326 324 324 324 325 327 326 323 317 306 297 296 295 296 299 302 303 303 323 326 323 324 322 319 318 318
306 307 307 307 307 308 309 311 311 311 315 319 320 319 319 320 321 321 320 320 320 317 314 298 297 299 300 302 306 317 327 327 325 325 325 325 323 322 321 321 321 322 321 317 321 321 317 310 298 296 297 298 297 295 296 297 300 322 326 324 322 318 317
305 305 306 305 304 304 303 304 304 305 307 310 312 312 312 313 314 314 315 314 315 314 311 297 295 297 298 299 302 313 326 326 325 324 323 322 321 321 321 320 320 319 321 321 323 322 319 316 315 315 316 317 316 309 301 300 299 298 310 324 321 318 317
303 303 304 304 303 302 301 301 301 301 301 302 303 303 304 305 305 307 307 308 309 308 305 295 295 296 298 300 302 308 321 320 318 316 317 317 318 319 319 321 321 320 320 321 321 318 318 316 315 314 313 313 313 312 310 312 317 321 319 321 323 319 318
302 302 302 302 301 300 300 300 300 301 301 301 301 301 301 301 302 303 304 305 305 304 301 294 295 297 298 299 303 316 316 314 312 311 311 311 311 312 315 318 319 319 320 319 306 301 307 315 314 313 312 312 311 308 303 298 295 299 309 314 314 311 306
301 302 302 302 301 300 300 299 299 300 300 300 300 299 299 300 300 301 301 301 301 300 300 295 293 296 298 299 305 313 313 312 311 310 310 310 310 310 312 315 319 319 318 315 300 296 298 305 313 312 311 311 311 311 308 304 296 294 294 294 293 293 293
301 301 301 301 301 301 301 301 300 300 299 298 299 299 299 299 299 299 298 299 299 299 300 296 292 293 296 300 305 312 312 312 310 309 308 309 309 309 307 305 312 320 316 310 294 295 296 307 312 311 311 310 309 308 307 307 306 302 295 295 295 295 295
302 301 300 300 301 301 301 301 300 301 300 299 298 299 299 297 297 297 297 298 299 297 297 296 292 292 293 297 307 311 310 309 307 306 305 305 305 306 305 302 299 305 312 303 292 294 297 307 313 312 311 310 308 306 306 307 306 306 307 306 306 307 306
302 302 301 301 301 301 301 301 300 300 299 299 298 298 298 297 296 296 296 297 297 297 296 296 294 291 292 294 298 308 308 307 304 303 304 304 304 304 304 304 299 291 291 292 292 292 295 301 312 312 311 309 306 304 306 306 306 306 305 305 305 305 304
301 301 302 302 302 301 302 301 301 300 299 299 299 298 297 296 296 295 296 296 296 296 296 296 295 291 292 293 294 300 306 305 304 304 303 302 302 301 300 300 300 292 290 291 291 291 292 294 299 309 310 308 306 304 302 303 302 300 304 304 304 304 304
301 301 302 302 301 301 301 301 301 301 300 300 298 297 297 296 296 296 296 296 296 295 297 296 295 293 291 293 293 296 303 304 304 304 301 300 300 299 299 298 296 292 290 290 290 291 292 293 294 302 300 294 294 295 304 304 304 304 304 304 304 303 303
300 301 300 301 301 300 301 300 300 300 299 299 298 297 296 296 296 296 295 295 296 296 296 296 293 294 292 292 292 293 293 297 295 303 302 300 298 298 298 296 295 292 291 291 291 291 292 293 296 297 292 293 293 294 298 303 303 304 303 303 302 301 301
300 300 299 299 301 301 301 301 299 299 299 298 297 296 296 296 295 295 294 294 295 296 296 296 294 292 292 291 291 291 291 292 294 298 298 297 297 296 294 293 292 290 290 290 290 290 291 293 294 291 291 292 293 296 303 303 303 303 301 301 301 300 300

ECMWFFLT1_sfc_thetae_078.txt.gz
Theta_e
335 336 338 340 343 339 339 336 338 338 336 338 338 337 338 338 338 337 337 337 339 341 342 342 339 338 337 340 340 338 337 335 338 333 332 333 332 333 337 337 338 336 335 334 332 327 324 323 324 332 333 333 333 332 331 332 334 335 336 335 335 335 335
337 336 337 339 341 342 339 339 338 339 339 339 338 337 338 338 337 338 337 337 338 341 341 340 337 338 340 339 337 337 333 338 335 334 332 333 334 334 334 335 336 334 333 335 334 331 326 324 324 323 326 332 333 331 332 333 334 337 336 335 333 333 336
339 338 338 338 339 339 338 339 340 339 338 336 336 336 338 339 338 336 337 338 339 339 341 340 338 337 337 337 337 339 341 339 340 334 332 336 336 336 335 335 333 333 332 332 332 331 330 330 323 322 325 325 322 328 334 334 335 336 335 334 334 333 335
338 338 336 336 337 339 338 337 336 338 338 335 336 336 337 337 337 336 337 337 338 337 339 338 337 337 338 338 337 339 338 338 336 334 331 335 334 336 334 334 334 332 330 330 331 331 329 327 325 325 327 326 324 326 332 332 332 335 334 334 334 334 336
338 336 336 336 336 337 338 335 336 337 336 335 336 336 336 337 336 335 336 337 337 337 336 338 336 338 337 338 338 337 337 335 334 333 332 334 332 335 336 335 334 335 334 333 331 332 330 329 327 326 325 326 325 326 327 331 332 331 332 331 334 334 335
338 338 336 336 338 338 339 338 336 335 335 335 336 334 335 335 335 335 335 336 335 336 337 338 338 335 336 336 336 336 336 333 334 335 332 332 335 334 331 334 334 334 334 335 334 331 332 331 328 325 326 327 324 325 327 328 327 330 330 331 333 334 333
338 337 337 337 338 338 339 338 337 336 335 335 335 335 336 336 335 335 335 336 336 337 338 340 337 338 336 335 335 335 334 334 336 336 335 335 338 339 338 335 336 335 335 335 334 332 331 330 327 326 326 326 327 323 326 326 327 325 329 331 333 333 333
336 336 337 338 338 337 338 337 336 337 335 336 335 337 338 337 337 335 335 335 335 336 338 340 339 337 335 333 333 333 334 336 336 335 333 335 337 337 337 335 335 336 335 334 333 332 331 330 330 330 327 324 323 324 323 324 326 326 326 330 332 332 332
334 335 336 337 337 337 337 338 338 339 339 339 338 338 338 338 336 335 335 334 335 336 337 338 338 338 333 333 333 333 333 335 335 336 336 337 337 337 337 336 335 334 335 333 335 333 332 332 333 332 330 326 320 318 322 321 323 325 328 327 330 332 332
332 332 333 335 337 337 338 338 338 339 341 341 339 339 338 338 337 335 334 334 334 335 335 335 336 338 338 336 334 333 335 337 335 334 334 336 337 336 336 337 338 334 334 334 334 334 335 334 333 333 331 329 327 321 319 318 321 323 326 328 326 329 331
330 331 332 333 335 336 337 337 337 338 339 340 338 337 338 337 336 335 335 334 335 335 335 334 334 335 336 335 333 334 335 336 335 335 336 333 336 336 336 337 338 334 334 334 334 335 334 334 333 333 332 332 332 326 323 320 321 326 326 329 329 327 329
327 329 331 332 334 334 335 336 337 338 338 336 336 336 336 336 336 335 335 334 334 334 334 334 334 335 333 332 333 335 336 335 334 336 333 335 335 335 336 338 338 337 333 331 334 335 335 335 334 334 333 334 333 332 329 324 320 326 330 327 329 331 329
327 329 330 331 332 333 333 335 336 336 338 335 333 337 335 335 335 335 334 334 333 334 334 334 335 334 333 332 332 332 333 332 332 330 331 335 334 335 336 336 335 335 333 331 334 336 335 335 336 334 334 333 333 333 332 328 323 324 330 330 329 330 330
327 329 329 330 332 333 335 335 334 335 334 332 331 334 335 335 336 336 335 334 333 333 333 333 334 334 333 332 332 332 333 332 332 330 333 333 334 334 333 334 334 334 334 334 336 334 334 335 336 335 334 333 332 334 332 331 325 325 329 332 331 329 330
327 328 329 330 330 331 332 334 333 331 331 332 333 332 335 336 335 335 334 333 333 332 332 333 333 333 331 331 330 332 332 333 331 332 333 332 332 332 333 333 333 334 332 331 333 332 333 334 334 333 333 333 331 332 334 330 329 325 322 327 328 330 329
324 326 327 329 329 329 331 333 333 333 334 331 332 333 334 334 334 335 333 334 334 333 333 332 332 332 333 332 330 331 332 332 332 332 332 331 330 331 331 332 333 333 334 333 334 334 335 334 333 332 332 333 333 333 332 331 329 326 325 323 326 325 327
321 323 324 326 328 330 330 331 331 331 331 332 332 333 333 332 333 333 333 333 333 334 333 333 332 332 332 332 332 332 332 332 332 333 331 330 330 330 331 332 333 333 331 330 331 336 333 333 333 332 333 334 334 332 334 333 332 328 326 322 323 323 324
317 318 320 322 325 328 330 331 331 330 331 331 331 332 333 333 332 332 332 332 334 334 334 333 332 332 332 333 333 332 332 332 332 331 331 332 331 331 332 333 333 332 333 331 331 331 331 333 334 334 334 333 333 333 334 333 332 330 329 324 324 325 325
316 317 318 319 321 324 326 329 329 330 330 330 331 332 332 332 331 331 331 332 333 334 333 332 333 331 332 332 333 334 333 334 333 330 332 333 332 332 333 333 333 332 330 331 330 334 333 334 334 334 335 335 332 333 333 333 332 330 328 328 325 321 323
314 315 317 319 321 323 325 328 329 328 329 330 330 330 331 331 331 332 331 333 333 334 334 334 334 334 334 334 334 334 334 331 330 330 333 333 333 332 334 334 333 331 331 332 331 333 333 336 335 335 335 335 333 331 332 331 331 330 328 326 324 324 321
314 315 316 318 320 323 325 326 327 328 328 328 328 328 329 330 332 331 331 331 332 333 333 330 333 334 334 334 334 334 333 332 331 333 333 332 332 332 334 335 334 331 332 330 331 333 334 331 336 336 335 335 334 331 331 331 327 326 326 325 323 322 322
314 315 316 317 318 319 321 324 327 328 328 329 329 330 329 330 330 330 331 331 331 332 332 330 329 332 333 332 333 333 331 330 332 330 330 331 330 331 333 335 333 333 332 329 322 317 319 323 332 332 333 335 333 330 330 329 328 327 326 324 322 324 323
313 314 315 315 316 317 317 318 320 320 321 324 327 329 329 329 330 329 329 329 330 330 329 329 327 318 320 332 333 332 332 332 332 331 329 328 327 329 331 333 334 326 320 320 318 313 312 312 314 328 335 336 334 331 330 328 326 326 326 324 324 325 322
312 312 313 314 315 314 315 316 316 315 316 318 321 324 327 328 328 329 330 329 328 330 330 327 314 307 307 311 326 333 331 330 331 330 329 327 326 328 329 330 331 326 324 321 317 306 306 305 308 310 310 312 318 336 331 328 328 327 324 324 324 323 321
311 311 311 311 312 313 313 313 313 314 315 316 317 318 321 323 326 327 328 328 328 329 329 318 306 305 306 305 315 332 332 332 331 329 327 328 328 328 328 328 329 327 326 328 327 322 313 303 301 299 300 301 302 300 300 321 328 328 326 324 324 324 322
310 310 310 311 311 311 310 310 310 310 311 312 313 313 313 314 315 318 323 325 327 328 329 310 303 304 303 303 306 319 333 331 329 328 328 327 328 328 328 328 327 327 328 323 328 328 326 318 299 296 297 299 299 300 299 298 299 322 326 324 322 323 324
309 309 310 310 310 309 308 307 307 308 309 310 310 309 309 309 310 311 312 314 318 320 316 295 294 298 300 301 303 312 333 330 329 329 329 329 330 330 330 330 328 327 327 327 329 329 327 324 322 322 324 327 325 311 301 303 303 300 312 325 326 322 322
308 308 309 309 309 308 307 307 306 306 306 306 307 306 306 306 307 307 308 310 310 309 306 293 294 295 296 298 299 307 329 331 329 329 329 330 330 331 332 332 330 329 328 328 329 327 327 325 326 326 325 324 322 319 319 323 325 328 328 326 329 328 327
307 308 308 308 307 307 307 306 305 305 305 305 305 305 305 305 305 306 306 306 306 305 303 292 292 295 296 296 297 322 327 328 327 327 327 329 330 331 331 329 329 329 329 330 316 307 316 327 326 325 323 320 315 312 308 299 294 298 316 324 323 321 316
306 306 307 306 306 306 305 305 305 304 303 303 302 302 302 302 303 304 303 302 302 301 301 295 291 292 294 293 301 323 323 325 323 322 322 323 323 324 325 327 328 327 328 327 307 302 304 311 324 323 320 318 316 313 310 306 296 294 294 293 293 293 293
305 305 305 305 305 306 306 305 304 304 303 301 300 300 300 300 300 301 301 301 300 299 299 296 292 292 293 292 299 318 322 320 318 317 317 318 319 316 311 304 316 326 323 319 297 298 300 314 321 320 318 315 312 310 309 310 309 304 295 295 295 295 295
305 305 305 305 305 304 304 303 303 304 304 304 303 303 301 300 300 300 300 300 299 298 298 296 292 292 293 293 300 315 319 320 316 314 312 312 316 315 313 306 299 310 316 306 295 297 298 312 321 320 318 316 313 311 310 312 311 311 312 312 312 313 311
305 305 304 304 304 304 304 303 302 303 303 303 303 303 302 301 299 299 298 298 298 298 298 297 294 292 293 293 295 310 316 313 310 309 311 311 311 311 311 309 301 292 292 293 295 296 298 303 319 319 319 317 315 312 314 314 312 312 310 310 309 310 309
305 305 305 305 305 305 304 302 302 301 301 301 302 302 303 302 301 299 298 299 298 297 296 296 295 291 292 293 293 300 311 308 308 308 307 305 304 304 303 303 301 292 290 290 291 291 293 294 302 320 320 319 317 313 308 310 308 303 309 307 307 307 306
305 305 305 305 305 305 305 304 303 302 301 300 300 301 302 302 301 298 298 298 297 296 297 295 295 292 291 292 292 294 304 304 306 309 306 304 301 301 301 301 300 293 290 291 291 292 293 294 297 316 310 296 295 297 309 308 308 308 307 307 310 307 306
303 304 304 305 304 304 304 304 304 303 301 300 299 299 299 299 299 299 298 297 297 297 297 295 292 293 291 291 291 292 292 298 295 305 302 300 300 300 300 299 297 292 291 291 292 292 294 294 297 299 293 294 294 295 300 306 306 306 305 305 306 304 303
301 302 302 303 303 303 303 303 303 302 301 300 299 298 298 298 298 297 296 296 296 297 297 296 294 292 291 290 290 290 291 291 293 300 301 301 301 300 299 298 294 290 291 291 291 291 291 293 296 292 293 293 295 299 307 306 305 305 302 302 302 301 302

ECMWFFLT1_sfc_thetae_081.txt.gz
Theta_e
336 336 338 339 342 341 342 342 342 342 342 341 341 341 341 340 340 340 341 340 339 339 339 338 336 338 339 338 341 341 341 341 339 336 334 333 330 332 336 332 332 333 333 333 331 326 325 321 324 332 335 335 333 335 335 335 334 333 334 335 334 334 335
338 338 339 341 340 340 340 343 342 340 340 340 340 340 341 340 339 339 340 339 338 339 339 338 336 335 338 337 341 339 341 340 340 337 335 332 333 332 331 332 333 331 333 332 331 330 325 322 323 326 326 332 335 334 337 334 335 334 335 336 335 334 335
339 341 340 340 341 341 339 340 338 340 340 339 340 339 340 340 340 340 339 340 339 339 339 339 337 338 340 341 339 338 338 338 339 338 337 335 335 336 335 332 329 329 327 326 332 330 329 328 323 323 327 327 326 331 335 333 332 333 334 337 336 332 336
338 340 337 336 338 339 339 339 339 340 341 339 339 339 339 339 340 340 339 340 340 340 339 338 339 339 339 339 338 335 337 339 337 337 336 335 335 336 335 333 330 329 327 324 328 329 329 328 324 324 326 328 327 328 330 333 334 333 335 336 334 332 333
338 336 338 336 336 336 338 339 340 340 339 337 339 338 339 339 340 340 340 339 339 339 338 339 340 340 340 340 338 335 336 338 336 334 335 334 334 335 336 336 332 332 330 327 332 331 330 329 327 324 324 327 328 326 329 333 333 333 334 333 333 333 333
338 338 336 335 335 335 334 335 338 338 339 336 336 337 338 340 339 338 338 337 337 338 338 338 339 340 339 340 339 337 337 335 334 335 334 335 335 335 335 336 334 333 332 332 335 334 332 331 329 325 325 327 323 326 329 332 330 332 333 332 333 333 333
335 337 337 335 335 335 335 334 335 335 335 339 340 339 339 340 339 338 339 338 338 338 338 338 338 339 338 339 339 338 336 336 337 338 336 336 337 337 337 334 333 333 333 334 335 334 331 330 328 326 326 325 327 323 326 327 328 326 330 331 333 333 333
334 334 335 336 337 337 333 333 334 335 334 335 338 340 340 339 340 339 339 339 338 338 338 338 339 339 338 338 338 338 338 337 337 336 336 336 335 335 335 335 335 333 333 334 332 334 335 333 332 330 328 322 323 325 323 325 326 326 326 330 332 332 333
331 333 335 336 336 337 337 337 335 335 337 337 338 337 337 334 336 339 338 338 338 338 337 338 338 338 338 337 336 337 337 337 336 338 337 336 335 335 334 336 332 331 333 335 332 336 333 334 335 334 332 326 323 318 322 322 323 324 329 327 330 333 332
329 331 332 334 335 337 338 337 339 340 340 339 336 336 335 335 334 334 337 337 337 337 337 337 338 338 338 337 336 336 336 338 337 336 337 334 336 335 333 333 332 333 334 333 334 336 337 337 336 334 331 328 327 324 320 319 321 323 325 329 326 329 332
327 329 330 332 334 334 335 336 337 336 338 339 336 335 334 334 334 334 335 337 337 337 337 337 337 337 336 336 336 336 336 338 336 337 338 336 335 333 331 332 332 331 334 331 336 338 336 337 338 334 333 332 331 323 323 319 321 324 325 328 330 328 331
327 327 328 330 332 333 334 335 333 333 336 336 335 334 333 332 332 333 333 333 335 337 338 337 337 337 336 335 335 334 336 336 335 334 336 336 334 333 330 330 332 332 333 335 338 338 339 334 333 334 334 331 330 330 326 323 319 324 328 326 329 331 329
325 326 327 328 329 331 333 334 334 333 334 337 336 335 331 330 330 331 332 333 334 333 335 336 336 336 336 335 335 334 335 335 334 333 334 334 334 334 333 332 331 330 334 334 337 338 336 335 334 334 333 332 331 332 331 329 322 323 329 329 329 330 332
323 324 326 326 327 329 332 333 334 335 334 334 337 334 332 332 331 332 331 331 331 331 332 336 337 336 335 335 334 334 335 334 333 334 335 336 337 336 335 333 332 333 331 332 335 337 336 335 335 335 333 332 330 331 330 328 325 325 329 333 330 329 331
322 322 323 324 325 326 329 331 333 334 335 336 337 336 334 333 332 331 330 328 328 329 331 334 337 335 334 333 333 334 334 333 333 332 334 334 334 335 333 332 331 332 331 331 335 334 334 334 334 333 332 330 329 328 332 328 327 325 325 330 328 328 328
321 321 321 322 322 323 325 328 330 332 333 334 336 336 335 334 332 331 330 330 330 330 331 330 336 335 335 333 333 333 333 333 332 332 333 331 332 332 332 331 331 332 332 330 334 333 335 334 334 331 331 331 331 330 331 331 327 323 325 327 330 327 327
319 319 320 320 321 322 322 324 327 329 332 333 333 335 336 334 332 331 330 329 329 329 330 333 335 335 334 334 334 334 333 333 334 333 333 332 331 332 332 331 331 332 330 328 332 335 337 334 333 330 328 330 329 329 333 333 330 327 326 323 327 329 328
317 318 318 319 320 321 323 324 326 327 330 332 333 333 333 334 333 330 330 330 330 331 331 331 334 335 335 335 335 334 333 332 332 334 334 333 332 331 332 332 333 333 330 332 329 329 333 333 331 330 328 329 330 330 332 332 331 329 328 325 324 326 329
316 317 317 318 319 320 321 322 324 326 328 329 331 332 332 332 332 332 331 329 330 331 333 332 331 332 333 334 335 334 333 332 333 332 331 331 332 334 332 331 332 334 333 333 331 333 333 332 331 331 329 329 331 330 331 332 331 330 329 330 325 324 325
315 316 316 317 318 319 320 321 321 322 324 326 329 330 331 331 332 330 332 332 331 332 332 332 330 333 334 334 335 334 335 332 331 330 332 333 335 333 332 333 331 332 330 332 333 332 333 333 333 332 333 330 329 332 331 331 329 328 326 325 325 326 324
315 316 316 316 316 318 319 319 319 321 321 320 322 326 328 330 331 331 331 330 331 332 331 329 330 331 333 333 334 333 332 332 331 329 333 335 334 332 332 333 334 333 331 334 333 333 334 333 331 328 328 328 328 327 329 331 329 327 326 323 324 323 322
316 316 316 316 316 316 317 318 318 318 318 319 320 320 322 323 326 328 330 331 330 331 331 328 331 331 332 333 332 331 331 331 330 331 328 330 332 332 331 332 331 331 335 330 323 325 326 325 330 328 330 329 327 327 324 326 328 328 326 326 323 323 321
315 315 315 315 315 316 316 316 316 316 316 317 317 317 318 321 322 323 324 327 330 332 332 329 326 317 314 327 331 333 331 329 329 328 326 328 328 329 330 332 333 324 319 319 315 310 310 313 319 328 332 330 329 327 327 325 326 327 328 325 324 323 322
314 314 315 315 315 315 314 315 314 314 314 314 314 315 316 316 317 317 319 321 323 327 330 328 310 307 306 304 321 329 329 329 327 326 325 327 326 328 330 331 329 323 322 320 318 306 306 305 306 307 308 312 319 331 326 326 325 325 324 323 324 322 322
313 313 313 313 313 314 314 313 312 312 311 311 312 313 313 313 313 315 316 317 318 321 323 302 293 295 299 302 305 324 328 326 327 326 326 328 327 329 329 331 329 329 330 331 329 322 313 304 301 298 297 296 299 302 311 322 326 326 324 324 320 322 324
311 311 311 312 312 312 312 311 311 310 309 310 310 309 310 310 311 312 312 312 313 316 319 298 293 294 295 296 298 309 327 327 327 327 327 328 329 330 329 330 330 331 331 324 328 329 326 317 301 298 298 298 297 298 296 297 303 328 328 326 325 324 324
310 310 310 310 311 310 310 309 310 309 309 308 307 307 308 308 308 308 309 309 310 312 313 298 292 293 295 294 295 298 325 327 327 329 329 330 330 329 329 331 329 329 330 328 330 329 328 327 324 323 325 328 325 309 297 297 298 303 318 328 327 325 325
308 309 309 309 309 309 308 308 308 308 307 306 306 305 305 305 306 306 306 306 306 307 309 295 293 291 292 295 296 296 317 327 328 326 326 330 330 328 328 330 330 329 329 328 329 327 328 327 327 327 327 325 323 322 315 314 319 324 327 327 326 327 327
307 308 308 308 307 307 307 307 306 307 307 307 306 305 305 305 304 304 303 303 302 303 306 296 293 292 291 294 295 308 316 324 326 326 329 330 331 330 331 331 329 327 328 329 316 308 317 327 327 327 324 320 318 314 306 298 294 295 318 329 327 326 318
306 307 307 306 306 306 306 306 306 307 306 306 305 305 304 303 303 302 301 301 300 301 303 299 293 292 292 290 297 313 316 322 325 326 327 327 328 327 325 328 327 329 329 328 310 303 306 313 327 325 322 318 317 314 310 305 296 294 294 293 293 294 294
306 306 306 305 306 306 306 306 306 306 304 304 304 305 305 304 303 301 300 300 300 299 300 299 293 292 292 292 298 315 318 322 322 320 322 326 321 314 310 304 318 329 326 323 302 302 302 317 325 323 320 318 315 313 311 311 308 302 296 295 295 295 296
306 305 305 305 306 305 305 305 306 306 305 305 303 304 305 304 303 301 301 300 300 298 298 298 294 291 292 294 303 319 320 319 316 316 317 317 318 316 311 304 301 313 320 308 298 299 300 313 325 322 319 317 315 314 313 313 311 310 311 312 312 313 310
306 306 305 306 306 306 306 305 306 305 305 305 303 303 302 302 302 301 300 300 299 298 296 297 296 291 292 293 295 310 312 310 308 307 305 306 308 307 306 305 300 293 294 294 293 292 292 297 322 322 320 317 314 312 314 315 317 315 314 315 314 313 312
305 305 306 306 306 306 306 305 305 305 304 304 303 302 301 301 301 300 300 300 299 298 297 295 296 291 291 292 293 299 305 305 306 304 303 301 301 301 301 300 299 293 292 292 293 293 294 295 306 322 320 318 316 313 309 310 309 305 311 310 309 308 308
305 305 305 305 305 304 305 305 305 304 303 303 302 301 300 300 300 299 299 299 299 298 299 297 295 293 291 291 292 293 301 301 302 303 300 299 299 298 298 297 296 293 291 292 293 294 295 296 298 308 304 297 297 300 312 311 310 310 310 308 306 306 306
303 304 304 304 304 303 303 303 304 304 303 302 301 300 300 300 299 299 299 299 298 298 299 299 295 295 292 291 291 291 291 295 295 302 300 297 296 297 297 297 296 293 291 292 293 294 295 295 299 300 294 295 296 297 303 310 308 308 307 306 305 305 306
303 303 303 303 303 302 302 302 302 301 301 300 299 299 299 299 298 298 297 298 298 298 298 299 297 294 294 292 291 291 290 291 292 297 298 296 296 296 295 295 294 291 292 292 292 292 292 295 297 294 295 296 297 299 306 306 305 304 302 302 304 303 303

ECMWFFLT1_sfc_thetae_084.txt.gz
Theta_e
338 338 339 342 342 343 344 344 343 343 342 341 342 341 341 340 340 339 340 339 339 340 339 337 336 337 336 335 335 334 333 332 331 328 327 328 326 329 331 331 333 334 333 331 330 326 323 318 322 328 331 331 331 331 331 331 331 331 333 331 332 335 334
339 339 340 339 340 340 339 343 343 343 343 342 342 342 341 340 339 340 339 339 338 338 339 338 338 338 336 334 333 334 333 332 332 332 330 327 328 330 330 331 332 331 331 331 331 329 323 320 320 323 323 329 330 331 331 332 331 332 333 332 332 332 333
337 339 340 338 337 339 338 339 338 339 340 339 340 341 337 339 338 338 338 338 338 338 338 338 338 337 337 335 334 335 336 334 336 335 333 333 333 333 333 332 328 329 329 328 327 326 325 324 319 320 322 323 322 326 331 330 331 331 332 333 331 332 333
335 336 336 338 337 337 335 335 337 336 338 336 337 335 336 336 337 336 337 337 336 338 338 337 336 337 337 337 336 335 336 336 335 336 333 334 333 333 333 333 330 329 326 324 324 324 323 321 321 321 321 324 325 324 328 331 330 330 331 331 331 330 332
333 333 334 334 335 334 334 335 336 335 333 334 335 335 332 336 338 337 336 335 333 335 336 336 337 337 337 337 336 336 335 336 337 336 334 333 333 333 333 333 331 331 330 328 328 328 325 323 322 321 322 322 325 326 330 330 331 329 329 330 331 330 332
331 332 332 333 335 334 334 333 333 332 333 332 332 331 334 334 335 336 335 334 333 333 336 336 336 336 336 337 336 336 335 334 333 335 334 333 333 332 332 334 333 332 330 331 330 328 327 328 325 322 322 326 320 321 327 329 327 329 330 330 330 329 331
329 329 330 331 334 335 335 334 333 332 332 331 330 331 334 332 333 335 334 333 334 337 338 336 335 335 335 334 335 334 334 334 335 334 334 334 334 333 334 333 333 332 331 331 330 329 328 326 325 323 322 323 325 323 326 327 328 325 327 332 331 329 329
327 327 328 330 331 333 334 335 332 331 332 332 333 333 334 334 333 335 334 333 335 336 336 337 337 336 333 334 331 332 333 333 334 334 334 334 333 333 333 333 333 333 332 332 331 331 330 328 326 325 323 319 319 322 322 326 325 325 325 327 330 328 330
326 327 327 329 330 331 333 334 333 335 333 332 332 334 334 335 333 332 331 330 332 334 333 333 334 334 334 333 332 332 333 335 333 331 333 334 333 333 334 335 333 332 333 333 332 331 331 330 328 327 325 324 318 315 321 321 322 323 327 325 327 329 329
325 325 326 328 329 330 331 333 335 335 334 334 334 335 334 335 336 334 332 332 333 333 333 333 333 333 334 331 331 333 333 335 334 332 332 332 334 334 334 333 333 333 332 333 333 332 331 330 330 329 329 325 322 318 316 316 318 319 324 327 323 327 330
323 323 325 325 327 328 329 330 333 334 334 334 335 334 333 332 334 334 333 332 333 333 332 332 333 334 334 331 332 333 334 335 334 332 333 332 332 333 332 332 333 332 332 333 332 331 330 330 330 330 328 327 327 322 320 317 317 322 322 325 326 325 328
322 322 323 323 324 324 325 327 329 331 334 334 333 334 334 332 333 334 334 332 332 332 332 330 330 331 333 331 331 332 333 332 332 331 332 334 332 331 331 332 332 332 333 331 331 331 332 331 331 331 331 331 329 327 324 323 318 323 325 322 325 328 327
321 321 321 321 321 322 322 324 325 327 330 334 334 333 333 333 332 332 333 332 331 331 331 330 330 330 331 330 331 330 330 330 331 331 332 333 332 332 331 329 330 331 331 331 330 330 331 331 332 332 331 331 330 328 327 323 318 317 326 326 326 326 329
319 320 320 320 321 321 321 322 323 324 326 328 333 333 332 332 332 332 332 332 331 331 331 329 329 329 329 330 330 330 330 330 330 330 331 330 330 331 330 329 329 331 332 331 331 331 331 331 332 332 332 331 329 329 327 325 321 320 325 327 327 327 328
318 318 318 319 319 319 320 321 323 324 324 326 328 332 332 332 332 331 330 331 332 331 331 330 331 331 330 329 328 328 328 328 329 329 330 329 330 329 328 329 330 330 331 330 331 330 330 330 331 331 331 331 328 328 329 327 324 321 322 325 326 326 328
317 317 317 317 318 319 320 321 322 323 323 325 327 328 332 333 332 332 330 329 329 331 330 330 329 329 328 327 327 328 328 328 329 329 328 328 329 330 329 328 328 329 331 330 330 330 331 331 331 330 330 330 328 328 329 329 326 324 323 323 325 323 325
316 316 316 316 317 318 319 320 321 321 322 323 323 325 326 329 330 330 331 330 327 329 331 330 330 329 329 329 328 328 328 328 327 327 328 328 328 327 328 328 328 327 328 329 329 329 329 330 329 326 328 329 329 330 327 329 328 324 324 323 325 323 326
315 316 316 316 317 317 317 318 319 319 320 320 321 322 324 325 326 328 329 330 330 327 327 328 329 330 330 330 329 329 329 328 328 328 329 331 329 328 326 326 328 329 329 327 327 328 328 327 329 328 328 328 327 329 328 327 328 326 322 321 323 328 325
315 316 316 316 317 316 317 317 317 317 318 317 318 320 319 320 321 322 323 327 328 329 329 329 327 328 330 330 328 328 328 328 328 328 329 330 327 327 327 327 329 329 327 327 327 327 327 327 329 329 328 327 326 326 325 326 326 327 325 323 322 321 324
314 315 315 316 316 315 315 316 315 315 315 315 315 315 315 316 318 319 320 322 323 326 328 328 327 328 329 329 328 328 327 327 328 327 327 328 329 329 329 330 329 327 326 327 328 327 327 327 329 328 329 329 328 327 326 325 324 325 324 323 322 322 322
314 314 315 315 314 315 314 314 314 314 313 312 312 312 313 314 315 315 316 317 319 322 324 326 327 318 316 320 324 327 327 326 326 327 328 328 328 329 328 326 327 329 328 327 328 328 327 326 329 327 328 328 327 325 324 324 324 323 323 322 322 321 321
313 313 313 313 313 313 313 313 313 312 311 311 311 311 311 312 311 312 313 314 315 318 322 320 305 303 302 304 308 317 326 327 327 327 325 325 327 327 328 329 330 328 329 329 322 321 323 324 327 325 327 327 326 325 323 322 323 322 321 321 320 321 320
311 311 311 311 311 311 311 312 312 310 310 310 309 309 310 309 309 309 309 310 311 313 317 309 303 298 299 300 302 309 317 323 325 326 326 327 326 327 329 328 328 327 321 319 317 312 311 313 318 327 328 327 326 324 321 321 321 321 320 320 320 320 318
309 309 310 309 310 310 309 310 310 309 309 309 308 308 308 307 307 307 307 307 307 308 311 304 297 295 294 295 299 302 308 315 323 325 326 325 325 326 327 329 328 326 322 320 320 311 309 309 311 314 316 319 323 325 322 321 321 321 320 319 319 318 317
307 308 308 307 308 308 308 308 308 308 308 308 308 308 306 306 306 305 305 305 304 305 307 300 295 295 294 293 295 297 302 310 317 324 326 326 326 326 327 327 326 325 325 324 325 319 310 306 303 302 304 306 309 313 313 321 321 320 320 319 319 317 317
306 307 307 307 308 307 307 307 306 306 306 307 307 306 305 305 304 304 303 303 302 303 304 299 295 295 294 292 292 294 300 308 313 319 324 325 326 327 326 325 325 324 326 323 325 323 318 309 300 300 300 300 300 303 304 308 313 324 323 321 319 318 319
306 306 306 307 307 306 306 305 306 306 306 306 306 306 306 305 304 303 302 302 301 301 302 299 294 294 293 292 291 292 297 304 311 317 322 325 325 326 327 325 324 323 324 325 325 324 320 316 312 312 314 316 314 306 300 300 304 309 316 323 322 320 323
305 305 306 306 306 305 305 305 305 305 305 305 304 304 305 304 303 302 301 301 300 300 300 296 294 292 292 291 291 292 299 307 312 316 320 324 326 326 326 325 323 323 325 324 324 323 321 318 318 320 320 319 318 316 315 317 321 323 324 325 324 324 322
305 305 305 305 305 305 305 305 304 305 305 305 304 304 304 304 303 301 301 300 299 298 299 295 293 292 291 291 292 299 306 310 313 317 320 323 325 325 326 325 324 323 324 325 316 308 314 321 322 322 319 313 310 307 303 298 293 294 307 323 321 318 315
304 304 304 304 304 304 304 304 304 305 303 303 302 302 302 303 302 301 300 299 298 298 298 296 293 292 291 291 294 302 309 312 315 318 321 323 323 321 321 324 325 325 325 325 311 302 306 313 324 320 314 312 310 308 306 304 296 294 295 294 293 294 295
303 303 303 303 303 303 304 304 304 304 303 302 301 301 302 302 302 301 299 299 299 298 297 297 293 292 291 291 294 305 311 314 312 310 309 308 308 308 306 305 318 325 323 322 301 302 302 314 321 318 314 311 310 308 307 308 306 300 296 296 295 296 297
302 302 302 302 303 302 302 303 303 304 303 303 302 302 302 301 300 300 300 299 300 298 297 297 294 292 292 292 294 303 307 306 303 303 304 304 305 304 303 301 300 309 316 305 298 301 300 312 320 317 314 312 310 308 307 309 308 308 309 310 310 311 308
303 302 301 302 302 302 302 302 302 302 302 301 301 301 301 301 300 299 299 298 298 298 297 297 296 292 292 292 292 298 302 302 301 300 300 300 300 300 300 300 298 292 292 293 293 295 301 308 318 318 316 313 310 308 310 311 311 311 312 311 310 309 308
302 302 302 302 302 301 301 301 301 300 300 300 300 300 300 300 300 299 298 298 297 297 298 297 296 293 292 292 292 293 297 298 300 299 298 297 297 296 296 297 297 294 293 293 294 294 298 303 307 317 316 313 311 309 307 308 306 304 307 306 306 306 305
303 303 302 302 301 300 300 300 300 300 299 299 298 298 298 298 299 298 298 297 297 296 297 298 295 295 292 292 292 292 294 295 296 298 296 296 295 295 295 295 295 293 293 293 294 294 295 296 298 306 303 297 297 300 309 308 307 306 305 305 305 304 304
302 302 302 301 301 299 299 299 299 299 298 298 297 297 297 297 297 297 296 296 296 296 296 297 295 294 293 292 292 292 291 293 293 297 295 294 294 295 296 296 297 294 292 292 293 293 294 295 297 298 294 295 296 297 301 305 304 304 303 302 302 301 301
302 302 301 301 300 299 299 298 298 298 298 297 296 296 295 296 295 295 295 294 295 295 295 295 295 293 293 292 292 292 291 291 292 295 296 295 295 295 295 295 295 293 293 293 293 293 292 294 295 294 295 295 296 298 303 302 301 301 299 300 300 300 301

ECMWFFLT1_sfc_thetae_087.txt.gz
Theta_e
331 331 332 334 334 333 333 334 335 335 336 336 336 336 336 337 336 335 335 334 334 336 336 336 335 334 333 333 333 333 333 330 329 327 327 328 325 325 328 327 326 327 326 323 323 321 317 316 320 325 326 328 328 328 328 329 330 328 329 330 331 331 332
334 333 334 333 334 333 331 332 331 333 334 334 335 335 335 335 334 334 334 334 334 333 332 332 333 334 333 331 331 331 331 330 329 329 327 326 328 326 326 325 326 326 327 325 326 323 316 315 315 320 322 324 326 327 326 328 330 329 330 329 331 332 331
329 332 334 331 330 331 330 330 330 330 330 330 331 331 330 331 331 332 333 334 332 332 332 332 332 333 333 332 331 331 331 330 330 329 327 327 327 327 328 326 325 327 327 326 324 323 321 319 315 319 321 321 320 325 327 326 328 329 329 329 330 331 332
327 327 327 330 333 333 330 328 329 329 328 329 328 329 329 329 329 332 331 329 329 331 332 332 332 332 333 334 333 331 331 330 329 329 328 328 327 326 329 328 327 328 326 325 325 325 321 317 317 318 319 323 322 321 324 328 328 329 329 330 330 330 331
324 325 326 326 329 331 331 330 328 327 327 328 327 326 327 329 330 330 330 328 329 328 329 331 332 333 332 331 332 332 331 330 330 331 331 330 329 328 328 330 329 329 328 327 326 326 324 321 320 319 318 320 321 323 325 327 329 328 328 329 329 330 331
321 323 325 325 327 328 330 331 329 328 327 327 327 326 326 327 328 327 327 327 327 328 329 329 331 333 331 329 330 329 330 330 331 331 330 329 330 328 329 331 331 329 328 328 326 326 325 323 321 318 321 322 317 319 323 325 324 327 329 327 329 329 331
320 322 323 324 325 327 328 329 330 330 328 326 327 326 327 328 327 328 328 328 329 329 330 330 331 330 329 328 330 331 331 331 330 328 329 330 329 328 330 329 330 330 329 329 328 326 324 323 320 320 319 320 319 319 322 323 326 325 326 328 329 329 330
321 322 322 323 324 324 325 327 328 330 328 327 326 327 329 328 328 328 329 329 329 329 330 330 331 330 329 328 329 329 329 330 332 330 329 329 328 328 329 329 329 329 329 329 328 326 326 325 324 322 320 317 317 318 318 322 325 325 324 326 329 328 329
320 320 321 321 320 321 322 323 325 327 330 329 328 327 328 329 329 329 329 329 328 328 328 327 328 328 330 330 329 329 328 330 328 327 328 328 327 327 327 329 329 329 330 330 329 328 327 327 325 325 323 321 316 313 316 316 320 322 326 324 327 328 329
319 319 319 319 319 319 320 320 321 322 324 327 329 330 329 328 328 329 329 329 328 328 328 329 328 326 327 327 328 328 328 329 328 328 329 328 328 328 327 327 328 328 327 327 328 329 328 327 327 326 326 323 321 317 314 314 316 318 322 326 323 326 327
317 318 319 318 318 318 317 318 318 319 321 323 325 328 331 329 327 330 329 330 329 328 328 328 327 328 328 327 327 327 329 330 329 330 329 329 328 328 328 329 328 327 328 328 328 328 329 328 328 327 326 326 324 319 317 315 316 320 321 325 325 324 326
315 316 317 318 318 318 317 317 317 318 320 322 324 325 328 330 330 330 330 329 329 328 328 327 326 326 327 326 327 327 327 327 327 326 327 327 328 329 328 328 328 326 327 327 328 328 329 328 328 327 326 326 325 323 320 318 315 319 324 322 324 326 326
316 315 315 316 316 316 318 318 318 319 320 321 322 324 324 326 329 330 330 330 329 329 328 327 326 327 326 326 326 326 327 327 326 325 326 327 328 328 327 326 327 328 327 328 328 328 328 328 328 327 327 326 325 325 323 320 317 317 322 323 323 324 326
312 313 313 314 314 315 316 317 318 320 320 320 321 322 322 322 325 329 329 328 326 326 327 327 325 324 325 325 325 325 326 327 327 327 326 326 326 326 327 327 328 328 328 328 328 328 328 329 328 328 328 327 326 326 324 321 318 317 320 324 324 324 328
312 312 312 312 313 314 314 315 317 318 317 319 320 320 320 321 322 323 324 326 327 326 325 325 326 326 325 324 324 325 325 325 324 325 327 327 328 328 326 326 327 327 326 326 327 329 328 328 328 328 328 328 328 326 326 323 320 317 317 320 322 325 325
312 312 312 313 313 313 315 314 315 314 314 314 315 316 316 317 318 318 319 322 326 325 325 325 325 327 327 325 325 325 325 325 324 324 324 325 327 326 324 324 324 326 327 326 326 329 330 328 329 328 328 329 328 326 326 325 321 317 317 320 322 323 324
311 312 312 312 312 313 313 313 313 312 312 312 311 312 313 314 315 315 316 317 318 321 322 324 319 317 317 319 323 326 326 326 326 325 325 325 326 326 324 323 324 325 325 325 327 327 328 329 328 327 328 329 329 328 326 325 324 321 319 320 321 322 324
310 310 310 311 310 311 312 311 311 310 310 309 310 310 310 311 311 311 312 312 314 315 318 309 307 307 308 309 309 310 316 323 327 327 327 326 327 326 325 324 325 326 325 324 324 325 327 326 327 327 327 328 328 328 327 325 324 322 319 319 320 322 323
309 308 309 309 310 310 310 310 310 310 309 309 309 309 309 308 309 308 309 310 309 311 313 306 304 304 304 304 305 306 309 313 320 326 326 325 324 324 325 325 325 326 325 324 323 324 325 326 328 328 327 326 327 325 322 321 322 321 321 318 319 319 321
308 308 308 308 310 309 309 309 309 309 309 309 308 307 308 307 308 307 307 307 307 308 310 304 303 301 301 301 301 302 304 307 312 319 325 326 326 326 326 326 324 323 324 324 324 323 324 326 327 327 327 327 326 323 322 321 322 320 319 319 320 320 320
308 308 308 308 308 308 308 308 309 309 309 308 307 307 306 306 306 306 305 305 305 306 308 303 301 300 299 299 299 299 300 303 307 311 318 325 326 326 326 326 326 325 325 326 326 326 325 325 326 326 327 327 325 322 321 320 320 320 319 319 318 318 319
307 307 307 307 306 306 306 307 308 308 308 308 308 307 307 306 304 304 304 304 304 304 306 302 300 298 297 296 297 297 298 300 303 307 312 319 324 326 326 326 326 326 327 327 320 320 322 323 326 325 326 326 325 323 322 321 319 319 319 319 318 318 316
306 306 306 306 305 305 305 306 306 306 307 307 307 307 306 305 304 303 302 302 302 302 303 302 301 297 297 296 295 295 296 298 300 304 308 313 320 324 325 324 325 326 321 318 317 312 311 313 317 324 326 326 324 323 322 321 319 319 319 318 318 318 315
305 305 305 306 306 305 304 304 304 305 306 305 305 306 305 303 302 302 301 301 300 300 301 301 296 294 293 294 295 294 295 295 297 301 305 310 316 322 324 325 326 326 321 319 318 310 308 307 307 310 313 317 321 325 322 321 319 320 318 318 318 317 317
304 305 305 305 305 305 304 303 303 303 304 304 304 304 304 303 302 301 301 300 299 299 300 299 294 294 293 292 294 294 294 295 297 300 304 308 314 319 323 324 325 325 325 324 323 320 313 307 304 304 305 306 307 310 313 320 320 320 319 318 317 317 318
304 304 304 304 304 304 303 303 302 302 302 303 302 302 302 302 301 300 300 299 299 299 299 297 294 293 293 292 292 294 294 295 296 299 303 306 311 317 321 323 323 324 325 323 323 323 323 319 307 303 304 305 305 305 305 306 309 322 322 320 318 318 318
302 303 303 303 303 303 303 302 302 302 302 301 301 301 301 300 300 299 299 299 299 299 298 296 293 293 293 292 292 292 299 300 298 300 303 306 310 316 320 322 323 323 323 323 323 323 323 320 316 310 311 314 316 312 306 304 305 307 314 321 320 318 319
301 302 302 302 301 301 302 301 301 302 301 301 300 300 300 299 299 299 298 298 298 298 298 295 293 292 292 292 292 295 305 308 309 309 309 311 313 316 318 321 323 323 324 323 322 321 322 319 316 315 315 316 317 318 318 316 318 319 319 322 321 320 319
299 299 300 299 298 298 299 300 300 301 301 300 300 300 300 299 298 297 297 297 297 296 297 294 293 292 292 292 293 299 303 305 304 304 305 305 305 306 308 310 315 322 323 323 315 307 312 318 317 317 316 314 312 311 306 300 295 297 310 323 323 322 320
298 298 298 297 297 297 297 298 298 300 299 299 299 299 299 298 298 297 297 296 296 296 296 295 292 292 292 292 294 297 299 301 302 301 301 302 302 302 302 304 304 307 320 323 311 302 303 308 318 317 314 311 310 309 305 302 295 293 294 294 294 296 296
297 296 296 296 296 296 297 297 297 299 298 298 298 298 300 298 298 297 296 296 296 295 295 295 293 292 292 292 294 296 297 298 299 299 299 300 300 299 300 302 304 300 304 319 307 301 300 311 318 315 313 310 309 308 306 306 304 300 296 296 296 296 296
296 296 296 295 296 295 295 296 297 298 298 298 298 298 299 298 297 297 297 296 297 295 294 295 293 292 292 292 294 296 296 296 296 297 297 297 298 298 298 299 299 297 296 304 303 298 299 311 317 313 312 311 309 307 306 307 307 308 309 309 309 308 306
296 296 295 295 295 295 295 295 295 295 296 296 296 296 297 298 297 296 296 295 295 295 294 294 294 292 292 292 292 295 295 295 294 296 296 296 296 297 298 298 298 293 291 293 300 298 298 305 314 314 313 311 308 305 308 310 310 310 308 307 305 305 305
296 296 296 295 295 295 295 294 294 294 294 294 294 294 295 295 295 295 295 295 295 295 295 294 293 292 292 292 292 292 294 294 294 295 295 295 295 295 295 297 297 295 292 293 296 297 300 301 304 313 312 310 309 307 306 307 305 303 304 303 303 303 304
297 298 296 296 294 294 294 295 295 294 294 293 293 293 293 293 293 293 294 294 295 295 295 296 293 293 291 292 291 292 292 293 293 295 294 294 294 294 294 295 296 294 292 292 293 294 295 297 298 306 302 296 296 298 306 306 305 305 304 303 302 302 302
297 298 296 295 295 294 294 294 294 293 293 292 292 292 292 292 291 291 292 292 293 294 294 295 293 292 292 291 291 291 291 291 291 296 294 293 293 293 294 294 295 294 292 293 293 293 294 295 296 296 293 294 295 296 300 304 302 303 302 302 301 301 301
297 296 296 295 294 294 294 294 293 293 292 292 291 291 291 291 291 291 290 291 292 293 294 293 293 292 292 291 291 291 291 291 291 293 294 293 293 293 293 293 293 291 292 292 293 293 293 294 295 294 294 295 296 297 302 300 300 300 299 299 300 300 300

ECMWFFLT1_sfc_thetae_090.txt.gz
Theta_e
328 329 330 330 329 330 330 330 331 331 333 335 334 332 334 334 333 332 332 332 331 332 332 332 333 334 335 334 333 333 332 329 326 326 326 324 323 324 327 326 325 326 326 324 321 321 318 316 321 326 327 327 327 327 328 328 328 328 329 330 331 331 330
327 328 331 332 331 330 328 328 329 329 331 331 331 331 331 331 332 332 331 330 331 331 332 332 330 331 333 333 333 332 331 330 329 328 327 324 324 324 324 325 325 324 324 324 323 322 316 315 315 320 323 326 326 326 327 329 329 329 329 329 331 331 330
325 326 328 327 328 331 330 330 330 329 328 328 329 330 330 329 329 330 331 331 330 329 330 329 328 328 329 331 333 331 331 330 330 329 328 327 326 326 325 325 324 323 322 322 322 321 318 317 315 318 322 322 321 325 327 327 327 328 328 329 330 331 330
323 324 324 324 325 326 327 328 330 330 330 330 328 328 328 329 329 330 329 328 329 330 329 328 327 328 328 329 331 332 331 330 329 327 326 327 327 326 325 325 324 324 323 321 322 322 322 319 317 318 320 323 323 323 325 327 327 328 328 329 328 329 330
321 322 322 322 323 323 324 325 327 328 329 329 328 327 327 327 327 326 327 327 328 328 327 328 329 329 329 329 329 329 330 331 330 328 327 327 327 325 325 326 326 326 326 325 325 325 323 322 320 318 318 319 320 322 322 325 327 327 328 328 328 329 330
319 320 320 320 320 320 321 323 324 323 325 326 327 327 326 326 326 325 325 324 325 326 327 327 328 329 329 330 330 329 328 327 328 328 326 327 327 325 325 326 326 326 326 327 326 323 324 323 320 318 318 320 319 320 322 324 323 327 328 327 328 329 329
318 319 319 318 319 320 320 320 321 321 322 323 324 326 327 327 327 326 326 326 326 327 328 328 328 327 327 328 328 328 327 327 328 327 326 326 328 328 327 327 326 327 328 327 327 326 324 323 320 319 318 317 318 318 319 322 323 323 325 327 329 329 329
318 317 317 318 318 319 319 319 319 321 321 321 323 326 328 329 328 327 326 327 328 328 329 329 329 328 327 328 328 327 327 327 328 328 327 326 326 326 326 326 326 326 327 328 327 326 326 325 323 322 319 316 316 315 316 318 319 323 324 325 328 328 328
317 315 315 316 316 317 318 318 318 320 321 322 323 324 326 327 328 328 327 327 329 329 328 328 328 327 326 325 326 327 327 329 328 327 326 326 326 326 326 326 326 326 327 328 328 327 327 326 325 324 322 319 316 313 316 316 318 320 326 323 325 327 328
312 312 313 313 314 315 315 316 317 318 320 321 322 324 325 324 325 328 328 329 329 328 327 326 326 327 326 324 324 325 326 328 328 327 326 325 326 326 326 326 325 326 326 327 328 328 328 327 326 326 325 322 320 316 313 314 316 318 322 325 322 325 328
312 312 313 313 314 313 313 314 315 316 317 319 321 323 323 322 323 326 324 326 328 328 327 327 327 328 327 326 325 325 326 326 327 327 327 326 325 326 326 326 326 325 326 327 326 327 327 327 326 326 325 325 323 318 317 314 315 319 320 324 325 323 326
312 312 313 313 313 313 313 314 314 314 315 316 317 317 317 317 319 320 321 323 326 325 327 327 327 327 327 325 324 324 325 326 326 327 328 327 327 326 326 325 325 325 326 326 326 326 327 327 326 326 325 325 324 322 320 318 315 318 322 320 324 326 325
312 312 312 312 313 313 312 312 311 311 311 313 312 313 313 314 316 316 318 319 322 322 323 321 318 319 322 324 325 325 325 324 324 325 326 326 326 326 325 325 326 326 327 326 326 326 326 327 327 326 326 325 325 324 322 320 317 317 321 323 323 325 326
311 312 312 312 312 311 311 311 310 310 310 309 310 310 310 311 312 312 313 314 317 318 311 310 310 311 311 310 312 314 318 323 325 326 326 326 326 326 326 326 326 326 326 325 326 326 325 326 327 327 327 326 325 325 323 320 318 318 320 322 323 324 326
310 310 310 310 310 310 309 309 309 308 308 308 309 308 308 309 309 309 309 309 310 313 308 307 306 308 307 307 308 309 310 310 314 321 325 325 326 326 326 325 326 326 327 326 326 326 326 326 326 326 326 326 325 324 325 321 319 318 318 319 320 323 324
308 308 308 308 308 309 309 310 310 308 308 308 308 308 307 308 307 307 307 307 307 310 306 304 303 303 303 303 304 305 306 308 309 312 317 323 325 325 325 325 325 326 326 325 326 326 327 326 327 325 326 326 325 325 325 324 321 318 318 318 320 321 321
306 306 307 308 307 308 309 309 310 309 308 308 307 307 307 307 307 306 305 305 304 307 304 303 301 300 300 300 300 301 302 303 305 309 312 315 322 325 325 325 324 324 325 325 325 325 325 326 326 326 326 326 325 324 325 325 324 321 320 318 319 321 322
305 305 305 306 305 307 308 308 309 309 308 307 307 306 306 306 305 304 304 304 304 305 303 301 299 299 298 298 298 298 299 300 302 303 307 311 316 321 325 325 326 326 325 323 323 324 325 325 326 327 326 326 326 326 325 325 324 323 319 318 318 321 322
304 304 304 304 304 305 306 307 307 308 308 307 306 305 305 304 304 303 303 303 303 304 303 300 299 298 298 297 297 297 298 298 299 301 303 307 310 315 322 324 326 326 325 324 323 323 323 324 326 326 326 326 326 325 324 324 323 323 321 320 319 318 321
305 304 304 303 304 304 304 306 306 306 307 307 305 303 303 303 303 303 302 302 302 302 303 301 299 298 297 296 296 296 296 297 298 300 302 304 307 310 315 323 325 325 325 325 324 324 323 323 324 325 325 325 326 325 323 323 323 322 321 320 320 320 320
305 306 305 304 303 303 303 304 305 304 305 305 305 303 302 301 301 302 301 301 301 301 301 299 298 297 296 295 295 295 295 296 297 298 299 301 303 306 310 316 323 326 326 326 325 325 324 323 323 323 325 325 324 325 323 320 321 321 320 319 319 318 319
305 305 305 304 303 302 302 302 303 302 302 303 304 303 301 301 300 300 300 300 300 301 300 298 298 296 295 295 295 295 295 296 296 297 298 300 302 304 307 311 317 325 327 327 319 319 320 320 323 322 324 325 325 325 323 321 319 320 319 319 318 319 318
304 304 303 303 303 302 302 302 302 301 301 301 301 301 300 300 300 300 299 299 300 300 299 298 299 296 296 295 295 295 295 296 297 297 298 299 301 304 306 309 314 320 318 317 315 311 309 310 314 321 324 325 325 325 321 320 319 319 319 317 317 317 316
302 301 302 303 303 302 302 303 301 300 300 300 300 300 299 298 298 298 298 298 298 298 299 298 295 292 293 294 296 296 296 297 299 300 300 299 301 303 306 308 311 317 320 318 318 310 307 306 306 307 310 315 320 326 323 319 319 319 318 318 318 317 316
300 299 299 300 300 300 301 301 301 300 299 299 299 298 297 297 297 297 297 297 297 298 298 297 292 292 292 292 295 297 298 300 303 304 303 302 302 304 306 308 310 313 318 323 324 322 315 307 304 304 303 303 305 306 311 321 321 319 319 318 317 317 317
298 297 298 298 299 299 298 298 299 299 299 299 298 297 296 296 296 296 296 295 295 296 296 295 292 292 292 292 292 296 299 300 302 302 302 303 303 304 306 307 309 313 317 319 322 324 324 322 309 304 304 304 303 302 301 302 308 321 322 320 319 318 318
296 296 297 297 297 297 297 296 297 298 298 299 298 296 296 295 295 295 295 294 294 295 295 295 292 292 292 291 291 294 298 299 300 300 300 300 301 301 302 302 303 305 308 311 318 323 323 323 322 318 313 311 312 311 303 301 300 304 313 322 321 319 320
295 295 295 296 296 295 295 295 296 296 296 296 297 297 296 295 295 295 294 294 294 293 294 294 292 292 291 291 291 295 297 298 299 299 300 300 300 300 300 300 301 302 303 305 307 310 318 322 322 321 319 316 315 316 317 315 314 315 317 322 322 322 322
294 294 294 294 294 294 294 294 294 295 296 295 296 296 296 295 294 294 294 294 293 292 293 293 292 291 291 291 292 296 296 297 297 298 298 299 299 299 299 300 300 300 300 301 302 298 300 308 320 321 319 318 317 317 318 315 310 311 318 322 323 323 322
294 293 293 293 293 293 293 293 294 295 293 294 294 294 295 295 294 293 294 293 293 292 293 293 292 291 291 291 292 294 295 295 296 296 297 298 298 299 298 299 300 299 299 298 297 294 294 296 305 317 319 318 317 316 316 305 299 300 302 305 307 308 306
293 293 292 292 292 293 293 293 293 294 292 292 292 293 294 294 294 293 293 293 294 292 292 293 292 291 291 291 292 293 294 294 294 295 296 297 297 297 298 300 302 298 297 296 294 292 293 295 301 311 318 316 314 312 307 304 303 300 297 299 299 300 301
293 292 292 292 292 292 292 292 292 292 292 292 292 292 294 292 292 292 293 293 296 293 292 293 293 291 291 291 292 292 293 293 292 294 294 295 295 296 296 297 299 297 295 294 291 291 291 294 303 311 317 315 311 310 307 305 306 305 307 307 306 306 304
293 293 292 292 292 292 292 292 291 292 291 291 291 291 291 292 291 291 292 292 293 292 292 292 293 291 291 291 291 292 292 292 291 292 294 294 293 294 294 295 296 293 291 292 292 291 290 293 304 313 316 313 312 309 306 307 309 310 309 308 306 306 305
293 292 292 292 292 292 291 291 291 291 291 291 290 290 291 291 291 291 291 292 292 292 293 292 292 291 291 291 291 291 291 291 291 292 293 293 292 292 292 293 294 294 291 291 292 293 293 293 298 312 311 312 311 307 305 307 304 303 305 304 304 304 304
294 294 293 292 291 291 291 291 291 290 289 289 290 290 290 290 290 290 290 291 292 291 293 294 292 292 291 291 291 291 291 291 291 292 292 292 292 291 291 292 293 293 291 291 291 292 293 294 294 300 297 294 294 297 305 305 305 304 304 303 303 302 302
293 294 293 292 290 290 290 291 291 291 289 289 289 289 289 289 289 289 289 290 290 291 291 292 293 292 292 291 291 290 290 290 290 292 292 291 291 291 291 292 293 292 291 291 291 291 292 293 296 295 293 294 295 296 299 303 301 302 301 301 300 299 300
291 291 291 291 291 290 290 290 290 290 288 288 288 288 288 289 289 289 288 289 290 290 291 290 292 292 291 291 290 290 289 289 290 290 292 292 291 291 291 291 291 290 290 291 291 291 291 292 292 292 293 294 295 296 301 301 300 299 298 298 298 298 299

ECMWFFLT1_sfc_thetae_093.txt.gz
Theta_e
324 325 327 328 329 330 329 329 330 331 333 334 334 333 333 334 333 331 330 330 330 330 331 329 328 329 329 331 334 333 333 331 329 326 325 325 323 323 326 325 325 326 325 322 321 318 315 313 317 324 326 325 325 326 327 327 327 327 326 327 326 326 326
324 325 326 327 326 327 327 328 329 330 331 331 332 332 332 332 331 329 328 327 328 329 331 331 330 329 328 329 330 331 330 330 329 329 326 325 325 323 322 322 322 322 324 324 324 323 317 314 315 319 322 325 326 326 326 327 328 328 327 327 328 328 327
322 323 324 322 323 324 323 325 326 326 328 329 330 330 330 330 330 329 327 326 326 327 330 328 328 327 326 326 326 327 330 330 331 329 327 327 326 325 324 324 322 322 321 322 322 321 321 320 316 316 320 321 320 324 327 326 327 328 328 328 328 329 329
320 320 319 319 320 320 320 321 323 323 325 326 327 327 328 328 328 329 327 325 326 328 328 326 326 326 325 326 327 328 328 329 330 330 327 327 326 325 326 325 323 322 320 319 319 321 320 318 317 317 318 321 322 322 326 327 327 328 328 328 328 329 329
318 318 317 317 318 318 318 319 321 321 322 323 324 325 325 326 327 326 326 325 325 324 325 326 327 327 328 329 330 329 329 330 330 329 328 326 326 324 325 325 324 324 323 322 323 322 321 320 319 318 318 320 321 322 323 325 328 327 328 328 328 328 329
316 316 316 316 317 317 317 318 318 318 320 319 321 322 323 325 326 325 325 324 325 325 325 326 328 329 329 329 329 329 329 329 328 327 326 326 326 325 325 326 326 324 323 325 325 323 323 323 321 318 319 320 318 319 322 322 323 326 328 328 328 328 329
314 314 314 315 316 317 318 317 318 318 318 319 320 321 323 325 325 326 326 326 326 326 326 325 327 329 329 328 328 327 327 328 328 327 326 326 326 326 327 326 325 325 325 326 326 325 323 322 320 319 319 318 319 318 317 321 323 322 325 328 329 329 329
313 313 314 316 316 316 316 317 317 318 318 319 320 321 324 322 323 325 324 325 326 326 326 327 328 329 329 328 328 328 328 328 327 327 327 326 325 325 325 326 326 326 326 326 326 326 325 324 323 322 320 316 316 317 316 318 320 323 323 326 328 328 328
315 313 313 313 313 313 314 314 314 315 315 316 318 318 318 319 320 320 321 323 325 325 325 323 324 326 327 326 326 327 326 328 327 327 327 327 326 326 326 326 326 325 326 327 327 327 327 326 325 324 322 320 316 313 315 315 317 320 325 323 325 328 328
310 310 310 311 311 311 311 310 310 311 312 312 312 313 313 315 316 317 318 319 322 318 315 314 315 316 318 323 324 325 325 326 326 326 327 326 326 326 326 326 325 325 326 326 326 326 326 326 326 325 325 322 320 316 314 313 315 316 320 325 322 324 328
310 310 310 310 309 308 308 308 308 308 308 310 310 311 311 311 311 314 313 314 317 312 311 310 311 311 312 312 312 316 319 321 323 325 326 326 326 326 326 325 325 325 326 326 326 326 326 326 325 325 324 324 323 319 317 314 315 318 318 323 325 323 326
309 309 309 309 308 307 307 306 306 307 307 308 308 307 308 308 308 309 310 310 313 309 308 307 307 308 308 308 309 310 311 311 313 317 323 326 327 327 326 325 325 325 325 325 325 326 326 326 326 326 325 325 324 323 321 318 315 318 322 320 323 327 326
309 309 309 308 307 307 307 307 306 306 306 307 306 306 306 306 306 306 307 307 309 306 305 304 304 303 304 305 305 306 307 307 308 310 313 319 324 326 326 325 325 325 326 325 325 325 325 326 326 326 326 325 325 324 323 320 317 317 321 322 323 325 327
307 308 307 308 307 308 309 309 307 307 307 305 306 305 306 306 305 306 305 306 307 304 303 301 302 301 300 300 301 302 304 304 304 306 309 311 316 322 325 325 325 326 326 325 325 325 325 326 326 326 326 325 324 324 322 320 318 317 320 322 323 324 326
306 306 305 306 308 308 309 309 308 307 306 306 306 306 306 306 305 304 304 304 305 303 302 301 300 299 299 298 298 299 300 300 301 302 304 306 309 313 318 322 325 326 327 326 326 325 325 325 325 325 325 325 324 323 324 321 319 318 318 319 321 323 324
304 304 304 305 306 307 308 308 309 307 306 304 305 305 305 305 304 304 303 303 304 304 302 300 300 299 298 297 297 297 298 298 299 300 301 302 304 307 310 314 319 324 326 325 326 326 326 326 326 325 325 325 325 324 325 324 321 318 319 319 321 321 322
303 303 302 303 304 306 307 307 308 307 306 304 302 303 304 304 304 303 302 302 302 303 302 300 299 299 298 297 296 296 297 297 298 299 299 300 302 303 306 308 312 318 324 324 325 325 326 326 326 325 325 325 325 325 325 325 324 321 320 318 319 321 322
302 302 302 302 302 304 304 304 305 306 305 303 301 301 301 302 302 302 301 301 301 301 300 299 298 298 297 297 297 296 296 297 298 298 299 300 303 303 304 305 308 310 314 319 323 324 325 325 325 325 325 326 325 325 325 325 324 323 321 319 319 320 322
302 301 302 301 302 302 302 302 302 303 304 302 300 300 300 300 301 300 300 300 300 300 299 298 297 296 296 296 296 296 297 297 297 298 299 300 301 302 302 303 305 306 308 312 318 323 324 324 325 324 324 325 325 325 324 324 324 323 322 321 320 319 319
302 301 301 301 301 301 301 301 301 301 302 301 299 299 300 300 301 300 300 300 300 299 298 298 296 296 295 295 295 296 296 296 297 298 299 300 301 302 302 303 304 305 306 308 311 317 323 324 324 324 324 324 325 324 324 324 324 323 321 320 320 320 319
302 303 302 301 301 300 300 300 300 300 300 299 298 298 298 298 299 299 299 299 299 299 298 297 296 295 295 295 295 295 296 297 298 298 299 300 301 302 303 303 304 306 307 308 309 313 317 321 323 323 324 324 324 324 323 323 322 322 320 320 319 318 319
301 301 301 301 300 300 300 299 299 299 298 298 299 298 297 297 297 297 298 298 298 298 297 296 296 294 294 294 294 295 296 298 298 299 300 302 303 303 303 304 305 307 310 312 308 307 308 308 311 317 323 324 323 323 322 322 322 320 320 319 319 319 318
298 299 299 299 299 299 299 299 299 298 298 297 297 298 296 296 296 295 295 295 296 296 296 296 297 295 295 294 294 295 296 298 299 300 302 302 302 302 303 304 305 309 306 307 306 304 303 304 307 311 317 323 323 322 322 321 321 320 319 318 318 318 316
297 297 297 297 298 298 298 298 298 297 297 297 296 296 296 295 294 295 294 294 294 295 295 295 294 292 292 293 294 294 295 297 299 299 300 300 299 300 301 302 302 304 304 304 305 302 302 302 303 304 304 307 314 322 322 321 321 321 318 318 319 318 317
296 296 296 296 296 296 297 296 296 296 296 296 296 295 294 294 294 294 294 293 293 294 294 295 292 292 292 292 293 294 295 297 298 298 299 299 299 299 300 300 300 301 302 303 303 304 303 301 301 302 302 302 302 303 307 317 320 320 319 318 318 318 317
294 294 295 295 295 295 295 295 295 295 295 296 295 295 294 293 293 293 293 293 293 293 293 294 292 292 292 291 291 293 295 296 296 297 298 298 298 298 299 299 299 300 301 303 304 301 301 302 301 300 301 303 302 301 299 299 303 317 322 319 319 317 318
293 293 294 294 294 293 293 293 293 294 294 294 294 294 294 293 293 293 293 292 292 292 292 294 292 292 291 291 291 292 294 294 296 296 297 297 297 297 298 298 298 298 299 300 299 299 299 299 299 300 301 304 310 311 303 299 299 299 305 317 320 318 319
293 293 293 293 292 292 292 292 292 293 292 292 292 292 292 292 293 293 292 292 292 292 292 293 292 291 291 291 291 293 293 294 295 295 296 297 297 297 297 297 297 298 298 298 298 297 296 296 296 297 298 300 303 313 317 315 310 309 309 311 317 321 322
291 291 292 291 291 291 291 291 291 291 292 291 291 291 292 292 291 291 292 292 292 291 292 292 292 291 291 291 291 293 292 293 293 293 294 295 296 296 296 296 297 297 297 296 296 293 293 294 294 294 295 297 301 308 316 315 309 309 314 316 317 320 323
291 290 290 291 290 290 290 290 290 292 290 290 290 290 290 290 291 290 291 291 291 291 291 292 292 291 291 291 292 291 292 292 292 292 293 295 295 295 295 296 297 296 295 294 294 291 291 293 293 293 294 296 301 306 314 318 307 302 302 303 304 305 306
289 290 289 289 289 289 289 289 290 291 288 288 289 289 290 290 290 290 290 290 293 291 290 293 292 291 291 291 292 291 291 291 291 291 292 294 294 294 295 298 298 295 293 293 292 291 291 293 293 293 294 296 300 306 312 315 312 308 300 299 299 300 301
289 289 289 288 289 289 289 289 288 288 289 288 289 288 292 289 289 289 290 290 294 291 290 292 293 291 291 291 291 291 291 290 290 290 291 292 294 293 293 295 296 295 293 292 290 291 291 293 295 295 297 299 304 308 313 312 310 310 308 308 309 309 307
290 288 287 287 288 289 289 288 288 288 288 288 288 288 289 289 288 289 289 289 290 290 290 291 293 291 291 291 291 291 290 289 288 289 290 292 292 292 292 292 293 292 290 290 290 290 291 291 295 300 301 304 307 310 313 311 310 311 310 310 311 310 311
288 288 289 289 290 289 288 288 288 288 288 288 287 288 288 288 288 288 288 289 289 290 292 292 292 291 291 291 291 291 290 289 289 289 290 291 291 290 291 291 292 292 290 290 290 291 291 291 292 298 297 298 299 300 303 306 305 303 307 305 304 304 304
291 291 290 288 287 288 288 287 288 287 286 286 286 286 286 287 287 287 288 288 289 289 291 294 292 292 291 291 290 291 290 289 290 290 290 290 290 290 290 291 291 292 290 290 290 291 291 291 292 295 294 293 293 294 302 303 303 303 303 302 302 302 302
290 291 290 288 287 287 287 287 286 286 285 286 286 286 286 286 286 286 287 288 288 289 290 291 293 291 291 291 290 290 290 289 289 291 290 289 289 290 291 291 291 292 290 290 290 291 291 291 292 292 291 293 294 295 298 301 300 301 300 299 299 298 298
288 287 289 288 288 286 287 287 287 288 285 286 285 286 286 286 286 286 286 287 288 289 290 290 292 292 291 291 290 290 289 289 290 289 290 290 290 290 290 290 290 289 290 290 290 291 291 291 291 290 291 292 294 296 300 299 299 299 297 297 297 297 297

ECMWFFLT1_sfc_thetae_096.txt.gz
Theta_e
323 323 324 325 326 327 325 326 327 328 329 330 330 330 331 331 332 331 329 327 327 328 331 331 330 331 330 331 331 332 332 331 329 327 327 328 325 325 326 325 325 326 326 324 323 319 317 314 318 324 326 327 328 328 329 330 329 328 327 327 327 327 327
323 323 323 323 322 323 322 323 324 325 326 327 328 328 328 329 330 330 329 328 328 328 330 330 330 330 330 329 329 329 329 330 330 330 328 327 327 325 325 324 325 324 324 324 324 323 318 316 316 318 319 325 327 327 328 329 330 330 328 328 328 328 327
320 320 320 319 319 320 319 321 322 323 324 325 325 326 326 327 328 329 328 328 328 328 330 329 329 329 329 328 328 328 329 328 329 330 328 329 329 329 327 325 322 322 322 321 321 321 321 321 316 318 319 319 319 323 328 328 328 329 330 329 328 329 328
318 318 317 317 318 318 318 318 319 320 322 323 324 324 325 325 327 328 328 327 328 328 329 328 328 329 329 329 329 329 328 328 328 329 329 329 328 327 325 325 323 323 321 319 320 321 320 318 318 318 319 321 321 321 325 328 328 329 330 330 329 328 329
316 316 315 315 316 316 317 317 318 318 319 321 322 322 322 323 325 325 326 326 327 327 327 328 328 329 329 329 329 329 329 330 330 329 329 328 328 327 326 326 325 325 324 322 323 323 321 320 320 319 319 321 321 322 324 326 330 330 329 329 329 329 329
314 314 314 313 314 314 315 315 315 315 317 317 318 319 319 320 322 322 323 324 324 323 322 322 323 325 327 329 329 329 329 328 328 328 327 327 327 326 326 327 327 326 325 326 325 324 324 323 322 319 321 322 318 320 323 324 324 328 329 329 330 330 330
312 312 311 311 311 311 312 311 311 312 312 313 314 314 316 318 318 320 322 320 316 315 315 316 317 317 318 322 326 327 327 328 328 328 327 327 327 327 327 326 326 326 326 327 326 325 323 322 321 320 319 320 320 319 321 321 324 323 326 328 330 331 331
311 310 310 310 309 308 308 308 309 309 309 310 311 312 312 313 314 316 318 315 313 311 312 313 313 313 314 315 316 319 321 323 322 325 326 326 326 326 326 326 326 326 326 327 327 325 325 324 323 322 320 316 317 318 318 320 321 322 323 326 329 330 330
311 309 308 308 308 308 307 307 307 307 308 308 309 310 309 310 311 312 314 313 310 309 309 309 309 309 311 312 312 312 313 314 314 316 320 324 326 327 327 327 326 326 327 327 327 326 326 326 325 324 322 319 316 313 317 316 318 319 325 323 327 330 330
308 307 306 306 306 307 307 306 306 307 307 308 308 309 308 308 309 309 310 311 308 307 306 306 306 305 306 308 308 309 310 310 310 311 314 316 319 324 326 326 326 326 327 327 327 327 327 327 326 326 325 322 321 316 314 314 317 317 320 324 323 327 330
307 307 307 306 307 306 306 306 306 305 305 307 307 308 307 306 306 307 307 308 306 305 304 304 303 303 303 303 303 304 306 307 307 309 310 312 313 316 321 325 326 326 327 327 327 327 327 327 326 325 325 324 324 319 318 315 316 320 320 324 326 325 328
307 307 307 307 307 306 306 306 305 305 305 306 306 306 306 305 305 305 306 306 305 304 303 302 302 301 301 300 300 301 302 302 302 303 306 308 309 312 313 315 322 325 327 326 326 327 327 326 326 326 326 325 324 323 320 319 315 320 323 320 324 328 328
306 306 306 306 307 308 308 307 306 305 304 306 306 306 305 305 305 304 305 305 305 303 301 301 300 300 299 299 299 299 300 301 301 301 303 305 306 307 308 310 312 316 322 326 326 326 326 326 326 326 326 325 325 324 323 320 317 317 323 323 324 326 329
303 304 304 306 306 307 308 308 307 304 303 303 304 305 305 304 304 304 304 304 304 302 300 300 300 299 299 298 298 298 299 299 299 300 302 302 304 305 305 305 308 311 313 316 322 325 326 326 326 326 326 325 324 325 323 321 318 318 322 324 324 324 327
303 303 303 304 305 305 305 306 307 303 301 301 302 302 303 303 303 303 302 302 301 300 299 299 299 298 297 297 297 298 298 298 298 299 300 301 302 303 304 304 305 307 309 311 313 316 322 324 326 325 325 325 324 324 325 322 320 318 318 322 322 324 325
302 301 301 302 302 302 303 304 306 303 301 300 301 302 302 302 302 302 301 301 300 299 299 298 298 297 297 296 296 297 298 298 298 298 299 299 300 302 302 303 304 306 307 307 309 311 314 318 323 324 325 325 324 325 325 325 322 319 319 320 323 322 323
301 301 300 301 301 301 301 302 304 301 300 300 300 301 302 302 301 301 300 300 299 298 297 297 297 296 296 296 296 296 297 297 298 298 299 299 300 301 302 302 303 304 305 305 306 308 310 313 316 320 323 324 325 325 325 325 324 321 321 319 322 322 324
301 300 300 300 300 300 300 301 301 300 299 298 299 299 300 301 300 300 299 299 298 298 297 296 296 295 295 295 296 296 296 297 298 299 299 299 302 301 302 302 303 303 304 304 305 307 308 308 311 313 316 321 324 325 325 325 325 324 322 320 321 323 324
300 300 300 300 300 300 300 299 299 300 299 297 297 298 297 298 299 298 298 298 298 297 296 296 295 294 294 295 295 295 296 297 298 299 300 301 301 302 302 303 303 304 304 304 305 306 307 308 309 310 311 313 316 321 324 325 325 324 323 322 322 321 322
301 300 300 300 300 300 299 299 298 298 299 298 297 296 297 296 297 296 296 296 296 296 296 296 295 294 294 294 294 294 295 296 297 298 300 301 302 303 303 303 304 304 304 304 305 306 306 306 307 307 309 309 311 312 315 321 323 323 322 322 322 322 321
299 300 300 299 299 299 299 299 298 298 298 297 297 296 296 296 296 296 296 296 296 296 295 295 295 294 294 294 294 294 295 296 297 298 300 301 302 302 302 303 303 303 304 305 305 303 303 303 304 303 305 307 308 310 311 314 319 321 321 321 321 320 321
298 298 298 298 298 298 298 298 298 298 297 297 298 297 296 296 295 295 295 295 295 295 295 295 295 294 293 293 294 294 294 295 297 297 298 299 300 301 301 302 302 302 305 306 303 303 303 302 302 301 302 303 304 305 307 311 315 318 320 320 320 321 320
297 297 296 296 296 296 297 297 297 297 297 297 296 297 295 295 295 294 294 294 294 294 294 295 296 294 294 293 293 294 294 296 296 297 297 297 298 299 300 300 301 304 302 302 302 300 299 299 300 301 301 302 301 301 302 305 309 314 318 319 319 319 318
296 295 295 295 295 295 295 296 295 295 295 296 296 296 295 294 294 294 294 293 293 294 294 295 293 292 292 293 294 293 294 294 295 296 296 296 297 298 298 299 299 301 301 301 301 299 298 297 297 297 297 298 300 300 299 300 303 309 314 317 320 320 319
294 294 294 294 294 294 294 294 294 294 294 294 294 294 293 293 293 293 294 293 293 293 294 295 292 292 292 291 293 293 294 294 295 295 295 295 296 297 297 297 298 298 299 300 300 299 298 297 296 295 295 295 295 295 296 298 300 303 309 313 317 319 319
293 293 293 293 293 293 293 293 293 292 292 294 293 293 292 293 293 293 293 292 293 293 293 294 292 292 292 291 291 293 293 293 294 294 294 295 295 296 296 296 296 297 298 301 301 297 296 296 296 295 295 296 296 295 294 293 295 301 307 309 313 317 319
292 292 292 292 292 292 292 291 292 292 292 292 291 292 292 291 292 292 293 292 292 293 293 294 292 292 291 291 291 292 293 293 293 294 294 294 295 295 295 295 295 295 296 297 296 296 295 294 294 294 295 297 298 298 297 295 295 295 299 306 311 313 319
292 292 292 291 291 291 291 291 291 292 291 290 290 290 290 290 291 292 292 292 292 292 293 293 292 291 291 291 291 292 292 293 293 293 293 294 294 295 295 295 295 295 295 295 295 295 293 293 293 294 295 297 298 298 299 300 301 305 307 307 308 312 316
291 291 291 291 291 290 290 290 290 291 291 290 290 291 291 291 290 290 291 291 291 291 292 292 291 291 291 290 291 292 292 292 292 292 292 293 294 295 295 295 295 294 294 294 294 292 292 293 293 293 295 298 298 299 298 300 298 299 307 314 315 313 314
290 290 290 290 290 289 289 289 290 291 289 289 289 289 290 290 290 290 291 291 291 291 291 292 291 291 291 290 291 291 291 291 291 291 291 292 293 294 294 295 295 294 293 293 293 290 290 292 293 293 295 297 299 298 298 301 299 297 297 298 301 303 303
290 289 289 289 289 289 289 289 289 290 288 288 289 288 291 289 290 290 290 290 292 291 290 292 292 291 291 291 292 291 291 290 290 290 291 292 293 293 294 296 297 294 292 292 291 290 290 292 293 294 295 296 297 299 301 304 306 308 301 299 300 300 299
289 289 289 289 289 289 289 289 289 288 288 288 289 288 291 289 289 290 290 291 293 291 290 292 292 291 291 291 292 291 291 290 289 290 290 291 292 292 293 294 295 294 293 292 290 290 290 292 292 294 295 295 296 297 300 302 306 310 313 310 309 308 306
290 289 288 288 289 289 290 288 288 288 288 288 288 288 289 289 288 289 289 290 290 290 291 292 293 291 291 291 291 291 291 289 288 289 290 291 290 291 292 292 293 291 290 290 289 289 290 290 292 294 294 293 293 295 299 302 304 304 310 310 310 310 309
289 288 289 289 290 289 288 288 288 287 287 287 287 287 287 288 288 288 289 289 290 290 292 292 292 291 291 291 291 291 290 289 289 289 289 290 290 290 290 291 291 292 290 290 290 290 290 290 291 294 293 292 293 293 297 301 301 301 303 303 302 302 303
291 291 291 289 288 288 288 288 289 287 286 286 286 287 287 288 287 288 288 289 290 290 291 293 292 292 291 291 290 291 290 290 290 290 289 289 289 290 290 290 291 291 289 289 289 290 290 290 291 294 292 290 291 291 298 301 301 301 300 300 300 300 300
291 292 291 289 287 287 287 288 287 288 286 287 286 287 287 287 287 287 288 289 289 289 290 291 292 292 291 290 290 290 290 289 289 290 289 288 289 289 290 290 291 291 289 289 290 290 290 290 291 291 290 290 291 292 296 299 298 299 298 298 297 297 297
288 288 290 290 290 288 288 288 288 288 286 286 286 287 287 287 287 287 287 288 289 289 290 290 291 291 291 290 290 290 289 289 289 290 290 289 290 290 290 290 290 289 289 289 289 290 290 290 290 290 290 290 291 293 295 296 296 297 296 296 296 296 296

ECMWFFLT1_sfc_thetae_099.txt.gz
Theta_e
326 325 326 326 328 329 328 328 329 329 330 330 330 331 333 333 333 333 334 334 335 335 336 334 333 334 334 334 335 335 334 334 333 330 329 331 327 329 334 332 332 332 332 331 330 323 321 318 322 331 335 334 334 334 334 333 333 333 332 332 332 333 333
326 325 325 325 326 328 327 327 327 328 328 328 329 329 330 331 332 332 332 332 332 332 333 332 333 334 335 333 332 333 333 333 335 334 331 329 330 328 328 331 332 331 330 330 329 328 322 320 319 322 325 331 333 333 334 334 334 335 334 333 334 334 337
323 324 324 323 324 326 324 325 325 326 326 326 327 327 327 329 330 330 330 330 331 332 331 331 331 331 331 331 332 333 333 332 335 333 330 330 330 330 330 329 326 328 327 327 328 326 325 322 318 320 324 325 325 329 334 333 334 334 334 336 335 336 334
322 322 322 323 323 324 323 323 323 323 324 324 325 325 324 325 327 328 327 327 327 328 328 329 327 327 328 329 331 331 332 331 334 332 331 332 332 330 330 329 327 326 324 323 323 324 324 322 322 321 323 324 324 324 330 335 334 334 334 335 335 334 333
321 321 320 319 319 319 319 320 321 321 321 321 321 321 321 322 324 324 323 323 322 322 322 324 324 323 324 326 327 328 330 333 332 332 332 330 330 330 329 331 331 329 328 326 326 326 323 323 323 321 321 325 325 326 329 334 336 335 334 332 333 333 334
317 317 316 316 317 316 317 316 317 317 317 317 317 317 318 320 321 320 319 318 318 318 319 320 319 319 321 322 321 321 323 322 323 324 325 326 328 327 328 330 330 330 330 330 329 327 326 326 322 321 323 327 322 324 328 332 330 333 333 333 332 333 333
316 316 315 314 315 315 315 314 314 314 314 314 315 314 315 317 318 318 316 316 315 315 315 315 315 315 317 318 318 317 318 320 320 320 321 322 324 326 328 328 331 332 331 332 331 329 326 325 323 322 322 324 326 322 325 328 330 328 331 334 336 335 334
315 314 313 314 313 313 313 313 313 313 313 313 313 314 315 315 315 316 315 313 313 313 312 312 312 312 314 315 314 313 315 316 315 316 316 317 317 318 320 323 326 330 330 331 331 330 329 327 324 325 322 318 321 323 322 326 328 327 326 330 333 333 335
314 314 313 313 312 312 312 312 311 312 312 312 313 313 313 313 314 314 314 312 311 310 310 309 309 309 309 310 310 310 311 311 310 312 313 315 315 315 317 320 321 324 328 330 331 331 331 330 329 327 326 322 317 316 322 322 325 324 329 328 333 335 334
313 313 312 312 312 312 312 311 311 311 312 311 311 311 311 312 312 312 311 310 310 309 309 308 308 307 307 307 306 306 307 308 309 310 311 311 313 313 314 315 316 319 322 325 328 330 330 330 330 330 329 325 323 318 317 318 321 322 326 329 326 332 335
313 313 313 312 312 311 310 310 310 309 309 309 309 309 309 309 310 310 309 309 308 308 307 307 307 306 306 305 305 305 305 306 307 308 309 309 310 311 312 312 313 315 319 320 321 324 327 328 329 329 328 328 327 320 320 317 319 324 325 330 329 329 335
312 312 312 312 312 310 309 308 308 308 309 309 308 308 308 307 307 307 308 307 306 306 306 305 305 305 306 304 304 304 304 304 305 306 307 308 309 310 310 310 312 312 314 315 317 320 322 324 327 328 328 328 328 326 322 321 317 324 328 325 329 332 334
310 310 311 311 310 309 308 307 307 307 307 308 307 307 306 305 306 305 305 305 304 305 304 304 304 304 304 304 304 303 303 304 304 305 306 308 308 308 308 309 310 311 312 313 314 315 316 318 320 322 325 326 327 328 326 322 319 319 327 327 327 330 333
309 309 309 309 309 308 307 306 306 306 306 306 306 306 305 305 304 304 304 304 303 303 303 303 303 303 303 303 303 303 303 303 303 304 306 307 308 308 307 307 309 310 311 311 311 312 313 315 316 318 320 321 321 326 327 324 320 319 325 329 329 329 332
307 308 307 307 307 306 305 304 305 305 305 305 306 305 304 304 304 304 303 303 302 302 302 302 302 303 302 302 302 302 302 302 302 303 305 305 306 306 307 307 308 309 310 309 310 310 311 311 312 314 316 317 318 319 324 322 323 323 320 326 328 331 331
306 306 305 305 305 305 305 304 304 304 303 304 305 304 304 304 303 303 303 302 302 301 301 301 302 301 301 301 301 302 303 302 302 302 302 303 304 305 306 306 306 307 308 308 309 309 310 310 311 311 312 313 314 317 318 320 318 318 322 323 327 326 328
305 305 304 304 304 304 304 304 304 303 303 303 302 303 303 302 302 302 302 301 301 301 300 300 300 300 300 300 300 301 302 302 302 302 302 303 303 304 305 305 305 306 307 306 307 307 309 309 309 309 310 311 312 313 315 316 315 314 316 320 325 326 328
305 304 304 304 304 304 304 304 304 303 303 302 302 302 302 302 302 301 301 300 300 300 300 300 299 299 300 300 300 300 301 301 302 302 303 303 304 304 304 304 304 305 305 305 305 306 306 306 305 306 307 307 308 309 310 312 313 314 313 313 320 327 330
304 304 304 304 303 303 303 303 303 303 302 302 302 302 302 302 301 300 300 300 300 300 300 300 299 299 299 299 300 301 301 301 301 302 302 303 304 304 304 304 304 304 304 304 304 305 305 304 304 304 304 304 305 306 307 309 311 311 312 313 315 318 325
304 304 304 304 304 303 303 303 302 302 302 302 301 301 301 301 301 301 300 300 300 300 299 299 298 298 298 299 299 300 300 301 301 301 302 303 304 304 304 304 304 304 303 303 303 302 302 303 303 302 303 302 303 303 304 305 307 308 310 311 313 317 320
304 304 303 303 303 303 302 303 302 302 302 302 301 300 300 300 301 301 300 300 300 300 299 298 298 297 297 298 299 299 300 300 300 301 302 303 303 303 303 304 304 303 303 303 303 302 302 301 301 301 301 301 301 300 301 302 303 304 306 309 311 313 317
304 303 302 302 302 302 301 302 301 301 301 301 302 301 301 300 300 300 300 299 299 299 299 297 297 296 296 296 298 299 299 299 299 300 300 301 302 302 303 303 304 304 304 303 301 301 301 300 300 299 299 299 299 299 298 299 300 301 303 305 308 312 314
302 302 301 301 301 301 301 301 301 300 300 300 301 301 300 300 300 299 299 299 299 299 298 298 296 294 294 295 297 298 299 299 299 299 299 300 300 301 301 302 303 303 301 300 300 299 297 297 298 298 298 297 297 296 296 297 297 299 300 302 304 308 310
301 300 300 300 300 300 299 300 300 300 300 300 300 300 300 299 299 299 299 298 298 298 298 296 293 292 292 292 295 298 299 299 299 299 299 299 298 299 300 300 301 302 301 301 300 298 296 296 295 295 295 296 297 296 295 295 296 298 299 300 303 305 307
299 299 299 299 299 299 299 299 299 299 299 299 299 300 299 299 298 298 298 298 298 298 298 294 291 292 292 291 293 297 299 298 298 299 299 298 298 298 298 299 299 300 300 300 300 299 298 296 294 294 293 294 294 294 294 296 296 297 298 299 300 303 306
298 298 298 299 299 299 299 298 298 298 298 299 299 298 298 298 297 298 298 297 297 298 297 293 292 292 292 291 291 295 299 298 298 298 298 298 297 297 297 297 297 298 299 300 299 297 296 296 295 294 295 295 296 296 294 293 293 298 299 298 298 300 303
298 298 298 299 298 298 298 298 299 299 299 299 298 298 298 298 297 297 297 297 297 297 297 294 291 291 291 291 291 293 299 298 298 298 297 297 297 297 296 296 295 296 297 297 297 296 295 294 295 296 297 299 300 300 297 296 295 294 296 299 299 298 302
298 298 298 298 298 297 298 298 298 298 298 298 297 297 297 297 297 297 297 297 297 297 296 292 291 291 291 291 291 294 298 298 298 297 297 297 297 297 296 296 296 295 295 295 296 294 293 292 293 295 296 297 298 300 302 303 305 307 306 304 301 300 301
298 298 298 297 297 297 298 298 298 298 298 297 298 298 298 297 297 296 297 297 296 296 297 292 291 291 291 290 292 298 298 297 297 296 296 297 297 297 297 297 296 295 294 294 294 291 291 293 293 294 295 296 297 299 301 301 299 300 303 304 305 305 305
298 298 297 297 297 297 297 298 298 299 297 297 296 297 297 297 297 296 296 296 296 296 296 294 291 291 291 290 293 297 297 296 296 295 296 296 297 297 298 297 296 294 294 294 292 290 290 291 293 294 294 294 295 297 298 302 299 297 297 297 296 296 297
297 297 297 297 297 298 298 298 298 299 297 297 296 297 297 297 297 297 296 295 295 296 296 295 291 291 291 290 293 296 296 295 295 295 295 296 297 297 298 297 298 295 293 293 291 290 290 292 292 292 293 293 293 294 297 298 299 300 299 299 298 298 295
298 297 297 297 298 298 298 298 299 299 298 298 297 297 297 296 297 297 296 296 295 295 296 295 292 291 291 291 293 296 295 295 293 293 294 295 296 296 296 297 296 295 293 292 289 290 290 291 292 292 293 293 292 293 294 295 295 299 302 303 304 306 304
299 298 298 298 299 298 299 299 299 299 298 298 297 297 296 296 296 296 297 296 296 296 296 296 295 291 291 291 291 295 295 293 292 292 293 294 294 295 295 296 296 292 290 289 289 289 290 290 291 293 293 292 292 291 294 294 297 301 301 301 302 303 303
299 299 299 299 299 299 299 299 299 299 298 298 298 297 297 296 296 296 297 297 296 296 296 296 296 291 291 291 290 292 295 293 293 293 293 294 294 293 294 295 296 293 290 289 289 289 290 290 290 293 293 291 291 292 292 295 297 298 300 300 301 300 301
300 300 300 300 300 299 299 300 300 299 298 298 298 297 297 296 296 296 296 296 297 296 296 295 296 293 291 291 290 290 293 294 292 294 293 294 293 294 294 294 295 292 289 289 289 289 290 290 290 292 291 289 290 290 293 296 298 299 299 299 299 299 298
300 301 301 301 300 300 300 300 300 300 299 298 297 297 296 296 296 295 296 296 296 296 296 296 293 295 292 290 290 290 289 291 289 294 294 293 293 294 295 295 295 292 289 289 289 289 290 290 291 290 289 289 290 290 293 295 296 298 297 297 297 297 297
301 301 301 301 301 301 300 301 300 299 299 298 296 296 295 296 295 295 294 294 296 296 296 296 294 292 294 291 290 290 290 289 289 293 295 294 294 294 294 294 293 289 290 290 289 290 290 290 290 289 289 289 290 291 293 294 294 295 294 294 294 295 295

ECMWFFLT1_sfc_thetae_102.txt.gz
Theta_e
331 330 332 333 334 333 332 333 334 333 333 333 334 334 335 335 336 337 337 337 335 336 336 335 334 335 335 336 337 338 337 337 336 334 332 333 331 331 336 334 334 333 335 333 327 324 324 320 324 332 336 335 337 337 337 336 336 337 338 339 337 338 338
331 330 330 331 330 331 331 330 331 331 331 331 332 332 333 333 333 334 334 334 333 333 333 334 334 334 334 334 334 334 335 335 336 335 333 331 332 331 331 332 332 331 332 333 332 331 326 324 322 324 326 335 335 336 338 336 337 338 337 337 338 339 339
330 330 330 328 329 331 329 329 329 328 329 329 330 330 330 331 330 328 329 330 331 331 331 331 331 331 331 331 332 334 335 333 335 335 333 333 333 333 333 331 329 329 329 328 329 330 327 327 322 324 325 326 326 330 335 336 337 338 337 336 336 337 338
328 329 328 327 326 327 326 326 326 326 327 326 327 328 327 328 328 328 328 327 328 328 328 328 328 328 329 330 331 331 331 329 328 330 332 332 332 332 333 331 330 329 329 325 326 327 327 324 323 323 325 328 328 325 331 334 335 335 336 336 335 336 338
326 324 324 323 323 324 323 323 323 324 323 323 324 323 323 324 324 325 326 326 324 324 322 323 324 324 325 327 328 327 327 327 327 326 329 329 330 329 331 330 330 331 331 329 328 329 326 325 323 322 323 325 327 326 330 334 335 335 336 336 335 336 337
323 323 322 321 322 321 321 321 320 319 320 320 320 320 320 321 322 322 323 322 321 322 321 320 320 321 322 324 324 324 323 323 322 324 325 326 327 326 325 327 327 328 329 332 332 329 330 330 328 324 325 326 323 325 329 331 329 333 335 336 337 336 336
321 321 320 320 320 320 319 319 319 318 318 318 317 317 318 319 319 320 320 319 319 320 320 321 320 320 321 321 323 321 320 321 321 322 322 324 325 325 323 321 323 324 327 331 330 330 327 328 324 325 323 324 325 324 328 327 329 328 331 335 337 337 336
319 318 318 318 318 318 318 318 317 318 317 316 315 316 317 317 317 317 317 317 317 317 317 317 317 318 318 319 319 318 318 319 319 320 320 321 320 321 321 320 320 321 323 326 327 329 329 327 326 327 326 321 320 323 324 326 327 328 329 333 333 335 338
318 318 316 316 316 317 317 316 316 316 316 315 315 315 315 315 315 316 316 315 315 316 316 315 316 316 316 316 315 316 315 315 315 317 317 318 318 318 319 320 320 320 322 323 325 326 327 328 327 327 326 324 319 318 323 323 325 326 330 329 332 335 337
316 316 315 315 315 316 317 316 315 314 314 314 314 314 313 314 315 315 314 314 314 314 314 314 314 315 315 315 314 313 313 313 314 315 315 315 316 316 316 317 317 318 321 321 321 322 323 324 326 326 327 324 324 321 319 317 320 322 327 330 327 332 337
316 316 315 314 315 315 315 315 315 313 313 313 313 313 313 313 314 313 313 313 313 313 313 313 313 313 313 313 313 313 312 312 313 314 314 314 314 315 315 316 317 317 319 319 318 320 320 320 320 322 323 325 325 319 319 317 318 324 325 329 330 329 333
314 314 314 314 314 313 313 312 312 312 313 313 312 312 312 312 312 312 312 311 311 311 311 311 311 312 312 311 311 311 311 311 311 312 313 313 313 314 313 314 315 315 317 317 318 318 319 318 318 319 320 321 322 322 321 319 315 321 328 325 328 332 332
313 313 313 313 312 311 312 312 312 312 312 312 311 311 311 311 311 311 310 309 309 309 309 309 310 310 310 310 310 310 311 311 310 310 311 312 312 312 312 312 313 313 314 314 315 316 315 317 316 316 317 318 318 320 320 318 316 316 324 325 327 329 331
312 312 312 312 312 311 312 312 311 311 311 311 311 311 310 310 309 309 308 308 308 308 308 308 309 309 308 308 309 310 310 310 309 309 310 310 311 311 310 310 311 312 313 312 312 313 314 314 314 314 315 314 314 316 316 315 313 314 319 326 326 327 332
311 311 312 311 311 310 310 310 312 311 310 310 311 309 309 309 309 308 308 307 307 307 307 307 308 308 307 307 308 308 309 308 308 308 308 307 309 309 309 309 309 310 311 310 311 311 312 312 312 311 311 312 311 312 314 312 312 312 312 318 320 324 325
310 310 311 311 310 310 310 310 310 310 309 309 309 308 308 308 308 308 307 307 306 306 306 306 307 306 306 306 306 307 308 307 307 306 306 306 307 308 308 308 309 309 310 309 310 310 311 310 310 309 309 310 310 310 311 311 310 309 309 312 317 318 320
309 309 309 309 310 310 309 309 309 308 308 308 307 308 308 307 307 307 306 306 305 305 305 305 305 305 305 306 306 306 307 307 307 306 306 306 306 307 307 307 308 308 308 307 308 308 308 308 307 307 308 308 308 308 310 310 310 309 309 309 313 315 318
308 308 309 309 309 309 309 308 308 307 308 307 307 307 307 307 307 306 306 305 305 304 304 304 304 304 305 306 306 306 306 306 306 306 306 306 306 307 307 306 307 307 307 306 306 306 306 306 305 306 305 305 306 307 308 308 308 308 307 307 309 313 316
307 309 308 309 309 308 308 308 308 307 307 307 307 307 306 306 306 305 305 305 304 304 303 303 302 302 303 304 306 306 306 306 305 305 305 306 305 307 306 306 306 306 305 304 304 304 304 303 303 303 303 304 304 304 304 305 306 307 307 307 308 309 313
308 308 308 308 308 308 307 307 307 306 307 306 306 306 306 305 306 305 305 304 304 303 303 302 301 301 302 303 305 305 305 305 305 305 305 305 306 306 306 306 306 306 305 304 303 302 302 302 302 301 302 302 302 301 301 302 303 304 305 306 308 310 311
307 307 307 307 307 307 306 306 306 306 306 306 305 305 305 305 305 305 305 304 304 304 302 301 300 299 300 302 303 305 305 305 304 304 305 305 305 305 305 305 305 304 303 303 302 301 301 300 300 300 300 300 300 299 299 300 300 301 302 304 305 307 310
306 306 305 305 305 305 305 306 305 305 306 306 306 306 305 305 305 304 304 304 303 303 302 300 298 297 298 299 302 304 305 305 304 304 303 304 304 304 304 304 304 303 303 303 302 301 300 299 299 298 299 299 298 298 298 298 299 299 300 301 302 306 308
305 305 304 304 304 304 305 305 305 305 305 305 305 305 305 305 304 304 303 303 303 303 300 299 296 293 294 296 301 304 305 304 304 304 303 303 303 302 303 303 303 303 302 302 301 298 297 297 297 298 298 298 298 297 297 297 297 298 299 299 301 302 304
304 303 304 304 304 304 304 304 304 304 304 304 305 304 304 303 303 303 303 303 302 302 300 296 292 291 292 292 298 303 304 304 304 303 303 302 301 301 302 302 302 302 302 301 301 297 296 295 294 294 295 295 296 296 296 295 296 299 299 299 300 301 302
302 302 303 302 302 303 303 303 303 304 304 304 304 305 304 303 303 304 304 303 302 301 300 294 291 292 292 291 293 300 305 303 303 303 302 301 301 301 301 301 301 302 301 301 300 300 297 295 294 293 293 294 294 294 294 297 298 298 298 298 298 299 300
300 300 300 301 302 303 303 303 303 303 303 304 304 303 303 303 303 303 303 302 302 301 299 293 291 291 292 291 291 295 304 303 303 302 301 301 300 300 300 300 300 300 300 300 301 298 296 296 295 294 295 296 297 297 295 293 294 298 300 298 298 298 299
300 300 300 301 302 302 302 302 303 303 304 304 303 303 303 303 303 303 303 302 302 301 298 293 291 291 291 290 291 293 304 303 302 301 301 301 300 300 300 299 298 298 299 299 299 296 295 294 295 297 299 301 302 300 297 296 296 295 297 299 299 299 302
301 301 301 301 301 301 302 302 302 302 303 303 303 302 302 303 302 302 302 302 302 301 297 291 291 291 291 291 290 295 304 303 301 301 301 301 301 300 300 299 298 297 297 298 298 294 293 293 294 295 297 298 299 300 300 301 302 302 301 301 301 301 302
301 300 300 301 300 301 302 302 302 302 302 303 303 303 303 303 302 302 301 302 302 301 299 291 291 291 291 291 290 302 303 302 301 300 301 301 301 300 300 299 298 297 296 297 295 291 292 293 294 295 295 296 297 298 300 300 297 297 300 300 300 300 301
301 301 301 300 300 300 301 301 302 302 301 302 302 302 302 302 302 302 301 300 301 301 300 294 291 291 291 290 294 302 302 301 300 300 300 300 300 300 300 299 298 297 296 296 293 290 290 291 294 294 294 294 295 296 297 299 297 295 295 295 294 294 294
301 301 301 300 300 301 302 302 302 302 301 300 300 301 302 301 302 302 301 299 300 300 300 295 291 291 291 290 293 301 300 300 300 299 299 300 300 300 299 299 298 297 296 296 291 290 290 292 293 293 293 292 292 293 295 297 297 298 296 296 296 295 295
301 301 301 301 302 301 301 302 302 302 301 301 301 301 301 301 301 302 302 301 298 299 299 297 292 291 291 291 294 300 299 299 298 298 299 298 300 299 299 299 298 295 295 293 289 290 290 292 292 292 293 292 291 291 293 293 294 296 298 300 300 301 301
302 301 301 302 302 302 302 303 302 302 302 301 301 301 301 301 301 301 302 302 300 300 299 299 296 290 291 291 291 297 300 297 297 298 298 298 298 299 298 299 298 293 290 290 290 290 290 290 292 293 292 291 290 289 292 293 296 295 296 298 298 299 300
302 302 302 302 302 302 303 303 303 302 302 302 302 301 301 301 301 301 302 302 301 300 299 299 297 291 292 291 291 293 298 297 297 298 298 297 298 297 297 298 299 294 291 290 290 290 290 290 290 293 292 291 291 291 291 294 295 294 295 295 296 297 299
304 304 304 304 303 302 303 303 303 303 303 302 302 301 301 301 300 300 301 301 301 301 299 296 299 294 292 291 291 291 296 297 296 298 297 297 297 297 297 297 298 294 290 290 290 290 290 290 290 294 292 290 289 289 292 294 295 295 294 294 294 294 296
304 304 304 304 303 303 303 303 303 303 303 302 301 301 301 301 300 300 301 301 301 301 301 300 294 297 293 291 291 291 290 294 291 298 298 297 297 297 298 298 297 294 290 290 290 290 291 290 292 293 289 290 290 290 292 295 294 294 293 293 292 293 293
304 305 305 304 303 303 303 302 302 302 302 301 300 299 300 300 299 299 298 299 300 300 301 300 296 292 295 292 291 290 290 290 291 296 298 298 298 297 297 297 296 291 290 290 290 290 291 291 292 290 290 290 291 292 295 294 293 293 292 292 291 291 291

ECMWFFLT1_sfc_thetae_105.txt.gz
Theta_e
333 333 334 335 336 336 335 335 335 334 334 334 334 333 333 334 334 334 334 334 333 334 332 333 331 330 331 333 334 334 335 335 334 332 332 331 329 330 334 333 333 334 336 336 335 326 323 321 323 330 333 333 336 338 339 339 339 338 338 339 338 337 339
334 332 332 333 333 334 332 333 333 333 333 333 331 331 332 332 332 332 331 330 330 329 329 329 328 328 328 331 331 330 330 330 331 331 330 330 332 330 330 331 332 330 330 331 332 332 327 324 321 324 326 332 334 335 339 340 339 339 337 337 338 340 338
331 331 332 331 331 332 330 330 331 329 328 328 329 329 329 328 328 329 328 327 327 326 325 326 327 326 326 327 328 328 328 328 330 329 328 329 330 331 330 330 328 328 328 328 328 327 327 327 322 322 325 325 324 329 336 340 341 339 337 338 340 337 336
330 330 329 328 328 329 328 327 328 327 327 326 327 327 326 326 327 327 326 326 326 326 325 324 325 324 325 325 326 327 326 325 326 327 328 328 327 326 327 327 326 326 325 324 325 326 326 323 322 323 324 325 325 325 330 332 335 336 335 337 337 337 337
327 326 326 325 325 324 324 324 325 324 324 324 323 323 323 324 324 322 324 324 323 323 322 324 324 323 324 325 325 324 325 325 325 325 326 325 324 324 324 324 323 325 325 325 326 326 326 324 324 323 323 324 325 326 329 331 332 331 332 334 337 338 338
325 325 324 323 323 323 322 322 323 322 321 320 320 319 320 320 321 320 320 320 321 322 322 322 322 322 323 323 324 323 322 322 322 323 322 323 322 321 321 323 323 323 323 324 325 324 325 326 325 322 324 325 322 324 327 329 328 330 331 331 332 336 336
323 323 322 322 322 321 321 320 321 320 319 318 318 317 318 319 319 319 320 320 320 320 320 320 320 321 321 320 321 320 320 320 321 321 321 320 321 321 320 319 320 320 322 324 324 323 322 321 320 320 320 321 323 322 325 325 326 324 327 331 331 336 342
321 320 319 320 320 319 319 319 319 318 317 317 316 317 317 318 318 319 319 319 318 318 319 319 319 319 320 320 319 319 319 318 319 319 319 319 318 318 319 319 318 320 320 321 321 321 321 320 319 319 317 314 316 319 320 323 324 324 325 329 331 332 334
320 319 318 318 319 319 318 317 316 317 317 317 316 316 317 318 318 318 318 317 317 317 317 317 317 317 318 317 317 318 316 317 317 318 317 318 317 317 317 318 318 318 319 320 320 320 320 320 320 320 319 316 313 311 316 316 319 321 326 325 328 330 333
318 317 316 317 318 318 318 316 316 316 316 316 316 316 317 317 317 317 316 316 315 315 315 315 315 316 316 316 316 315 314 315 316 316 316 316 316 316 316 316 316 316 317 318 318 318 318 319 319 318 318 316 315 312 310 311 314 317 321 325 323 327 330
316 316 316 316 317 316 316 316 316 315 315 316 315 316 317 316 316 315 314 314 314 313 313 314 314 314 314 314 314 315 314 315 314 315 315 314 315 315 315 315 315 313 315 315 314 315 316 316 316 316 316 316 316 312 312 309 311 316 317 322 324 324 328
316 315 315 316 316 315 314 314 314 314 315 315 315 315 315 314 314 313 313 312 312 311 312 312 312 312 312 312 313 313 313 314 313 313 314 314 314 313 313 312 313 313 314 313 313 314 314 314 314 314 314 315 314 314 312 310 307 313 318 317 320 322 322
315 315 315 315 314 314 314 314 314 314 314 314 315 314 313 312 312 311 311 310 310 310 310 311 311 311 311 312 312 311 312 312 311 311 311 312 312 312 311 311 311 312 312 312 312 312 312 313 313 312 312 312 312 313 312 310 307 308 314 315 317 318 320
314 314 314 314 314 314 314 314 314 314 314 314 314 313 312 311 310 310 309 309 309 309 309 309 310 310 310 310 311 311 311 311 309 310 310 310 311 311 310 309 310 311 312 311 311 311 310 310 311 310 310 310 309 310 309 308 305 306 310 314 314 314 317
313 314 313 313 313 313 313 313 314 313 313 312 312 311 310 311 310 309 309 308 308 307 307 308 309 309 308 309 310 310 310 310 309 309 309 308 309 309 310 308 308 309 311 309 309 309 308 308 307 307 307 307 307 307 308 306 305 304 304 309 311 313 313
313 313 312 312 313 312 313 313 313 312 311 311 311 311 310 310 309 309 308 307 306 306 306 306 307 307 307 308 308 309 309 309 308 308 307 307 307 308 308 307 308 308 309 308 307 307 307 306 305 304 305 305 304 305 306 306 304 303 303 304 308 309 311
312 312 311 312 312 312 311 311 311 311 311 310 309 310 310 309 309 308 307 306 306 305 305 305 305 306 306 307 308 308 308 308 308 307 307 307 307 307 306 306 307 307 307 305 304 304 304 304 304 303 303 304 303 303 304 304 304 302 302 301 304 306 309
311 311 311 311 311 311 311 311 311 309 310 309 309 309 309 309 308 307 306 305 305 304 304 304 304 304 305 307 308 308 308 307 307 307 307 307 307 306 306 306 306 306 305 303 303 302 302 302 302 302 302 302 302 302 302 302 302 302 301 300 302 305 307
311 311 311 311 311 311 310 310 309 310 309 308 308 308 308 308 307 306 305 305 304 303 303 303 302 302 304 306 308 308 308 307 307 306 306 306 306 305 305 305 305 305 303 302 301 301 301 301 301 301 301 301 301 301 301 301 301 301 301 301 301 302 305
311 310 310 310 310 309 309 309 309 308 309 308 308 308 308 307 308 306 305 304 304 303 302 302 301 301 302 304 306 307 307 307 306 307 306 306 305 305 305 304 304 304 302 302 301 300 300 300 300 299 300 299 299 299 299 300 300 300 300 300 301 302 303
309 309 309 309 309 309 309 308 308 309 309 308 308 307 307 307 307 306 306 304 303 303 301 300 299 299 300 302 305 306 306 306 306 306 306 305 305 304 304 304 304 303 302 302 301 301 301 299 299 298 299 299 298 298 298 298 299 299 299 299 299 300 302
308 308 308 308 308 308 308 308 308 308 308 308 308 308 308 307 306 305 305 304 303 302 301 299 298 297 298 300 303 306 306 306 306 305 304 304 304 304 304 304 304 303 303 303 301 301 300 298 299 297 297 297 297 296 296 297 297 297 298 298 298 301 301
307 307 307 307 307 307 307 308 308 308 307 307 307 307 307 307 306 305 304 303 303 302 300 298 295 293 294 297 300 304 306 306 305 305 304 303 303 303 303 303 304 303 303 302 300 298 296 297 297 297 297 296 296 295 295 295 295 296 297 296 297 298 298
306 306 306 307 306 306 306 306 306 306 306 306 306 306 306 306 306 305 303 302 302 301 299 296 293 291 292 292 298 302 304 305 305 304 303 302 301 302 302 302 303 303 302 301 300 297 296 295 295 294 295 295 296 296 295 295 296 297 297 296 297 297 297
305 304 305 304 304 304 304 304 304 304 305 305 306 307 306 305 306 306 304 302 301 300 299 294 291 291 292 291 293 298 305 305 304 303 303 302 301 302 301 301 302 302 301 300 300 299 297 296 295 294 294 294 294 295 295 297 297 296 297 296 296 297 297
303 303 302 302 302 302 303 303 304 304 304 305 306 305 305 305 305 305 305 303 301 299 298 293 291 291 292 291 291 295 305 305 304 303 302 302 301 301 301 300 300 300 300 300 300 297 296 297 296 295 296 297 297 297 294 293 294 299 299 297 296 296 297
302 302 301 302 303 303 304 303 305 306 305 306 305 304 305 305 305 304 305 304 302 299 297 293 291 291 291 290 291 292 305 304 304 303 302 302 301 301 301 299 298 298 299 299 298 296 296 296 296 297 298 299 299 299 297 296 296 295 297 298 296 294 296
302 303 303 304 305 304 304 304 304 305 305 305 305 304 304 304 304 304 304 304 303 299 296 291 291 291 291 291 291 295 306 305 303 303 303 302 302 301 301 300 299 299 298 299 297 294 295 295 295 296 297 297 297 298 299 300 300 299 298 297 296 296 297
302 302 303 303 304 303 304 304 304 305 305 305 305 305 305 304 303 303 304 304 303 299 296 291 291 291 291 291 291 303 303 304 303 303 302 302 301 301 301 300 300 298 298 298 296 291 292 294 295 296 296 296 297 297 299 299 296 296 297 297 297 297 297
302 302 302 302 302 303 303 303 304 304 304 304 304 303 303 303 303 302 302 303 303 300 297 293 291 291 291 291 295 303 302 302 302 302 302 302 301 301 302 300 299 298 297 297 294 290 290 293 295 295 295 295 296 296 297 298 296 294 294 294 293 293 293
302 302 302 302 302 303 303 303 303 304 303 302 302 303 304 304 303 302 301 301 302 301 298 295 291 291 291 291 294 301 301 301 301 301 301 301 302 301 301 298 300 297 296 297 292 290 290 294 296 295 295 294 294 294 295 296 296 297 295 295 294 294 294
302 302 302 303 304 303 303 304 304 304 303 303 303 303 303 303 303 304 303 301 300 301 301 298 292 291 291 291 295 300 300 299 300 300 300 299 301 300 301 301 298 297 297 295 290 291 290 293 295 296 295 294 293 293 294 295 294 295 296 296 297 297 296
303 303 303 303 304 304 304 304 304 303 303 303 303 303 303 303 302 303 304 304 302 302 302 301 297 291 292 292 292 298 300 297 298 298 300 299 299 300 299 299 299 294 291 291 291 290 290 290 294 297 297 294 293 292 294 294 296 296 296 296 296 297 296
304 304 304 304 304 304 305 304 304 303 303 304 304 303 303 304 303 303 303 303 303 303 302 301 299 291 292 292 291 293 298 297 297 297 299 299 298 298 298 298 299 295 292 291 291 290 290 290 290 298 298 295 294 293 293 295 296 296 297 296 296 296 296
304 304 304 305 304 304 305 305 305 304 303 303 303 303 303 303 302 302 303 303 303 303 300 299 300 294 292 292 292 290 296 297 296 297 298 299 298 298 298 298 299 295 291 291 290 291 290 291 290 298 297 291 291 291 295 297 296 297 297 297 296 295 295
306 306 306 305 304 303 304 305 305 305 304 303 302 302 302 302 302 302 302 301 302 302 302 300 294 297 293 291 291 291 290 294 292 298 297 298 298 298 299 299 298 295 291 290 290 290 291 289 293 296 290 291 292 291 294 297 297 297 297 296 295 293 293
306 306 306 305 305 304 303 304 303 303 303 302 301 301 300 301 301 301 300 300 301 300 301 301 296 293 296 292 291 290 290 290 290 296 297 298 299 299 298 299 297 292 290 290 291 291 291 292 295 291 292 291 292 294 297 296 296 296 296 295 293 293 293

ECMWFFLT1_sfc_thetae_108.txt.gz
Theta_e
333 334 335 335 337 335 333 333 333 332 331 330 329 328 328 328 329 329 328 327 326 326 326 325 325 325 326 326 327 328 327 326 326 325 323 325 324 324 327 326 326 328 327 327 327 323 321 317 320 326 329 329 331 334 335 334 335 335 335 337 336 335 334
334 333 333 333 333 334 331 332 331 330 329 328 326 326 326 326 327 326 326 325 324 324 324 324 324 324 323 324 324 325 324 324 324 326 324 323 324 323 322 322 323 322 322 323 324 325 321 318 318 319 321 326 327 328 331 332 334 336 336 336 337 336 335
333 333 332 331 331 332 329 329 329 329 327 325 324 324 324 324 324 323 323 323 322 323 324 323 322 322 322 322 324 324 324 322 323 323 322 324 323 322 321 321 319 318 318 318 319 319 320 320 317 317 319 319 319 323 327 328 330 336 337 336 335 335 336
331 331 329 328 329 329 327 327 326 326 324 322 322 322 322 321 321 321 321 321 322 322 321 321 320 320 321 322 324 322 321 321 321 320 321 321 320 319 319 318 317 317 316 316 316 318 317 316 315 315 317 318 318 317 322 325 326 327 328 333 335 335 335
329 327 327 325 326 325 326 325 325 323 320 320 320 319 320 319 320 321 322 321 320 320 319 320 320 319 320 321 321 320 320 319 320 319 320 318 318 317 317 317 317 317 317 317 318 319 317 315 315 313 314 315 315 316 320 321 324 325 326 326 331 335 336
327 327 326 324 324 323 323 322 321 318 318 316 316 316 318 319 321 320 319 318 318 318 318 318 319 319 319 319 319 317 317 316 317 318 318 317 317 315 315 317 316 316 317 318 319 317 317 316 315 311 313 314 311 313 316 317 317 321 322 324 326 335 335
323 323 322 321 321 321 321 320 319 317 315 315 315 316 318 322 319 318 318 317 317 317 317 317 317 318 318 317 317 315 315 315 317 317 317 316 316 316 316 314 314 315 316 317 316 315 314 313 312 311 311 311 312 311 313 314 315 314 317 321 323 324 333
321 320 319 319 319 318 318 317 317 317 315 314 315 318 320 320 318 317 316 315 315 315 316 316 316 316 317 316 316 314 315 315 315 316 315 315 314 314 314 313 314 313 314 313 313 313 313 313 312 312 311 307 307 308 308 311 312 313 313 317 320 320 323
320 320 319 319 318 318 317 316 316 316 316 316 319 319 317 317 316 316 315 314 314 314 314 314 314 314 315 315 315 314 312 315 314 314 313 313 313 313 313 313 312 311 313 312 312 312 312 312 312 312 311 309 305 302 306 306 307 308 313 312 315 318 319
318 317 317 317 316 317 316 316 315 315 317 318 318 317 316 315 315 314 313 313 312 312 312 312 312 312 313 313 313 312 311 313 314 313 313 312 312 312 311 312 312 312 311 311 311 311 311 311 311 311 310 308 307 304 301 301 303 305 308 311 310 313 315
317 317 317 316 316 315 315 316 316 315 315 317 316 316 315 314 313 314 312 311 311 311 311 311 311 311 312 312 312 311 311 312 312 311 312 311 311 311 311 311 310 310 310 310 310 310 310 310 309 308 308 308 307 304 303 300 301 305 306 309 309 309 311
316 315 315 315 315 314 313 314 314 315 316 315 314 314 312 311 311 311 311 309 309 309 310 310 310 310 311 310 311 310 310 310 310 309 310 310 310 310 309 308 309 308 308 308 308 308 308 307 306 305 305 306 305 304 303 302 298 303 305 303 306 309 309
314 314 315 315 314 313 312 313 313 313 314 314 313 312 310 310 309 308 308 308 307 307 307 308 309 309 310 310 309 309 309 309 308 307 308 308 309 308 306 306 307 307 307 306 305 305 305 305 304 303 303 303 303 303 303 300 298 297 303 303 304 306 307
314 314 314 314 314 313 313 313 312 313 313 312 312 311 309 308 307 307 306 306 305 305 306 306 307 308 308 308 309 308 308 307 307 306 307 306 307 307 306 305 305 305 305 304 303 303 303 302 302 302 303 302 301 302 301 299 297 297 300 303 303 303 304
314 314 314 314 313 312 312 313 313 312 311 310 310 309 309 309 307 306 305 304 304 304 304 304 305 306 306 307 307 308 308 306 306 305 306 304 305 306 305 304 304 304 304 302 302 301 301 301 300 300 300 300 299 300 301 299 297 297 296 299 300 302 302
313 313 312 312 312 312 312 311 311 310 309 309 310 309 308 307 307 305 304 304 303 303 302 303 304 305 306 306 306 306 307 306 305 305 304 304 303 304 303 303 302 303 303 301 301 300 300 299 300 299 298 299 298 298 299 299 297 295 295 296 299 299 300
312 312 311 311 311 310 310 310 311 310 309 308 307 308 308 306 305 305 303 302 302 301 301 301 302 303 304 306 306 306 305 305 305 304 304 303 303 303 302 302 302 301 301 300 299 299 299 299 299 298 298 298 298 297 298 298 298 296 296 295 297 298 300
310 311 310 311 310 310 310 310 309 308 308 308 308 308 307 306 304 303 303 301 300 300 300 300 300 301 303 305 306 306 305 305 305 304 304 303 304 302 302 301 301 301 300 299 298 298 298 298 298 298 297 297 297 297 297 297 297 297 296 295 296 299 300
310 310 310 310 309 309 309 309 309 309 307 307 307 307 306 305 303 302 301 300 300 299 299 298 298 298 300 302 304 306 306 305 305 304 304 303 303 302 302 301 301 300 300 298 297 297 298 297 297 296 296 296 296 296 296 296 296 296 296 295 296 296 298
309 309 309 309 309 309 308 309 308 307 308 307 306 306 305 304 304 302 301 300 299 298 298 297 297 297 298 300 302 304 306 305 305 304 303 303 302 302 302 302 301 300 299 299 298 297 297 297 296 295 296 295 296 295 295 295 295 295 295 295 296 297 297
309 309 309 308 308 308 308 308 308 308 308 307 307 306 305 304 304 303 301 300 299 298 297 296 295 295 296 298 300 302 305 305 304 303 303 302 303 302 301 301 301 300 300 299 298 298 297 295 295 295 295 295 295 295 294 295 295 295 295 295 295 295 296
308 308 307 307 307 307 307 307 307 307 307 307 308 306 306 304 303 301 301 300 299 297 296 295 295 294 294 296 297 301 302 304 303 302 302 301 301 301 301 301 301 300 301 302 301 299 298 297 295 294 294 295 295 295 294 294 295 295 295 294 294 296 295
306 307 307 306 307 307 307 307 307 306 306 306 306 306 305 304 302 300 299 299 298 298 295 295 294 293 294 294 296 299 301 304 303 303 301 301 301 301 300 300 302 303 303 302 300 297 295 296 297 296 295 295 295 294 294 294 294 295 294 293 294 294 294
305 305 306 306 306 305 305 306 305 305 305 306 306 306 306 303 301 300 298 298 297 297 295 294 293 292 292 293 295 298 299 304 304 303 301 301 299 300 299 299 301 300 300 300 298 296 295 295 294 294 295 296 297 296 295 295 294 295 294 294 294 294 293
304 304 304 304 304 304 305 304 304 305 305 305 305 306 305 304 303 302 300 297 296 296 295 294 291 292 292 292 293 295 300 304 304 302 302 301 300 300 299 299 299 300 299 299 298 296 295 295 294 295 295 295 295 295 295 295 294 294 295 294 293 293 293
302 302 302 302 303 304 304 304 303 303 303 305 305 304 304 305 304 303 301 297 296 295 294 293 291 292 292 291 292 294 301 305 303 303 301 302 301 301 298 299 298 299 298 300 299 296 294 294 295 296 297 297 297 296 294 293 294 297 296 294 293 292 293
301 301 302 303 304 304 304 303 304 304 304 304 303 303 304 304 304 304 301 298 296 295 294 293 291 292 292 291 291 293 303 305 304 304 301 301 302 300 298 298 297 296 297 297 297 295 294 293 293 296 297 297 297 297 296 295 295 295 296 295 294 293 294
301 303 303 304 304 303 304 304 304 305 305 304 303 302 302 303 304 304 302 299 296 295 295 292 291 291 291 291 292 296 304 305 304 304 302 302 301 300 299 298 297 295 296 296 297 294 293 292 293 295 297 297 297 296 297 297 297 296 296 296 295 295 295
303 303 302 302 302 302 303 303 303 304 304 303 304 303 303 303 303 303 302 300 297 296 295 291 291 291 291 291 292 300 301 302 301 302 302 302 300 299 298 297 297 295 295 295 296 292 292 292 292 294 295 296 296 296 296 298 295 295 296 296 296 296 296
302 302 302 302 302 302 302 303 304 305 303 303 302 302 302 301 301 301 302 301 298 297 296 293 291 292 291 291 293 299 299 299 300 300 300 301 301 300 299 299 296 295 295 295 295 291 291 292 293 294 294 295 295 295 295 297 296 295 295 294 294 294 294
301 302 302 301 302 302 303 303 303 304 303 302 302 302 302 300 299 299 299 300 302 299 296 294 292 292 292 291 294 297 297 297 297 298 298 300 301 298 299 302 300 295 295 295 293 291 291 293 292 293 294 294 293 293 294 296 297 297 296 296 295 295 295
302 302 301 302 303 302 302 302 303 304 303 303 303 303 303 302 301 301 301 301 301 302 299 296 292 291 292 292 294 296 297 295 294 295 296 297 299 300 300 300 299 296 295 294 291 291 290 292 292 293 294 294 293 292 293 294 294 295 296 296 297 297 297
303 302 302 303 304 304 304 304 305 304 304 302 301 301 302 302 303 302 302 302 302 302 300 297 295 292 292 292 292 295 296 294 293 294 295 297 297 297 298 297 298 293 292 291 291 291 290 291 291 293 295 293 292 292 294 294 296 296 296 296 296 297 297
303 303 303 303 304 304 304 303 304 304 303 303 303 303 303 302 302 303 304 304 303 302 302 300 297 292 292 292 291 292 295 294 293 293 294 295 296 296 296 296 297 295 292 292 291 291 291 290 291 293 295 293 293 293 292 294 296 297 295 296 296 296 296
304 304 304 304 304 304 305 304 304 304 303 304 305 305 304 303 302 302 303 303 303 301 299 300 299 293 292 292 292 291 295 295 295 294 294 294 296 296 296 296 296 296 293 292 291 291 291 291 290 295 295 292 290 291 293 296 295 295 295 295 295 294 295
304 304 304 304 304 304 306 305 305 304 304 304 303 303 304 303 303 302 302 302 302 301 299 299 295 296 292 291 291 291 291 292 291 296 294 294 295 295 296 296 297 296 292 291 291 290 291 290 292 295 292 290 291 290 293 295 294 294 294 294 293 293 293
305 305 304 304 304 304 304 304 305 305 304 303 302 302 302 302 302 302 300 300 299 299 300 299 294 293 295 291 291 291 290 290 290 293 295 296 295 295 295 295 295 292 291 291 290 290 291 292 292 291 291 291 290 292 294 293 293 293 293 292 292 293 293

ECMWFFLT1_sfc_thetae_111.txt.gz
Theta_e
327 328 331 332 331 330 328 326 324 322 322 322 321 321 321 321 321 320 320 319 319 321 322 319 318 318 319 321 322 320 320 320 318 316 316 317 316 315 319 317 318 318 318 318 318 315 315 312 312 317 320 319 320 322 322 321 323 322 322 327 333 334 333
330 329 330 330 329 328 326 325 322 320 320 319 319 319 319 319 320 319 318 318 318 318 321 318 317 317 317 317 317 317 317 316 317 318 315 314 315 314 314 314 314 313 314 315 315 315 312 310 310 311 312 315 316 318 317 320 320 320 321 322 325 332 334
328 327 327 326 326 326 323 320 319 318 318 317 317 317 317 317 317 318 317 317 316 318 320 316 315 315 316 317 316 315 315 314 315 316 315 315 314 314 313 313 311 311 311 311 312 312 311 312 310 310 310 310 309 312 315 315 316 318 319 321 322 325 328
326 325 324 325 324 322 320 318 316 315 316 315 316 316 316 316 316 319 316 316 317 318 316 315 314 314 315 315 315 314 313 312 313 314 314 314 313 312 312 311 310 310 310 309 310 310 310 308 308 308 308 310 309 309 312 314 314 316 316 317 318 318 323
324 324 323 322 323 322 320 317 315 314 313 314 314 314 314 315 317 314 315 313 314 313 313 314 314 314 314 314 313 312 311 312 313 314 312 311 310 310 310 310 310 311 310 309 310 310 308 307 307 306 306 308 308 309 311 311 313 313 314 315 315 315 321
321 321 320 318 319 318 317 315 313 312 312 312 312 313 312 313 313 312 312 311 311 313 313 312 313 313 313 311 311 310 311 311 311 311 310 309 309 309 308 309 309 310 309 310 310 308 308 308 307 304 306 308 305 305 308 309 308 310 312 312 313 314 316
317 317 317 316 316 316 316 314 313 312 311 312 311 311 313 314 312 312 311 310 311 311 312 312 312 312 312 311 309 309 310 310 310 309 309 309 309 308 308 307 307 308 307 308 308 307 306 305 304 304 304 304 304 303 305 305 306 305 307 310 312 312 313
317 316 316 316 315 315 315 314 313 312 311 312 311 312 313 312 311 311 311 309 309 309 309 309 311 310 310 311 309 309 310 310 309 309 308 307 308 307 306 307 308 307 307 308 307 306 307 305 303 303 301 298 299 300 300 302 302 302 303 306 309 309 309
318 316 315 315 315 315 314 313 312 312 312 311 311 310 311 310 309 308 308 307 308 308 308 308 308 308 309 308 307 307 307 312 308 307 307 307 306 306 306 307 306 305 306 305 305 305 304 304 302 302 301 299 296 294 297 297 298 299 303 302 304 306 306
315 314 313 313 314 314 313 312 312 312 313 311 312 311 309 309 309 308 307 306 307 306 306 307 307 307 308 307 306 306 306 306 308 306 306 305 305 305 305 305 304 303 303 303 303 303 303 302 301 301 300 298 298 295 294 293 294 295 299 301 299 301 304
314 314 313 313 313 313 313 313 311 311 311 312 312 312 308 307 307 310 305 305 305 305 305 306 306 307 306 306 306 305 305 305 304 305 306 305 304 304 304 303 302 301 302 301 301 301 301 300 300 300 300 300 299 296 295 293 293 297 297 299 300 299 302
313 313 314 314 314 313 312 311 310 309 309 311 310 306 306 305 304 303 303 303 303 303 303 304 305 305 305 304 305 304 304 304 303 303 304 305 304 303 302 301 301 300 301 300 300 300 299 299 298 299 299 299 299 298 296 295 292 296 298 296 299 301 300
313 312 312 312 310 310 310 309 309 308 308 308 306 305 304 303 303 302 302 302 301 301 302 302 303 304 304 304 304 303 303 303 302 302 302 303 303 302 301 300 299 299 299 299 298 298 298 298 298 298 298 298 297 297 297 295 293 292 297 297 298 299 300
312 312 311 310 310 310 310 310 308 308 307 306 306 304 303 302 302 301 300 301 300 300 300 300 302 302 303 303 303 303 303 303 302 301 302 301 302 301 300 299 299 299 299 297 297 297 297 297 297 297 297 297 296 296 296 294 292 292 295 298 298 298 299
310 311 310 309 309 309 308 307 308 306 305 305 304 304 303 302 301 300 299 299 298 298 299 299 300 301 302 302 302 304 303 301 301 300 300 299 300 301 299 298 298 298 298 297 296 296 296 296 296 295 295 296 295 295 297 295 293 292 291 295 296 298 298
309 309 308 308 307 307 306 306 307 305 305 305 305 303 302 301 300 299 298 298 297 297 297 298 298 299 300 300 301 301 302 301 300 299 299 299 299 299 298 298 297 298 298 296 296 296 296 296 296 295 294 295 295 295 296 295 294 292 292 293 295 295 296
308 307 306 306 305 305 306 306 306 304 304 303 302 302 301 300 299 298 297 296 296 295 296 296 296 297 298 299 299 301 301 300 300 299 299 299 299 298 297 297 297 297 296 295 295 295 295 295 294 294 294 295 295 295 295 295 295 294 293 292 294 295 297
307 306 305 305 305 305 304 304 305 304 303 303 302 301 301 299 298 297 296 295 295 295 294 295 295 295 297 298 299 300 300 300 299 299 299 299 302 298 298 296 296 296 296 294 294 294 294 293 294 294 293 294 294 295 295 296 295 295 294 293 294 296 297
305 304 304 304 304 304 305 304 303 304 303 302 301 300 299 299 298 296 295 295 294 294 294 294 293 294 295 296 298 299 300 300 299 299 299 299 298 299 297 296 296 296 295 294 293 293 293 292 293 293 293 294 295 295 295 295 296 295 295 294 294 295 296
305 305 304 304 304 304 304 303 303 303 304 302 301 300 299 298 298 296 295 294 294 293 293 293 292 293 294 295 296 298 299 298 299 299 299 298 298 298 297 297 297 296 295 294 293 293 292 292 293 292 294 294 295 294 294 295 295 295 295 294 295 295 295
304 304 304 304 303 303 303 303 303 304 303 301 301 300 299 298 298 297 295 294 294 294 293 292 292 292 293 294 295 296 298 299 298 297 298 298 298 297 297 297 297 297 296 295 295 294 293 292 293 292 293 294 294 294 294 294 294 294 294 294 294 293 294
304 304 304 303 303 303 303 302 302 302 303 302 301 299 299 298 297 296 295 294 293 293 292 293 293 293 292 293 294 295 296 298 298 297 297 297 296 296 296 297 297 298 301 301 300 298 297 296 294 292 293 293 294 293 293 294 294 294 294 293 293 294 293
303 303 303 302 302 302 302 302 302 301 301 301 299 299 297 297 295 294 294 293 293 293 292 293 294 294 294 293 293 294 296 298 297 296 297 296 295 296 296 296 300 302 301 300 299 296 295 295 296 295 294 293 293 293 293 293 293 294 293 292 292 292 291
302 302 302 301 301 302 301 302 301 301 301 301 299 298 297 295 294 293 292 292 291 292 292 293 293 292 292 294 294 293 295 297 297 296 296 295 294 296 295 295 294 299 300 299 298 296 294 294 293 294 294 296 297 295 293 292 293 294 293 292 292 292 292
301 301 301 301 301 301 301 300 300 300 300 300 300 298 296 295 294 293 292 291 291 292 292 294 291 292 292 292 295 295 295 297 298 296 295 295 295 295 294 294 294 296 296 297 296 293 294 294 293 293 293 294 295 295 294 293 293 293 293 292 292 292 292
299 299 300 300 300 300 299 299 299 299 299 300 299 299 297 296 294 293 292 291 290 291 290 293 292 292 292 292 293 296 297 297 298 295 295 296 294 294 294 294 293 295 295 299 299 292 291 291 294 294 294 295 296 296 293 292 293 295 294 293 292 292 293
298 299 299 299 299 299 299 298 298 299 299 299 298 298 298 296 294 293 292 291 290 290 290 293 292 292 292 292 293 295 297 298 297 295 296 296 295 293 293 292 291 292 291 293 293 292 291 290 290 290 292 293 294 296 295 294 294 294 295 294 293 292 294
298 299 299 299 299 299 299 298 299 299 298 297 297 297 297 296 295 294 292 292 291 290 292 292 291 291 291 292 293 295 295 297 296 296 295 295 294 293 293 294 292 291 291 291 294 293 291 290 289 290 291 292 293 293 293 294 294 294 295 295 294 294 295
298 298 299 299 299 298 298 298 298 298 298 296 296 296 296 297 295 293 293 292 291 289 290 292 291 292 291 291 294 295 293 294 293 294 294 295 294 293 292 292 291 291 292 291 295 292 292 292 289 289 290 291 292 293 293 296 295 295 295 294 294 295 295
298 298 298 298 297 297 297 297 297 298 296 296 295 294 294 294 295 294 293 292 291 289 289 291 291 292 291 291 293 293 292 292 292 292 293 294 294 294 294 293 292 292 292 291 294 291 291 293 289 289 289 290 291 292 292 294 295 294 294 294 293 293 293
298 298 297 297 297 297 297 297 297 298 296 295 294 293 293 293 293 293 293 293 292 290 288 292 292 291 291 292 293 291 291 290 290 291 292 293 295 293 295 302 302 294 292 293 293 292 291 292 289 289 288 289 290 290 291 292 293 294 294 294 294 294 293
297 297 297 296 297 296 296 297 298 298 297 296 295 294 295 293 293 292 292 295 299 292 290 292 292 291 291 291 292 291 291 289 289 289 290 291 293 293 293 297 299 297 295 294 292 291 291 292 289 289 288 288 289 289 290 291 290 291 292 293 293 294 294
297 297 296 296 296 296 297 297 296 297 296 296 296 295 295 294 293 293 294 295 296 293 290 290 291 292 291 291 292 292 291 288 289 289 289 292 292 291 292 292 295 293 292 292 291 291 291 291 290 290 289 288 289 289 291 290 292 293 292 292 292 293 293
297 297 297 297 297 297 296 296 296 296 295 295 295 295 295 295 295 294 293 294 294 292 293 290 291 291 291 292 291 291 289 289 288 289 288 290 290 290 291 291 291 294 292 291 291 291 291 291 291 291 290 289 290 291 291 289 292 294 291 292 292 292 292
298 299 298 298 296 296 296 297 297 296 296 295 295 295 294 294 294 294 294 294 292 292 297 297 290 291 291 291 291 291 290 289 289 289 289 288 289 290 290 290 291 293 291 291 290 291 291 291 291 293 291 290 290 290 291 293 291 291 291 291 290 291 291
299 300 299 298 296 296 296 297 296 296 296 295 295 295 295 294 293 293 293 293 291 290 290 293 294 291 291 291 291 290 290 289 290 291 288 289 288 290 290 290 292 294 291 290 290 290 291 291 292 291 290 290 290 290 292 291 291 290 290 290 290 289 290
299 298 298 298 297 296 296 296 296 297 295 294 293 294 294 295 293 292 293 292 293 291 290 289 292 292 291 290 290 290 290 290 290 290 290 290 289 289 290 290 291 290 290 291 290 290 290 291 291 290 290 291 291 291 290 290 290 290 289 289 289 288 289

ECMWFFLT1_sfc_thetae_114.txt.gz
Theta_e
327 327 328 326 324 321 319 318 317 317 317 317 317 317 318 319 318 316 316 316 317 318 317 314 314 315 315 316 316 315 315 315 314 311 310 311 309 310 314 312 313 314 314 314 313 310 309 307 308 311 312 312 312 313 313 312 312 312 313 314 316 318 318
330 329 328 326 321 320 317 316 316 315 315 316 316 316 316 317 319 316 315 315 315 316 317 314 314 314 313 312 311 311 311 313 314 313 310 309 309 308 309 308 309 309 310 311 310 309 307 305 304 305 306 309 308 310 311 311 311 312 312 312 314 314 313
328 326 325 322 319 318 315 314 314 314 314 314 314 315 315 315 314 314 314 313 313 316 316 312 313 312 312 311 311 311 311 311 311 311 310 308 309 308 308 307 306 305 305 305 305 305 305 306 303 303 304 303 302 305 309 308 309 310 310 311 310 311 312
325 324 322 318 316 314 313 312 312 312 313 313 314 314 313 313 313 315 312 313 313 315 313 312 311 311 310 310 310 310 310 310 309 308 308 308 307 307 307 306 305 305 303 302 303 304 304 302 302 301 302 304 302 302 305 307 308 308 308 308 308 308 308
324 323 320 316 314 312 312 311 312 312 311 312 312 311 310 311 311 310 312 310 312 310 310 311 311 310 309 309 309 309 308 308 309 309 307 306 306 306 306 306 305 305 304 303 303 303 301 301 300 298 298 300 301 301 304 304 305 304 306 305 306 305 305
318 317 317 315 314 312 311 311 310 310 310 311 310 310 309 309 310 309 308 308 308 310 310 310 310 310 308 308 308 308 307 307 306 306 305 305 305 305 304 304 304 303 303 303 302 301 300 300 298 295 297 298 296 297 299 300 300 302 303 302 304 303 303
315 315 315 314 313 312 311 311 310 310 310 309 309 309 309 309 308 308 307 307 307 308 309 309 308 309 308 307 307 307 306 306 306 305 305 305 304 304 303 301 301 301 301 301 300 300 298 297 296 295 295 295 296 295 297 297 299 297 299 301 302 302 302
314 314 314 314 313 312 311 311 311 311 310 309 308 309 309 307 307 307 307 305 306 306 307 307 308 307 306 306 307 306 307 306 305 304 303 302 302 301 301 300 301 300 300 300 299 298 298 298 297 296 294 292 292 294 293 295 295 295 296 299 301 301 301
316 314 314 314 313 313 311 311 311 311 311 309 308 308 307 306 305 304 305 304 305 305 306 306 305 305 305 305 304 304 304 307 303 302 302 301 300 300 300 299 299 298 299 298 298 298 297 298 297 297 295 294 291 289 292 291 292 293 297 296 298 300 299
312 312 312 312 312 313 312 312 312 311 310 308 308 308 306 306 305 303 303 303 303 304 304 305 305 304 304 303 303 302 302 303 304 301 301 300 300 299 299 298 298 298 298 298 297 298 297 297 297 296 296 294 294 291 289 289 290 291 294 296 294 296 299
313 312 312 312 312 312 312 312 312 309 308 309 307 305 303 302 302 306 301 301 302 302 303 303 303 303 303 302 302 302 302 302 302 302 302 300 299 299 299 298 297 296 297 297 296 297 297 296 295 295 295 295 296 293 292 289 290 293 293 295 295 295 297
313 313 313 313 312 312 311 311 309 307 306 305 304 301 301 300 300 300 300 300 300 300 301 301 303 302 302 302 302 301 301 301 300 300 300 300 299 298 297 296 296 296 296 296 296 296 296 296 295 295 295 295 296 295 293 292 289 293 294 292 294 297 296
313 312 312 311 311 310 309 308 305 303 303 303 301 301 300 299 299 298 299 299 299 299 299 300 301 301 301 301 301 300 300 300 299 299 298 299 299 298 296 295 295 295 295 295 295 295 295 295 295 294 294 294 295 295 295 292 290 290 294 294 295 296 297
310 310 310 310 309 308 308 307 305 304 303 301 300 299 298 298 297 297 297 298 297 297 297 298 299 300 300 300 300 300 299 299 298 298 299 297 298 297 297 295 295 295 295 294 294 294 294 294 294 294 295 295 294 295 294 292 290 290 294 297 296 296 297
309 309 308 307 306 306 305 304 304 302 301 300 299 298 297 297 297 296 296 295 296 296 297 297 297 298 299 299 299 301 299 298 298 297 297 296 296 297 295 295 295 295 295 294 293 293 293 293 293 293 294 295 294 294 295 293 292 292 291 294 295 297 296
307 307 306 305 304 304 304 303 303 300 299 299 299 297 297 296 296 295 295 294 295 295 295 295 296 297 297 298 298 298 299 298 297 297 296 295 295 295 295 295 294 294 295 292 292 292 293 292 293 293 293 294 294 294 295 295 293 292 292 293 295 295 295
306 305 304 304 303 303 303 302 302 299 299 298 297 297 296 295 295 294 294 294 293 293 294 294 295 296 296 297 298 298 298 297 297 297 296 295 295 295 294 294 293 293 293 291 291 291 291 292 292 292 292 293 293 293 294 295 295 293 293 292 294 294 296
304 304 303 303 303 303 302 302 301 299 298 297 296 296 296 295 293 293 293 293 293 293 293 293 294 294 295 296 298 298 297 297 296 296 296 296 300 294 295 293 293 292 291 291 291 290 291 291 292 292 292 292 293 293 294 294 294 294 293 292 293 295 296
303 302 302 302 302 302 302 301 299 299 298 296 296 295 294 294 294 292 292 292 292 292 292 292 292 293 294 295 296 297 297 297 296 296 295 295 295 295 294 294 294 293 291 291 290 290 290 290 291 291 291 292 292 293 292 293 293 293 293 293 293 292 294
303 302 302 301 302 301 300 300 299 298 298 297 296 294 294 293 293 292 292 292 292 292 292 292 292 292 293 293 295 296 296 296 296 295 294 295 295 295 294 295 294 293 292 292 291 290 290 290 292 291 293 292 292 292 292 292 292 292 292 292 292 292 292
302 302 302 302 301 301 301 300 299 299 298 297 296 295 294 293 293 293 292 292 292 293 292 292 291 291 292 292 293 294 295 296 295 294 294 294 295 294 295 295 295 295 294 294 293 291 291 291 291 290 291 292 292 292 291 292 291 291 291 291 291 291 292
302 303 302 301 301 301 301 300 299 298 298 297 297 295 294 293 292 291 291 291 291 292 292 292 293 292 291 292 291 293 293 295 295 294 293 293 293 294 294 295 295 295 299 300 301 298 296 295 292 290 290 290 292 291 291 291 291 290 290 290 290 291 291
301 301 301 300 300 300 300 299 298 296 295 295 294 294 293 292 291 291 290 290 291 291 292 293 295 294 295 293 292 292 294 294 294 294 294 293 292 293 293 292 297 300 301 302 301 297 295 295 295 294 292 291 291 291 291 290 290 290 290 290 290 290 289
301 300 300 300 299 300 299 298 296 295 294 294 293 293 292 291 290 290 290 290 290 291 291 293 293 292 292 295 294 292 293 294 294 294 293 292 291 294 292 292 291 296 298 298 298 296 294 294 293 293 294 295 295 293 291 290 290 291 290 290 290 290 289
300 299 299 299 299 299 298 297 296 295 294 293 293 292 291 290 290 290 290 290 290 291 291 294 292 293 293 293 297 295 293 294 295 294 293 292 292 292 291 291 292 293 294 296 295 292 293 294 293 293 293 293 293 293 294 293 291 290 290 289 289 290 290
299 299 299 299 299 299 298 297 296 295 294 294 292 291 290 290 290 290 290 289 289 290 289 293 292 293 293 293 294 296 295 294 294 292 292 291 291 291 291 292 291 292 291 298 298 291 290 290 293 293 293 294 294 294 292 291 293 294 292 290 290 290 290
298 298 298 298 298 298 298 297 297 296 296 294 292 291 290 290 290 290 289 289 289 289 290 292 292 292 293 292 292 294 293 293 293 292 292 292 291 290 291 290 289 290 290 290 291 291 291 290 289 290 290 290 290 292 293 293 293 293 294 293 291 290 291
298 298 298 298 297 297 297 296 297 296 295 294 292 291 290 290 291 291 289 288 289 289 290 292 291 292 292 292 292 293 292 293 293 292 292 292 291 290 290 291 290 289 291 291 294 293 291 290 289 289 289 289 289 290 291 291 292 292 293 292 291 291 292
298 297 297 297 297 296 296 296 296 296 295 294 293 292 291 291 290 289 289 288 288 287 288 291 291 291 292 291 292 292 290 291 290 290 291 291 291 290 291 290 291 291 291 291 295 293 292 292 289 288 288 288 289 289 290 294 294 293 293 292 292 292 292
297 297 297 296 296 296 295 295 295 295 294 294 293 292 291 291 291 290 289 288 287 285 287 290 291 291 291 291 291 289 289 290 289 289 289 291 291 291 291 293 293 291 291 291 294 291 291 292 289 288 287 287 288 289 290 292 293 293 292 292 292 292 292
297 297 296 296 296 295 295 295 294 295 293 293 292 292 292 291 290 291 289 287 287 287 287 291 291 291 291 291 292 288 288 288 288 288 288 289 290 289 291 299 299 292 291 292 292 290 290 292 288 287 287 287 287 287 288 290 291 292 293 293 292 292 292
297 297 296 296 296 295 295 295 295 294 293 292 292 292 294 291 290 289 289 288 296 289 287 291 291 291 291 291 291 287 288 288 288 286 287 289 289 290 290 293 296 295 293 292 290 290 290 291 288 287 287 286 286 286 288 288 289 289 290 290 290 291 291
297 297 296 295 296 296 296 295 293 293 292 292 291 291 292 292 290 290 291 290 292 288 287 287 289 291 291 291 292 288 288 287 288 286 286 290 290 289 289 289 292 291 290 290 290 290 290 290 289 288 287 286 286 287 289 288 291 291 289 289 289 290 290
296 296 296 296 296 296 295 294 293 293 292 291 291 290 291 290 291 290 291 290 288 287 288 286 288 290 291 291 291 290 286 286 285 286 285 287 286 287 288 288 288 292 290 290 290 290 290 290 291 291 288 286 287 290 290 289 290 292 289 290 290 290 290
296 296 296 296 295 294 294 295 294 293 292 292 291 291 290 291 291 290 289 289 288 288 293 294 287 290 290 291 290 291 288 287 288 287 287 286 287 288 288 287 288 291 290 290 290 290 290 290 290 292 289 289 290 290 290 291 289 289 288 288 288 288 289
296 297 296 295 294 294 294 295 294 294 293 292 292 292 291 291 290 290 288 288 288 287 289 292 292 289 290 290 290 290 290 289 291 289 286 286 286 288 287 287 289 292 290 290 290 290 290 290 291 289 289 289 290 290 290 288 289 288 287 287 287 287 287
296 296 295 295 294 294 294 295 294 294 293 293 292 292 290 291 290 290 289 287 287 287 287 287 291 292 289 290 290 290 289 289 290 289 289 287 286 287 287 287 289 289 290 290 290 290 290 290 289 289 289 289 290 290 288 287 287 287 287 286 286 286 286

ECMWFFLT1_sfc_thetae_117.txt.gz
Theta_e
325 322 321 319 319 318 316 316 316 316 316 316 315 315 316 316 315 314 314 314 314 315 315 312 311 311 312 313 314 312 313 312 309 307 306 307 305 305 309 307 308 308 307 306 305 304 305 302 302 305 306 305 306 306 307 304 304 306 305 307 306 305 304
325 322 321 320 318 317 315 315 315 314 313 314 313 313 313 314 316 313 313 313 312 313 314 311 311 311 310 310 309 309 308 309 310 308 306 305 305 304 304 304 304 304 304 304 303 303 302 299 299 299 299 300 301 302 304 303 303 305 304 304 305 303 304
324 321 319 317 316 316 314 314 313 312 312 312 311 311 312 312 312 312 311 311 312 313 313 309 309 309 309 309 309 308 308 306 307 307 306 305 305 304 303 302 301 301 300 300 299 299 299 300 296 296 296 295 293 296 302 300 301 302 302 302 301 301 301
322 319 316 314 314 313 312 312 311 311 311 310 310 310 310 310 310 313 310 310 311 313 310 308 308 308 308 308 307 307 306 306 305 305 305 304 303 302 301 301 300 299 298 296 296 297 297 295 294 294 294 295 294 294 298 300 301 300 301 300 300 300 300
321 318 315 313 313 312 312 311 310 310 309 309 308 308 307 308 309 308 310 309 310 308 308 308 308 308 308 307 306 306 304 304 304 304 302 301 300 300 299 299 299 299 298 297 297 297 295 294 294 292 292 294 294 295 297 298 299 298 299 299 299 299 299
320 317 314 312 312 311 310 309 309 307 307 307 306 306 306 307 307 306 307 307 307 308 308 307 307 307 306 306 305 303 303 302 301 301 299 299 299 298 297 298 298 297 296 297 297 296 296 296 294 291 292 293 291 292 294 295 295 297 298 298 298 299 298
317 315 314 312 312 311 310 309 308 307 306 306 305 305 305 306 306 306 306 306 306 307 308 306 306 306 306 305 303 302 301 301 300 299 299 299 298 298 298 296 296 296 296 296 295 295 294 293 292 291 291 291 291 291 293 293 294 293 294 297 298 298 298
315 314 313 313 311 310 309 309 308 307 306 306 305 305 305 304 305 306 306 305 305 305 305 305 305 304 304 304 303 302 301 300 299 299 298 297 297 296 296 296 297 295 295 296 295 295 295 294 293 292 291 289 289 290 290 291 292 292 293 295 297 297 297
316 314 313 313 311 311 310 309 308 307 307 306 305 304 303 303 303 303 303 303 304 304 304 304 303 303 303 302 301 301 300 302 298 297 297 296 296 296 296 295 295 295 296 295 296 295 295 295 294 293 292 291 289 288 290 288 290 290 294 292 295 296 296
313 312 312 311 311 311 311 310 308 307 306 305 304 304 302 303 302 302 302 302 302 303 303 303 302 302 302 301 300 299 299 299 299 297 297 296 296 295 295 295 295 295 295 295 295 295 295 294 294 293 293 292 293 290 288 287 289 289 292 293 291 294 296
313 312 312 312 312 311 310 309 307 305 303 303 303 303 301 301 301 304 300 301 301 301 302 302 301 301 301 300 300 299 299 299 298 298 298 296 295 296 296 295 294 294 295 294 294 294 294 294 293 293 293 294 295 291 290 287 288 291 291 293 293 293 296
312 312 312 312 312 310 308 306 304 303 302 302 302 300 299 299 299 299 299 299 300 300 300 301 301 300 300 299 300 298 298 298 297 296 297 297 296 296 294 294 294 293 293 293 293 293 294 294 293 294 294 295 294 293 291 290 287 291 293 291 293 295 295
313 312 312 312 310 308 305 303 302 300 300 300 299 299 298 298 299 298 298 298 298 298 299 299 300 299 299 298 298 298 297 297 296 295 295 296 296 294 294 293 293 292 292 292 292 292 292 293 294 293 294 294 293 293 293 292 289 289 293 293 293 295 296
311 312 311 310 307 305 304 303 300 300 299 298 298 297 297 297 297 298 297 298 297 297 298 298 299 299 298 297 297 297 297 296 296 295 296 294 295 294 294 293 293 293 292 291 291 292 292 292 292 293 294 293 292 293 292 291 289 289 292 294 294 294 296
310 310 309 307 305 304 302 301 300 298 297 297 297 296 296 296 296 296 296 296 296 296 297 297 297 298 298 297 297 298 296 295 295 294 294 293 293 294 293 292 292 292 292 290 290 291 291 291 292 291 291 293 291 292 293 291 290 290 289 292 293 295 295
308 307 305 304 302 301 300 299 298 296 296 295 296 295 295 295 295 295 295 295 295 295 296 296 297 297 297 297 296 296 296 295 294 294 293 293 293 293 292 292 291 291 292 290 290 290 291 291 292 291 291 292 292 292 292 292 291 289 289 290 293 292 293
304 304 302 302 300 299 298 297 298 296 295 295 294 295 294 294 294 294 294 294 294 294 295 295 296 296 297 296 296 295 295 294 294 294 293 293 293 292 291 291 290 290 290 289 289 289 290 290 290 291 291 291 292 292 292 293 292 290 290 289 291 292 293
302 301 301 300 298 298 297 296 297 295 294 294 294 294 294 294 293 293 293 293 293 293 293 294 295 296 296 296 296 295 295 295 294 294 294 294 298 292 293 290 291 290 289 289 290 289 289 289 290 291 290 291 291 292 293 292 292 291 290 289 290 292 293
301 301 300 299 298 297 297 296 295 295 294 293 293 293 293 293 294 292 292 292 292 292 292 293 294 295 295 296 295 295 295 294 294 294 293 293 293 293 292 292 292 291 290 289 289 289 289 289 289 289 289 290 290 291 291 291 292 291 291 290 290 290 292
301 301 300 299 298 297 296 295 295 294 294 293 292 292 292 292 293 292 292 292 292 292 292 292 292 293 294 294 294 294 294 293 293 293 292 293 293 292 292 293 293 292 291 291 290 290 290 289 290 289 292 290 290 290 290 290 291 290 290 289 290 290 290
300 300 299 298 297 296 296 295 295 295 294 292 292 291 291 292 292 292 292 292 292 293 292 292 291 292 293 294 295 293 293 293 293 292 292 292 293 292 292 292 292 292 292 293 293 291 290 290 290 290 290 290 290 289 289 290 290 290 289 289 289 289 290
301 301 299 298 297 296 296 295 295 295 294 293 294 291 291 291 291 290 290 291 291 292 292 292 292 291 292 292 292 294 293 293 293 292 291 291 291 290 290 290 292 293 299 300 301 299 297 296 292 290 290 289 290 290 289 289 289 289 289 288 288 289 289
300 299 299 298 297 296 296 295 294 293 292 292 291 291 290 291 290 290 290 290 290 292 292 292 296 297 298 293 291 293 294 292 292 292 291 291 290 291 290 289 295 300 300 300 300 297 295 295 295 293 291 290 289 288 288 288 288 288 288 288 288 288 287
299 299 298 298 297 296 295 294 292 292 291 291 291 292 290 289 289 289 290 290 290 291 291 292 294 292 294 296 294 293 294 292 292 291 290 290 290 293 290 289 289 295 298 296 297 296 294 294 293 293 294 295 295 290 288 288 288 288 288 288 288 288 287
299 299 298 297 296 295 293 292 291 290 290 290 290 290 289 288 289 289 289 289 289 290 290 295 292 293 294 295 297 295 294 294 292 291 290 289 291 291 289 289 290 291 292 294 295 292 293 294 293 293 293 293 292 293 293 290 289 288 288 287 287 287 287
299 298 298 297 295 293 292 291 290 290 289 290 289 288 288 288 288 288 289 289 289 289 289 293 292 293 293 293 294 295 294 293 293 291 290 290 289 289 289 290 291 292 290 297 297 291 290 290 293 293 293 293 293 293 291 290 292 292 290 288 287 287 287
298 298 297 296 295 293 292 291 290 290 291 290 288 288 287 287 287 288 288 289 288 288 288 293 292 292 292 292 292 293 292 293 292 290 290 289 289 288 288 289 289 291 291 290 290 291 290 289 288 288 288 288 288 291 291 292 292 292 293 291 288 287 289
298 297 297 296 295 293 292 292 291 291 290 289 288 288 287 287 288 289 288 287 288 288 289 292 291 291 292 292 292 292 291 292 291 289 289 289 289 289 288 289 288 290 290 289 292 292 290 289 288 288 287 288 288 288 288 289 290 290 291 290 289 289 289
298 297 297 296 295 294 293 292 291 291 290 289 288 288 287 288 287 286 286 287 287 286 287 291 291 291 291 291 292 292 290 290 289 289 289 289 288 288 289 288 289 291 290 289 293 292 291 291 286 287 287 287 287 288 288 292 292 292 292 291 290 290 290
297 297 297 296 295 294 293 292 291 292 290 289 288 288 287 287 287 286 287 287 286 285 286 290 291 291 291 290 291 289 289 290 288 287 288 288 287 288 288 290 291 290 289 288 292 290 290 292 285 286 286 286 287 286 287 290 292 291 292 292 291 291 291
297 296 296 295 295 294 293 293 293 293 290 289 288 288 288 287 286 287 286 285 286 286 285 290 291 291 291 291 291 287 288 288 285 286 286 286 287 286 288 297 297 290 288 289 291 290 290 291 286 286 286 285 285 286 287 288 289 290 292 291 291 291 291
297 296 296 295 295 294 293 294 293 293 291 290 290 289 290 287 286 285 285 287 296 288 285 290 291 290 291 291 290 285 287 287 287 284 284 286 287 287 287 291 294 293 291 291 290 290 290 290 285 285 285 284 285 285 286 287 287 288 288 288 288 289 290
297 296 295 294 294 294 294 293 292 292 291 291 290 289 289 288 287 286 288 289 289 285 285 286 289 290 291 291 291 288 286 287 287 285 283 289 289 287 287 287 290 290 290 290 289 289 290 290 287 286 284 284 285 285 287 287 289 289 287 287 287 288 288
297 296 296 295 295 295 294 292 291 291 291 290 289 288 288 287 287 287 287 286 285 285 286 284 288 290 291 291 291 289 284 285 283 284 283 286 283 284 286 286 286 291 290 290 289 289 290 290 290 288 285 284 285 289 289 286 288 291 286 287 287 287 288
297 296 296 296 294 293 292 292 292 291 290 289 289 288 287 288 288 287 287 287 286 285 291 293 285 290 290 291 290 291 287 287 285 284 285 284 283 284 284 286 287 290 290 289 289 289 289 289 290 289 287 288 289 288 288 289 287 286 286 286 285 286 286
296 296 296 295 294 293 292 292 291 290 289 289 289 288 287 287 287 287 286 286 286 285 286 290 292 288 290 290 290 290 290 288 290 290 285 286 284 285 284 285 288 292 289 289 289 289 289 289 289 287 288 288 289 288 289 286 286 285 285 285 285 284 285
296 296 296 295 294 292 291 291 290 290 289 289 289 288 287 288 287 287 287 286 286 285 284 285 290 292 289 289 289 289 289 289 290 287 288 285 283 284 285 284 288 289 289 289 289 289 289 289 288 288 288 288 289 288 286 285 284 284 284 284 284 284 284

ECMWFFLT1_sfc_thetae_120.txt.gz
Theta_e
321 318 318 317 318 318 316 316 316 315 316 317 316 316 317 317 316 315 315 314 314 315 315 312 311 311 311 311 312 311 311 309 308 306 304 305 304 304 306 305 305 305 303 302 303 304 302 298 299 304 303 301 305 303 303 301 302 303 302 302 302 301 300
321 319 319 318 316 316 314 314 314 314 314 314 315 314 315 315 316 313 313 313 312 313 314 311 310 310 309 308 308 307 307 307 307 306 304 302 302 301 302 301 302 301 301 300 300 302 298 295 296 294 295 298 302 302 302 301 302 303 301 300 302 301 300
320 318 317 316 315 315 313 313 313 312 312 312 312 313 313 312 312 313 312 312 312 313 312 309 309 308 308 307 307 306 306 304 305 304 302 301 301 301 300 300 298 299 298 297 297 297 298 297 293 292 293 293 293 297 301 300 302 301 300 300 300 301 299
318 317 315 314 313 313 312 312 311 311 311 310 311 310 310 311 312 314 311 311 312 313 310 308 308 307 307 306 305 305 304 303 302 301 301 301 300 299 299 298 297 297 296 294 295 295 295 293 293 293 294 294 294 294 299 299 301 300 299 299 299 300 299
318 316 314 313 312 312 311 310 310 310 309 309 309 308 308 309 310 309 311 309 309 308 307 307 307 306 305 304 303 303 302 302 302 301 299 298 298 298 298 298 297 297 297 296 296 296 295 294 293 292 292 293 294 295 297 298 300 298 298 298 298 299 299
318 316 314 313 312 311 311 309 308 307 308 307 306 306 307 308 309 308 308 308 307 308 307 306 305 305 303 302 301 301 300 300 299 299 298 298 298 297 296 297 297 297 296 297 297 296 295 295 294 292 293 294 292 293 296 296 295 297 298 297 298 299 298
317 315 314 313 312 311 311 309 308 307 307 306 305 305 306 307 307 308 307 307 307 307 307 305 304 303 302 301 300 299 299 299 299 298 298 298 297 297 298 296 296 296 296 297 296 296 295 294 293 292 291 292 293 292 295 294 295 294 295 297 298 299 298
316 314 313 313 312 311 310 308 308 307 306 305 305 306 307 306 306 306 306 305 305 305 305 305 304 303 302 301 300 300 299 298 298 298 297 297 297 296 297 297 296 296 296 296 296 296 296 295 294 293 292 290 291 293 291 293 293 293 293 296 297 298 298
316 314 313 313 312 311 309 308 307 306 306 305 305 305 305 305 304 304 305 304 304 304 304 303 302 301 300 299 299 298 298 299 297 297 297 297 296 296 296 296 295 295 296 296 296 296 296 296 295 295 294 292 289 288 290 290 291 291 294 293 296 298 297
314 312 312 311 310 310 309 308 306 306 306 305 304 305 303 303 303 303 303 303 303 303 303 302 301 300 300 299 298 297 297 298 298 296 297 296 296 296 296 295 295 295 295 296 296 296 296 296 296 296 295 293 292 289 287 287 289 290 293 294 292 295 298
313 312 312 311 310 309 308 307 306 305 304 304 304 304 303 303 304 305 302 302 302 302 302 301 301 300 299 298 298 298 297 298 297 298 298 296 296 296 296 295 295 294 295 295 295 296 296 296 296 296 296 296 295 291 290 288 289 292 292 295 295 294 297
313 312 312 311 310 307 306 305 304 303 304 304 303 301 301 301 301 301 301 301 301 301 301 300 300 299 299 298 298 297 297 297 296 296 297 297 296 296 294 294 294 294 295 295 295 295 296 296 295 296 296 296 295 294 292 291 288 292 294 292 295 297 296
313 312 312 310 307 305 304 303 302 302 302 302 301 301 300 300 300 300 300 300 300 300 300 300 299 299 298 297 297 297 297 296 296 295 295 296 295 295 294 293 294 294 294 294 294 295 295 295 296 295 295 295 295 295 294 292 290 290 295 294 295 296 297
312 312 310 307 305 304 303 303 302 302 301 300 300 299 299 299 299 300 300 301 300 299 299 299 299 299 298 297 297 297 297 296 295 295 296 295 295 294 294 293 293 294 294 294 294 294 294 294 295 295 295 295 294 295 294 292 290 291 294 296 295 295 297
311 309 306 304 303 302 301 301 301 300 299 298 299 298 298 298 298 298 298 298 299 299 299 298 298 298 297 297 297 297 296 296 295 294 294 294 294 294 294 293 293 294 294 293 293 293 293 293 293 294 294 294 294 294 295 293 292 291 290 294 294 296 296
308 305 304 303 301 301 300 300 300 298 297 297 298 297 297 297 297 298 297 298 298 298 298 298 298 297 297 296 296 296 296 295 295 294 294 293 293 294 294 294 293 294 294 293 293 293 293 293 293 293 293 294 293 294 294 294 292 290 290 291 294 293 294
305 304 302 301 300 299 299 299 299 297 296 296 296 297 296 297 297 297 297 297 297 297 298 298 297 297 297 296 296 296 295 295 295 294 294 293 293 294 293 294 293 294 294 293 293 293 293 293 293 293 293 293 293 293 294 294 294 292 291 290 292 292 294
303 302 300 300 299 298 298 297 297 295 295 295 295 296 297 296 296 296 296 296 296 297 297 297 297 297 297 296 296 296 295 295 295 295 295 297 298 295 295 294 294 294 294 294 294 294 293 293 292 293 292 293 293 293 293 293 293 293 292 290 291 293 294
301 300 299 298 297 297 297 296 295 296 295 294 294 295 295 296 296 295 295 295 296 296 297 297 297 296 296 296 296 296 296 296 296 295 295 295 295 296 295 295 295 295 295 294 295 295 294 293 293 293 292 293 292 292 292 292 293 293 292 291 291 291 293
299 298 297 296 296 295 295 295 295 294 295 294 294 294 294 294 295 294 294 295 295 296 296 296 296 296 295 295 295 295 295 295 295 295 295 295 295 295 295 295 296 295 296 296 296 295 294 294 293 293 294 292 292 292 292 292 292 292 291 291 291 292 291
298 297 297 296 295 295 294 294 294 295 295 293 293 293 293 294 295 294 294 294 295 296 295 295 295 295 295 295 295 295 295 295 295 294 295 294 295 295 295 295 295 296 298 298 299 297 295 294 294 293 293 293 293 292 292 292 291 291 290 290 290 290 291
298 298 296 295 295 294 294 294 294 294 294 294 294 293 293 293 293 293 293 294 294 295 295 295 295 294 294 294 295 295 295 295 295 294 294 294 294 294 294 294 295 299 300 300 299 299 297 296 295 293 293 293 294 292 291 291 291 290 290 290 290 291 290
297 296 295 295 294 294 294 294 293 292 292 292 292 293 292 293 293 293 293 293 294 294 295 296 298 297 297 296 294 294 294 294 294 295 295 294 293 294 293 293 297 300 299 298 298 297 294 294 295 295 294 294 293 292 292 291 290 290 290 289 289 289 288
297 296 295 295 294 294 293 293 292 291 291 291 292 293 292 291 292 292 293 293 293 293 294 296 296 294 294 296 295 295 295 295 294 294 294 293 294 295 293 293 293 297 297 296 298 295 293 293 293 293 293 294 294 294 292 291 290 291 290 289 290 289 289
296 296 295 294 294 293 292 292 291 291 291 291 292 291 291 291 291 291 292 292 292 293 294 296 293 294 294 294 297 296 295 295 294 294 293 293 294 294 294 294 294 295 295 298 297 294 294 293 292 292 292 292 292 292 292 292 291 290 290 289 289 289 289
297 296 295 294 293 292 292 292 291 290 290 291 290 290 289 290 290 291 292 292 292 293 293 294 293 294 294 294 294 295 295 294 295 294 293 293 292 292 292 293 294 294 294 297 295 293 293 292 293 293 293 293 292 293 290 290 291 293 293 291 289 289 289
297 296 295 294 293 292 292 291 290 291 291 290 289 289 289 289 290 290 291 291 291 291 292 294 292 293 293 293 293 294 295 294 294 293 293 292 293 293 292 293 292 293 294 294 293 294 292 291 291 291 291 291 291 292 291 291 291 291 292 292 291 289 291
297 296 294 293 292 291 291 291 291 290 289 289 289 289 289 289 290 291 290 290 291 291 292 292 291 292 292 292 292 293 294 294 293 293 292 292 292 293 292 292 292 293 293 292 294 294 292 291 291 290 291 291 291 291 291 292 292 293 293 293 292 291 292
297 295 294 292 292 291 290 290 290 290 290 289 289 289 289 290 289 289 289 290 290 289 290 291 291 291 292 292 293 295 294 293 293 293 293 292 292 292 292 292 293 293 293 291 293 291 291 293 291 290 290 290 290 290 291 293 292 292 293 293 293 293 293
296 295 293 292 291 291 290 290 290 291 289 289 288 288 288 289 289 288 289 289 289 288 290 291 291 291 291 291 292 292 293 293 292 292 291 291 291 291 292 294 295 294 292 291 292 290 290 292 290 290 289 289 289 289 290 291 291 291 291 291 290 290 290
297 295 294 292 292 291 291 291 291 292 289 289 288 288 288 288 288 289 288 287 288 288 288 291 291 291 291 291 293 292 292 291 290 291 290 290 290 291 291 296 297 294 291 292 291 289 289 293 290 290 289 288 288 288 289 290 290 291 291 291 290 290 290
297 296 294 294 293 291 291 291 292 291 290 289 289 289 291 288 287 287 287 289 295 289 289 292 291 290 290 291 292 290 291 290 290 288 288 290 291 290 290 291 293 293 293 292 289 289 289 292 290 290 289 288 288 288 289 289 289 290 290 290 290 291 291
297 296 295 294 294 292 293 292 291 291 290 290 290 290 290 288 287 288 290 290 291 288 288 289 292 290 291 290 290 290 290 291 291 289 288 294 291 290 289 290 292 290 289 289 289 289 289 289 291 290 289 288 288 288 290 289 290 290 289 289 289 290 290
297 297 296 295 294 294 293 292 291 291 291 290 290 289 288 288 288 288 288 287 287 288 289 288 291 290 291 291 291 290 289 289 289 288 287 290 287 288 289 290 289 291 289 289 289 289 289 289 290 292 289 289 289 290 290 289 289 290 288 289 289 289 290
298 297 297 296 294 293 293 293 292 292 291 291 290 289 289 289 288 288 288 288 288 287 292 293 289 290 290 290 290 290 290 291 289 289 289 288 287 288 288 289 290 291 289 289 289 289 289 289 289 291 290 288 288 288 289 290 289 289 288 288 288 288 288
297 297 296 296 295 293 293 293 292 292 291 291 290 289 289 288 288 288 288 288 287 287 288 291 292 291 290 290 290 290 290 289 289 294 289 291 289 289 288 289 289 291 289 289 289 289 289 289 290 290 288 288 288 287 289 288 288 287 287 287 287 287 287
297 297 296 296 295 293 292 292 292 292 291 291 290 289 288 288 288 288 288 288 289 288 287 287 291 291 291 289 290 289 289 289 290 291 291 289 288 288 288 288 290 289 289 289 289 288 288 289 289 288 288 288 288 288 288 287 287 287 287 286 286 286 286